# Wetter Temperatur Luftdruck Luftfeuchtigkeit Sichtweite Windgeschwindigkeit Windrichtung Zeit
1 Clouds 5 995 86 8000 9.3 260 09:40 29.01.2020
2 Clouds 5 995 86 8000 9.3 260 09:22 29.01.2020
3 Clouds 5 995 86 8000 9.3 260 08:58 29.01.2020
4 Rain 4 995 93 3700 5.1 300 08:39 29.01.2020
5 Rain 4 995 93 3700 5.1 300 08:20 29.01.2020
6 Rain 4 995 93 4500 7.7 280 07:45 29.01.2020
7 Rain 3 995 93 7000 5.7 260 07:25 29.01.2020
8 Rain 4 995 93 4500 9.8 300 06:55 29.01.2020
9 Rain 5 994 93 5000 5.7 240 06:37 29.01.2020
10 Rain 5 994 93 5000 5.7 240 06:18 29.01.2020
11 Rain 4 994 93 5000 5.7 240 05:45 29.01.2020
12 Clouds 4 993 93 10000 6.2 240 05:26 29.01.2020
13 Clouds 4 993 93 10000 5.7 240 04:38 29.01.2020
14 Clouds 4 993 93 10000 5.7 240 03:50 29.01.2020
15 Drizzle 4 993 86 10000 7.7 260 02:33 29.01.2020
16 Rain 3 993 86 10000 5.7 250 00:44 29.01.2020
17 Clouds 4 992 86 10000 7.7 260 00:25 29.01.2020
18 Clouds 4 992 86 10000 7.7 260 23:58 28.01.2020
19 Clouds 4 992 80 10000 9.3 260 23:37 28.01.2020
20 Clouds 4 992 80 10000 9.3 260 23:19 28.01.2020
21 Clouds 4 992 80 10000 9.3 260 22:44 28.01.2020
22 Clouds 4 992 86 8000 7.2 270 22:26 28.01.2020
23 Clouds 4 992 86 8000 7.2 270 21:54 28.01.2020
24 Clouds 5 990 75 10000 11.8 280 21:36 28.01.2020
25 Clouds 5 990 75 10000 11.8 280 21:18 28.01.2020
26 Clouds 5 990 75 10000 11.8 280 21:18 28.01.2020
27 Clouds 5 990 75 10000 11.8 280 21:18 28.01.2020
28 Clouds 5 990 75 10000 11.8 280 20:45 28.01.2020
29 Clouds 5 990 80 10000 11.3 270 20:25 28.01.2020
30 Rain 5 989 86 10000 11.3 300 19:55 28.01.2020
31 Rain 4 989 86 8000 13.9 290 19:37 28.01.2020
32 Rain 4 989 86 8000 13.9 290 19:18 28.01.2020
33 Rain 4 989 86 8000 13.9 290 19:18 28.01.2020
34 Rain 3 988 93 7000 13.9 290 18:41 28.01.2020
35 Rain 3 987 93 7000 13.9 290 18:23 28.01.2020
36 Rain 3 987 93 5000 10.3 270 17:59 28.01.2020
37 Snow 1 987 84 2000 8.2 260 17:39 28.01.2020
38 Snow 1 987 95 2000 8.2 260 17:21 28.01.2020
39 Snow 1 987 95 1300 6.7 250 16:58 28.01.2020
40 Drizzle 2 986 93 7000 7.7 250 16:40 28.01.2020
41 Drizzle 2 986 93 7000 7.7 250 16:21 28.01.2020
42 Drizzle 3 986 93 3200 5.7 240 15:47 28.01.2020
43 Rain 5 985 86 10000 7.2 240 15:19 28.01.2020
44 Rain 5 985 86 10000 7.2 240 14:58 28.01.2020
45 Drizzle 5 985 93 4500 3.6 270 14:39 28.01.2020
46 Drizzle 5 985 93 4500 3.6 270 14:18 28.01.2020
47 Drizzle 6 985 87 2500 2.1 250 13:41 28.01.2020
48 Drizzle 6 985 93 6000 3.6 220 13:23 28.01.2020
49 Drizzle 5 985 93 4500 3.1 220 12:44 28.01.2020
50 Drizzle 6 985 87 6000 4.6 200 12:24 28.01.2020
51 Clouds 6 986 87 10000 4.6 210 11:58 28.01.2020
52 Clouds 6 986 87 10000 4.6 210 11:40 28.01.2020
53 Clouds 6 986 81 10000 4.6 220 11:21 28.01.2020
54 Clouds 6 986 81 10000 4.6 220 10:43 28.01.2020
55 Clouds 6 986 87 10000 4.1 220 10:24 28.01.2020
56 Clouds 6 986 87 10000 3.6 210 09:58 28.01.2020
57 Clouds 6 987 87 10000 6.2 220 09:38 28.01.2020
58 Clouds 6 987 87 10000 6.2 220 09:19 28.01.2020
59 Clouds 6 987 87 10000 6.2 220 08:44 28.01.2020
60 Drizzle 5 987 93 9000 6.2 220 08:25 28.01.2020
61 Drizzle 5 987 93 9000 6.2 220 07:44 28.01.2020
62 Clouds 6 988 87 10000 5.1 220 07:26 28.01.2020
63 Clouds 6 988 87 10000 5.1 220 06:47 28.01.2020
64 Clouds 6 988 93 10000 7.7 220 06:24 28.01.2020
65 Drizzle 5 988 93 6000 7.2 170 05:37 28.01.2020
66 Drizzle 5 988 93 6000 7.2 170 05:19 28.01.2020
67 Rain 5 989 93 6000 5.1 160 03:47 28.01.2020
68 Rain 6 991 87 9000 4.6 160 02:44 28.01.2020
69 Rain 6 993 87 8000 4.1 150 02:25 28.01.2020
70 Rain 6 993 87 8000 4.1 150 01:53 28.01.2020
71 Clouds 6 995 93 7000 3.6 170 01:20 28.01.2020
72 Clouds 6 995 93 7000 3.6 170 00:43 28.01.2020
73 Clouds 7 996 87 6000 3.6 180 00:19 28.01.2020
74 Clouds 7 996 87 6000 3.6 180 23:43 27.01.2020
75 Clouds 7 997 87 6000 3.6 180 23:19 27.01.2020
76 Clouds 7 997 87 6000 3.6 180 22:45 27.01.2020
77 Clouds 7 998 87 7000 3.1 180 22:20 27.01.2020
78 Clouds 7 998 87 7000 3.1 180 22:20 27.01.2020
79 Clouds 7 998 87 7000 3.1 180 22:20 27.01.2020
80 Clouds 7 998 87 7000 3.1 180 22:20 27.01.2020
81 Clouds 7 998 87 7000 3.1 180 21:57 27.01.2020
82 Clouds 7 998 87 7000 3.1 180 21:57 27.01.2020
83 Clouds 7 999 93 6000 3.1 190 21:39 27.01.2020
84 Clouds 7 999 93 6000 3.1 190 21:19 27.01.2020
85 Clouds 7 999 93 8000 3.1 180 20:56 27.01.2020
86 Clouds 7 1000 93 9000 2.6 200 20:37 27.01.2020
87 Clouds 7 1000 93 9000 2.6 200 20:19 27.01.2020
88 Clouds 7 1000 93 9000 2.6 200 19:55 27.01.2020
89 Clouds 8 1001 87 9000 3.6 190 19:37 27.01.2020
90 Clouds 8 1001 87 9000 3.6 190 19:19 27.01.2020
91 Clouds 8 1002 87 7000 3.6 200 18:39 27.01.2020
92 Clouds 8 1002 87 7000 3.6 200 18:21 27.01.2020
93 Clouds 8 1002 87 7000 3.6 200 17:57 27.01.2020
94 Clouds 8 1002 87 6000 3.6 200 17:38 27.01.2020
95 Clouds 8 1002 87 6000 3.6 200 17:19 27.01.2020
96 Clouds 8 1002 87 6000 3.6 200 16:56 27.01.2020
97 Clouds 8 1003 87 10000 4.1 210 16:37 27.01.2020
98 Clouds 8 1003 87 10000 4.1 210 16:19 27.01.2020
99 Clouds 8 1003 87 10000 4.1 210 15:41 27.01.2020
100 Clouds 8 1003 87 10000 4.6 220 15:20 27.01.2020
101 Clouds 8 1003 93 8000 4.6 210 14:57 27.01.2020
102 Drizzle 8 1003 93 5000 4.6 210 14:39 27.01.2020
103 Drizzle 8 1003 93 5000 4.6 210 14:20 27.01.2020
104 Drizzle 8 1004 87 4000 4.6 210 13:42 27.01.2020
105 Clouds 8 1004 87 9000 4.6 210 13:22 27.01.2020
106 Clouds 8 1004 87 9000 4.6 210 12:58 27.01.2020
107 Clouds 8 1005 87 9000 5.1 210 12:39 27.01.2020
108 Clouds 8 1005 87 9000 5.1 210 12:21 27.01.2020
109 Clouds 7 1005 93 9000 5.1 210 11:43 27.01.2020
110 Clouds 7 1005 93 7000 5.1 220 11:22 27.01.2020
111 Clouds 7 1005 93 7000 5.1 220 10:56 27.01.2020
112 Clouds 7 1005 93 7000 6.2 220 10:38 27.01.2020
113 Clouds 7 1005 93 7000 6.2 220 10:20 27.01.2020
114 Drizzle 6 1005 93 5000 5.1 220 09:39 27.01.2020
115 Drizzle 6 1005 93 5000 5.1 220 09:19 27.01.2020
116 Drizzle 6 1005 93 5000 5.1 220 08:55 27.01.2020
117 Drizzle 6 1005 93 4500 5.7 210 08:37 27.01.2020
118 Drizzle 6 1005 93 4500 5.7 210 08:18 27.01.2020
119 Drizzle 6 1005 93 5000 5.1 210 07:45 27.01.2020
120 Drizzle 6 1006 93 6000 5.7 210 07:25 27.01.2020
121 Rain 5 1006 93 4000 4.6 190 06:38 27.01.2020
122 Rain 5 1006 93 4000 4.6 190 05:43 27.01.2020
123 Clouds 5 1008 86 9000 5.1 190 04:37 27.01.2020
124 Clouds 5 1009 86 9000 4.6 190 03:35 27.01.2020
125 Clouds 5 1009 86 10000 4.1 190 01:55 27.01.2020
126 Clouds 4 1010 93 10000 4.1 180 01:27 27.01.2020
127 Clouds 4 1010 93 10000 4.1 180 00:41 27.01.2020
128 Clouds 4 1010 86 10000 3.6 180 00:21 27.01.2020
129 Clouds 4 1010 86 10000 3.6 180 23:43 26.01.2020
130 Clouds 4 1011 86 9000 3.1 170 23:22 26.01.2020
131 Clouds 4 1011 86 9000 3.1 170 22:58 26.01.2020
132 Clouds 4 1012 86 9000 3.6 170 22:38 26.01.2020
133 Clouds 4 1012 86 9000 3.6 170 22:20 26.01.2020
134 Clouds 4 1012 86 9000 3.6 170 21:58 26.01.2020
135 Clouds 4 1012 86 8000 3.1 200 21:39 26.01.2020
136 Clouds 4 1012 86 8000 3.1 200 21:20 26.01.2020
137 Clouds 3 1012 93 8000 2.6 190 20:58 26.01.2020
138 Clouds 3 1012 93 8000 4.1 180 20:38 26.01.2020
139 Clouds 3 1012 93 8000 4.1 180 20:38 26.01.2020
140 Clouds 3 1012 93 8000 4.1 180 20:19 26.01.2020
141 Clouds 3 1012 93 8000 4.1 180 19:58 26.01.2020
142 Clouds 3 1013 93 8000 5.1 180 19:38 26.01.2020
143 Clouds 3 1013 93 8000 5.1 180 19:38 26.01.2020
144 Clouds 3 1013 93 8000 5.1 180 19:19 26.01.2020
145 Clouds 3 1013 93 8000 5.1 180 18:56 26.01.2020
146 Clouds 3 1013 93 6000 5.1 180 18:38 26.01.2020
147 Clouds 3 1013 93 6000 5.1 180 18:19 26.01.2020
148 Clouds 3 1013 93 6000 5.1 180 17:55 26.01.2020
149 Mist 3 1013 93 5000 4.6 170 17:36 26.01.2020
150 Mist 3 1013 93 5000 4.6 170 17:18 26.01.2020
151 Mist 3 1013 93 5000 4.6 170 16:55 26.01.2020
152 Mist 3 1013 93 5000 3.6 170 16:37 26.01.2020
153 Mist 3 1013 93 5000 3.6 170 16:18 26.01.2020
154 Clouds 6 1013 84 0 6.56 188 15:43 26.01.2020
155 Clouds 6 1013 84 0 6.56 188 15:21 26.01.2020
156 Clouds 6 1013 84 0 6.56 188 14:56 26.01.2020
157 Clouds 6 1013 84 0 6.56 188 14:38 26.01.2020
158 Clouds 5 1014 81 0 8.14 180 14:19 26.01.2020
159 Clouds 5 1014 81 0 8.14 180 13:39 26.01.2020
160 Clouds 5 1014 80 0 8.28 185 13:19 26.01.2020
161 Clouds 5 1014 80 0 8.28 185 12:56 26.01.2020
162 Clouds 5 1014 80 0 8.28 185 12:36 26.01.2020
163 Clouds 5 1014 80 0 8.28 185 12:18 26.01.2020
164 Clouds 5 1014 80 0 8.28 185 11:56 26.01.2020
165 Clouds 5 1014 80 0 8.28 185 11:36 26.01.2020
166 Clouds 4 1016 80 0 8.2 188 11:18 26.01.2020
167 Mist 0 1016 80 1400 4.6 190 10:39 26.01.2020
168 Mist 0 1016 80 1400 4.6 190 10:21 26.01.2020
169 Mist 0 1016 80 1400 4.6 190 09:59 26.01.2020
170 Mist 0 1016 80 2800 3.1 170 09:41 26.01.2020
171 Mist 0 1016 80 2800 3.1 170 09:23 26.01.2020
172 Mist 0 1016 80 3500 3.6 180 08:57 26.01.2020
173 Mist 0 1016 80 3500 3.6 180 08:57 26.01.2020
174 Clouds 1 1017 80 7000 3.6 190 08:39 26.01.2020
175 Clouds 1 1017 83 7000 3.6 190 08:20 26.01.2020
176 Clouds 1 1017 83 7000 3.6 190 07:47 26.01.2020
177 Clouds 1 1017 83 8000 3.6 200 07:25 26.01.2020
178 Clouds 1 1017 83 8000 3.1 200 06:38 26.01.2020
179 Clouds 1 1017 83 8000 3.1 200 06:18 26.01.2020
180 Clouds 1 1017 83 7000 3.6 200 05:26 26.01.2020
181 Clouds 1 1018 87 6000 3.6 210 03:23 26.01.2020
182 Clouds 1 1018 87 6000 3.6 210 02:24 26.01.2020
183 Clouds 1 1018 88 6000 3.6 210 01:40 26.01.2020
184 Clouds 2 1018 93 6000 2.6 210 01:21 26.01.2020
185 Clouds 2 1018 93 6000 2.6 210 00:41 26.01.2020
186 Clouds 2 1019 93 6000 3.6 210 00:20 26.01.2020
187 Clouds 3 1017 85 0 6.59 213 23:38 25.01.2020
188 Clouds 4 1019 85 0 7.27 211 23:20 25.01.2020
189 Clouds 4 1019 85 0 7.27 211 22:45 25.01.2020
190 Clouds 4 1019 85 0 7.27 211 22:21 25.01.2020
191 Clouds 4 1019 85 0 7.27 211 21:59 25.01.2020
192 Clouds 4 1019 85 0 7.27 211 21:41 25.01.2020
193 Clouds 4 1019 85 0 7.27 211 21:23 25.01.2020
194 Clouds 4 1019 85 0 7.27 211 20:56 25.01.2020
195 Clouds 4 1019 85 0 7.27 211 20:38 25.01.2020
196 Clouds 4 1019 89 0 6.63 217 20:19 25.01.2020
197 Clouds 4 1019 89 0 6.63 217 19:43 25.01.2020
198 Clouds 4 1018 86 0 6.58 216 19:20 25.01.2020
199 Clouds 4 1019 89 0 6.63 217 18:57 25.01.2020
200 Clouds 4 1019 89 0 6.63 217 18:38 25.01.2020
201 Clouds 4 1019 89 0 6.63 217 18:20 25.01.2020
202 Clouds 4 1018 86 0 6.58 216 17:40 25.01.2020
203 Clouds 4 1019 91 0 7.23 229 17:21 25.01.2020
204 Clouds 4 1019 91 0 7.23 229 16:58 25.01.2020
205 Clouds 5 1019 89 0 6.96 233 16:39 25.01.2020
206 Clouds 5 1019 89 0 6.96 233 16:19 25.01.2020
207 Clouds 5 1019 89 0 6.96 233 15:47 25.01.2020
208 Clouds 5 1019 89 0 6.96 233 15:25 25.01.2020
209 Clouds 5 1019 89 0 6.96 233 14:59 25.01.2020
210 Clouds 5 1019 89 0 6.96 233 14:41 25.01.2020
211 Clouds 5 1020 92 0 8.17 231 14:18 25.01.2020
212 Clouds 5 1020 92 0 8.17 231 13:43 25.01.2020
213 Rain 5 1020 91 0 8.25 232 13:24 25.01.2020
214 Drizzle 3 1021 93 2800 4.1 230 12:46 25.01.2020
215 Drizzle 3 1021 93 2800 4.1 230 12:26 25.01.2020
216 Drizzle 3 1021 93 2800 4.1 230 11:46 25.01.2020
217 Drizzle 3 1020 93 2800 4.6 230 11:22 25.01.2020
218 Drizzle 3 1020 93 2800 4.6 230 11:00 25.01.2020
219 Drizzle 3 1020 93 2800 4.6 230 10:40 25.01.2020
220 Drizzle 3 1020 93 2500 3.6 230 10:21 25.01.2020
221 Drizzle 3 1020 93 2500 3.6 230 09:57 25.01.2020
222 Drizzle 3 1020 93 2800 4.1 230 09:37 25.01.2020
223 Drizzle 3 1020 93 2800 4.1 230 09:18 25.01.2020
224 Drizzle 3 1020 93 2800 4.1 230 08:42 25.01.2020
225 Drizzle 3 1019 93 2800 4.1 230 07:53 25.01.2020
226 Drizzle 3 1019 93 2800 4.1 230 07:53 25.01.2020
227 Drizzle 3 1019 93 2800 4.1 230 06:58 25.01.2020
228 Drizzle 3 1019 93 3000 4.1 230 06:31 25.01.2020
229 Drizzle 3 1019 93 3000 4.1 230 05:50 25.01.2020
230 Drizzle 3 1019 93 3500 3.1 240 05:30 25.01.2020
231 Drizzle 3 1019 93 3500 3.6 240 03:55 25.01.2020
232 Drizzle 3 1020 93 3500 4.1 240 03:34 25.01.2020
233 Drizzle 3 1020 93 4000 4.1 240 02:35 25.01.2020
234 Drizzle 3 1020 93 4000 4.1 240 01:54 25.01.2020
235 Drizzle 3 1020 93 4500 3.6 240 00:59 25.01.2020
236 Drizzle 3 1020 93 4000 4.6 240 00:37 25.01.2020
237 Drizzle 3 1020 93 4000 4.6 240 00:18 25.01.2020
238 Drizzle 3 1020 93 4000 4.6 240 00:18 25.01.2020
239 Drizzle 3 1020 93 4000 4.6 240 23:41 24.01.2020
240 Drizzle 3 1020 93 4000 4.6 240 23:41 24.01.2020
241 Drizzle 3 1020 93 3000 4.1 240 23:23 24.01.2020
242 Drizzle 3 1020 93 3000 4.1 240 22:46 24.01.2020
243 Drizzle 3 1020 93 2500 4.6 230 22:27 24.01.2020
244 Drizzle 3 1020 93 2500 4.6 230 21:58 24.01.2020
245 Drizzle 3 1020 93 2800 4.1 250 21:40 24.01.2020
246 Drizzle 3 1020 93 2800 4.1 250 21:18 24.01.2020
247 Drizzle 3 1020 93 2800 4.1 250 20:43 24.01.2020
248 Drizzle 3 1020 93 2500 4.1 240 20:22 24.01.2020
249 Drizzle 3 1020 93 2500 4.1 240 19:58 24.01.2020
250 Drizzle 3 1020 93 2500 3.6 240 19:40 24.01.2020
251 Drizzle 3 1020 93 2500 3.6 240 19:22 24.01.2020
252 Drizzle 3 1020 93 2500 3.6 240 18:54 24.01.2020
253 Drizzle 3 1020 93 2200 3.6 240 18:36 24.01.2020
254 Drizzle 3 1020 93 2200 3.6 240 18:18 24.01.2020
255 Drizzle 3 1020 93 2200 3.6 240 17:42 24.01.2020
256 Drizzle 3 1020 93 1800 3.6 240 17:21 24.01.2020
257 Drizzle 3 1020 93 1800 4.1 240 16:43 24.01.2020
258 Drizzle 3 1020 93 2000 4.1 230 16:22 24.01.2020
259 Drizzle 3 1020 93 2000 4.1 230 16:22 24.01.2020
260 Drizzle 3 1020 93 2000 4.1 230 15:57 24.01.2020
261 Mist 3 1020 93 2400 3.6 250 15:39 24.01.2020
262 Mist 3 1020 93 2400 3.6 250 15:20 24.01.2020
263 Mist 3 1020 93 2400 3.6 250 14:41 24.01.2020
264 Mist 3 1020 100 2500 3.6 240 14:23 24.01.2020
265 Mist 3 1020 100 2500 3.6 240 14:23 24.01.2020
266 Mist 3 1020 100 2500 3.6 240 13:57 24.01.2020
267 Mist 3 1021 93 2800 3.6 240 13:39 24.01.2020
268 Mist 3 1021 93 2800 3.6 240 13:19 24.01.2020
269 Mist 2 1021 100 3000 4.1 230 12:41 24.01.2020
270 Mist 2 1021 100 3000 4.1 230 12:18 24.01.2020
271 Mist 2 1021 100 3000 3.6 230 11:43 24.01.2020
272 Mist 2 1021 100 3000 3.6 230 11:19 24.01.2020
273 Mist 2 1021 93 2000 4.1 220 10:43 24.01.2020
274 Mist 1 1022 100 1500 4.1 230 10:22 24.01.2020
275 Mist 1 1022 100 1500 4.1 230 09:57 24.01.2020
276 Drizzle 1 1022 100 1000 4.1 230 09:39 24.01.2020
277 Drizzle 1 1022 100 1000 4.1 230 09:21 24.01.2020
278 Drizzle 1 1022 100 1000 4.1 230 08:40 24.01.2020
279 Drizzle 1 1022 90 1500 4.1 220 08:19 24.01.2020
280 Drizzle 1 1022 90 1500 4.1 220 07:50 24.01.2020
281 Drizzle 1 1022 100 800 4.1 230 07:32 24.01.2020
282 Drizzle 1 1022 100 800 4.1 230 06:48 24.01.2020
283 Drizzle 1 1022 100 800 4.1 230 06:29 24.01.2020
284 Drizzle 1 1022 100 800 4.1 230 05:58 24.01.2020
285 Mist 2 1023 93 1800 4.1 220 04:57 24.01.2020
286 Mist 2 1024 93 3000 4.1 240 02:53 24.01.2020
287 Mist 2 1025 93 3000 3.6 230 02:25 24.01.2020
288 Mist 2 1025 93 3000 3.6 230 01:46 24.01.2020
289 Mist 2 1025 100 4000 3.1 230 01:28 24.01.2020
290 Mist 3 1026 93 2500 2.6 230 00:25 24.01.2020
291 Mist 3 1026 93 2500 2.6 230 23:49 23.01.2020
292 Mist 3 1026 93 2500 3.6 230 23:31 23.01.2020
293 Mist 3 1026 93 2500 3.6 230 22:59 23.01.2020
294 Mist 3 1026 93 3500 3.6 230 22:38 23.01.2020
295 Mist 3 1026 93 3500 3.6 230 22:38 23.01.2020
296 Mist 3 1026 93 3500 3.6 230 22:19 23.01.2020
297 Mist 3 1027 93 4000 4.1 260 21:58 23.01.2020
298 Mist 3 1027 93 5000 3.6 270 21:39 23.01.2020
299 Mist 3 1027 93 5000 3.6 270 21:20 23.01.2020
300 Clouds 3 1027 93 10000 4.1 260 20:59 23.01.2020
301 Clouds 3 1028 93 10000 3.6 260 20:39 23.01.2020
302 Clouds 3 1028 93 10000 3.6 260 20:20 23.01.2020
303 Clouds 3 1028 93 10000 3.6 260 19:56 23.01.2020
304 Clouds 4 1028 86 10000 3.1 260 19:38 23.01.2020
305 Clouds 4 1028 86 10000 3.1 260 19:19 23.01.2020
306 Clouds 4 1028 86 10000 3.1 260 18:56 23.01.2020
307 Clouds 4 1029 86 10000 4.6 260 18:37 23.01.2020
308 Clouds 4 1029 86 10000 4.6 260 18:19 23.01.2020
309 Clouds 4 1029 93 9000 4.1 260 17:43 23.01.2020
310 Clouds 4 1029 93 9000 4.1 260 17:20 23.01.2020
311 Clouds 4 1029 93 9000 4.1 260 16:58 23.01.2020
312 Clouds 4 1029 93 9000 2.6 240 16:37 23.01.2020
313 Clouds 4 1029 93 9000 2.6 240 16:18 23.01.2020
314 Clouds 4 1029 93 8000 3.1 260 15:57 23.01.2020
315 Clouds 5 1029 86 8000 4.6 260 15:37 23.01.2020
316 Clouds 5 1029 86 8000 4.6 260 15:18 23.01.2020
317 Clouds 5 1029 86 8000 4.6 260 15:18 23.01.2020
318 Clouds 5 1030 86 10000 5.1 260 14:56 23.01.2020
319 Clouds 5 1030 86 10000 5.1 260 14:56 23.01.2020
320 Clouds 5 1031 86 10000 2.6 240 14:38 23.01.2020
321 Clouds 5 1031 86 10000 2.6 240 14:20 23.01.2020
322 Clouds 5 1031 86 10000 2.6 240 13:44 23.01.2020
323 Clouds 6 1032 87 10000 2.1 250 13:21 23.01.2020
324 Clouds 6 1032 87 10000 2.1 250 12:55 23.01.2020
325 Clouds 5 1033 93 10000 2.6 240 12:36 23.01.2020
326 Clouds 5 1033 93 10000 2.6 240 12:18 23.01.2020
327 Clouds 5 1033 93 10000 2.6 240 11:43 23.01.2020
328 Clouds 4 1033 93 10000 2.6 230 11:24 23.01.2020
329 Clouds 4 1033 93 10000 2.6 230 10:58 23.01.2020
330 Clouds 4 1033 93 10000 2.6 260 10:40 23.01.2020
331 Clouds 4 1033 93 10000 2.6 260 10:18 23.01.2020
332 Clouds 4 1033 93 10000 2.6 260 09:41 23.01.2020
333 Clouds 4 1033 93 10000 2.1 250 09:22 23.01.2020
334 Clouds 4 1033 93 10000 2.1 250 08:56 23.01.2020
335 Clouds 4 1033 93 10000 2.6 250 08:38 23.01.2020
336 Clouds 4 1033 93 10000 2.6 250 08:19 23.01.2020
337 Clouds 4 1033 93 10000 1.5 240 07:39 23.01.2020
338 Clouds 4 1033 93 10000 1.5 240 07:18 23.01.2020
339 Clouds 4 1033 93 10000 1.5 240 06:44 23.01.2020
340 Clouds 4 1034 93 10000 2.1 230 06:18 23.01.2020
341 Fog 3 1034 93 900 2.6 220 04:25 23.01.2020
342 Fog 3 1035 93 800 2.6 230 03:36 23.01.2020
343 Fog 2 1035 100 400 2.1 230 01:55 23.01.2020
344 Fog 2 1035 100 500 1.5 230 00:46 23.01.2020
345 Fog 3 1035 100 50 1.5 280 00:24 23.01.2020
346 Fog 3 1035 100 50 1.5 280 23:46 22.01.2020
347 Fog 4 1035 93 10000 1 340 23:28 22.01.2020
348 Fog 4 1035 93 10000 1 340 22:55 22.01.2020
349 Fog 4 1035 93 10000 2.6 330 22:36 22.01.2020
350 Fog 4 1035 93 10000 2.6 330 22:18 22.01.2020
351 Fog 4 1035 93 10000 2.6 300 21:38 22.01.2020
352 Fog 4 1035 93 10000 2.6 300 21:20 22.01.2020
353 Fog 4 1035 93 10000 2.6 300 20:55 22.01.2020
354 Clouds 4 1035 93 10000 1 280 20:36 22.01.2020
355 Clouds 4 1035 93 10000 1 280 20:18 22.01.2020
356 Clouds 4 1035 93 10000 1 280 19:55 22.01.2020
357 Clouds 5 1034 93 10000 2.1 300 19:36 22.01.2020
358 Clouds 5 1034 93 10000 2.1 300 19:36 22.01.2020
359 Clouds 5 1034 93 10000 2.1 300 19:18 22.01.2020
360 Clouds 5 1034 93 10000 2.1 300 18:54 22.01.2020
361 Clouds 5 1034 93 10000 3.6 310 18:36 22.01.2020
362 Clouds 5 1034 93 10000 3.6 310 18:18 22.01.2020
363 Clouds 6 1033 87 10000 5.1 320 17:39 22.01.2020
364 Clouds 6 1033 87 10000 5.1 320 17:20 22.01.2020
365 Clouds 6 1033 87 10000 5.1 320 16:57 22.01.2020
366 Clouds 7 1033 81 10000 5.1 320 16:39 22.01.2020
367 Clouds 7 1033 81 10000 5.1 320 16:20 22.01.2020
368 Clouds 7 1033 81 10000 5.1 320 15:55 22.01.2020
369 Clouds 7 1033 87 10000 5.1 310 15:37 22.01.2020
370 Clouds 7 1033 87 10000 5.1 310 15:18 22.01.2020
371 Clouds 7 1033 87 10000 4.6 320 14:39 22.01.2020
372 Clouds 7 1033 87 10000 4.6 320 14:20 22.01.2020
373 Clouds 7 1033 87 10000 4.6 320 13:58 22.01.2020
374 Clouds 7 1034 87 10000 5.7 310 13:37 22.01.2020
375 Clouds 7 1034 87 10000 5.7 310 13:19 22.01.2020
376 Clouds 7 1034 87 10000 5.7 310 12:57 22.01.2020
377 Clouds 7 1033 87 10000 4.6 310 12:39 22.01.2020
378 Clouds 7 1033 87 10000 4.6 310 12:19 22.01.2020
379 Clouds 7 1033 87 10000 4.6 310 11:57 22.01.2020
380 Clouds 6 1033 93 10000 5.1 310 11:39 22.01.2020
381 Clouds 6 1033 93 10000 5.1 310 11:19 22.01.2020
382 Clouds 6 1033 93 10000 5.1 310 10:46 22.01.2020
383 Clouds 6 1033 93 10000 3.6 310 10:21 22.01.2020
384 Clouds 6 1033 93 10000 3.6 310 09:59 22.01.2020
385 Clouds 6 1033 93 10000 3.6 310 09:40 22.01.2020
386 Drizzle 6 1033 93 10000 5.7 310 09:22 22.01.2020
387 Drizzle 6 1033 93 3000 6.2 320 08:56 22.01.2020
388 Clouds 6 1032 93 8000 6.2 310 08:37 22.01.2020
389 Clouds 6 1032 93 8000 6.2 310 08:19 22.01.2020
390 Drizzle 6 1032 93 2200 6.7 310 07:44 22.01.2020
391 Drizzle 6 1032 93 3000 6.2 310 07:26 22.01.2020
392 Drizzle 5 1032 93 1600 5.7 260 06:37 22.01.2020
393 Drizzle 5 1032 93 1600 5.7 260 06:18 22.01.2020
394 Drizzle 5 1033 93 2500 7.2 270 04:27 22.01.2020
395 Drizzle 5 1033 93 2500 6.7 260 03:27 22.01.2020
396 Clouds 5 1033 86 8000 7.2 260 02:48 22.01.2020
397 Clouds 6 1035 86 10000 4.6 250 01:30 22.01.2020
398 Clouds 5 1035 86 10000 4.6 250 00:40 22.01.2020
399 Clouds 5 1035 86 10000 5.7 260 00:19 22.01.2020
400 Clouds 6 1035 86 10000 6.2 260 23:37 21.01.2020
401 Clouds 6 1035 86 10000 6.2 260 23:19 21.01.2020
402 Clouds 6 1036 86 10000 5.7 260 22:42 21.01.2020
403 Clouds 6 1036 86 10000 5.7 260 22:23 21.01.2020
404 Clouds 6 1036 86 10000 5.7 260 21:58 21.01.2020
405 Clouds 6 1036 81 10000 5.7 280 21:39 21.01.2020
406 Clouds 6 1036 81 10000 5.7 280 21:21 21.01.2020
407 Clouds 6 1036 81 10000 5.7 280 20:57 21.01.2020
408 Clouds 5 1036 86 10000 6.2 290 20:39 21.01.2020
409 Clouds 5 1036 86 10000 6.2 290 20:20 21.01.2020
410 Clouds 5 1036 86 10000 6.2 290 19:58 21.01.2020
411 Mist 5 1036 86 5000 5.7 260 19:39 21.01.2020
412 Mist 5 1036 86 5000 5.7 260 19:39 21.01.2020
413 Mist 5 1036 86 5000 5.7 260 19:21 21.01.2020
414 Mist 5 1036 86 5000 5.7 260 18:57 21.01.2020
415 Mist 4 1037 93 4000 4.6 260 18:38 21.01.2020
416 Mist 4 1037 93 4000 4.6 260 18:20 21.01.2020
417 Mist 4 1037 93 4000 4.6 260 17:56 21.01.2020
418 Mist 4 1037 93 2000 5.1 240 17:37 21.01.2020
419 Mist 4 1037 93 2000 5.1 240 17:18 21.01.2020
420 Mist 4 1037 93 2500 4.6 240 16:37 21.01.2020
421 Mist 4 1037 93 2500 4.6 240 16:19 21.01.2020
422 Mist 4 1037 93 2500 5.1 240 15:58 21.01.2020
423 Mist 5 1038 86 2800 4.6 240 15:38 21.01.2020
424 Mist 5 1038 86 2800 4.6 240 15:19 21.01.2020
425 Mist 5 1038 86 4000 6.7 260 14:39 21.01.2020
426 Mist 5 1038 86 4000 6.7 260 14:39 21.01.2020
427 Mist 5 1038 86 4000 6.7 260 14:21 21.01.2020
428 Mist 4 1038 93 5000 5.1 250 13:43 21.01.2020
429 Mist 4 1039 86 5000 5.7 260 13:20 21.01.2020
430 Mist 4 1039 86 5000 5.7 260 12:59 21.01.2020
431 Mist 4 1039 86 5000 5.7 260 12:41 21.01.2020
432 Clouds 4 1040 86 6000 7.2 260 12:23 21.01.2020
433 Clouds 4 1040 86 6000 7.2 260 11:56 21.01.2020
434 Mist 3 1040 93 5000 6.7 260 11:37 21.01.2020
435 Mist 3 1040 93 5000 6.7 260 11:18 21.01.2020
436 Mist 4 1039 93 3000 6.7 250 10:42 21.01.2020
437 Mist 4 1039 93 3000 6.7 250 10:22 21.01.2020
438 Mist 4 1039 93 3000 6.7 250 10:22 21.01.2020
439 Mist 3 1039 100 2000 5.7 250 09:55 21.01.2020
440 Mist 4 1039 93 1500 5.7 250 09:37 21.01.2020
441 Mist 4 1039 93 1500 5.7 250 09:18 21.01.2020
442 Mist 4 1039 93 1500 5.7 250 08:41 21.01.2020
443 Mist 3 1039 100 1500 5.1 250 08:21 21.01.2020
444 Mist 3 1039 100 2500 4.6 250 07:43 21.01.2020
445 Mist 3 1040 93 3500 4.6 250 07:23 21.01.2020
446 Mist 3 1040 93 3500 4.6 250 06:57 21.01.2020
447 Mist 3 1039 93 3500 4.6 250 06:38 21.01.2020
448 Mist 2 1039 100 4500 4.6 250 05:53 21.01.2020
449 Mist 2 1040 93 5000 4.1 230 04:41 21.01.2020
450 Clouds 3 1040 93 7000 4.1 250 04:19 21.01.2020
451 Clouds 4 1041 93 6000 4.1 240 02:27 21.01.2020
452 Clouds 4 1042 93 6000 4.1 250 01:36 21.01.2020
453 Clouds 4 1042 93 6000 4.1 250 00:41 21.01.2020
454 Clouds 4 1042 93 6000 4.1 240 00:22 21.01.2020
455 Clouds 4 1042 93 6000 4.1 240 23:41 20.01.2020
456 Clouds 5 1042 93 6000 3.6 240 23:19 20.01.2020
457 Clouds 5 1042 93 6000 3.6 240 23:00 20.01.2020
458 Mist 5 1043 93 5000 4.6 250 22:39 20.01.2020
459 Mist 5 1043 93 5000 4.6 250 22:21 20.01.2020
460 Mist 5 1043 93 5000 4.6 250 21:58 20.01.2020
461 Mist 5 1043 93 5000 4.6 250 21:58 20.01.2020
462 Clouds 4 1043 93 6000 4.6 230 21:38 20.01.2020
463 Clouds 4 1043 93 6000 4.6 230 21:20 20.01.2020
464 Clouds 4 1043 93 6000 4.6 230 20:58 20.01.2020
465 Clouds 4 1043 93 10000 4.1 230 20:39 20.01.2020
466 Clouds 4 1043 93 10000 4.1 230 20:20 20.01.2020
467 Clouds 4 1043 93 10000 4.1 230 19:58 20.01.2020
468 Clouds 4 1043 93 10000 4.1 230 19:40 20.01.2020
469 Clouds 4 1043 93 10000 3.1 220 19:19 20.01.2020
470 Clouds 4 1043 93 10000 3.1 220 18:54 20.01.2020
471 Clouds 5 1043 86 10000 3.6 240 18:36 20.01.2020
472 Clouds 5 1043 86 10000 3.6 240 18:18 20.01.2020
473 Clouds 5 1044 86 10000 3.6 230 17:38 20.01.2020
474 Clouds 5 1044 86 10000 3.6 230 17:19 20.01.2020
475 Clouds 5 1044 86 10000 3.6 230 16:46 20.01.2020
476 Clouds 6 1044 87 10000 3.6 230 16:26 20.01.2020
477 Clouds 6 1044 87 10000 3.6 230 15:59 20.01.2020
478 Clouds 6 1044 87 10000 4.1 240 15:40 20.01.2020
479 Clouds 6 1044 87 10000 4.1 240 15:22 20.01.2020
480 Clouds 6 1044 87 10000 4.1 240 14:56 20.01.2020
481 Clouds 5 1045 93 10000 4.6 230 14:37 20.01.2020
482 Clouds 5 1045 93 10000 4.6 230 14:19 20.01.2020
483 Clouds 5 1045 93 10000 3.6 240 13:42 20.01.2020
484 Clouds 5 1045 93 10000 3.6 240 13:24 20.01.2020
485 Clouds 5 1045 93 10000 3.6 240 12:58 20.01.2020
486 Clouds 5 1045 93 10000 4.1 230 12:40 20.01.2020
487 Clouds 5 1045 93 10000 4.1 230 12:21 20.01.2020
488 Clouds 5 1045 93 10000 4.1 230 11:54 20.01.2020
489 Clouds 5 1045 93 10000 4.1 260 11:36 20.01.2020
490 Clouds 5 1045 93 10000 4.1 260 11:18 20.01.2020
491 Clouds 5 1045 93 10000 4.1 260 10:41 20.01.2020
492 Clouds 5 1045 86 10000 3.6 260 10:20 20.01.2020
493 Clouds 5 1045 86 10000 3.6 260 09:41 20.01.2020
494 Clouds 5 1045 86 10000 3.1 250 09:23 20.01.2020
495 Clouds 5 1045 86 10000 3.1 250 08:55 20.01.2020
496 Clouds 5 1045 93 10000 2.1 270 08:31 20.01.2020
497 Clouds 5 1045 93 10000 2.1 270 07:55 20.01.2020
498 Clouds 4 1044 93 9000 1.5 240 07:37 20.01.2020
499 Clouds 4 1044 93 9000 1.5 240 07:19 20.01.2020
500 Clouds 4 1044 93 9000 1.5 240 06:40 20.01.2020
501 Fog 4 1044 93 6000 2.1 250 06:20 20.01.2020
502 Fog 4 1044 100 6000 2.6 260 05:38 20.01.2020
503 Fog 4 1044 100 6000 2.6 260 05:19 20.01.2020
504 Fog 4 1044 93 6000 2.6 260 03:55 20.01.2020
505 Fog 5 1044 93 10000 2.6 280 01:58 20.01.2020
506 Clouds 4 1044 100 10000 2.1 310 01:39 20.01.2020
507 Clouds 4 1044 100 10000 2.1 310 00:56 20.01.2020
508 Clouds 4 1044 100 10000 1.5 310 00:38 20.01.2020
509 Clouds 4 1044 100 10000 1.5 310 00:20 20.01.2020
510 Clouds 6 1043 93 10000 2.1 290 23:38 19.01.2020
511 Clouds 6 1043 93 10000 2.1 290 23:18 19.01.2020
512 Clouds 6 1043 93 10000 2.1 290 22:55 19.01.2020
513 Clouds 6 1042 86 10000 2.1 340 22:37 19.01.2020
514 Clouds 6 1042 86 10000 2.1 340 22:19 19.01.2020
515 Clouds 6 1042 86 10000 2.1 340 21:56 19.01.2020
516 Clouds 6 1041 86 10000 3.6 350 21:37 19.01.2020
517 Clouds 6 1041 86 10000 3.6 350 21:19 19.01.2020
518 Clouds 6 1041 86 10000 3.6 350 20:56 19.01.2020
519 Clouds 6 1041 86 10000 3.1 350 20:38 19.01.2020
520 Clouds 6 1041 86 10000 3.1 350 20:19 19.01.2020
521 Clouds 6 1041 86 10000 3.1 350 19:55 19.01.2020
522 Clouds 6 1040 81 10000 3.6 350 19:37 19.01.2020
523 Clouds 6 1040 81 10000 3.6 350 19:19 19.01.2020
524 Clouds 6 1040 81 10000 3.6 350 18:55 19.01.2020
525 -273 0 0 0 0 0 18:37 19.01.2020
526 Clouds 6 1039 81 10000 3.6 340 18:19 19.01.2020
527 Clouds 6 1039 81 10000 3.6 340 18:19 19.01.2020
528 Clouds 6 1039 81 10000 3.6 340 17:57 19.01.2020
529 Clouds 6 1038 81 10000 5.1 330 17:38 19.01.2020
530 Clouds 6 1038 81 10000 5.1 330 17:20 19.01.2020
531 Clouds 6 1038 81 10000 5.1 330 16:57 19.01.2020
532 Clouds 7 1037 75 10000 5.1 330 16:37 19.01.2020
533 Clouds 7 1037 75 10000 5.1 330 16:19 19.01.2020
534 Clouds 7 1037 75 10000 5.1 330 15:56 19.01.2020
535 Clouds 7 1036 70 10000 5.7 330 15:37 19.01.2020
536 Clouds 7 1036 70 10000 5.7 330 15:19 19.01.2020
537 Clouds 7 1036 70 10000 5.7 330 14:56 19.01.2020
538 Clouds 7 1036 65 10000 6.2 340 14:37 19.01.2020
539 Clouds 7 1036 65 10000 6.2 340 14:18 19.01.2020
540 Clouds 7 1036 65 10000 6.2 340 13:54 19.01.2020
541 Clouds 7 1036 65 10000 5.7 340 13:36 19.01.2020
542 Clouds 7 1036 65 10000 5.7 340 13:18 19.01.2020
543 Clouds 7 1036 65 10000 5.7 340 12:42 19.01.2020
544 Clouds 7 1035 70 10000 4.1 340 12:23 19.01.2020
545 Clouds 7 1035 70 10000 4.1 340 11:58 19.01.2020
546 Clouds 6 1034 81 10000 5.1 340 11:39 19.01.2020
547 Clouds 6 1034 81 10000 5.1 340 11:20 19.01.2020
548 Clouds 6 1034 81 10000 5.1 340 10:55 19.01.2020
549 Clouds 6 1033 86 10000 3.6 330 10:37 19.01.2020
550 Clouds 6 1033 86 10000 3.6 330 10:18 19.01.2020
551 Clouds 5 1032 86 10000 3.6 340 09:44 19.01.2020
552 Clouds 5 1032 86 10000 3.6 340 09:25 19.01.2020
553 Clouds 5 1032 86 10000 3.6 340 08:58 19.01.2020
554 Clouds 5 1030 86 10000 3.1 340 08:39 19.01.2020
555 Clouds 5 1030 86 10000 3.1 340 08:20 19.01.2020
556 Clouds 5 1030 86 10000 3.1 340 07:42 19.01.2020
557 Clouds 5 1030 86 10000 2.6 320 07:21 19.01.2020
558 Clouds 5 1030 86 10000 2.6 320 06:50 19.01.2020
559 Clouds 4 1028 93 10000 1.5 260 05:21 19.01.2020
560 Clouds 4 1026 86 10000 4.1 290 02:43 19.01.2020
561 Clouds 5 1026 80 10000 3.6 290 02:21 19.01.2020
562 Clouds 5 1025 86 10000 3.1 260 01:24 19.01.2020
563 Clouds 4 1025 86 10000 3.1 260 00:45 19.01.2020
564 Clouds 5 1024 80 10000 3.1 270 00:27 19.01.2020
565 Clouds 5 1024 80 10000 3.1 270 23:56 18.01.2020
566 Clouds 5 1024 86 10000 3.1 280 23:38 18.01.2020
567 Clouds 5 1024 86 10000 3.1 280 23:18 18.01.2020
568 Clouds 5 1024 86 10000 3.1 280 22:55 18.01.2020
569 Rain 5 1024 86 10000 1 300 22:36 18.01.2020
570 Rain 5 1024 86 10000 1 300 22:18 18.01.2020
571 Rain 5 1024 86 10000 1 300 22:18 18.01.2020
572 Rain 5 1024 86 10000 1 300 21:56 18.01.2020
573 Rain 5 1023 86 10000 4.6 270 21:36 18.01.2020
574 Rain 5 1023 86 10000 4.6 270 21:18 18.01.2020
575 Rain 5 1024 86 5000 4.1 270 20:42 18.01.2020
576 Rain 5 1023 86 10000 5.1 280 20:20 18.01.2020
577 Rain 5 1023 86 10000 5.1 280 19:55 18.01.2020
578 Clouds 5 1022 86 10000 3.6 250 19:37 18.01.2020
579 Clouds 5 1022 86 10000 3.6 250 19:37 18.01.2020
580 Clouds 5 1022 86 10000 3.6 250 19:19 18.01.2020
581 Clouds 4 1022 86 10000 3.6 250 18:42 18.01.2020
582 Clouds 4 1021 86 10000 3.6 250 18:21 18.01.2020
583 Clouds 4 1021 86 10000 3.6 250 17:55 18.01.2020
584 Clouds 4 1021 86 10000 3.6 250 17:37 18.01.2020
585 Clouds 4 1021 86 10000 3.6 250 17:18 18.01.2020
586 Rain 4 1021 86 10000 4.1 270 16:41 18.01.2020
587 Rain 5 1020 80 10000 7.2 270 16:23 18.01.2020
588 Rain 5 1020 80 10000 7.2 270 15:59 18.01.2020
589 Rain 5 1020 80 10000 7.2 270 15:41 18.01.2020
590 Clouds 5 1020 86 10000 5.7 250 15:22 18.01.2020
591 Clouds 5 1020 86 10000 5.7 250 14:54 18.01.2020
592 Clouds 4 1019 93 10000 6.7 250 14:36 18.01.2020
593 Clouds 4 1019 93 10000 6.7 250 14:18 18.01.2020
594 Clouds 4 1019 93 10000 6.7 250 13:43 18.01.2020
595 Rain 4 1019 93 10000 5.7 240 13:24 18.01.2020
596 Rain 4 1019 93 10000 5.7 240 12:56 18.01.2020
597 Rain 4 1019 86 9000 6.2 250 12:38 18.01.2020
598 Rain 4 1019 86 9000 6.2 250 12:19 18.01.2020
599 Rain 4 1019 86 9000 6.2 250 11:44 18.01.2020
600 Clouds 4 1018 86 9000 6.2 240 11:21 18.01.2020
601 Clouds 4 1018 86 9000 6.2 240 10:56 18.01.2020
602 Clouds 4 1017 86 10000 7.2 240 10:38 18.01.2020
603 Clouds 4 1017 86 10000 7.2 240 10:18 18.01.2020
604 Clouds 4 1017 86 10000 7.2 240 10:18 18.01.2020
605 Clouds 4 1017 86 10000 7.2 240 09:42 18.01.2020
606 Clouds 3 1017 93 10000 7.2 220 09:20 18.01.2020
607 Clouds 3 1017 93 10000 7.2 220 08:55 18.01.2020
608 Clouds 4 1017 80 10000 6.7 220 08:37 18.01.2020
609 Clouds 4 1017 80 10000 6.7 220 08:18 18.01.2020
610 Clouds 4 1017 80 10000 6.7 220 07:40 18.01.2020
611 Clouds 4 1016 86 10000 6.2 230 07:21 18.01.2020
612 Clouds 4 1016 86 10000 6.2 230 06:46 18.01.2020
613 Clouds 4 1016 86 10000 5.7 240 05:55 18.01.2020
614 Clouds 5 1015 86 10000 5.7 240 04:35 18.01.2020
615 Clouds 5 1014 86 10000 9.3 260 02:50 18.01.2020
616 Clouds 6 1013 81 10000 7.2 250 01:51 18.01.2020
617 Clouds 6 1013 81 10000 6.2 240 01:20 18.01.2020
618 Clouds 7 1012 81 10000 6.2 240 00:36 18.01.2020
619 Clouds 7 1012 81 10000 6.2 240 00:18 18.01.2020
620 Clouds 7 1012 93 10000 5.7 230 23:40 17.01.2020
621 Clouds 7 1012 93 10000 5.7 230 23:19 17.01.2020
622 Clouds 7 1012 93 10000 5.7 230 22:44 17.01.2020
623 Clouds 8 1012 93 9000 4.6 230 22:21 17.01.2020
624 Clouds 8 1012 93 9000 4.6 230 21:58 17.01.2020
625 Clouds 8 1012 93 9000 4.6 230 21:58 17.01.2020
626 Clouds 8 1012 93 9000 4.6 230 21:40 17.01.2020
627 Drizzle 8 1012 93 6000 5.1 230 21:22 17.01.2020
628 Drizzle 8 1012 93 6000 5.1 230 20:55 17.01.2020
629 Drizzle 8 1011 93 5000 4.6 220 20:37 17.01.2020
630 Drizzle 8 1011 93 5000 4.6 220 20:19 17.01.2020
631 Drizzle 8 1011 93 5000 4.6 220 19:55 17.01.2020
632 Drizzle 8 1011 87 7000 4.6 220 19:37 17.01.2020
633 Drizzle 8 1011 87 7000 4.6 220 19:18 17.01.2020
634 Drizzle 8 1011 87 7000 4.6 220 19:18 17.01.2020
635 Rain 8 1012 87 10000 3.1 200 18:45 17.01.2020
636 Rain 8 1011 87 10000 4.1 220 18:27 17.01.2020
637 Rain 8 1011 87 10000 4.1 220 17:56 17.01.2020
638 Clouds 9 1011 76 10000 4.1 220 17:38 17.01.2020
639 Clouds 9 1011 76 10000 4.1 220 17:20 17.01.2020
640 Clouds 9 1011 76 10000 4.1 220 16:42 17.01.2020
641 Clouds 9 1011 76 10000 4.1 210 16:20 17.01.2020
642 Clouds 9 1011 76 10000 4.1 210 15:48 17.01.2020
643 Clouds 10 1011 71 10000 3.6 210 15:28 17.01.2020
644 Clouds 10 1011 71 10000 4.1 210 14:57 17.01.2020
645 Clouds 10 1012 66 10000 5.1 210 14:38 17.01.2020
646 Clouds 10 1012 66 10000 5.1 210 14:20 17.01.2020
647 Clouds 10 1012 66 10000 5.1 210 13:41 17.01.2020
648 Clouds 9 1012 70 10000 5.1 200 13:22 17.01.2020
649 Clouds 9 1012 70 10000 5.1 200 13:22 17.01.2020
650 Clouds 9 1012 70 10000 5.1 200 12:46 17.01.2020
651 Clouds 9 1013 70 10000 6.2 190 12:23 17.01.2020
652 Clouds 9 1013 70 10000 6.2 190 11:41 17.01.2020
653 Clouds 8 1014 70 10000 5.7 180 11:20 17.01.2020
654 Clouds 8 1014 70 10000 5.7 180 10:56 17.01.2020
655 Clouds 8 1014 75 10000 5.1 190 10:37 17.01.2020
656 Clouds 8 1014 75 10000 5.1 190 10:19 17.01.2020
657 Clouds 7 1014 75 10000 5.1 190 09:43 17.01.2020
658 Clouds 7 1014 75 10000 5.7 170 09:21 17.01.2020
659 Clouds 7 1014 75 10000 5.7 170 08:58 17.01.2020
660 Clouds 7 1014 75 10000 5.7 170 08:40 17.01.2020
661 Clouds 7 1015 75 10000 5.7 170 08:21 17.01.2020
662 Clouds 7 1015 75 10000 5.7 170 07:46 17.01.2020
663 Clouds 7 1015 81 10000 5.7 180 07:28 17.01.2020
664 Clouds 7 1015 81 10000 5.7 180 06:55 17.01.2020
665 Clouds 8 1016 75 10000 5.7 180 06:35 17.01.2020
666 Clouds 7 1013 74 0 9.81 180 04:32 17.01.2020
667 Clouds 8 1013 74 0 9.81 180 03:38 17.01.2020
668 Clouds 7 1014 74 0 9.81 180 02:39 17.01.2020
669 Clouds 7 1014 82 0 10.25 175 01:44 17.01.2020
670 Clouds 7 1014 82 0 10.45 176 01:25 17.01.2020
671 Clouds 7 1015 82 0 10.45 176 00:40 17.01.2020
672 Clouds 7 1015 82 0 10.45 176 00:19 17.01.2020
673 Clouds 7 1020 81 10000 5.1 170 23:41 16.01.2020
674 Clouds 7 1020 81 10000 5.1 170 23:22 16.01.2020
675 Clouds 7 1020 81 10000 5.1 170 22:42 16.01.2020
676 Clouds 7 1021 81 10000 5.7 170 22:22 16.01.2020
677 Clouds 7 1021 81 10000 5.7 170 21:57 16.01.2020
678 Clouds 7 1021 75 10000 5.1 170 21:38 16.01.2020
679 Clouds 7 1021 75 10000 5.1 170 21:19 16.01.2020
680 Clouds 6 1022 81 10000 5.1 160 20:58 16.01.2020
681 Clouds 6 1022 81 10000 3.6 150 20:39 16.01.2020
682 Clouds 6 1022 81 10000 3.6 150 20:19 16.01.2020
683 Clouds 6 1022 81 10000 3.6 150 19:56 16.01.2020
684 Clouds 6 1023 86 10000 2.6 140 19:37 16.01.2020
685 Clouds 6 1023 86 10000 2.6 140 19:19 16.01.2020
686 Clouds 6 1023 86 10000 2.6 140 18:55 16.01.2020
687 Clouds 6 1023 87 10000 3.1 150 18:37 16.01.2020
688 Clouds 6 1023 87 10000 3.1 150 18:18 16.01.2020
689 Clouds 6 1023 87 10000 3.1 150 18:18 16.01.2020
690 Clouds 6 1023 87 10000 3.1 150 17:42 16.01.2020
691 Clouds 7 1024 81 10000 3.1 150 17:23 16.01.2020
692 Clouds 7 1024 81 10000 3.1 150 16:57 16.01.2020
693 Clouds 8 1024 75 10000 2.6 170 16:39 16.01.2020
694 Clouds 8 1024 75 10000 2.6 170 16:19 16.01.2020
695 Clouds 8 1024 75 10000 2.6 170 15:44 16.01.2020
696 Clouds 8 1024 75 10000 3.6 200 15:23 16.01.2020
697 Clouds 8 1024 75 10000 3.6 200 14:57 16.01.2020
698 Clouds 8 1024 75 10000 3.6 200 14:57 16.01.2020
699 Clouds 8 1024 81 10000 3.1 200 14:39 16.01.2020
700 Clouds 8 1024 81 10000 3.1 200 14:20 16.01.2020
701 Clouds 8 1024 81 10000 3.1 200 13:45 16.01.2020
702 Clouds 8 1025 75 10000 4.1 220 13:26 16.01.2020
703 Clouds 8 1025 75 10000 4.1 220 12:47 16.01.2020
704 Clouds 6 1025 87 10000 5.1 220 12:29 16.01.2020
705 Clouds 6 1025 87 10000 5.1 220 11:59 16.01.2020
706 Clouds 6 1025 87 10000 5.1 220 11:41 16.01.2020
707 Clouds 6 1025 87 10000 5.1 220 11:41 16.01.2020
708 Clouds 5 1025 86 8000 5.7 220 11:23 16.01.2020
709 Clouds 5 1025 86 8000 5.7 220 10:55 16.01.2020
710 Mist 4 1024 93 5000 5.1 220 10:36 16.01.2020
711 Mist 4 1024 93 5000 5.1 220 10:18 16.01.2020
712 Mist 4 1024 93 5000 5.1 220 09:42 16.01.2020
713 Mist 4 1023 93 4000 5.7 220 09:24 16.01.2020
714 Mist 4 1023 93 4000 5.7 220 08:58 16.01.2020
715 Clouds 4 1023 93 7000 5.7 230 08:39 16.01.2020
716 Clouds 4 1023 93 7000 5.7 230 08:18 16.01.2020
717 Clouds 4 1023 93 7000 5.7 230 07:42 16.01.2020
718 Clouds 5 1022 86 8000 5.7 220 07:23 16.01.2020
719 Clouds 5 1022 86 8000 5.7 220 06:50 16.01.2020
720 Clouds 5 1021 93 7000 5.7 230 06:32 16.01.2020
721 Clouds 5 1021 93 7000 5.7 230 05:49 16.01.2020
722 Clouds 5 1021 93 8000 6.2 230 04:46 16.01.2020
723 Clouds 5 1021 93 8000 6.2 230 04:46 16.01.2020
724 Clouds 6 1020 93 9000 6.2 230 03:56 16.01.2020
725 Clouds 6 1019 93 10000 5.1 230 02:46 16.01.2020
726 Clouds 6 1017 87 10000 5.7 240 01:32 16.01.2020
727 Clouds 6 1017 87 10000 5.7 240 00:43 16.01.2020
728 Clouds 6 1017 87 10000 5.1 250 00:23 16.01.2020
729 Clouds 5 1016 93 10000 5.1 240 23:44 15.01.2020
730 Clouds 5 1016 93 10000 5.1 240 23:44 15.01.2020
731 Clouds 6 1015 87 10000 4.6 240 23:22 15.01.2020
732 Clouds 6 1015 87 10000 4.6 240 22:56 15.01.2020
733 Clouds 6 1014 87 10000 4.6 250 22:38 15.01.2020
734 Clouds 6 1014 87 10000 4.6 250 22:18 15.01.2020
735 Clouds 6 1014 87 10000 4.6 250 21:56 15.01.2020
736 Clouds 7 1013 87 10000 5.7 260 21:37 15.01.2020
737 Clouds 7 1013 87 10000 5.7 260 21:18 15.01.2020
738 Clouds 7 1013 87 10000 5.7 260 20:55 15.01.2020
739 Rain 7 1011 87 10000 6.2 280 20:37 15.01.2020
740 Rain 7 1011 87 10000 6.2 280 20:18 15.01.2020
741 Rain 7 1011 87 10000 6.2 280 19:54 15.01.2020
742 Rain 7 1010 87 10000 6.2 270 19:36 15.01.2020
743 Rain 7 1010 87 10000 6.2 270 19:18 15.01.2020
744 Rain 7 1009 81 10000 8.7 260 18:55 15.01.2020
745 Rain 7 1009 81 10000 8.7 260 18:55 15.01.2020
746 Rain 7 1009 81 10000 8.7 260 18:55 15.01.2020
747 Rain 9 1008 81 10000 7.2 240 18:37 15.01.2020
748 Rain 9 1008 81 10000 7.2 240 18:37 15.01.2020
749 Rain 9 1008 81 10000 7.2 240 18:19 15.01.2020
750 Rain 9 1008 81 10000 7.2 240 18:19 15.01.2020
751 Clouds 11 1007 62 10000 8.2 230 17:41 15.01.2020
752 Clouds 11 1007 62 10000 8.2 230 17:23 15.01.2020
753 Clouds 11 1007 62 10000 8.2 230 16:59 15.01.2020
754 Rain 11 1006 62 10000 9.3 230 16:39 15.01.2020
755 Rain 11 1006 62 10000 9.3 230 16:39 15.01.2020
756 Rain 11 1006 62 10000 9.3 230 16:21 15.01.2020
757 Rain 12 1006 62 10000 9.3 230 15:44 15.01.2020
758 Clouds 12 1005 62 10000 6.7 210 15:21 15.01.2020
759 Clouds 12 1005 62 10000 6.7 210 15:21 15.01.2020
760 Clouds 12 1005 62 10000 6.7 210 14:59 15.01.2020
761 Clouds 12 1005 62 10000 6.7 210 14:41 15.01.2020
762 Clouds 12 1006 62 10000 7.7 220 14:18 15.01.2020
763 Clouds 11 1006 62 10000 7.7 220 13:46 15.01.2020
764 Clouds 12 1006 62 10000 8.7 220 13:26 15.01.2020
765 Clouds 12 1006 62 10000 8.7 220 12:59 15.01.2020
766 Clouds 12 1006 66 10000 8.2 220 12:39 15.01.2020
767 Clouds 12 1006 66 10000 8.2 220 12:19 15.01.2020
768 Clouds 12 1006 66 10000 8.2 220 11:56 15.01.2020
769 Clouds 12 1005 62 10000 9.3 220 11:37 15.01.2020
770 Clouds 12 1005 62 10000 9.3 220 11:19 15.01.2020
771 Clouds 12 1005 62 10000 9.3 220 11:19 15.01.2020
772 Clouds 11 1005 62 10000 9.3 220 10:43 15.01.2020
773 Clouds 12 1005 66 10000 9.3 210 10:25 15.01.2020
774 Clouds 12 1004 66 10000 9.8 220 09:44 15.01.2020
775 Clouds 12 1004 66 10000 9.8 220 09:23 15.01.2020
776 Clouds 12 1004 66 10000 9.8 220 08:56 15.01.2020
777 Clouds 12 1003 71 10000 8.7 220 08:38 15.01.2020
778 Clouds 12 1003 71 10000 8.7 220 08:19 15.01.2020
779 Clouds 12 1003 71 10000 8.7 220 07:51 15.01.2020
780 Rain 12 1003 71 10000 9.8 220 07:31 15.01.2020
781 Rain 12 1003 71 10000 9.8 220 06:45 15.01.2020
782 Clouds 11 1003 81 10000 9.3 220 06:19 15.01.2020
783 Clouds 11 1003 81 10000 9.8 220 04:42 15.01.2020
784 Clouds 12 1002 71 10000 10.3 220 02:38 15.01.2020
785 Clouds 12 1002 71 10000 8.7 220 01:28 15.01.2020
786 Clouds 12 1002 71 10000 8.7 220 00:45 15.01.2020
787 Clouds 11 1001 76 10000 9.3 220 00:27 15.01.2020
788 Clouds 11 1001 76 10000 9.3 220 23:56 14.01.2020
789 Clouds 11 1001 76 10000 8.2 210 23:38 14.01.2020
790 Clouds 11 1001 76 10000 8.2 210 23:19 14.01.2020
791 Clouds 11 1001 76 10000 8.2 210 22:41 14.01.2020
792 Clouds 11 1001 76 10000 9.3 210 22:19 14.01.2020
793 Clouds 11 1001 76 10000 9.3 210 21:58 14.01.2020
794 Clouds 11 1001 76 10000 9.3 210 21:58 14.01.2020
795 Clouds 11 1000 76 10000 10.8 210 21:40 14.01.2020
796 Clouds 11 1000 76 10000 10.8 210 21:21 14.01.2020
797 Clouds 10 1000 81 10000 10.3 210 20:59 14.01.2020
798 Clouds 10 1001 81 10000 8.7 210 20:40 14.01.2020
799 Clouds 10 1001 81 10000 8.7 210 20:20 14.01.2020
800 Clouds 10 1001 81 10000 8.7 210 19:56 14.01.2020
801 Clouds 9 1001 87 10000 8.2 200 19:38 14.01.2020
802 Clouds 9 1001 87 10000 8.2 200 19:18 14.01.2020
803 Clouds 9 1001 87 10000 8.2 200 18:56 14.01.2020
804 Rain 9 1002 87 8000 6.7 210 18:37 14.01.2020
805 Rain 9 1002 87 8000 6.7 210 18:18 14.01.2020
806 Rain 9 1002 87 10000 4.6 200 17:38 14.01.2020
807 Rain 9 1002 87 10000 4.6 200 17:19 14.01.2020
808 Rain 9 1002 87 10000 4.6 200 16:55 14.01.2020
809 Clouds 9 1003 87 10000 5.7 210 16:37 14.01.2020
810 Clouds 9 1003 87 10000 5.7 210 16:19 14.01.2020
811 Clouds 9 1003 87 10000 5.7 220 15:43 14.01.2020
812 Clouds 9 1003 87 10000 6.2 220 15:19 14.01.2020
813 Clouds 9 1003 87 10000 6.2 220 14:57 14.01.2020
814 Clouds 10 1003 87 10000 7.2 230 14:39 14.01.2020
815 Clouds 10 1003 87 10000 7.2 230 14:18 14.01.2020
816 Clouds 10 1003 87 10000 7.2 230 13:42 14.01.2020
817 Clouds 10 1002 93 10000 6.2 240 13:20 14.01.2020
818 Clouds 10 1002 93 10000 6.2 240 12:56 14.01.2020
819 Rain 8 1002 93 9000 4.6 240 12:38 14.01.2020
820 Rain 8 1002 93 9000 4.6 240 12:20 14.01.2020
821 Rain 8 1002 93 9000 4.6 240 11:41 14.01.2020
822 Rain 8 1002 93 6000 5.1 250 11:22 14.01.2020
823 Drizzle 7 1002 93 6000 5.1 260 10:56 14.01.2020
824 Drizzle 9 1001 87 3000 8.7 230 10:38 14.01.2020
825 Drizzle 9 1001 87 3000 8.7 230 10:19 14.01.2020
826 Drizzle 9 1000 87 6000 8.7 220 09:55 14.01.2020
827 Drizzle 9 1000 87 9000 7.7 210 09:37 14.01.2020
828 Drizzle 9 1000 87 9000 7.7 210 09:19 14.01.2020
829 Drizzle 9 1000 87 9000 7.7 210 08:41 14.01.2020
830 Drizzle 9 1000 87 9000 7.7 210 08:41 14.01.2020
831 Drizzle 8 1000 93 9000 8.2 200 08:22 14.01.2020
832 Drizzle 8 1000 93 9000 8.2 200 07:53 14.01.2020
833 Drizzle 8 1000 93 9000 7.2 200 07:26 14.01.2020
834 Drizzle 8 1000 93 9000 7.2 200 06:44 14.01.2020
835 Drizzle 9 1000 87 10000 7.2 200 06:18 14.01.2020
836 Drizzle 8 1001 81 10000 8.2 190 04:56 14.01.2020
837 Clouds 9 1002 75 10000 7.2 190 03:48 14.01.2020
838 Clouds 8 1003 81 10000 7.2 190 02:41 14.01.2020
839 Clouds 7 1005 75 10000 6.2 190 01:34 14.01.2020
840 Clouds 7 1005 81 10000 6.7 190 00:49 14.01.2020
841 Clouds 7 1006 81 10000 6.7 180 00:27 14.01.2020
842 Clouds 7 1006 81 10000 6.7 180 23:47 13.01.2020
843 Clouds 7 1007 81 10000 7.2 180 23:19 13.01.2020
844 Clouds 7 1008 81 10000 6.2 180 22:59 13.01.2020
845 Clouds 6 1009 81 10000 6.2 170 22:40 13.01.2020
846 Clouds 6 1009 81 10000 6.2 170 22:20 13.01.2020
847 Clouds 6 1009 81 10000 6.2 170 21:56 13.01.2020
848 Clouds 6 1009 81 10000 5.7 170 21:37 13.01.2020
849 Clouds 6 1009 81 10000 5.7 170 21:37 13.01.2020
850 Clouds 6 1009 81 10000 5.7 170 21:18 13.01.2020
851 Clouds 6 1010 81 10000 6.2 170 20:56 13.01.2020
852 Clouds 5 1011 86 10000 5.1 170 20:38 13.01.2020
853 Clouds 5 1011 86 10000 5.1 170 20:20 13.01.2020
854 Clouds 6 1011 81 10000 4.6 170 19:56 13.01.2020
855 Clouds 6 1012 81 10000 4.6 180 19:37 13.01.2020
856 Clouds 6 1012 81 10000 4.6 180 19:18 13.01.2020
857 Clouds 6 1012 81 10000 3.6 190 18:55 13.01.2020
858 Clouds 6 1013 81 10000 4.1 200 18:36 13.01.2020
859 Clouds 6 1013 81 10000 4.1 200 18:18 13.01.2020
860 Clouds 7 1013 81 10000 3.1 210 17:40 13.01.2020
861 Clouds 7 1013 81 10000 3.1 210 17:22 13.01.2020
862 Clouds 7 1013 81 10000 3.1 210 16:56 13.01.2020
863 Clouds 6 1012 88 0 8.04 186 16:37 13.01.2020
864 Clouds 6 1012 88 0 8.04 186 16:19 13.01.2020
865 Clouds 6 1012 88 0 8.04 186 15:43 13.01.2020
866 Clouds 6 1012 88 0 8.04 186 15:23 13.01.2020
867 Clouds 6 1012 88 0 8.04 186 14:57 13.01.2020
868 Clouds 6 1012 88 0 8.04 186 14:38 13.01.2020
869 Clouds 6 1015 89 0 8.95 215 14:19 13.01.2020
870 Clouds 6 1015 89 0 8.95 215 13:42 13.01.2020
871 Clouds 6 1015 89 0 8.86 212 13:24 13.01.2020
872 Clouds 6 1017 87 10000 4.6 230 12:59 13.01.2020
873 Clouds 6 1017 87 10000 4.6 230 12:40 13.01.2020
874 Clouds 6 1017 87 10000 4.6 230 12:22 13.01.2020
875 Clouds 6 1017 87 10000 4.6 230 11:57 13.01.2020
876 Clouds 6 1017 93 6000 4.1 220 11:37 13.01.2020
877 Clouds 6 1017 93 6000 4.1 220 11:19 13.01.2020
878 Mist 6 1017 93 5000 4.6 220 10:55 13.01.2020
879 Mist 5 1017 100 5000 3.6 230 10:37 13.01.2020
880 Mist 5 1017 100 5000 3.6 230 10:19 13.01.2020
881 Mist 5 1017 100 5000 3.6 230 09:43 13.01.2020
882 Rain 5 1017 93 4500 4.6 220 09:23 13.01.2020
883 Clouds 5 1017 93 6000 3.6 220 08:44 13.01.2020
884 Clouds 5 1017 93 10000 3.6 210 08:24 13.01.2020
885 Clouds 4 1017 93 10000 3.1 220 07:59 13.01.2020
886 Clouds 4 1017 93 10000 3.1 220 07:59 13.01.2020
887 Clouds 4 1017 93 10000 3.1 220 07:41 13.01.2020
888 Clouds 4 1017 93 10000 3.6 220 07:19 13.01.2020
889 Clouds 4 1017 93 10000 4.1 220 06:37 13.01.2020
890 Clouds 4 1017 93 10000 4.1 220 06:37 13.01.2020
891 Clouds 5 1018 93 10000 5.1 220 05:37 13.01.2020
892 Clouds 5 1018 93 10000 4.6 230 04:56 13.01.2020
893 Clouds 6 1018 87 10000 5.1 250 03:38 13.01.2020
894 Clouds 6 1018 87 10000 5.1 250 02:49 13.01.2020
895 Clouds 7 1018 87 10000 7.7 260 02:30 13.01.2020
896 Clouds 7 1018 87 10000 7.7 260 02:30 13.01.2020
897 Clouds 7 1018 87 10000 7.7 260 02:30 13.01.2020
898 Clouds 6 1017 93 10000 5.7 270 01:33 13.01.2020
899 Clouds 6 1017 93 10000 5.7 270 00:44 13.01.2020
900 Drizzle 6 1016 100 10000 8.2 290 00:26 13.01.2020
901 Drizzle 6 1016 100 10000 8.2 290 23:57 12.01.2020
902 Drizzle 7 1015 93 8000 6.7 280 23:39 12.01.2020
903 Drizzle 7 1015 93 8000 6.7 280 23:21 12.01.2020
904 Drizzle 7 1015 93 8000 6.7 280 22:56 12.01.2020
905 Drizzle 7 1014 93 8000 7.7 260 22:37 12.01.2020
906 Drizzle 7 1014 93 8000 7.7 260 22:18 12.01.2020
907 Drizzle 7 1014 93 8000 7.7 260 21:42 12.01.2020
908 Clouds 7 1013 93 10000 7.7 260 21:20 12.01.2020
909 Drizzle 8 1013 87 6000 7.7 250 20:59 12.01.2020
910 Clouds 8 1013 87 10000 7.2 250 20:39 12.01.2020
911 Clouds 8 1013 87 10000 7.2 250 20:21 12.01.2020
912 Clouds 8 1013 87 10000 7.2 250 19:57 12.01.2020
913 Clouds 7 1012 93 7000 7.2 240 19:38 12.01.2020
914 Clouds 7 1012 93 7000 7.2 240 19:19 12.01.2020
915 Clouds 7 1012 93 7000 7.2 240 19:19 12.01.2020
916 Clouds 7 1012 93 7000 7.2 240 18:58 12.01.2020
917 Drizzle 7 1012 93 7000 6.7 230 18:40 12.01.2020
918 Drizzle 7 1012 93 7000 6.7 230 18:21 12.01.2020
919 Drizzle 7 1012 93 7000 6.7 230 17:59 12.01.2020
920 Clouds 6 1012 93 8000 8.2 230 17:41 12.01.2020
921 Clouds 6 1012 93 8000 8.2 230 17:19 12.01.2020
922 Clouds 6 1012 93 8000 8.2 230 16:56 12.01.2020
923 Clouds 6 1012 93 8000 8.2 230 16:56 12.01.2020
924 Clouds 6 1012 93 8000 8.7 220 16:37 12.01.2020
925 Clouds 6 1012 93 8000 8.7 220 16:19 12.01.2020
926 Clouds 6 1012 93 8000 8.7 220 15:43 12.01.2020
927 Drizzle 6 1012 93 7000 8.2 220 15:25 12.01.2020
928 Drizzle 5 1012 100 2000 7.2 220 14:57 12.01.2020
929 Drizzle 5 1013 93 1500 8.7 220 14:38 12.01.2020
930 Drizzle 5 1013 93 1500 8.7 220 14:20 12.01.2020
931 Drizzle 5 1013 93 1500 8.7 220 13:55 12.01.2020
932 Drizzle 5 1014 93 2600 7.2 220 13:36 12.01.2020
933 Drizzle 5 1014 93 2600 7.2 220 13:18 12.01.2020
934 Drizzle 5 1014 93 2600 7.2 220 13:18 12.01.2020
935 Drizzle 5 1014 93 2600 7.2 220 13:18 12.01.2020
936 Drizzle 5 1014 93 2600 7.2 220 12:43 12.01.2020
937 Drizzle 5 1015 93 3000 7.2 220 12:21 12.01.2020
938 Drizzle 5 1015 93 3000 7.2 220 11:59 12.01.2020
939 Drizzle 5 1015 93 3000 7.7 220 11:39 12.01.2020
940 Drizzle 5 1015 93 3000 7.7 220 11:21 12.01.2020
941 Drizzle 5 1015 93 3000 8.2 220 10:42 12.01.2020
942 Drizzle 6 1015 93 2000 7.7 230 10:23 12.01.2020
943 Drizzle 5 1015 86 2800 7.7 220 09:59 12.01.2020
944 Drizzle 5 1015 86 2800 7.7 220 09:41 12.01.2020
945 Drizzle 5 1015 86 3000 8.7 230 09:21 12.01.2020
946 Drizzle 6 1015 86 3000 8.7 230 08:47 12.01.2020
947 Drizzle 6 1015 86 8000 7.2 230 08:21 12.01.2020
948 Clouds 6 1016 81 10000 7.7 230 07:45 12.01.2020
949 Clouds 6 1016 81 10000 7.7 240 07:25 12.01.2020
950 Clouds 6 1016 81 10000 7.7 240 06:50 12.01.2020
951 Clouds 7 1017 81 10000 8.2 230 06:32 12.01.2020
952 Clouds 6 1017 81 10000 8.2 230 05:49 12.01.2020
953 Clouds 6 1017 81 10000 8.2 230 04:53 12.01.2020
954 Clouds 7 1018 81 10000 8.2 230 03:33 12.01.2020
955 Clouds 7 1019 81 10000 7.2 230 02:43 12.01.2020
956 Clouds 7 1019 81 10000 7.2 230 02:22 12.01.2020
957 Drizzle 7 1019 81 6000 7.2 230 01:30 12.01.2020
958 Drizzle 6 1019 81 6000 7.2 230 00:45 12.01.2020
959 Clouds 6 1020 75 10000 7.7 220 00:22 12.01.2020
960 Clouds 6 1020 75 10000 7.7 220 23:56 11.01.2020
961 Clouds 6 1021 75 10000 7.2 230 23:37 11.01.2020
962 Clouds 6 1021 75 10000 7.2 230 23:18 11.01.2020
963 Clouds 6 1021 75 10000 7.2 230 22:56 11.01.2020
964 Clouds 6 1021 75 10000 8.2 220 22:37 11.01.2020
965 Clouds 6 1021 75 10000 8.2 220 22:18 11.01.2020
966 Clouds 6 1021 75 10000 8.2 220 21:43 11.01.2020
967 Clouds 6 1021 75 10000 8.7 220 21:19 11.01.2020
968 Clouds 6 1021 75 10000 8.7 220 20:56 11.01.2020
969 Clouds 6 1022 75 10000 8.2 220 20:37 11.01.2020
970 Clouds 6 1022 75 10000 8.2 220 20:19 11.01.2020
971 Clouds 6 1022 75 10000 8.2 220 19:55 11.01.2020
972 Clouds 6 1022 75 10000 8.7 220 19:37 11.01.2020
973 Clouds 6 1022 75 10000 8.7 220 19:19 11.01.2020
974 Clouds 6 1022 75 10000 8.7 220 19:19 11.01.2020
975 Clouds 6 1022 75 10000 8.7 220 18:55 11.01.2020
976 Clouds 6 1023 75 10000 7.7 220 18:36 11.01.2020
977 Clouds 6 1023 75 10000 7.7 220 18:18 11.01.2020
978 Clouds 6 1023 75 10000 7.7 220 17:56 11.01.2020
979 Clouds 6 1023 80 10000 6.7 220 17:37 11.01.2020
980 Clouds 6 1023 80 10000 6.7 220 17:18 11.01.2020
981 Clouds 6 1023 80 10000 6.7 220 16:43 11.01.2020
982 Clouds 6 1024 80 10000 7.2 220 16:24 11.01.2020
983 Clouds 6 1024 80 10000 7.2 220 15:56 11.01.2020
984 Clouds 6 1025 80 10000 8.7 220 15:37 11.01.2020
985 Clouds 6 1025 80 10000 8.7 220 15:19 11.01.2020
986 Clouds 5 1025 80 10000 8.7 220 14:44 11.01.2020
987 Clouds 5 1025 80 10000 7.2 220 14:24 11.01.2020
988 Clouds 5 1025 80 10000 7.2 220 13:56 11.01.2020
989 Clouds 5 1026 75 10000 7.2 220 13:37 11.01.2020
990 Clouds 5 1026 75 10000 7.2 220 13:19 11.01.2020
991 Clouds 5 1026 75 10000 7.2 220 12:44 11.01.2020
992 Clouds 4 1026 80 10000 7.2 220 12:26 11.01.2020
993 Clouds 4 1026 80 10000 7.2 220 11:56 11.01.2020
994 Clouds 4 1027 80 10000 6.7 220 11:37 11.01.2020
995 Clouds 4 1027 80 10000 6.7 220 11:18 11.01.2020
996 Clouds 3 1027 86 10000 6.2 220 10:44 11.01.2020
997 Clouds 3 1027 86 10000 6.2 220 10:24 11.01.2020
998 Clouds 3 1027 86 10000 6.2 220 09:43 11.01.2020
999 Clouds 2 1027 93 10000 5.1 230 09:21 11.01.2020
1000 Clouds 2 1027 93 10000 5.1 230 08:43 11.01.2020
1001 Clouds 2 1027 93 10000 5.7 230 08:23 11.01.2020
1002 Clouds 2 1027 93 10000 5.7 230 07:59 11.01.2020
1003 Clouds 2 1027 93 10000 5.7 230 07:41 11.01.2020
1004 Clouds 2 1027 93 10000 4.6 230 07:22 11.01.2020
1005 Clouds 2 1027 93 10000 4.6 230 06:42 11.01.2020
1006 Clouds 3 1028 93 10000 3.6 250 05:22 11.01.2020
1007 Clouds 3 1027 93 10000 3.6 250 04:38 11.01.2020
1008 Clouds 3 1027 93 10000 3.6 250 04:20 11.01.2020
1009 Clouds 5 1027 86 10000 3.6 270 02:46 11.01.2020
1010 Clouds 5 1027 93 10000 4.1 290 01:45 11.01.2020
1011 Clouds 5 1026 93 10000 3.6 290 01:22 11.01.2020
1012 Clouds 6 1026 93 10000 3.6 290 00:51 11.01.2020
1013 Clouds 6 1025 86 10000 4.6 310 00:24 11.01.2020
1014 Clouds 6 1025 86 10000 4.6 310 23:58 10.01.2020
1015 Clouds 6 1025 86 10000 3.6 300 23:38 10.01.2020
1016 Clouds 6 1025 86 10000 3.6 300 23:20 10.01.2020
1017 Clouds 6 1025 86 10000 3.6 300 22:41 10.01.2020
1018 Clouds 6 1024 86 10000 5.1 320 22:22 10.01.2020
1019 Clouds 6 1024 86 10000 5.1 320 21:58 10.01.2020
1020 Clouds 6 1024 86 10000 5.1 320 21:40 10.01.2020
1021 Clouds 6 1024 86 10000 5.1 320 21:40 10.01.2020
1022 Clouds 6 1022 80 10000 4.6 320 21:20 10.01.2020
1023 Clouds 6 1022 80 10000 4.6 320 20:57 10.01.2020
1024 Clouds 6 1022 80 10000 5.7 330 20:38 10.01.2020
1025 Clouds 6 1022 80 10000 5.7 330 20:19 10.01.2020
1026 Clouds 6 1022 80 10000 5.7 330 19:40 10.01.2020
1027 Clouds 6 1021 80 10000 6.7 350 19:21 10.01.2020
1028 Drizzle 6 1021 80 10000 5.7 340 18:55 10.01.2020
1029 Drizzle 6 1020 80 8000 7.7 340 18:37 10.01.2020
1030 Drizzle 6 1020 80 8000 7.7 340 18:18 10.01.2020
1031 Drizzle 6 1020 80 8000 7.7 340 17:56 10.01.2020
1032 Drizzle 6 1020 80 8000 7.7 340 17:56 10.01.2020
1033 Clouds 6 1018 80 10000 8.2 330 17:37 10.01.2020
1034 Clouds 6 1018 80 10000 8.2 330 17:19 10.01.2020
1035 Clouds 6 1016 75 10000 7.2 330 16:42 10.01.2020
1036 Clouds 6 1016 75 10000 7.2 330 16:21 10.01.2020
1037 Clouds 6 1016 75 10000 7.2 330 16:21 10.01.2020
1038 Clouds 6 1016 75 10000 7.2 330 15:57 10.01.2020
1039 Clouds 5 1015 86 10000 6.7 330 15:38 10.01.2020
1040 Clouds 5 1015 86 10000 6.7 330 15:20 10.01.2020
1041 Drizzle 5 1014 93 10000 7.7 340 14:59 10.01.2020
1042 Drizzle 6 1012 87 10000 9.8 330 14:40 10.01.2020
1043 Drizzle 6 1012 87 10000 9.8 330 14:19 10.01.2020
1044 Drizzle 6 1012 87 10000 9.8 330 13:57 10.01.2020
1045 Drizzle 6 1012 93 8000 8.2 330 13:38 10.01.2020
1046 Drizzle 6 1012 93 8000 8.2 330 13:19 10.01.2020
1047 Drizzle 6 1012 93 3000 9.3 330 12:56 10.01.2020
1048 Drizzle 7 1011 93 1200 8.2 260 12:38 10.01.2020
1049 Drizzle 7 1011 93 1200 8.2 260 12:18 10.01.2020
1050 Drizzle 8 1011 87 3000 8.2 260 11:42 10.01.2020
1051 Clouds 8 1010 87 10000 5.1 250 11:22 10.01.2020
1052 Clouds 8 1010 87 10000 5.1 250 11:22 10.01.2020
1053 Clouds 8 1010 87 10000 6.7 260 10:59 10.01.2020
1054 Rain 8 1009 87 8000 5.7 250 10:39 10.01.2020
1055 Rain 8 1009 87 8000 5.7 250 10:21 10.01.2020
1056 Rain 8 1009 87 8000 5.7 250 09:55 10.01.2020
1057 Clouds 8 1008 87 10000 6.2 250 09:36 10.01.2020
1058 Clouds 8 1008 87 10000 6.2 250 09:18 10.01.2020
1059 Clouds 9 1008 87 10000 4.6 240 08:40 10.01.2020
1060 Clouds 9 1008 87 10000 4.6 240 08:21 10.01.2020
1061 Clouds 9 1008 87 10000 4.6 240 07:44 10.01.2020
1062 Clouds 9 1007 87 10000 4.6 240 07:23 10.01.2020
1063 Clouds 9 1007 87 10000 4.6 240 06:45 10.01.2020
1064 Clouds 9 1007 87 10000 6.7 260 06:25 10.01.2020
1065 Clouds 9 1007 87 10000 6.7 260 05:46 10.01.2020
1066 Mist 11 1006 93 5000 5.1 220 03:35 10.01.2020
1067 Mist 11 1006 93 5000 5.1 220 02:58 10.01.2020
1068 Drizzle 11 1005 93 4000 5.7 230 02:38 10.01.2020
1069 Drizzle 11 1006 93 4800 6.2 220 01:38 10.01.2020
1070 Drizzle 11 1006 93 2500 5.1 220 00:58 10.01.2020
1071 Drizzle 11 1006 93 2200 5.1 220 00:38 10.01.2020
1072 Drizzle 11 1005 93 4500 2.6 220 23:57 09.01.2020
1073 Drizzle 11 1006 93 2500 3.6 260 23:38 09.01.2020
1074 Drizzle 11 1006 93 2500 3.6 260 23:20 09.01.2020
1075 Drizzle 11 1006 93 8000 4.1 270 22:57 09.01.2020
1076 Drizzle 11 1006 93 4500 3.1 270 22:37 09.01.2020
1077 Drizzle 11 1006 93 4500 3.1 270 22:19 09.01.2020
1078 Drizzle 11 1006 93 3500 4.1 220 21:56 09.01.2020
1079 Clouds 11 1006 93 10000 4.1 220 21:37 09.01.2020
1080 Clouds 11 1006 93 10000 4.1 220 21:37 09.01.2020
1081 Clouds 11 1006 93 10000 4.1 220 21:37 09.01.2020
1082 Clouds 11 1006 93 10000 4.1 220 21:18 09.01.2020
1083 Clouds 11 1006 93 10000 3.6 230 20:56 09.01.2020
1084 Clouds 11 1006 93 10000 3.6 230 20:38 09.01.2020
1085 Clouds 11 1006 93 10000 5.1 220 20:19 09.01.2020
1086 Clouds 11 1006 93 10000 5.1 220 20:19 09.01.2020
1087 Clouds 11 1006 93 10000 5.1 220 20:19 09.01.2020
1088 Clouds 11 1006 93 10000 5.1 220 19:56 09.01.2020
1089 Clouds 11 1006 93 10000 5.1 220 19:37 09.01.2020
1090 Clouds 11 1006 93 10000 5.1 220 19:18 09.01.2020
1091 Clouds 11 1006 93 10000 5.1 220 18:54 09.01.2020
1092 Clouds 11 1006 93 10000 5.1 220 18:36 09.01.2020
1093 Clouds 11 1006 93 10000 5.7 230 18:18 09.01.2020
1094 Clouds 11 1006 93 10000 5.7 230 17:41 09.01.2020
1095 Clouds 11 1006 93 8000 5.7 230 17:18 09.01.2020
1096 Drizzle 11 1006 93 3500 5.7 230 16:48 09.01.2020
1097 Drizzle 11 1006 93 3000 6.7 230 16:23 09.01.2020
1098 Drizzle 11 1006 93 3000 6.7 230 15:57 09.01.2020
1099 Drizzle 11 1006 93 3000 6.7 230 15:39 09.01.2020
1100 Clouds 11 1007 93 10000 7.7 230 15:18 09.01.2020
1101 Clouds 11 1007 93 10000 7.7 230 14:42 09.01.2020
1102 Drizzle 11 1007 93 8000 7.7 220 14:21 09.01.2020
1103 Drizzle 11 1007 93 8000 7.7 220 13:57 09.01.2020
1104 Drizzle 11 1007 93 8000 7.7 220 13:39 09.01.2020
1105 Drizzle 11 1007 93 8000 7.7 220 13:39 09.01.2020
1106 Drizzle 11 1007 93 8000 6.2 210 13:20 09.01.2020
1107 Drizzle 11 1008 87 7000 6.2 210 12:58 09.01.2020
1108 Drizzle 11 1008 87 7000 6.2 210 12:58 09.01.2020
1109 Drizzle 11 1008 87 7000 6.2 210 12:39 09.01.2020
1110 Drizzle 10 1009 93 5000 6.2 200 12:19 09.01.2020
1111 Drizzle 10 1009 93 5000 6.2 200 11:56 09.01.2020
1112 Drizzle 10 1009 93 5000 6.2 200 11:37 09.01.2020
1113 Drizzle 10 1009 93 2800 6.2 200 11:19 09.01.2020
1114 Drizzle 9 1010 100 3600 5.7 190 10:43 09.01.2020
1115 Drizzle 9 1010 93 3200 5.1 180 10:22 09.01.2020
1116 Drizzle 9 1011 93 2500 5.1 180 09:56 09.01.2020
1117 Drizzle 9 1011 93 2500 5.1 180 09:38 09.01.2020
1118 Drizzle 9 1011 93 2000 5.1 170 09:18 09.01.2020
1119 Drizzle 9 1012 93 3500 4.6 170 08:55 09.01.2020
1120 Drizzle 9 1012 93 3500 4.6 170 08:37 09.01.2020
1121 Drizzle 9 1012 93 2500 5.1 170 08:19 09.01.2020
1122 Mist 9 1013 93 4800 4.6 180 07:42 09.01.2020
1123 Mist 9 1014 93 3700 4.6 170 07:23 09.01.2020
1124 Mist 8 1014 100 2500 3.6 170 06:38 09.01.2020
1125 Fog 7 1016 100 50 1.5 160 06:19 09.01.2020
1126 Fog 7 1016 100 50 1.5 160 05:44 09.01.2020
1127 Fog 7 1017 100 50 1.5 170 04:42 09.01.2020
1128 Mist 7 1019 93 4000 1 190 03:31 09.01.2020
1129 Fog 7 1019 93 6000 2.1 190 02:52 09.01.2020
1130 Clouds 6 1020 100 9000 2.1 180 02:24 09.01.2020
1131 Clouds 6 1020 100 9000 2.1 180 01:38 09.01.2020
1132 Clouds 6 1020 93 10000 1.5 200 00:42 09.01.2020
1133 Clouds 6 1020 93 10000 1.5 210 00:21 09.01.2020
1134 Clouds 6 1020 93 10000 1.5 210 23:42 08.01.2020
1135 Clouds 7 1021 93 10000 1 0 23:24 08.01.2020
1136 Clouds 7 1021 93 10000 1 0 22:59 08.01.2020
1137 Clouds 7 1021 93 10000 1 0 22:39 08.01.2020
1138 Clouds 7 1021 93 10000 3.1 260 22:20 08.01.2020
1139 Clouds 7 1021 93 10000 3.1 260 22:20 08.01.2020
1140 Clouds 7 1021 93 10000 3.1 260 21:57 08.01.2020
1141 Clouds 7 1021 93 10000 3.1 260 21:38 08.01.2020
1142 Clouds 7 1021 93 10000 2.6 250 21:20 08.01.2020
1143 Clouds 7 1021 93 10000 2.6 250 20:58 08.01.2020
1144 Clouds 7 1021 93 10000 2.6 250 20:38 08.01.2020
1145 Clouds 7 1020 93 10000 2.1 250 20:20 08.01.2020
1146 Clouds 7 1020 93 10000 2.1 250 19:56 08.01.2020
1147 Clouds 7 1020 93 10000 2.1 250 19:37 08.01.2020
1148 Clouds 8 1021 87 10000 4.1 260 19:19 08.01.2020
1149 Clouds 8 1021 87 10000 4.1 260 18:55 08.01.2020
1150 Clouds 8 1021 87 10000 4.1 260 18:37 08.01.2020
1151 Clouds 8 1020 93 10000 4.1 270 18:18 08.01.2020
1152 Clouds 8 1020 93 10000 4.1 270 17:48 08.01.2020
1153 Clouds 8 1020 93 10000 5.7 280 17:24 08.01.2020
1154 Clouds 8 1020 93 10000 5.7 280 16:58 08.01.2020
1155 Clouds 8 1020 93 10000 5.7 280 16:39 08.01.2020
1156 Clouds 9 1019 87 10000 7.7 280 16:19 08.01.2020
1157 Clouds 9 1019 87 10000 7.7 280 15:59 08.01.2020
1158 Clouds 9 1019 87 10000 7.7 280 15:40 08.01.2020
1159 Drizzle 9 1018 93 10000 5.7 270 15:20 08.01.2020
1160 Drizzle 9 1018 93 10000 5.7 270 14:56 08.01.2020
1161 Drizzle 9 1018 93 10000 5.7 270 14:38 08.01.2020
1162 Clouds 10 1018 93 9000 5.1 270 14:19 08.01.2020
1163 Drizzle 10 1018 93 5000 5.7 260 13:39 08.01.2020
1164 Mist 10 1018 93 3000 4.6 250 13:19 08.01.2020
1165 Mist 10 1018 93 3000 4.6 250 12:42 08.01.2020
1166 Mist 9 1018 100 2500 4.1 240 12:19 08.01.2020
1167 Mist 9 1018 100 2500 4.1 240 12:19 08.01.2020
1168 Drizzle 9 1018 100 3500 4.6 240 11:55 08.01.2020
1169 Drizzle 9 1018 100 3500 4.6 240 11:37 08.01.2020
1170 Drizzle 9 1017 93 3000 5.1 240 11:18 08.01.2020
1171 Mist 9 1017 93 5000 5.7 240 10:54 08.01.2020
1172 Mist 9 1017 93 5000 5.7 240 10:36 08.01.2020
1173 Clouds 9 1017 93 7000 5.7 240 10:18 08.01.2020
1174 Clouds 9 1017 93 7000 5.7 240 09:41 08.01.2020
1175 Clouds 8 1017 100 7000 6.2 240 09:19 08.01.2020
1176 Drizzle 8 1016 93 4000 5.7 240 08:55 08.01.2020
1177 Drizzle 8 1016 93 4000 5.7 240 08:36 08.01.2020
1178 Drizzle 8 1016 93 5000 7.2 240 08:18 08.01.2020
1179 Drizzle 8 1016 93 5000 7.2 240 08:18 08.01.2020
1180 Drizzle 8 1016 93 5000 7.7 230 07:47 08.01.2020
1181 Drizzle 8 1016 93 4000 7.2 230 07:29 08.01.2020
1182 Drizzle 8 1016 93 4000 7.2 230 06:44 08.01.2020
1183 Drizzle 8 1016 93 4000 6.7 230 05:59 08.01.2020
1184 Drizzle 8 1016 93 4000 6.7 230 05:38 08.01.2020
1185 Clouds 8 1017 81 10000 7.2 230 04:54 08.01.2020
1186 Clouds 8 1017 75 10000 7.2 230 03:33 08.01.2020
1187 Clouds 8 1016 81 10000 8.2 220 02:44 08.01.2020
1188 Clouds 7 1017 81 10000 8.7 220 02:19 08.01.2020
1189 Clouds 7 1017 81 10000 8.7 220 01:42 08.01.2020
1190 Rain 7 1018 81 10000 8.7 220 00:59 08.01.2020
1191 Rain 7 1018 81 10000 7.7 210 00:27 08.01.2020
1192 Rain 7 1018 81 10000 7.7 210 23:47 07.01.2020
1193 Clouds 7 1020 81 10000 6.7 220 23:22 07.01.2020
1194 Clouds 7 1020 81 10000 6.7 220 22:58 07.01.2020
1195 Clouds 7 1020 81 10000 6.7 220 22:39 07.01.2020
1196 Clouds 7 1020 81 10000 7.7 220 22:20 07.01.2020
1197 Clouds 7 1020 81 10000 7.7 220 21:55 07.01.2020
1198 Clouds 7 1020 81 10000 7.7 220 21:37 07.01.2020
1199 Clouds 7 1021 87 9000 7.2 220 21:19 07.01.2020
1200 Clouds 7 1021 87 9000 7.2 220 20:55 07.01.2020
1201 Clouds 6 1021 87 9000 7.2 220 20:36 07.01.2020
1202 Clouds 6 1020 87 10000 6.7 210 20:18 07.01.2020
1203 Clouds 7 1020 87 10000 6.7 210 19:38 07.01.2020
1204 Clouds 7 1021 87 10000 5.7 200 19:19 07.01.2020
1205 Clouds 7 1021 87 10000 5.7 200 18:58 07.01.2020
1206 Clouds 7 1021 87 10000 5.7 200 18:58 07.01.2020
1207 Clouds 6 1021 87 10000 5.7 200 18:40 07.01.2020
1208 Clouds 6 1022 87 10000 5.7 210 18:19 07.01.2020
1209 Clouds 6 1022 87 10000 5.7 210 17:58 07.01.2020
1210 Clouds 6 1022 87 10000 5.7 210 17:39 07.01.2020
1211 Clouds 6 1023 87 8000 4.6 220 17:20 07.01.2020
1212 Clouds 6 1023 87 8000 4.6 220 16:56 07.01.2020
1213 Clouds 7 1023 87 8000 4.6 220 16:37 07.01.2020
1214 Clouds 7 1023 87 8000 4.6 220 16:37 07.01.2020
1215 Clouds 7 1023 87 10000 5.1 230 16:19 07.01.2020
1216 Clouds 7 1023 87 10000 5.1 230 15:57 07.01.2020
1217 Clouds 6 1023 87 10000 5.1 230 15:38 07.01.2020
1218 Clouds 6 1023 87 8000 5.7 240 15:19 07.01.2020
1219 Clouds 6 1023 93 7000 6.7 230 14:42 07.01.2020
1220 Clouds 6 1023 93 6000 5.7 240 14:24 07.01.2020
1221 Clouds 6 1022 93 10000 5.7 230 13:57 07.01.2020
1222 Clouds 6 1022 93 10000 5.7 230 13:39 07.01.2020
1223 Clouds 6 1023 93 10000 4.1 230 13:18 07.01.2020
1224 Clouds 6 1023 93 10000 4.1 230 12:41 07.01.2020
1225 Clouds 6 1023 93 7000 4.6 230 12:20 07.01.2020
1226 Clouds 6 1023 93 6000 4.6 230 11:55 07.01.2020
1227 Clouds 6 1022 87 7000 4.6 230 11:36 07.01.2020
1228 Clouds 6 1022 87 7000 4.6 230 11:18 07.01.2020
1229 Clouds 6 1022 87 8000 4.1 250 10:41 07.01.2020
1230 Clouds 6 1022 93 7000 5.7 260 10:23 07.01.2020
1231 Clouds 6 1022 93 7000 5.7 260 09:57 07.01.2020
1232 Clouds 6 1022 93 7000 5.7 260 09:38 07.01.2020
1233 Mist 6 1021 93 5000 5.7 260 09:20 07.01.2020
1234 Mist 6 1021 93 5000 5.7 260 08:42 07.01.2020
1235 Mist 6 1020 93 5000 4.6 250 08:23 07.01.2020
1236 Mist 6 1020 93 5000 4.6 250 07:54 07.01.2020
1237 Mist 5 1019 93 4000 5.1 250 07:28 07.01.2020
1238 Mist 5 1019 93 4000 5.1 250 07:28 07.01.2020
1239 Mist 5 1019 93 4000 5.1 250 06:53 07.01.2020
1240 Mist 5 1018 93 5000 4.6 240 06:34 07.01.2020
1241 Mist 5 1018 93 5000 4.6 240 05:54 07.01.2020
1242 Mist 5 1018 93 5000 4.6 240 04:39 07.01.2020
1243 Drizzle 4 1017 86 9000 4.6 230 03:27 07.01.2020
1244 Clouds 4 1017 86 10000 4.6 220 02:22 07.01.2020
1245 Clouds 4 1017 86 10000 4.6 220 01:52 07.01.2020
1246 Clouds 4 1017 85 10000 5.7 230 01:30 07.01.2020
1247 Clouds 4 1017 85 10000 5.7 230 00:37 07.01.2020
1248 Clouds 3 1017 85 10000 3.6 210 00:18 07.01.2020
1249 Clouds 4 1017 85 10000 3.6 210 23:39 06.01.2020
1250 Clouds 3 1017 82 10000 3.6 200 23:21 06.01.2020
1251 Clouds 3 1017 82 10000 3.6 200 22:58 06.01.2020
1252 Clouds 4 1017 82 10000 3.6 200 22:39 06.01.2020
1253 Clouds 3 1018 82 10000 4.1 190 22:21 06.01.2020
1254 Clouds 3 1018 82 10000 4.1 190 21:56 06.01.2020
1255 Clouds 4 1018 82 10000 4.1 190 21:38 06.01.2020
1256 Clouds 4 1019 82 10000 4.1 200 21:19 06.01.2020
1257 Clouds 4 1019 82 10000 4.1 200 20:56 06.01.2020
1258 Clouds 4 1019 82 10000 4.1 200 20:37 06.01.2020
1259 Clouds 4 1019 80 10000 4.6 210 20:19 06.01.2020
1260 Clouds 4 1019 80 10000 4.6 210 19:55 06.01.2020
1261 Clouds 4 1019 80 10000 4.6 210 19:37 06.01.2020
1262 Clouds 5 1020 80 10000 4.1 210 19:18 06.01.2020
1263 Clouds 5 1020 80 10000 4.1 210 18:45 06.01.2020
1264 Clouds 6 1020 81 10000 4.1 210 18:21 06.01.2020
1265 Clouds 6 1020 81 10000 4.1 210 17:40 06.01.2020
1266 Clouds 6 1021 81 10000 3.6 210 17:20 06.01.2020
1267 Clouds 6 1021 81 10000 3.6 210 17:20 06.01.2020
1268 Clouds 6 1021 87 7000 3.6 210 16:59 06.01.2020
1269 Clouds 6 1021 87 7000 3.6 210 16:41 06.01.2020
1270 Clouds 6 1022 87 8000 4.1 220 16:23 06.01.2020
1271 Clouds 6 1022 87 8000 4.1 220 15:59 06.01.2020
1272 Clouds 6 1022 87 8000 4.1 220 15:37 06.01.2020
1273 Clouds 6 1022 87 8000 4.1 220 15:37 06.01.2020
1274 Clouds 6 1022 87 10000 4.1 220 15:18 06.01.2020
1275 Clouds 6 1022 87 10000 4.1 220 14:42 06.01.2020
1276 Clouds 6 1023 87 9000 4.6 220 14:23 06.01.2020
1277 Clouds 6 1023 87 9000 4.6 220 14:23 06.01.2020
1278 Clouds 6 1023 87 6000 5.1 230 13:59 06.01.2020
1279 Clouds 6 1023 87 6000 5.1 230 13:40 06.01.2020
1280 Mist 6 1024 87 5000 5.1 230 13:22 06.01.2020
1281 Mist 6 1024 87 5000 5.1 230 12:59 06.01.2020
1282 Mist 6 1024 87 5000 5.1 230 12:41 06.01.2020
1283 Mist 6 1024 87 5000 4.6 220 12:20 06.01.2020
1284 Mist 6 1025 87 4500 4.6 220 11:55 06.01.2020
1285 Mist 6 1025 87 4500 4.6 220 11:37 06.01.2020
1286 Mist 5 1025 93 4500 4.6 220 11:18 06.01.2020
1287 Mist 5 1025 93 4500 4.6 220 10:42 06.01.2020
1288 Mist 5 1025 93 3500 5.1 230 10:21 06.01.2020
1289 Mist 5 1025 93 3500 5.1 230 09:42 06.01.2020
1290 Drizzle 5 1026 93 3500 5.1 230 09:24 06.01.2020
1291 Drizzle 5 1026 93 3500 5.1 230 08:58 06.01.2020
1292 Drizzle 5 1026 93 3500 5.1 230 08:39 06.01.2020
1293 Mist 5 1026 93 4500 5.1 230 08:21 06.01.2020
1294 Mist 5 1026 93 4500 5.1 230 07:45 06.01.2020
1295 Drizzle 5 1026 93 4500 4.6 230 07:21 06.01.2020
1296 Drizzle 5 1026 93 4500 4.6 230 06:38 06.01.2020
1297 Mist 5 1026 93 3500 4.6 230 05:49 06.01.2020
1298 Mist 5 1026 93 4000 4.1 230 05:28 06.01.2020
1299 Drizzle 5 1026 93 3000 4.6 230 04:24 06.01.2020
1300 Drizzle 5 1027 93 4500 4.1 230 03:52 06.01.2020
1301 Drizzle 5 1027 93 4000 5.1 230 02:32 06.01.2020
1302 Mist 5 1027 93 5000 5.1 230 01:55 06.01.2020
1303 Mist 5 1027 93 5000 5.1 230 01:32 06.01.2020
1304 Drizzle 5 1028 93 5000 4.6 240 00:48 06.01.2020
1305 Drizzle 5 1028 93 6000 5.1 230 00:29 06.01.2020
1306 Drizzle 5 1028 93 6000 5.1 230 00:29 06.01.2020
1307 Drizzle 5 1028 86 8000 5.1 230 23:59 05.01.2020
1308 Drizzle 6 1028 86 8000 5.1 230 23:40 05.01.2020
1309 Drizzle 6 1028 81 8000 4.6 230 23:21 05.01.2020
1310 Drizzle 6 1028 81 8000 4.6 230 22:40 05.01.2020
1311 Clouds 6 1028 81 10000 6.2 230 22:21 05.01.2020
1312 Clouds 6 1028 81 10000 6.2 230 21:59 05.01.2020
1313 Clouds 6 1028 81 10000 6.2 230 21:40 05.01.2020
1314 Clouds 6 1029 87 9000 5.7 230 21:20 05.01.2020
1315 Clouds 6 1029 87 9000 5.7 230 20:58 05.01.2020
1316 Clouds 6 1029 87 9000 5.7 230 20:39 05.01.2020
1317 Drizzle 6 1029 87 7000 4.1 230 20:20 05.01.2020
1318 Drizzle 6 1029 87 7000 4.1 230 19:59 05.01.2020
1319 Drizzle 6 1029 87 7000 4.1 230 19:39 05.01.2020
1320 Drizzle 6 1029 87 8000 3.6 240 19:21 05.01.2020
1321 Drizzle 6 1029 87 6000 4.1 230 18:56 05.01.2020
1322 Drizzle 6 1029 87 6000 4.1 230 18:38 05.01.2020
1323 Clouds 6 1029 87 10000 4.6 230 18:19 05.01.2020
1324 Mist 6 1029 93 5000 4.6 230 17:59 05.01.2020
1325 Mist 6 1029 93 5000 4.6 230 17:39 05.01.2020
1326 Mist 6 1030 93 3000 4.6 220 17:20 05.01.2020
1327 Mist 6 1030 93 3000 4.6 220 16:57 05.01.2020
1328 Mist 7 1030 93 3000 4.6 220 16:39 05.01.2020
1329 Mist 7 1030 93 2800 5.1 230 16:20 05.01.2020
1330 Mist 6 1030 93 2800 5.1 230 15:40 05.01.2020
1331 Mist 5 1030 93 2200 5.1 240 15:22 05.01.2020
1332 Mist 5 1030 93 2200 5.1 240 14:57 05.01.2020
1333 Mist 5 1030 93 2200 5.1 240 14:39 05.01.2020
1334 Mist 5 1030 93 1900 4.6 230 14:20 05.01.2020
1335 Mist 5 1030 93 1900 4.6 230 13:58 05.01.2020
1336 Mist 5 1030 93 1900 4.6 230 13:38 05.01.2020
1337 Mist 5 1031 93 3200 4.6 230 13:20 05.01.2020
1338 Mist 4 1031 93 3700 4.6 230 12:57 05.01.2020
1339 Mist 4 1031 93 3700 4.6 230 12:38 05.01.2020
1340 Clouds 4 1031 93 6000 4.6 230 12:19 05.01.2020
1341 Clouds 4 1031 93 7000 4.6 220 11:54 05.01.2020
1342 Clouds 3 1032 93 8000 3.1 220 11:36 05.01.2020
1343 Clouds 3 1032 93 8000 3.1 220 11:18 05.01.2020
1344 Clouds 3 1032 93 8000 3.1 220 10:40 05.01.2020
1345 Clouds 5 1032 86 7000 2.1 220 10:20 05.01.2020
1346 Clouds 4 1032 94 10000 2.6 210 09:55 05.01.2020
1347 Clouds 4 1032 94 10000 2.6 210 09:36 05.01.2020
1348 Clouds 4 1032 94 10000 3.1 240 09:18 05.01.2020
1349 Clouds 3 1032 94 10000 3.1 240 08:44 05.01.2020
1350 Clouds 2 1032 86 10000 2.1 250 08:21 05.01.2020
1351 Clouds 3 1032 86 10000 2.1 250 07:44 05.01.2020
1352 Clouds 3 1032 86 10000 2.1 250 07:44 05.01.2020
1353 Clouds 2 1032 84 10000 2.6 210 07:26 05.01.2020
1354 Clouds 2 1032 84 10000 2.6 210 06:54 05.01.2020
1355 Clouds 4 1031 84 10000 3.1 220 05:43 05.01.2020
1356 Clouds 3 1031 86 10000 2.1 240 04:56 05.01.2020
1357 Clouds 3 1032 80 10000 1.5 240 04:19 05.01.2020
1358 Clouds 4 1032 80 10000 1.5 240 03:38 05.01.2020
1359 Clouds 5 1031 80 10000 3.1 290 02:36 05.01.2020
1360 Clouds 6 1031 65 10000 3.1 310 02:18 05.01.2020
1361 Clouds 6 1030 65 10000 3.1 320 01:20 05.01.2020
1362 Clouds 6 1030 65 10000 3.1 320 00:58 05.01.2020
1363 Clouds 5 1030 65 10000 3.1 320 00:39 05.01.2020
1364 Clouds 5 1030 77 10000 2.6 320 00:20 05.01.2020
1365 Clouds 5 1030 77 10000 2.6 320 23:58 04.01.2020
1366 Clouds 5 1030 77 10000 2.6 320 23:38 04.01.2020
1367 Clouds 5 1029 73 10000 3.1 350 23:18 04.01.2020
1368 Clouds 6 1029 73 10000 3.1 350 22:39 04.01.2020
1369 Clouds 6 1028 75 10000 2.6 330 22:20 04.01.2020
1370 Clouds 6 1028 75 10000 2.6 330 21:56 04.01.2020
1371 Clouds 6 1027 75 10000 3.6 320 21:37 04.01.2020
1372 Clouds 6 1027 75 10000 3.6 320 21:19 04.01.2020
1373 Clouds 6 1027 75 10000 3.6 320 20:56 04.01.2020
1374 Clouds 6 1027 75 10000 3.6 320 20:37 04.01.2020
1375 Clouds 6 1026 75 10000 6.2 330 20:18 04.01.2020
1376 Clouds 6 1026 75 10000 6.2 330 19:42 04.01.2020
1377 Clouds 6 1025 71 10000 6.2 330 19:23 04.01.2020
1378 Clouds 6 1025 71 10000 6.2 330 18:58 04.01.2020
1379 Clouds 6 1025 71 10000 6.2 330 18:39 04.01.2020
1380 Clouds 6 1024 71 10000 7.2 320 18:20 04.01.2020
1381 Clouds 6 1024 71 10000 7.2 320 17:58 04.01.2020
1382 Clouds 6 1024 71 10000 7.2 320 17:40 04.01.2020
1383 Clouds 6 1023 67 10000 6.7 320 17:21 04.01.2020
1384 Clouds 6 1023 67 10000 6.7 320 16:42 04.01.2020
1385 Clouds 6 1022 67 10000 9.8 320 16:24 04.01.2020
1386 Clouds 6 1022 67 10000 9.8 320 15:59 04.01.2020
1387 Clouds 6 1022 67 10000 9.8 320 15:41 04.01.2020
1388 Clouds 6 1020 81 10000 6.7 310 15:19 04.01.2020
1389 Clouds 6 1020 81 10000 6.7 310 14:58 04.01.2020
1390 Clouds 6 1020 81 10000 6.7 310 14:58 04.01.2020
1391 Clouds 6 1020 81 10000 6.7 310 14:40 04.01.2020
1392 Clouds 6 1020 81 10000 6.2 330 14:19 04.01.2020
1393 Clouds 6 1020 81 10000 6.2 330 13:56 04.01.2020
1394 Clouds 7 1020 81 10000 6.2 330 13:37 04.01.2020
1395 Clouds 7 1020 81 10000 6.2 330 13:37 04.01.2020
1396 Rain 6 1019 93 5000 9.3 310 13:19 04.01.2020
1397 Rain 7 1019 93 5000 9.3 310 12:42 04.01.2020
1398 Rain 7 1019 86 3500 12.3 310 12:20 04.01.2020
1399 Rain 7 1018 87 5000 10.3 280 11:59 04.01.2020
1400 Rain 7 1018 87 5000 10.3 280 11:40 04.01.2020
1401 Rain 7 1018 87 5000 10.3 280 11:40 04.01.2020
1402 Clouds 7 1018 81 6000 10.8 270 11:20 04.01.2020
1403 Clouds 7 1018 81 6000 10.8 270 10:59 04.01.2020
1404 Clouds 7 1018 81 6000 10.8 270 10:38 04.01.2020
1405 Clouds 7 1018 81 7000 9.8 270 10:19 04.01.2020
1406 Clouds 7 1018 81 7000 9.8 270 09:43 04.01.2020
1407 Rain 6 1018 87 9000 9.3 270 09:25 04.01.2020
1408 Rain 6 1018 87 9000 9.3 270 08:47 04.01.2020
1409 Clouds 6 1019 87 10000 10.3 270 08:28 04.01.2020
1410 Clouds 6 1019 87 10000 10.3 270 07:55 04.01.2020
1411 Clouds 6 1019 87 10000 10.3 270 07:37 04.01.2020
1412 Clouds 6 1019 81 10000 9.3 270 06:43 04.01.2020
1413 Clouds 6 1019 81 10000 10.8 260 05:57 04.01.2020
1414 Clouds 6 1020 86 10000 8.2 260 04:50 04.01.2020
1415 Clouds 6 1020 86 10000 9.8 260 04:29 04.01.2020
1416 Clouds 6 1020 86 10000 8.2 260 03:28 04.01.2020
1417 Clouds 6 1020 86 10000 8.2 260 02:49 04.01.2020
1418 Clouds 6 1021 80 10000 6.7 270 02:18 04.01.2020
1419 Clouds 6 1021 80 10000 6.7 270 01:41 04.01.2020
1420 Rain 6 1021 80 10000 7.2 280 01:23 04.01.2020
1421 Clouds 6 1020 80 10000 6.7 290 00:29 04.01.2020
1422 Clouds 6 1020 80 10000 6.7 290 23:57 03.01.2020
1423 Clouds 5 1019 75 10000 4.1 320 23:30 03.01.2020
1424 Clouds 5 1019 75 10000 4.1 320 23:30 03.01.2020
1425 Clouds 5 1019 75 10000 4.1 320 22:59 03.01.2020
1426 Clouds 6 1019 75 10000 4.1 320 22:40 03.01.2020
1427 Clouds 6 1019 86 10000 5.7 290 22:19 03.01.2020
1428 Clouds 6 1019 86 10000 5.7 290 21:57 03.01.2020
1429 Clouds 6 1019 86 10000 5.7 290 21:38 03.01.2020
1430 Clouds 6 1018 75 10000 7.2 310 21:19 03.01.2020
1431 Clouds 6 1018 75 10000 7.2 310 20:55 03.01.2020
1432 Clouds 6 1018 75 10000 7.2 310 20:37 03.01.2020
1433 Clouds 6 1017 87 10000 4.6 320 20:18 03.01.2020
1434 Clouds 6 1017 87 10000 4.6 320 19:54 03.01.2020
1435 Clouds 6 1017 87 10000 4.6 320 19:36 03.01.2020
1436 Rain 5 1015 93 8000 4.1 330 19:18 03.01.2020
1437 Rain 5 1015 93 8000 4.1 330 18:39 03.01.2020
1438 Rain 5 1015 93 8000 4.1 330 18:39 03.01.2020
1439 Rain 5 1014 93 6000 4.6 350 18:20 03.01.2020
1440 Rain 5 1014 93 6000 4.6 350 17:54 03.01.2020
1441 Rain 5 1014 93 6000 4.6 350 17:36 03.01.2020
1442 Drizzle 6 1012 87 5000 5.1 10 17:18 03.01.2020
1443 Drizzle 6 1012 93 4500 6.2 20 16:42 03.01.2020
1444 Drizzle 8 1011 93 3000 5.7 260 16:22 03.01.2020
1445 Drizzle 8 1011 93 3000 5.7 260 15:43 03.01.2020
1446 Drizzle 8 1010 93 4500 4.6 250 15:19 03.01.2020
1447 Drizzle 8 1010 93 4500 4.6 250 15:19 03.01.2020
1448 Drizzle 8 1010 93 4500 4.6 250 14:56 03.01.2020
1449 Drizzle 8 1010 93 4500 4.6 250 14:37 03.01.2020
1450 Drizzle 8 1010 93 3700 5.1 240 14:19 03.01.2020
1451 Drizzle 8 1010 93 3700 5.1 240 13:41 03.01.2020
1452 Drizzle 7 1011 100 2500 5.7 230 13:23 03.01.2020
1453 Drizzle 7 1011 100 2500 5.7 230 12:57 03.01.2020
1454 Drizzle 7 1011 100 2500 5.7 230 12:38 03.01.2020
1455 Drizzle 7 1011 100 5000 6.7 230 12:20 03.01.2020
1456 Drizzle 7 1011 100 4500 6.7 230 11:44 03.01.2020
1457 Drizzle 7 1012 93 3000 6.7 230 11:19 03.01.2020
1458 Drizzle 7 1012 93 3000 6.7 230 10:44 03.01.2020
1459 Drizzle 7 1012 93 1800 6.2 230 10:25 03.01.2020
1460 Drizzle 7 1012 93 1800 6.2 230 09:57 03.01.2020
1461 Drizzle 7 1012 93 1800 6.2 230 09:39 03.01.2020
1462 Drizzle 6 1012 100 2000 5.7 230 09:21 03.01.2020
1463 Drizzle 6 1012 100 2000 5.7 230 08:56 03.01.2020
1464 Drizzle 6 1012 100 2000 5.7 230 08:36 03.01.2020
1465 Drizzle 6 1012 93 2000 6.2 220 08:18 03.01.2020
1466 Drizzle 6 1012 93 2000 6.2 220 07:39 03.01.2020
1467 Drizzle 6 1012 93 3000 7.2 220 07:18 03.01.2020
1468 Drizzle 6 1012 93 3000 7.2 220 06:47 03.01.2020
1469 Drizzle 6 1012 93 2500 6.7 220 06:28 03.01.2020
1470 Clouds 6 1013 87 10000 7.2 220 05:30 03.01.2020
1471 Clouds 5 1014 86 10000 7.2 220 04:19 03.01.2020
1472 Clouds 5 1014 86 10000 7.2 220 02:56 03.01.2020
1473 Clouds 5 1015 86 9000 7.2 220 02:26 03.01.2020
1474 Clouds 5 1015 86 9000 7.2 220 01:39 03.01.2020
1475 Mist 4 1017 93 5000 6.7 220 00:49 03.01.2020
1476 Mist 4 1017 93 5000 6.7 220 00:49 03.01.2020
1477 Mist 4 1017 93 4500 6.7 220 00:29 03.01.2020
1478 Mist 3 1017 100 4500 6.7 220 23:55 02.01.2020
1479 Mist 3 1018 93 3700 6.7 220 23:37 02.01.2020
1480 Mist 3 1018 93 3700 6.7 220 23:18 02.01.2020
1481 Mist 3 1018 93 4500 6.7 220 22:44 02.01.2020
1482 Mist 3 1018 93 4500 6.2 220 22:21 02.01.2020
1483 Mist 3 1018 93 4500 6.2 220 21:59 02.01.2020
1484 Mist 3 1018 93 4500 6.2 220 21:41 02.01.2020
1485 Mist 2 1019 100 4500 6.2 220 21:23 02.01.2020
1486 Mist 2 1019 93 4000 5.1 210 20:58 02.01.2020
1487 Mist 2 1019 93 4000 5.1 210 20:39 02.01.2020
1488 Mist 2 1019 93 4000 5.1 210 20:39 02.01.2020
1489 Mist 1 1020 100 3000 5.1 210 20:21 02.01.2020
1490 Mist 1 1020 100 3000 5.1 210 19:55 02.01.2020
1491 Mist 1 1020 100 3000 5.1 210 19:55 02.01.2020
1492 Mist 1 1020 100 3000 5.1 210 19:37 02.01.2020
1493 Mist 1 1020 85 3000 4.6 210 19:19 02.01.2020
1494 Mist 1 1020 85 3000 4.6 210 18:56 02.01.2020
1495 Mist 1 1020 85 3000 4.6 210 18:38 02.01.2020
1496 Mist 0 1021 85 1800 5.1 210 18:20 02.01.2020
1497 Mist 0 1021 85 1800 5.1 210 17:56 02.01.2020
1498 Mist 0 1021 85 1000 4.6 210 17:36 02.01.2020
1499 Mist 0 1021 93 1000 4.6 210 17:18 02.01.2020
1500 Fog 0 1022 93 700 5.1 220 16:56 02.01.2020
1501 Fog 0 1022 93 700 5.1 220 16:38 02.01.2020
1502 Fog 0 1022 93 400 5.1 210 16:19 02.01.2020
1503 Fog 0 1022 93 400 5.1 210 15:45 02.01.2020
1504 Fog -1 1023 100 400 4.1 220 15:24 02.01.2020
1505 Fog -1 1023 100 400 4.1 220 14:58 02.01.2020
1506 Fog -1 1023 100 400 4.1 220 14:38 02.01.2020
1507 Fog -1 1023 92 700 4.6 230 14:20 02.01.2020
1508 Fog -1 1023 92 700 4.6 230 13:58 02.01.2020
1509 Fog -1 1023 92 700 4.6 230 13:40 02.01.2020
1510 Mist -1 1024 100 2500 3.6 250 13:19 02.01.2020
1511 Mist -1 1024 100 2500 3.6 250 12:43 02.01.2020
1512 Mist -1 1025 100 2000 5.1 240 12:23 02.01.2020
1513 Mist -1 1025 100 2000 5.1 240 11:42 02.01.2020
1514 Fog 0 1025 96 450 3.6 240 11:23 02.01.2020
1515 Fog 0 1025 96 900 4.1 240 10:56 02.01.2020
1516 Fog 0 1025 96 900 4.1 240 10:36 02.01.2020
1517 Mist 0 1025 96 1400 4.1 260 10:18 02.01.2020
1518 Mist 0 1025 96 1400 4.1 260 09:41 02.01.2020
1519 Fog 0 1025 96 800 4.1 240 09:21 02.01.2020
1520 Fog 0 1025 96 450 3.6 240 08:41 02.01.2020
1521 Fog 0 1025 89 400 4.1 230 08:22 02.01.2020
1522 Fog 0 1025 89 400 4.1 230 07:47 02.01.2020
1523 Fog 0 1025 89 400 4.1 230 07:27 02.01.2020
1524 Fog 0 1026 89 500 2.6 230 06:43 02.01.2020
1525 Fog 0 1026 89 500 4.6 220 05:54 02.01.2020
1526 Fog -1 1026 100 600 4.1 230 04:37 02.01.2020
1527 Fog -1 1027 100 500 3.6 230 03:54 02.01.2020
1528 Fog -1 1028 100 500 3.6 230 02:21 02.01.2020
1529 Fog -1 1028 100 500 3.6 230 01:57 02.01.2020
1530 Mist -1 1028 92 3000 2.6 240 01:30 02.01.2020
1531 Mist -1 1028 92 3000 2.6 240 00:52 02.01.2020
1532 Mist -1 1029 92 3000 3.1 260 00:28 02.01.2020
1533 Mist -1 1029 92 3000 3.1 260 23:47 01.01.2020
1534 Mist -1 1029 92 1600 4.6 260 23:24 01.01.2020
1535 Mist -1 1029 92 1600 4.6 260 22:54 01.01.2020
1536 Mist -1 1029 92 1600 4.6 260 22:36 01.01.2020
1537 Mist -2 1029 100 1500 3.6 240 22:18 01.01.2020
1538 Mist -2 1029 100 1500 3.6 240 21:42 01.01.2020
1539 Fog -1 1029 92 800 3.1 220 21:21 01.01.2020
1540 Fog -1 1029 92 700 5.1 220 20:58 01.01.2020
1541 Fog -1 1029 92 700 5.1 220 20:39 01.01.2020
1542 Fog -1 1029 92 400 3.6 230 20:20 01.01.2020
1543 Fog -1 1029 92 400 3.6 230 19:58 01.01.2020
1544 Fog -1 1029 92 400 3.6 230 19:39 01.01.2020
1545 Fog -2 1029 100 500 3.1 210 19:20 01.01.2020
1546 Fog -1 1030 92 200 2.1 220 18:57 01.01.2020
1547 Fog -1 1030 92 200 2.1 220 18:39 01.01.2020
1548 Fog -1 1030 92 200 3.6 220 18:20 01.01.2020
1549 Fog -1 1030 92 200 3.6 220 17:59 01.01.2020
1550 Fog -1 1030 92 200 3.6 220 17:40 01.01.2020
1551 Fog 0 1030 100 100 3.1 220 17:20 01.01.2020
1552 Fog 0 1030 100 100 3.1 220 16:58 01.01.2020
1553 Fog 0 1030 100 100 3.1 220 16:38 01.01.2020
1554 Fog 0 1030 100 100 3.1 220 16:38 01.01.2020
1555 Fog 0 1030 100 100 2.1 200 16:19 01.01.2020
1556 Fog 0 1030 100 100 2.1 200 15:57 01.01.2020
1557 Fog 0 1030 100 100 2.1 200 15:57 01.01.2020
1558 Fog -1 1030 100 100 2.1 200 15:37 01.01.2020
1559 Fog 0 1031 82 200 1 200 15:19 01.01.2020
1560 Fog 0 1031 82 200 1 200 14:56 01.01.2020
1561 Fog 0 1031 82 200 1 200 14:37 01.01.2020
1562 Fog 0 1031 85 150 2.1 200 14:19 01.01.2020
1563 Fog 0 1031 85 150 2.1 200 13:55 01.01.2020
1564 Fog 0 1031 85 150 2.1 200 13:36 01.01.2020
1565 Fog 0 1032 85 200 2.1 230 13:18 01.01.2020
1566 Fog 0 1032 85 200 2.1 230 12:40 01.01.2020
1567 Fog 0 1033 85 200 2.1 210 12:20 01.01.2020
1568 Fog 0 1033 85 200 2.1 210 11:57 01.01.2020
1569 Fog 0 1033 85 200 2.1 210 11:57 01.01.2020
1570 Fog 0 1033 85 200 2.1 210 11:39 01.01.2020
1571 Fog 0 1033 86 200 3.6 220 11:20 01.01.2020
1572 Fog 0 1033 86 200 3.6 220 10:55 01.01.2020
1573 Fog 0 1033 86 200 3.6 220 10:37 01.01.2020
1574 Fog 0 1033 100 200 2.6 240 10:18 01.01.2020
1575 Fog 0 1033 100 200 2.6 240 09:40 01.01.2020
1576 Fog 0 1033 100 200 2.6 230 09:20 01.01.2020
1577 Fog 0 1033 100 200 2.6 230 08:57 01.01.2020
1578 Fog 0 1033 100 200 2.6 230 08:57 01.01.2020
1579 Fog 0 1033 100 200 2.6 230 08:38 01.01.2020
1580 Fog 1 1033 84 300 2.1 230 08:19 01.01.2020
1581 Fog 1 1033 84 300 2.1 230 07:57 01.01.2020
1582 Fog 1 1033 84 300 2.1 230 07:38 01.01.2020
1583 Mist 1 1033 84 1500 2.6 220 06:55 01.01.2020
1584 Mist 1 1033 84 1500 2.6 220 06:36 01.01.2020
1585 Mist 1 1033 84 2500 2.6 220 05:48 01.01.2020
1586 Clouds 2 1033 86 9000 2.1 230 04:20 01.01.2020
1587 Clouds 3 1033 86 9000 2.1 230 03:39 01.01.2020
1588 Clouds 3 1033 93 9000 2.1 260 03:21 01.01.2020
1589 Clouds 5 1033 93 9000 2.1 260 02:41 01.01.2020
1590 Clouds 4 1034 86 9000 1.5 260 02:22 01.01.2020
1591 Clouds 5 1034 86 9000 1.5 260 01:41 01.01.2020
1592 Clouds 5 1034 86 10000 1.5 260 01:22 01.01.2020
1593 Clouds 5 1034 86 10000 1.5 260 00:45 01.01.2020
1594 Clouds 5 1035 86 10000 1 0 00:26 01.01.2020
1595 Clouds 5 1035 86 10000 1 0 23:56 31.12.2019
1596 Clouds 5 1035 86 10000 1 0 23:36 31.12.2019
1597 Clouds 4 1034 93 10000 1.5 240 23:18 31.12.2019
1598 Clouds 4 1034 93 10000 1.5 240 22:55 31.12.2019
1599 Clouds 4 1034 93 10000 1.5 240 22:36 31.12.2019
1600 Clouds 5 1034 80 10000 2.6 280 22:18 31.12.2019
1601 Clouds 5 1034 80 10000 2.6 280 21:42 31.12.2019
1602 Clouds 4 1034 86 10000 2.1 250 21:24 31.12.2019
1603 Clouds 4 1034 86 10000 2.1 250 20:57 31.12.2019
1604 Clouds 5 1034 86 10000 2.1 250 20:38 31.12.2019
1605 Clouds 5 1034 86 10000 2.1 300 20:20 31.12.2019
1606 Clouds 5 1034 86 10000 2.1 300 19:55 31.12.2019
1607 Clouds 6 1034 86 10000 2.1 300 19:37 31.12.2019
1608 Clouds 6 1033 80 10000 3.1 320 19:18 31.12.2019
1609 Clouds 6 1033 80 10000 3.1 320 18:55 31.12.2019
1610 Clouds 6 1033 80 10000 3.1 320 18:37 31.12.2019
1611 Clouds 6 1033 81 10000 3.6 330 18:19 31.12.2019
1612 Clouds 6 1033 81 10000 3.6 330 17:55 31.12.2019
1613 Clouds 6 1033 81 10000 3.6 330 17:36 31.12.2019
1614 Clouds 6 1033 81 10000 3.6 330 17:36 31.12.2019
1615 Clouds 6 1033 80 10000 3.6 310 17:18 31.12.2019
1616 Clouds 6 1033 81 10000 4.1 320 16:56 31.12.2019
1617 Clouds 7 1032 75 10000 4.6 320 16:37 31.12.2019
1618 Clouds 7 1032 75 10000 4.6 320 16:18 31.12.2019
1619 Clouds 7 1032 75 10000 4.6 320 15:56 31.12.2019
1620 Clouds 8 1032 75 10000 4.6 320 15:37 31.12.2019
1621 Clouds 8 1032 75 10000 4.6 300 15:19 31.12.2019
1622 Clouds 8 1032 75 10000 4.6 300 14:55 31.12.2019
1623 Clouds 8 1032 75 10000 4.6 300 14:37 31.12.2019
1624 Clouds 8 1031 75 9000 6.7 310 14:18 31.12.2019
1625 Clouds 8 1031 75 9000 6.7 310 13:56 31.12.2019
1626 Clouds 8 1031 75 9000 6.7 310 13:37 31.12.2019
1627 Clouds 8 1031 87 9000 6.7 300 13:19 31.12.2019
1628 Clouds 8 1031 87 9000 6.7 300 12:55 31.12.2019
1629 Clouds 8 1031 87 9000 6.7 300 12:37 31.12.2019
1630 Clouds 8 1030 81 10000 6.7 300 12:18 31.12.2019
1631 Clouds 8 1030 81 10000 6.7 300 11:55 31.12.2019
1632 Clouds 7 1030 81 10000 6.7 300 11:36 31.12.2019
1633 Clouds 7 1030 87 10000 6.2 300 11:18 31.12.2019
1634 Clouds 7 1030 87 10000 6.2 300 10:55 31.12.2019
1635 Clouds 7 1030 87 10000 6.2 300 10:37 31.12.2019
1636 Clouds 7 1029 87 10000 6.2 310 10:19 31.12.2019
1637 Clouds 7 1029 87 10000 6.2 310 09:56 31.12.2019
1638 Clouds 7 1029 87 10000 6.2 310 09:38 31.12.2019
1639 Clouds 7 1028 81 10000 6.2 320 09:18 31.12.2019
1640 Clouds 7 1028 81 10000 6.2 320 09:18 31.12.2019
1641 Clouds 8 1028 81 10000 6.2 320 08:42 31.12.2019
1642 Clouds 7 1028 86 10000 4.1 310 08:23 31.12.2019
1643 Clouds 7 1028 87 10000 4.6 320 07:57 31.12.2019
1644 Clouds 7 1028 87 10000 4.6 320 07:38 31.12.2019
1645 Clouds 7 1027 81 10000 6.2 320 07:18 31.12.2019
1646 Clouds 7 1027 81 10000 6.2 320 06:40 31.12.2019
1647 Clouds 7 1025 87 10000 6.7 320 05:28 31.12.2019
1648 Clouds 7 1024 93 10000 6.7 310 04:25 31.12.2019
1649 Mist 7 1024 93 5000 6.2 300 03:24 31.12.2019
1650 Drizzle 7 1023 93 2000 6.7 300 02:36 31.12.2019
1651 Drizzle 7 1023 93 1700 7.7 290 01:51 31.12.2019
1652 Drizzle 7 1023 93 1700 7.7 290 01:32 31.12.2019
1653 Mist 6 1023 93 2800 5.7 270 00:56 31.12.2019
1654 Mist 6 1023 93 2800 5.7 270 00:37 31.12.2019
1655 Clouds 6 1022 93 10000 6.7 260 00:18 31.12.2019
1656 Clouds 6 1023 86 10000 6.2 260 23:55 30.12.2019
1657 Clouds 5 1023 86 10000 6.2 260 23:37 30.12.2019
1658 Clouds 5 1022 80 10000 6.7 260 23:18 30.12.2019
1659 Clouds 5 1022 80 10000 6.7 260 22:55 30.12.2019
1660 Clouds 4 1022 80 10000 6.7 260 22:37 30.12.2019
1661 Clouds 5 1022 75 10000 6.7 260 22:18 30.12.2019
1662 Clouds 5 1022 89 10000 6.7 260 21:55 30.12.2019
1663 Clouds 5 1022 89 10000 6.7 260 21:37 30.12.2019
1664 Clouds 5 1022 65 10000 7.7 260 21:18 30.12.2019
1665 Clear 5 1022 64 10000 5.1 250 20:55 30.12.2019
1666 Clear 5 1022 64 10000 5.1 250 20:55 30.12.2019
1667 Clear 5 1022 64 10000 5.1 250 20:37 30.12.2019
1668 Clear 5 1022 64 10000 5.1 240 20:18 30.12.2019
1669 Clear 5 1022 64 10000 5.1 240 19:55 30.12.2019
1670 Clear 5 1022 64 10000 5.1 240 19:36 30.12.2019
1671 Clear 5 1022 60 10000 5.1 240 19:18 30.12.2019
1672 Clear 5 1022 60 10000 5.1 240 18:42 30.12.2019
1673 Clear 6 1022 52 10000 6.2 230 18:21 30.12.2019
1674 Clear 6 1022 52 10000 6.2 230 17:59 30.12.2019
1675 Clear 6 1022 52 10000 6.2 230 17:41 30.12.2019
1676 Clouds 6 1023 52 10000 6.2 240 17:20 30.12.2019
1677 Clouds 6 1023 52 10000 6.2 240 17:00 30.12.2019
1678 Clouds 7 1023 52 10000 6.2 240 16:40 30.12.2019
1679 Clouds 7 1023 52 10000 5.1 240 16:20 30.12.2019
1680 Clouds 7 1023 52 10000 5.1 240 15:57 30.12.2019
1681 Clouds 7 1023 52 10000 5.1 240 15:39 30.12.2019
1682 Clouds 7 1023 45 10000 6.7 250 15:19 30.12.2019
1683 Clouds 7 1023 45 10000 6.7 250 15:19 30.12.2019
1684 Clouds 7 1023 45 10000 6.7 250 14:55 30.12.2019
1685 Clouds 8 1023 45 10000 6.7 250 14:37 30.12.2019
1686 Clouds 8 1023 45 10000 6.7 250 14:37 30.12.2019
1687 Clouds 7 1024 48 10000 6.7 240 14:18 30.12.2019
1688 Clouds 7 1024 48 10000 6.7 240 13:42 30.12.2019
1689 Clouds 7 1024 48 10000 6.7 240 13:24 30.12.2019
1690 Clouds 7 1024 48 10000 6.7 240 13:24 30.12.2019
1691 Clouds 7 1024 48 10000 6.7 240 12:59 30.12.2019
1692 Clouds 6 1024 48 10000 6.7 240 12:41 30.12.2019
1693 Clouds 6 1025 48 10000 6.2 240 12:19 30.12.2019
1694 Clouds 6 1025 48 10000 6.2 240 11:56 30.12.2019
1695 Clouds 5 1025 48 10000 6.2 240 11:38 30.12.2019
1696 Clouds 5 1025 48 10000 6.2 230 11:18 30.12.2019
1697 Clouds 5 1025 48 10000 6.2 230 10:43 30.12.2019
1698 Clouds 5 1025 48 10000 5.7 240 10:21 30.12.2019
1699 Clouds 5 1025 48 10000 5.7 240 09:55 30.12.2019
1700 Clouds 5 1025 48 10000 5.7 240 09:37 30.12.2019
1701 Clouds 5 1026 48 10000 6.2 230 09:18 30.12.2019
1702 Clouds 6 1026 48 10000 6.2 230 08:46 30.12.2019
1703 Clouds 6 1026 48 10000 6.7 230 08:23 30.12.2019
1704 Clouds 6 1026 48 10000 6.7 230 07:53 30.12.2019
1705 Clouds 6 1026 48 10000 6.7 230 07:33 30.12.2019
1706 Clouds 5 1027 48 10000 5.7 230 06:50 30.12.2019
1707 Clouds 5 1028 51 10000 6.2 230 04:50 30.12.2019
1708 Clouds 5 1028 55 10000 6.7 230 03:52 30.12.2019
1709 Clouds 4 1029 55 10000 6.2 230 02:50 30.12.2019
1710 Clouds 4 1029 55 10000 6.2 230 02:32 30.12.2019
1711 Clouds 4 1029 51 10000 5.7 240 01:50 30.12.2019
1712 Clouds 4 1029 51 10000 6.7 230 01:20 30.12.2019
1713 Clouds 4 1029 51 10000 6.7 230 00:43 30.12.2019
1714 Clouds 4 1030 48 10000 6.7 230 23:59 29.12.2019
1715 Clouds 4 1030 48 10000 6.7 230 23:39 29.12.2019
1716 Clouds 4 1030 51 10000 7.2 230 23:21 29.12.2019
1717 Clouds 4 1030 51 10000 7.2 230 22:42 29.12.2019
1718 Clouds 3 1031 59 10000 6.2 220 22:22 29.12.2019
1719 Clouds 3 1031 59 10000 6.2 220 22:22 29.12.2019
1720 Clouds 3 1031 59 10000 6.2 220 21:58 29.12.2019
1721 Clouds 3 1031 59 10000 6.2 220 21:40 29.12.2019
1722 Clouds 3 1032 59 10000 6.7 230 21:20 29.12.2019
1723 Clouds 3 1032 59 10000 6.7 230 20:57 29.12.2019
1724 Clouds 3 1032 59 10000 6.7 230 20:38 29.12.2019
1725 Clouds 3 1031 64 10000 6.7 220 20:20 29.12.2019
1726 Clouds 3 1031 64 10000 6.7 220 19:58 29.12.2019
1727 Clouds 3 1031 64 10000 6.7 220 19:39 29.12.2019
1728 Clouds 3 1033 69 10000 5.1 220 19:20 29.12.2019
1729 Clouds 3 1033 69 10000 5.1 220 18:57 29.12.2019
1730 Clouds 3 1033 69 10000 5.1 220 18:38 29.12.2019
1731 Clouds 3 1033 69 10000 5.1 220 18:38 29.12.2019
1732 Clouds 3 1033 74 10000 3.6 220 18:19 29.12.2019
1733 Clouds 3 1033 74 10000 3.6 220 17:57 29.12.2019
1734 Clouds 3 1033 74 10000 3.6 220 17:57 29.12.2019
1735 Clouds 3 1033 74 10000 3.6 220 17:39 29.12.2019
1736 Clouds 3 1033 74 10000 4.1 210 17:20 29.12.2019
1737 Clouds 3 1033 74 10000 4.1 210 16:56 29.12.2019
1738 Clouds 3 1033 74 10000 4.1 210 16:37 29.12.2019
1739 Clouds 2 1033 74 10000 5.1 200 16:19 29.12.2019
1740 Clouds 2 1033 74 10000 5.1 200 15:57 29.12.2019
1741 Clouds 3 1033 74 10000 5.1 200 15:39 29.12.2019
1742 Clouds 2 1034 74 10000 4.6 230 15:20 29.12.2019
1743 Clouds 2 1034 74 10000 4.6 230 14:57 29.12.2019
1744 Clouds 3 1034 74 10000 4.6 230 14:38 29.12.2019
1745 Clouds 2 1034 74 10000 4.6 220 14:18 29.12.2019
1746 Clouds 2 1034 74 10000 4.6 220 13:57 29.12.2019
1747 Clouds 2 1034 74 10000 4.6 220 13:57 29.12.2019
1748 Clouds 3 1034 74 10000 4.6 220 13:38 29.12.2019
1749 Clouds 2 1035 80 10000 4.6 230 13:19 29.12.2019
1750 Clouds 2 1035 80 10000 4.6 230 12:45 29.12.2019
1751 Clouds 2 1036 80 10000 5.1 220 12:27 29.12.2019
1752 Clouds 2 1036 80 10000 5.1 220 11:57 29.12.2019
1753 Clouds 1 1036 80 10000 5.1 220 11:38 29.12.2019
1754 Clouds 1 1036 74 10000 5.7 220 11:20 29.12.2019
1755 Clouds 1 1036 74 10000 5.7 220 10:43 29.12.2019
1756 Clouds 0 1036 76 10000 4.6 230 10:25 29.12.2019
1757 Clouds 0 1036 76 10000 4.6 230 09:58 29.12.2019
1758 Clouds 0 1036 76 10000 4.6 230 09:39 29.12.2019
1759 Clouds 0 1037 76 10000 4.1 220 09:21 29.12.2019
1760 Clouds 0 1037 76 10000 4.1 220 08:48 29.12.2019
1761 Clouds 0 1037 75 10000 4.1 210 08:28 29.12.2019
1762 Clouds 0 1037 76 10000 4.1 210 07:56 29.12.2019
1763 Clouds 0 1037 86 10000 3.6 210 07:28 29.12.2019
1764 Clouds 0 1037 86 10000 3.6 210 06:56 29.12.2019
1765 Clouds 0 1037 86 10000 2.6 200 06:26 29.12.2019
1766 Clouds 0 1037 86 10000 2.6 200 05:53 29.12.2019
1767 Clouds 0 1038 86 10000 2.6 190 04:36 29.12.2019
1768 Clouds 0 1038 86 10000 2.6 190 03:58 29.12.2019
1769 Clouds 0 1038 86 10000 3.1 210 03:21 29.12.2019
1770 Clouds 0 1039 79 10000 3.1 190 02:21 29.12.2019
1771 Clouds 0 1039 79 10000 3.1 190 01:40 29.12.2019
1772 Clouds 0 1038 79 10000 2.6 190 01:21 29.12.2019
1773 Clouds 0 1038 79 10000 2.6 190 00:42 29.12.2019
1774 Clouds 0 1039 79 10000 4.1 170 00:23 29.12.2019
1775 Clouds 0 1039 79 10000 4.1 170 00:23 29.12.2019
1776 Clouds 1 1039 79 10000 4.1 170 23:44 28.12.2019
1777 Clouds 1 1040 81 10000 3.1 180 23:18 28.12.2019
1778 Clouds 1 1040 81 10000 3.1 180 23:18 28.12.2019
1779 Clouds 0 1040 81 10000 3.1 180 22:39 28.12.2019
1780 Clouds 0 1040 81 10000 3.6 170 22:21 28.12.2019
1781 Clouds 0 1040 81 10000 3.6 170 21:58 28.12.2019
1782 Clouds 0 1040 81 10000 3.6 170 21:40 28.12.2019
1783 Clouds 0 1040 81 10000 4.1 170 21:22 28.12.2019
1784 Clouds 0 1040 81 10000 4.1 170 20:59 28.12.2019
1785 Clouds 1 1040 81 10000 4.1 170 20:38 28.12.2019
1786 Clouds 1 1040 78 10000 4.1 170 20:20 28.12.2019
1787 Clouds 1 1040 78 10000 4.1 170 19:58 28.12.2019
1788 Clouds 1 1040 78 10000 4.1 170 19:39 28.12.2019
1789 Clouds 1 1040 78 10000 3.1 160 19:21 28.12.2019
1790 Clouds 1 1040 78 10000 3.1 160 18:58 28.12.2019
1791 Clouds 1 1040 78 10000 3.1 160 18:40 28.12.2019
1792 Clouds 1 1040 78 10000 3.6 160 18:19 28.12.2019
1793 Clouds 1 1040 78 10000 3.6 160 17:56 28.12.2019
1794 Clouds 1 1040 78 10000 3.6 160 17:38 28.12.2019
1795 Clouds 1 1040 78 10000 3.1 150 17:18 28.12.2019
1796 Clouds 1 1040 78 10000 3.1 150 16:46 28.12.2019
1797 Clouds 1 1041 78 10000 3.1 140 16:26 28.12.2019
1798 Clouds 1 1041 78 10000 3.1 140 15:57 28.12.2019
1799 Clouds 1 1041 78 10000 3.1 140 15:39 28.12.2019
1800 Clouds 1 1041 78 10000 1.5 140 15:19 28.12.2019
1801 Clouds 1 1041 78 10000 1.5 140 14:44 28.12.2019
1802 Clouds 1 1041 78 10000 1 140 14:24 28.12.2019
1803 Clouds 1 1041 79 10000 1 140 13:57 28.12.2019
1804 Clouds 1 1041 79 10000 1 140 13:38 28.12.2019
1805 Clouds 1 1041 79 10000 2.6 150 13:19 28.12.2019
1806 Clouds 1 1041 79 10000 2.6 150 13:19 28.12.2019
1807 Clouds 1 1041 79 10000 2.6 150 12:43 28.12.2019
1808 Clouds 0 1042 86 10000 2.1 150 12:24 28.12.2019
1809 Clouds 0 1042 86 10000 2.1 150 12:24 28.12.2019
1810 Clouds 0 1042 86 10000 2.1 150 11:57 28.12.2019
1811 Clouds 0 1042 86 10000 2.1 150 11:39 28.12.2019
1812 Clouds 0 1042 86 10000 2.6 150 11:20 28.12.2019
1813 Clouds 0 1042 86 10000 2.6 150 10:46 28.12.2019
1814 Clouds 0 1042 86 10000 2.6 150 10:46 28.12.2019
1815 Clouds -1 1041 92 10000 2.6 140 10:22 28.12.2019
1816 Clouds -1 1041 92 10000 2.6 140 10:22 28.12.2019
1817 Clouds -1 1041 92 10000 2.6 140 10:22 28.12.2019
1818 Clouds -1 1041 92 10000 2.6 140 10:22 28.12.2019
1819 Clouds -1 1041 92 10000 2.6 140 09:58 28.12.2019
1820 Clouds -1 1041 92 10000 2.6 140 09:40 28.12.2019
1821 Clouds -1 1041 86 10000 2.1 150 09:20 28.12.2019
1822 Clouds -1 1041 86 10000 2.1 150 09:20 28.12.2019
1823 Clouds -1 1041 86 10000 2.1 150 08:44 28.12.2019
1824 Clouds -1 1041 92 10000 2.1 140 08:26 28.12.2019
1825 Clouds -1 1041 92 10000 2.1 140 07:55 28.12.2019
1826 Clouds -1 1041 92 10000 1.5 140 07:32 28.12.2019
1827 Clouds -1 1041 92 10000 1.5 140 06:42 28.12.2019
1828 Clouds 0 1041 92 10000 1.5 130 05:19 28.12.2019
1829 Clouds 1 1040 92 10000 1.5 130 03:47 28.12.2019
1830 Clouds 1 1040 92 10000 1.5 130 02:49 28.12.2019
1831 Clouds 0 1040 92 10000 4.54 138 02:19 28.12.2019
1832 Clouds 1 1040 92 10000 4.54 138 01:42 28.12.2019
1833 Clouds 0 1039 92 10000 0.5 0 01:18 28.12.2019
1834 Clouds 1 1039 92 10000 0.5 0 00:40 28.12.2019
1835 Clouds 0 1039 86 10000 1 160 00:21 28.12.2019
1836 Clouds 1 1039 86 10000 1 160 23:45 27.12.2019
1837 Clouds 0 1038 86 10000 0.5 0 23:20 27.12.2019
1838 Clouds 0 1038 86 10000 0.5 0 22:58 27.12.2019
1839 Clouds 0 1038 86 10000 0.5 0 22:39 27.12.2019
1840 Clouds 0 1038 68 10000 1.5 130 22:20 27.12.2019
1841 Clouds 0 1038 68 10000 1.5 130 22:20 27.12.2019
1842 Clouds 0 1038 68 10000 1.5 130 21:59 27.12.2019
1843 Clouds 2 1038 68 10000 1.5 130 21:40 27.12.2019
1844 Clouds 2 1037 74 10000 2.6 110 21:22 27.12.2019
1845 Clouds 3 1037 74 10000 2.6 110 20:42 27.12.2019
1846 Clouds 2 1037 80 10000 2.6 80 20:23 27.12.2019
1847 Clouds 2 1037 80 10000 2.6 80 19:55 27.12.2019
1848 Clouds 3 1037 80 10000 2.6 80 19:36 27.12.2019
1849 Clouds 2 1037 80 10000 2.1 90 19:18 27.12.2019
1850 Clouds 2 1037 80 10000 2.1 90 19:18 27.12.2019
1851 Clouds 2 1037 80 10000 2.1 90 19:18 27.12.2019
1852 Clouds 3 1036 72 10000 1 50 18:41 27.12.2019
1853 Clouds 2 1036 80 10000 1 10 18:23 27.12.2019
1854 Clouds 2 1036 80 10000 1 10 17:59 27.12.2019
1855 Clouds 3 1036 80 10000 1 10 17:41 27.12.2019
1856 Clouds 3 1035 74 10000 0.5 0 17:20 27.12.2019
1857 Clouds 3 1035 74 10000 0.5 0 16:59 27.12.2019
1858 Clouds 3 1035 74 10000 0.5 0 16:59 27.12.2019
1859 Clouds 3 1035 74 10000 0.5 0 16:59 27.12.2019
1860 Clouds 3 1035 74 10000 0.5 0 16:39 27.12.2019
1861 Clouds 3 1033 74 10000 2.1 110 16:21 27.12.2019
1862 Clouds 3 1033 74 10000 2.1 110 15:56 27.12.2019
1863 Clouds 3 1033 74 10000 2.1 110 15:37 27.12.2019
1864 Clouds 3 1033 74 10000 2.6 110 15:18 27.12.2019
1865 Clouds 3 1033 74 10000 2.6 110 14:55 27.12.2019
1866 Clouds 3 1033 74 10000 2.6 110 14:36 27.12.2019
1867 Clouds 2 1032 80 10000 2.1 110 14:18 27.12.2019
1868 Clouds 3 1032 74 10000 3.1 100 13:43 27.12.2019
1869 Clouds 3 1032 80 10000 3.6 100 13:22 27.12.2019
1870 Clouds 3 1032 80 10000 3.6 100 12:48 27.12.2019
1871 Clouds 3 1031 78 10000 4.1 70 12:29 27.12.2019
1872 Clouds 3 1031 78 10000 4.1 70 11:59 27.12.2019
1873 Clouds 3 1031 78 10000 4.1 70 11:41 27.12.2019
1874 Clouds 2 1031 86 10000 5.1 60 11:20 27.12.2019
1875 Clouds 3 1031 86 10000 5.1 60 10:46 27.12.2019
1876 Clouds 2 1029 86 10000 3.1 80 10:24 27.12.2019
1877 Clouds 2 1029 86 10000 3.1 80 09:57 27.12.2019
1878 Clouds 3 1029 86 10000 3.1 80 09:37 27.12.2019
1879 Clouds 3 1028 84 10000 2.6 80 09:19 27.12.2019
1880 Clouds 4 1028 84 10000 2.6 80 08:46 27.12.2019
1881 Clouds 4 1027 86 10000 3.1 90 08:27 27.12.2019
1882 Clouds 4 1027 86 10000 3.1 90 07:41 27.12.2019
1883 Clouds 4 1026 93 8000 2.6 80 07:22 27.12.2019
1884 Mist 3 1026 100 4500 3.1 80 06:27 27.12.2019
1885 Mist 3 1025 100 4000 1.5 70 04:48 27.12.2019
1886 Mist 2 1023 100 2500 1.5 140 02:29 27.12.2019
1887 Mist 2 1023 100 3500 2.1 130 01:48 27.12.2019
1888 Fog 1 1023 100 200 1.5 110 01:23 27.12.2019
1889 Fog 3 1023 83 200 2.1 100 00:52 27.12.2019
1890 Fog 3 1023 83 200 2.1 100 00:34 27.12.2019
1891 Fog 2 1023 83 800 1 120 23:57 26.12.2019
1892 Fog 2 1023 83 800 1 120 23:38 26.12.2019
1893 Fog 2 1023 83 1500 0.5 110 23:20 26.12.2019
1894 Fog 3 1023 100 600 1 80 22:42 26.12.2019
1895 Fog 3 1023 93 1500 0.5 0 22:21 26.12.2019
1896 Fog 3 1023 93 10000 1 200 21:56 26.12.2019
1897 Fog 4 1023 93 10000 1 200 21:37 26.12.2019
1898 Clouds 4 1023 93 10000 0.5 210 21:19 26.12.2019
1899 Clouds 4 1023 93 10000 0.5 210 20:44 26.12.2019
1900 Clouds 4 1023 93 10000 1.5 0 20:22 26.12.2019
1901 Clouds 4 1023 93 10000 1.5 0 19:58 26.12.2019
1902 Clouds 4 1023 93 10000 1.5 0 19:39 26.12.2019
1903 Clouds 4 1023 93 10000 2.1 220 19:20 26.12.2019
1904 Clouds 4 1023 93 10000 2.1 220 18:57 26.12.2019
1905 Clouds 4 1023 93 10000 2.1 220 18:38 26.12.2019
1906 Clouds 4 1022 86 10000 2.6 220 18:19 26.12.2019
1907 Clouds 5 1022 86 10000 2.6 220 17:42 26.12.2019
1908 Clouds 5 1022 86 10000 1.5 210 17:22 26.12.2019
1909 Clouds 5 1022 86 10000 1.5 210 16:58 26.12.2019
1910 Clouds 6 1022 86 10000 1.5 210 16:40 26.12.2019
1911 Clouds 6 1022 86 10000 1.5 240 16:21 26.12.2019
1912 Clouds 5 1022 86 10000 1.5 240 15:41 26.12.2019
1913 Clouds 5 1022 93 10000 1.5 250 15:21 26.12.2019
1914 Clouds 5 1022 93 10000 1.5 250 14:59 26.12.2019
1915 Clouds 6 1022 93 10000 1.5 250 14:39 26.12.2019
1916 Clouds 6 1023 87 10000 2.1 240 14:20 26.12.2019
1917 Clouds 6 1023 87 10000 2.1 240 13:43 26.12.2019
1918 Clouds 6 1023 87 10000 2.1 260 13:21 26.12.2019
1919 Clouds 6 1023 87 10000 2.1 260 12:58 26.12.2019
1920 Clouds 7 1023 87 10000 2.1 260 12:38 26.12.2019
1921 Drizzle 7 1023 87 10000 2.1 260 12:19 26.12.2019
1922 Rain 6 1023 93 10000 2.6 270 11:57 26.12.2019
1923 Rain 5 1023 93 10000 2.6 270 11:38 26.12.2019
1924 Rain 5 1023 93 10000 3.1 260 11:19 26.12.2019
1925 Rain 5 1023 93 10000 3.1 260 10:42 26.12.2019
1926 Rain 5 1023 93 10000 2.1 250 10:18 26.12.2019
1927 Rain 5 1023 93 10000 2.1 250 09:49 26.12.2019
1928 Rain 5 1023 86 10000 3.1 260 09:31 26.12.2019
1929 Rain 5 1023 86 10000 3.1 260 08:43 26.12.2019
1930 Clouds 5 1023 93 10000 2.1 270 08:24 26.12.2019
1931 Clouds 6 1023 93 10000 2.1 270 07:53 26.12.2019
1932 Clouds 6 1023 93 10000 2.6 270 07:28 26.12.2019
1933 Clouds 6 1023 93 10000 2.6 270 06:54 26.12.2019
1934 Clouds 6 1023 93 10000 2.6 270 06:32 26.12.2019
1935 Clouds 6 1022 93 10000 3.1 280 05:45 26.12.2019
1936 Rain 6 1023 93 10000 3.6 290 04:59 26.12.2019
1937 Rain 6 1023 87 10000 3.6 270 04:30 26.12.2019
1938 Clouds 6 1023 93 10000 4.1 280 02:58 26.12.2019
1939 Clouds 6 1023 93 10000 4.1 280 02:34 26.12.2019
1940 Rain 6 1023 87 10000 5.1 280 01:51 26.12.2019
1941 Clouds 6 1022 87 10000 4.1 270 01:33 26.12.2019
1942 Clouds 6 1022 87 10000 4.1 270 00:50 26.12.2019
1943 Clouds 6 1022 87 10000 3.1 270 00:27 26.12.2019
1944 Clouds 6 1022 87 10000 3.1 270 23:59 25.12.2019
1945 Clouds 6 1022 87 10000 3.1 270 23:40 25.12.2019
1946 Clouds 6 1022 87 10000 3.1 280 23:21 25.12.2019
1947 Clouds 6 1022 87 10000 3.1 280 22:59 25.12.2019
1948 Clouds 6 1022 87 10000 3.1 280 22:40 25.12.2019
1949 Clouds 6 1021 93 10000 2.6 270 22:22 25.12.2019
1950 Clouds 6 1021 93 10000 2.6 270 21:59 25.12.2019
1951 Clouds 6 1021 93 10000 2.6 270 21:40 25.12.2019
1952 Clouds 6 1021 87 10000 2.1 270 21:21 25.12.2019
1953 Clouds 6 1021 87 10000 2.1 270 20:57 25.12.2019
1954 Clouds 6 1021 87 10000 2.1 270 20:39 25.12.2019
1955 Clouds 6 1021 87 10000 2.6 290 20:18 25.12.2019
1956 Clouds 6 1021 87 10000 2.6 290 20:18 25.12.2019
1957 Clouds 6 1021 87 10000 2.6 290 19:43 25.12.2019
1958 Clouds 6 1021 87 10000 3.1 280 19:25 25.12.2019
1959 Clouds 6 1021 87 10000 3.1 280 18:59 25.12.2019
1960 Clouds 6 1021 87 10000 3.1 280 18:38 25.12.2019
1961 Clouds 6 1020 87 10000 2.1 300 18:19 25.12.2019
1962 Clouds 7 1020 87 10000 2.1 300 17:42 25.12.2019
1963 Clouds 7 1019 87 10000 3.1 330 17:20 25.12.2019
1964 Clouds 7 1019 87 10000 3.1 330 16:59 25.12.2019
1965 Clouds 7 1019 87 10000 3.1 330 16:38 25.12.2019
1966 Rain 7 1019 87 10000 3.6 310 16:19 25.12.2019
1967 Rain 7 1019 87 10000 3.6 310 15:57 25.12.2019
1968 Rain 7 1019 87 10000 3.6 310 15:39 25.12.2019
1969 Clouds 7 1017 81 10000 4.1 330 15:20 25.12.2019
1970 Clouds 7 1017 81 10000 4.1 330 14:58 25.12.2019
1971 Clouds 8 1017 81 10000 4.1 330 14:39 25.12.2019
1972 Clouds 8 1017 81 10000 4.1 330 14:39 25.12.2019
1973 Clouds 8 1017 81 10000 4.1 330 14:39 25.12.2019
1974 Clouds 7 1016 81 10000 5.1 300 14:20 25.12.2019
1975 Clouds 8 1016 81 10000 5.1 300 13:46 25.12.2019
1976 Clouds 7 1016 93 10000 4.1 310 13:22 25.12.2019
1977 Clouds 7 1016 93 10000 4.1 310 12:58 25.12.2019
1978 Clouds 7 1016 93 10000 4.1 310 12:39 25.12.2019
1979 Rain 7 1015 87 10000 4.1 300 12:20 25.12.2019
1980 Rain 7 1015 87 10000 4.1 300 11:54 25.12.2019
1981 Rain 7 1015 87 10000 4.1 300 11:36 25.12.2019
1982 Clouds 6 1014 93 10000 3.1 310 11:18 25.12.2019
1983 Clouds 6 1014 93 10000 3.1 310 10:38 25.12.2019
1984 Clouds 6 1013 93 10000 3.6 290 10:19 25.12.2019
1985 Clouds 6 1013 93 10000 3.6 290 10:19 25.12.2019
1986 Clouds 6 1013 93 10000 3.6 290 09:50 25.12.2019
1987 Clouds 5 1012 100 8000 2.6 280 09:32 25.12.2019
1988 Clouds 5 1012 100 8000 2.6 280 08:51 25.12.2019
1989 Mist 5 1011 100 4000 1.5 280 08:30 25.12.2019
1990 Mist 5 1011 100 4000 1.5 280 07:50 25.12.2019
1991 Mist 5 1011 100 4000 1.5 280 07:32 25.12.2019
1992 Mist 5 1011 100 3000 2.1 260 06:51 25.12.2019
1993 Drizzle 6 1010 93 1500 1.5 260 06:22 25.12.2019
1994 Mist 5 1009 100 2000 1.5 270 05:18 25.12.2019
1995 Mist 5 1009 100 2000 1.5 270 04:39 25.12.2019
1996 Mist 5 1009 100 1000 1.5 270 04:20 25.12.2019
1997 Mist 5 1009 100 1000 1.5 270 03:41 25.12.2019
1998 Fog 5 1009 100 500 1 260 02:53 25.12.2019
1999 Fog 5 1008 100 500 0.5 260 02:20 25.12.2019
2000 Drizzle 5 1007 100 3500 1.5 60 01:25 25.12.2019
2001 Drizzle 5 1007 100 3500 1.5 60 00:54 25.12.2019
2002 Drizzle 5 1007 100 3000 0.5 140 00:32 25.12.2019
2003 Drizzle 5 1007 100 3000 0.5 140 23:57 24.12.2019
2004 Drizzle 5 1007 100 3000 0.5 140 23:38 24.12.2019
2005 Drizzle 5 1006 100 3500 1.5 90 23:20 24.12.2019
2006 Drizzle 5 1006 100 3500 1.5 90 22:41 24.12.2019
2007 Drizzle 5 1006 100 3500 1.5 90 22:41 24.12.2019
2008 Drizzle 5 1006 100 5000 1 60 22:21 24.12.2019
2009 Drizzle 5 1006 100 5000 1 60 21:44 24.12.2019
2010 Drizzle 5 1006 100 5000 1 60 21:44 24.12.2019
2011 Clouds 5 1005 100 10000 2.1 80 21:23 24.12.2019
2012 Clouds 5 1005 100 10000 2.1 80 20:59 24.12.2019
2013 Clouds 5 1005 100 10000 2.1 80 20:40 24.12.2019
2014 Clouds 5 1005 93 10000 2.1 80 20:19 24.12.2019
2015 Clouds 5 1005 93 10000 2.1 80 20:19 24.12.2019
2016 Clouds 5 1005 93 10000 2.1 80 19:45 24.12.2019
2017 Clouds 5 1004 93 10000 1.5 70 19:21 24.12.2019
2018 Rain 5 1004 93 10000 2.1 70 18:58 24.12.2019
2019 Rain 5 1004 93 10000 2.1 70 18:40 24.12.2019
2020 Drizzle 5 1004 93 10000 2.1 60 18:18 24.12.2019
2021 Drizzle 5 1004 93 10000 2.1 60 17:42 24.12.2019
2022 Rain 5 1004 93 10000 2.1 60 17:21 24.12.2019
2023 Rain 5 1004 93 10000 2.1 60 16:57 24.12.2019
2024 Rain 5 1004 93 10000 2.1 60 16:38 24.12.2019
2025 Rain 5 1004 93 10000 0.5 210 16:20 24.12.2019
2026 Rain 5 1004 93 10000 0.5 210 15:56 24.12.2019
2027 Rain 5 1004 93 10000 0.5 210 15:36 24.12.2019
2028 Rain 6 1004 93 5000 2.6 180 15:18 24.12.2019
2029 Rain 6 1004 93 5000 2.6 180 14:57 24.12.2019
2030 Rain 6 1004 93 5000 2.6 180 14:38 24.12.2019
2031 Rain 6 1004 93 5000 2.1 180 14:20 24.12.2019
2032 Rain 6 1004 93 5000 2.1 180 13:55 24.12.2019
2033 Rain 6 1004 93 5000 2.1 180 13:37 24.12.2019
2034 Rain 7 1005 87 6000 3.1 200 13:19 24.12.2019
2035 Rain 7 1005 87 6000 3.1 200 12:55 24.12.2019
2036 Rain 7 1005 87 6000 3.1 200 12:36 24.12.2019
2037 Rain 7 1005 87 6000 3.1 200 12:36 24.12.2019
2038 Rain 7 1005 87 7000 3.1 200 12:18 24.12.2019
2039 Clouds 7 1006 87 8000 3.6 200 11:55 24.12.2019
2040 Clouds 7 1006 87 8000 3.6 200 11:37 24.12.2019
2041 Clouds 7 1006 87 8000 3.1 200 11:19 24.12.2019
2042 Clouds 6 1007 87 7000 3.6 220 10:56 24.12.2019
2043 Clouds 6 1007 87 7000 3.6 220 10:37 24.12.2019
2044 Clouds 6 1007 87 7000 3.6 220 10:37 24.12.2019
2045 Clouds 6 1008 87 7000 4.6 220 10:19 24.12.2019
2046 Clouds 6 1008 87 7000 4.6 220 09:55 24.12.2019
2047 Clouds 6 1008 87 7000 4.6 220 09:37 24.12.2019
2048 Clouds 6 1008 87 7000 5.1 220 09:18 24.12.2019
2049 Clouds 6 1008 87 7000 5.1 220 08:45 24.12.2019
2050 Clouds 6 1008 87 9000 5.7 220 08:21 24.12.2019
2051 Clouds 6 1008 87 9000 5.1 220 07:46 24.12.2019
2052 Clouds 6 1008 87 9000 5.1 220 07:46 24.12.2019
2053 Clouds 6 1009 87 10000 5.1 230 07:26 24.12.2019
2054 Clouds 6 1009 87 10000 5.1 230 06:58 24.12.2019
2055 Clouds 6 1009 87 10000 5.1 230 06:38 24.12.2019
2056 Clouds 6 1009 87 10000 5.1 220 06:19 24.12.2019
2057 Clouds 6 1009 87 10000 5.1 220 05:40 24.12.2019
2058 Clouds 6 1009 87 10000 5.7 230 05:18 24.12.2019
2059 Clouds 7 1009 87 10000 5.1 230 03:50 24.12.2019
2060 Clouds 7 1009 93 10000 4.6 230 03:23 24.12.2019
2061 Clouds 7 1009 93 10000 4.6 240 02:25 24.12.2019
2062 Clouds 7 1009 93 10000 4.6 240 02:25 24.12.2019
2063 Clouds 7 1009 93 10000 4.6 240 01:51 24.12.2019
2064 Clouds 7 1009 93 10000 4.6 240 01:23 24.12.2019
2065 Clouds 7 1009 93 10000 4.6 240 00:46 24.12.2019
2066 Clouds 7 1008 87 10000 4.6 250 00:26 24.12.2019
2067 Clouds 7 1008 87 10000 4.6 250 23:59 23.12.2019
2068 Clouds 7 1008 87 10000 4.6 250 23:59 23.12.2019
2069 Clouds 7 1008 87 10000 4.6 250 23:41 23.12.2019
2070 Clouds 7 1007 87 10000 5.1 250 23:23 23.12.2019
2071 Clouds 7 1007 87 10000 5.1 250 22:56 23.12.2019
2072 Clouds 7 1007 87 10000 5.1 250 22:56 23.12.2019
2073 Clouds 7 1007 87 10000 5.1 250 22:56 23.12.2019
2074 Clouds 7 1007 87 10000 5.1 250 22:37 23.12.2019
2075 Clouds 7 1007 87 10000 5.7 260 22:19 23.12.2019
2076 Clouds 7 1007 87 10000 5.7 260 21:55 23.12.2019
2077 Clouds 7 1007 87 10000 5.7 260 21:36 23.12.2019
2078 Clouds 7 1007 87 10000 5.7 260 21:36 23.12.2019
2079 Clouds 7 1006 87 10000 6.2 260 21:18 23.12.2019
2080 Clouds 7 1006 87 10000 6.2 260 20:57 23.12.2019
2081 Clouds 7 1006 87 10000 6.2 260 20:39 23.12.2019
2082 Clouds 7 1006 87 10000 6.2 260 20:39 23.12.2019
2083 Clouds 7 1006 87 10000 4.6 250 20:18 23.12.2019
2084 Clouds 7 1006 93 10000 4.1 240 19:56 23.12.2019
2085 Clouds 7 1006 93 10000 4.1 240 19:38 23.12.2019
2086 Clouds 7 1005 87 10000 3.6 250 19:19 23.12.2019
2087 Clouds 7 1005 87 10000 5.1 260 18:58 23.12.2019
2088 Clouds 7 1005 87 10000 5.1 260 18:58 23.12.2019
2089 Clouds 7 1005 87 10000 5.1 260 18:38 23.12.2019
2090 Clouds 7 1004 87 10000 4.6 260 18:20 23.12.2019
2091 Clouds 7 1004 87 10000 4.6 260 17:56 23.12.2019
2092 Clouds 7 1004 87 10000 4.6 260 17:38 23.12.2019
2093 Clouds 8 1004 81 10000 6.2 260 17:19 23.12.2019
2094 Clouds 8 1004 81 10000 6.2 260 17:19 23.12.2019
2095 Clouds 8 1004 81 10000 6.2 260 16:55 23.12.2019
2096 Clouds 8 1004 81 10000 6.2 260 16:37 23.12.2019
2097 Clouds 8 1003 81 10000 5.7 270 16:18 23.12.2019
2098 Clouds 8 1003 81 10000 5.7 270 15:55 23.12.2019
2099 Clouds 8 1003 81 10000 5.7 270 15:36 23.12.2019
2100 Rain 7 1002 81 10000 6.2 280 15:18 23.12.2019
2101 Rain 8 1002 81 10000 6.2 280 14:45 23.12.2019
2102 Clouds 7 1001 87 10000 6.7 260 14:26 23.12.2019
2103 Clouds 7 1001 87 10000 6.7 260 13:59 23.12.2019
2104 Clouds 8 1001 87 10000 6.7 260 13:41 23.12.2019
2105 Rain 7 1000 87 8000 7.7 260 13:22 23.12.2019
2106 Rain 7 1000 87 5000 7.2 250 12:59 23.12.2019
2107 Rain 8 1000 87 5000 7.2 250 12:40 23.12.2019
2108 Clouds 7 999 87 10000 5.1 250 12:21 23.12.2019
2109 Clouds 7 999 87 10000 5.1 250 11:56 23.12.2019
2110 Clouds 8 999 87 10000 5.1 250 11:38 23.12.2019
2111 Clouds 7 999 87 10000 5.7 250 11:20 23.12.2019
2112 Clouds 7 999 87 10000 5.7 250 11:20 23.12.2019
2113 Clouds 7 999 87 10000 5.7 250 10:55 23.12.2019
2114 Clouds 7 999 87 10000 5.7 250 10:55 23.12.2019
2115 Clouds 7 999 87 10000 5.7 250 10:37 23.12.2019
2116 Clouds 7 997 81 10000 5.7 250 10:18 23.12.2019
2117 Clouds 7 997 81 10000 5.7 250 09:54 23.12.2019
2118 Clouds 7 997 81 10000 5.7 250 09:36 23.12.2019
2119 Clouds 7 997 87 10000 4.6 250 09:18 23.12.2019
2120 Clouds 7 997 87 10000 4.6 250 08:41 23.12.2019
2121 Clouds 7 995 87 10000 6.2 260 08:22 23.12.2019
2122 Clouds 7 995 87 10000 6.2 260 07:56 23.12.2019
2123 Clouds 7 995 87 10000 6.2 260 07:37 23.12.2019
2124 Clouds 7 995 87 10000 7.7 260 07:18 23.12.2019
2125 Drizzle 7 994 87 8000 7.7 260 06:39 23.12.2019
2126 Clouds 7 994 93 10000 7.7 260 06:21 23.12.2019
2127 Clouds 7 993 87 10000 8.2 260 05:44 23.12.2019
2128 Clouds 7 992 87 10000 7.7 260 04:40 23.12.2019
2129 Clouds 7 991 87 10000 7.7 260 03:58 23.12.2019
2130 Rain 7 990 93 10000 7.2 260 02:47 23.12.2019
2131 Rain 7 989 93 8000 6.2 270 02:19 23.12.2019
2132 Rain 8 989 93 8000 6.2 270 01:50 23.12.2019
2133 Rain 8 989 93 8000 6.2 270 01:31 23.12.2019
2134 Drizzle 7 988 93 3500 2.1 220 00:48 23.12.2019
2135 Drizzle 7 987 93 5000 2.1 150 00:27 23.12.2019
2136 Drizzle 7 987 93 5000 2.1 150 23:57 22.12.2019
2137 Drizzle 7 987 93 5000 2.1 150 23:37 22.12.2019
2138 Drizzle 7 987 93 6000 2.1 160 23:19 22.12.2019
2139 Clouds 7 987 93 8000 2.1 140 22:55 22.12.2019
2140 Clouds 6 987 93 8000 2.1 140 22:37 22.12.2019
2141 Clouds 6 986 93 8000 2.6 140 22:18 22.12.2019
2142 Clouds 6 986 93 8000 2.6 140 21:54 22.12.2019
2143 Clouds 6 986 93 8000 2.6 140 21:36 22.12.2019
2144 Rain 6 986 93 8000 3.1 130 21:18 22.12.2019
2145 Rain 6 986 93 8000 3.1 130 20:40 22.12.2019
2146 Drizzle 6 985 93 6000 3.1 140 20:19 22.12.2019
2147 Drizzle 6 985 93 6000 3.1 140 19:57 22.12.2019
2148 Drizzle 6 985 93 6000 3.1 140 19:39 22.12.2019
2149 Clouds 6 985 87 10000 3.1 140 19:20 22.12.2019
2150 Clouds 6 985 87 10000 3.1 140 18:55 22.12.2019
2151 Clouds 6 985 87 10000 3.1 140 18:37 22.12.2019
2152 Clouds 6 984 87 10000 3.6 130 18:18 22.12.2019
2153 Clouds 6 984 87 10000 3.6 130 17:54 22.12.2019
2154 Clouds 6 984 87 10000 3.6 130 17:36 22.12.2019
2155 Clouds 6 984 93 8000 3.6 130 17:18 22.12.2019
2156 Clouds 7 984 93 8000 3.6 130 16:42 22.12.2019
2157 Drizzle 7 984 93 6000 3.6 130 16:23 22.12.2019
2158 Drizzle 7 984 93 6000 3.6 130 16:23 22.12.2019
2159 Clouds 7 984 87 10000 3.6 130 15:57 22.12.2019
2160 Clouds 6 984 87 10000 3.6 130 15:39 22.12.2019
2161 Clouds 6 984 87 10000 3.1 130 15:21 22.12.2019
2162 Clouds 6 984 87 10000 3.1 130 14:59 22.12.2019
2163 Clouds 7 984 87 10000 3.1 130 14:38 22.12.2019
2164 Clouds 7 984 81 10000 3.6 140 14:19 22.12.2019
2165 Clouds 7 984 81 10000 3.6 140 13:56 22.12.2019
2166 Clouds 7 984 81 10000 3.6 140 13:38 22.12.2019
2167 Clouds 6 984 87 10000 3.6 140 13:19 22.12.2019
2168 Clouds 6 984 87 10000 3.6 140 12:57 22.12.2019
2169 Clouds 6 984 87 10000 3.6 140 12:57 22.12.2019
2170 Clouds 6 984 87 10000 3.6 140 12:38 22.12.2019
2171 Clouds 6 984 87 10000 3.6 140 12:19 22.12.2019
2172 Clouds 6 984 87 10000 3.6 140 12:19 22.12.2019
2173 Clouds 6 984 87 10000 3.6 140 12:19 22.12.2019
2174 Clouds 6 984 87 10000 3.6 140 11:58 22.12.2019
2175 Clouds 6 984 87 10000 3.6 140 11:39 22.12.2019
2176 Clouds 5 984 86 10000 3.1 150 11:20 22.12.2019
2177 Clouds 5 984 86 10000 3.6 140 10:57 22.12.2019
2178 Clouds 5 984 86 10000 3.6 140 10:39 22.12.2019
2179 Clouds 5 984 86 10000 3.1 150 10:19 22.12.2019
2180 Clouds 5 984 86 10000 3.1 150 09:58 22.12.2019
2181 Clouds 5 984 86 10000 3.1 150 09:39 22.12.2019
2182 Rain 5 983 80 10000 3.6 140 09:21 22.12.2019
2183 Rain 5 983 80 10000 3.6 140 08:45 22.12.2019
2184 Clouds 5 983 86 10000 3.6 140 08:23 22.12.2019
2185 Clouds 5 983 86 10000 3.6 140 07:50 22.12.2019
2186 Clouds 5 983 86 10000 3.1 120 07:22 22.12.2019
2187 Clouds 5 983 86 10000 3.1 120 06:57 22.12.2019
2188 Clouds 5 983 86 10000 2.6 120 06:27 22.12.2019
2189 Clouds 5 983 86 10000 2.6 120 05:43 22.12.2019
2190 Clouds 5 984 86 10000 3.6 140 05:21 22.12.2019
2191 Clouds 5 984 86 10000 3.1 110 04:27 22.12.2019
2192 Clouds 5 985 86 10000 3.6 160 03:28 22.12.2019
2193 Clouds 5 985 86 10000 3.6 160 02:35 22.12.2019
2194 Clouds 6 985 86 10000 3.6 150 01:33 22.12.2019
2195 Clouds 6 985 86 10000 3.1 140 00:59 22.12.2019
2196 Clouds 6 985 86 10000 3.1 140 00:41 22.12.2019
2197 Clouds 6 986 81 10000 3.1 160 00:21 22.12.2019
2198 Clouds 6 986 81 10000 3.1 160 23:42 21.12.2019
2199 Clouds 6 986 81 10000 3.6 150 23:24 21.12.2019
2200 Clouds 6 986 81 10000 3.6 150 22:58 21.12.2019
2201 Clouds 7 986 81 10000 3.6 150 22:39 21.12.2019
2202 Clouds 7 987 81 10000 3.1 160 22:19 21.12.2019
2203 Clouds 7 987 81 10000 3.1 160 21:56 21.12.2019
2204 Clouds 7 987 81 10000 3.1 160 21:37 21.12.2019
2205 Clouds 7 987 75 10000 4.6 170 21:19 21.12.2019
2206 Clouds 7 987 75 10000 4.6 170 20:57 21.12.2019
2207 Clouds 7 987 75 10000 4.6 170 20:39 21.12.2019
2208 Clouds 7 987 81 10000 5.1 160 20:21 21.12.2019
2209 Clouds 7 987 81 10000 5.1 160 19:57 21.12.2019
2210 Clouds 8 987 81 10000 5.1 160 19:39 21.12.2019
2211 Clouds 8 987 75 10000 4.6 160 19:19 21.12.2019
2212 Clouds 7 987 75 10000 4.6 160 18:44 21.12.2019
2213 Clouds 8 988 75 10000 4.1 160 18:24 21.12.2019
2214 Clouds 8 988 75 10000 4.1 160 17:57 21.12.2019
2215 Clouds 8 988 75 10000 4.1 160 17:39 21.12.2019
2216 Clouds 8 988 75 10000 4.1 160 17:39 21.12.2019
2217 Clouds 8 988 75 10000 3.6 160 17:21 21.12.2019
2218 Clouds 8 988 75 10000 3.6 160 16:58 21.12.2019
2219 Clouds 9 988 75 10000 3.6 160 16:40 21.12.2019
2220 Clouds 8 989 75 10000 3.1 170 16:18 21.12.2019
2221 Clouds 8 989 75 10000 3.1 170 16:18 21.12.2019
2222 Clouds 8 989 75 10000 3.1 170 15:57 21.12.2019
2223 Clouds 8 989 75 10000 3.1 170 15:57 21.12.2019
2224 Clouds 9 989 75 10000 3.1 170 15:38 21.12.2019
2225 Clouds 9 989 70 10000 3.6 180 15:19 21.12.2019
2226 Clouds 9 989 70 10000 3.6 180 14:56 21.12.2019
2227 Clouds 10 989 70 10000 3.6 180 14:37 21.12.2019
2228 Clouds 10 989 70 10000 3.6 200 14:18 21.12.2019
2229 Clouds 10 989 70 10000 3.6 200 13:55 21.12.2019
2230 Clouds 10 989 70 10000 3.6 200 13:37 21.12.2019
2231 Clouds 9 990 75 10000 3.6 210 13:18 21.12.2019
2232 Clouds 9 990 75 10000 3.6 210 12:54 21.12.2019
2233 Clouds 9 990 75 10000 3.6 210 12:36 21.12.2019
2234 Clouds 8 990 81 10000 3.1 200 12:18 21.12.2019
2235 Clouds 7 990 81 10000 3.1 200 11:41 21.12.2019
2236 Clouds 7 991 81 10000 3.6 200 11:23 21.12.2019
2237 Clouds 7 991 81 10000 3.6 200 10:54 21.12.2019
2238 Clouds 7 991 81 10000 3.6 200 10:36 21.12.2019
2239 Clouds 6 990 87 10000 3.6 200 10:18 21.12.2019
2240 Clouds 6 990 87 10000 3.6 200 09:42 21.12.2019
2241 Clouds 7 990 81 10000 3.6 210 09:21 21.12.2019
2242 Clouds 7 990 81 10000 3.6 210 08:57 21.12.2019
2243 Clouds 7 990 81 10000 3.6 210 08:37 21.12.2019
2244 Clouds 7 990 81 10000 2.6 200 08:18 21.12.2019
2245 Clouds 7 990 81 10000 2.6 200 07:41 21.12.2019
2246 Clouds 7 990 81 10000 3.6 210 07:22 21.12.2019
2247 Clouds 7 990 81 10000 4.6 220 06:44 21.12.2019
2248 Clouds 7 989 81 10000 5.1 230 06:25 21.12.2019
2249 Clouds 8 989 81 10000 5.1 230 05:47 21.12.2019
2250 Clouds 8 989 75 10000 5.1 210 04:58 21.12.2019
2251 Clouds 8 989 75 10000 5.7 210 03:57 21.12.2019
2252 Clouds 8 988 75 10000 5.1 220 02:52 21.12.2019
2253 Clouds 8 988 75 10000 4.1 230 01:59 21.12.2019
2254 Clouds 8 987 81 10000 4.1 230 01:28 21.12.2019
2255 Clouds 8 987 81 10000 4.1 230 00:53 21.12.2019
2256 Clouds 9 987 81 10000 4.1 230 00:33 21.12.2019
2257 Clouds 9 987 81 10000 3.6 230 23:59 20.12.2019
2258 Clouds 9 987 81 10000 3.6 230 23:38 20.12.2019
2259 Drizzle 9 986 87 10000 3.6 220 23:18 20.12.2019
2260 Drizzle 10 986 87 10000 3.6 220 22:41 20.12.2019
2261 Drizzle 10 985 87 10000 4.1 200 22:21 20.12.2019
2262 Drizzle 10 985 87 10000 4.1 200 21:59 20.12.2019
2263 Drizzle 10 985 87 10000 4.1 200 21:40 20.12.2019
2264 Drizzle 10 985 93 10000 3.6 170 21:20 20.12.2019
2265 Drizzle 10 985 93 10000 3.6 170 20:41 20.12.2019
2266 Rain 11 985 66 10000 5.1 170 20:22 20.12.2019
2267 Rain 11 985 66 10000 5.1 170 19:59 20.12.2019
2268 Rain 11 985 66 10000 5.1 170 19:59 20.12.2019
2269 Clouds 11 985 66 10000 4.6 160 19:40 20.12.2019
2270 Clouds 11 985 66 10000 4.6 160 19:20 20.12.2019
2271 Clouds 11 985 66 10000 4.6 160 18:56 20.12.2019
2272 Clouds 11 985 66 10000 4.6 160 18:38 20.12.2019
2273 Clouds 11 985 62 10000 5.7 160 18:20 20.12.2019
2274 Clouds 10 985 61 10000 4.1 140 17:42 20.12.2019
2275 Clouds 10 985 61 10000 4.1 140 17:22 20.12.2019
2276 Clouds 10 985 61 10000 4.1 140 16:59 20.12.2019
2277 Clouds 9 985 66 10000 4.6 130 16:40 20.12.2019
2278 Clouds 9 985 66 10000 4.6 130 16:20 20.12.2019
2279 Clouds 9 985 66 10000 4.1 130 15:57 20.12.2019
2280 Clouds 10 986 61 10000 4.6 130 15:39 20.12.2019
2281 Clouds 10 986 61 10000 4.6 130 15:19 20.12.2019
2282 Clouds 10 986 61 10000 4.6 130 14:58 20.12.2019
2283 Clouds 10 987 61 10000 5.1 140 14:39 20.12.2019
2284 Clouds 10 987 61 10000 5.1 140 14:21 20.12.2019
2285 Clouds 10 987 61 10000 5.1 140 13:42 20.12.2019
2286 Clouds 9 988 70 10000 4.6 140 13:21 20.12.2019
2287 Clouds 9 988 70 10000 4.6 140 12:59 20.12.2019
2288 Clouds 9 988 70 10000 4.6 140 12:41 20.12.2019
2289 Clouds 8 989 75 10000 6.7 130 12:19 20.12.2019
2290 Clouds 8 989 75 10000 6.7 130 11:59 20.12.2019
2291 Clouds 7 990 75 10000 6.7 130 11:40 20.12.2019
2292 Clouds 7 990 75 10000 6.7 130 11:21 20.12.2019
2293 Clouds 7 990 75 10000 6.7 130 10:59 20.12.2019
2294 Clouds 6 990 75 10000 6.7 130 10:41 20.12.2019
2295 Clouds 6 992 75 10000 5.1 130 10:20 20.12.2019
2296 Clouds 6 992 75 10000 5.1 130 09:56 20.12.2019
2297 Clouds 6 993 81 10000 5.7 130 09:38 20.12.2019
2298 Clouds 6 993 81 10000 5.7 130 09:19 20.12.2019
2299 Clouds 6 993 81 10000 5.7 130 08:43 20.12.2019
2300 Clouds 6 994 86 10000 5.1 130 08:24 20.12.2019
2301 Clouds 6 994 86 10000 5.1 130 07:58 20.12.2019
2302 Clouds 6 995 86 10000 5.7 130 07:40 20.12.2019
2303 Clouds 6 995 86 10000 5.7 130 07:19 20.12.2019
2304 Clouds 6 995 86 10000 5.7 130 06:52 20.12.2019
2305 Clouds 6 995 86 10000 5.1 130 06:32 20.12.2019
2306 Clouds 6 995 86 10000 5.1 130 05:53 20.12.2019
2307 Clouds 6 997 86 10000 4.6 120 05:35 20.12.2019
2308 Clouds 6 998 81 10000 4.6 130 04:33 20.12.2019
2309 Clouds 7 999 81 10000 4.1 140 03:30 20.12.2019
2310 Clouds 7 1000 81 10000 4.6 140 02:43 20.12.2019
2311 Clouds 7 1000 81 10000 4.6 140 01:49 20.12.2019
2312 Clouds 7 1000 81 10000 4.6 140 01:49 20.12.2019
2313 Clouds 7 1001 81 10000 3.1 140 01:30 20.12.2019
2314 Clouds 6 1001 81 10000 3.1 140 00:43 20.12.2019
2315 Clouds 7 1002 75 10000 3.1 140 00:25 20.12.2019
2316 Clouds 7 1003 75 10000 3.1 150 23:44 19.12.2019
2317 Clouds 7 1003 75 10000 3.1 150 23:26 19.12.2019
2318 Clouds 7 1003 75 10000 3.1 150 22:59 19.12.2019
2319 Clouds 8 1004 70 10000 3.6 140 22:37 19.12.2019
2320 Clouds 8 1004 70 10000 3.6 140 22:19 19.12.2019
2321 Clouds 8 1004 76 10000 4.6 150 21:55 19.12.2019
2322 Clouds 8 1004 76 10000 4.6 150 21:37 19.12.2019
2323 Clouds 8 1004 76 10000 4.6 150 21:18 19.12.2019
2324 Clouds 8 1004 76 10000 4.1 150 20:55 19.12.2019
2325 Clouds 8 1005 81 10000 3.6 130 20:36 19.12.2019
2326 Clouds 8 1005 81 10000 3.6 130 20:18 19.12.2019
2327 Clouds 8 1005 81 10000 3.6 130 19:56 19.12.2019
2328 Clouds 8 1006 81 10000 4.6 130 19:37 19.12.2019
2329 Clouds 8 1006 81 10000 4.6 130 19:19 19.12.2019
2330 Clouds 8 1006 81 10000 4.6 130 18:41 19.12.2019
2331 Clouds 9 1007 81 10000 3.1 130 18:22 19.12.2019
2332 Clouds 9 1007 81 10000 3.1 130 17:58 19.12.2019
2333 Clouds 9 1008 81 10000 2.6 130 17:39 19.12.2019
2334 Clouds 9 1008 81 10000 2.6 130 17:19 19.12.2019
2335 Clouds 9 1008 81 10000 2.6 130 16:58 19.12.2019
2336 Clouds 10 1008 71 10000 3.6 150 16:40 19.12.2019
2337 Clouds 10 1008 71 10000 3.6 150 16:22 19.12.2019
2338 Clouds 10 1008 71 10000 3.6 150 15:59 19.12.2019
2339 Clouds 10 1008 71 10000 3.6 150 15:59 19.12.2019
2340 Clouds 12 1009 66 10000 3.1 160 15:39 19.12.2019
2341 Clouds 12 1009 66 10000 3.1 160 15:20 19.12.2019
2342 Clouds 12 1009 66 10000 3.1 160 14:59 19.12.2019
2343 Clouds 11 1009 71 10000 5.1 170 14:41 19.12.2019
2344 Clouds 11 1009 66 10000 3.1 160 14:41 19.12.2019
2345 Clouds 11 1009 71 10000 5.1 170 14:19 19.12.2019
2346 Clouds 11 1009 71 10000 5.1 170 13:57 19.12.2019
2347 Clouds 10 1010 76 10000 4.6 150 13:38 19.12.2019
2348 Clouds 10 1010 76 10000 4.6 150 13:19 19.12.2019
2349 Clouds 10 1010 76 10000 4.6 150 12:55 19.12.2019
2350 Clouds 10 1011 76 10000 4.6 150 12:37 19.12.2019
2351 Clouds 10 1011 76 10000 4.6 150 12:18 19.12.2019
2352 Clouds 10 1011 76 10000 4.6 150 11:57 19.12.2019
2353 Clouds 8 1011 87 10000 4.6 160 11:39 19.12.2019
2354 Clouds 8 1011 87 10000 4.6 160 11:18 19.12.2019
2355 Clouds 8 1011 87 10000 4.6 160 11:18 19.12.2019
2356 Clouds 8 1011 87 10000 4.6 160 10:55 19.12.2019
2357 Clouds 6 1012 87 10000 4.6 150 10:36 19.12.2019
2358 Clouds 6 1012 87 10000 4.6 150 10:18 19.12.2019
2359 Clouds 6 1012 87 10000 3.6 150 09:38 19.12.2019
2360 Clouds 6 1012 87 10000 3.6 150 09:38 19.12.2019
2361 Clouds 6 1012 87 10000 3.6 150 09:20 19.12.2019
2362 Clouds 6 1012 87 10000 3.6 150 09:20 19.12.2019
2363 Clouds 6 1012 87 10000 3.6 150 09:20 19.12.2019
2364 Clouds 6 1012 87 10000 3.6 150 08:58 19.12.2019
2365 Clouds 5 1012 93 10000 3.6 140 08:40 19.12.2019
2366 Clouds 5 1012 93 10000 3.6 140 08:19 19.12.2019
2367 Clouds 5 1012 93 10000 3.6 140 07:56 19.12.2019
2368 Clouds 5 1012 86 10000 3.6 130 07:38 19.12.2019
2369 Clouds 5 1012 86 10000 3.6 130 07:19 19.12.2019
2370 Clouds 5 1012 86 10000 3.6 130 06:49 19.12.2019
2371 Clouds 5 1013 93 10000 3.1 130 06:28 19.12.2019
2372 Clouds 5 1013 93 10000 3.1 130 05:55 19.12.2019
2373 Clouds 5 1013 86 8000 4.1 130 05:33 19.12.2019
2374 Clouds 5 1013 86 8000 4.1 130 04:48 19.12.2019
2375 Mist 4 1014 93 5000 4.1 140 02:49 19.12.2019
2376 Mist 4 1015 93 5000 3.6 140 01:51 19.12.2019
2377 Mist 4 1016 93 5000 3.6 130 01:22 19.12.2019
2378 Clouds 4 1017 93 7000 3.1 130 00:40 19.12.2019
2379 Clouds 4 1017 93 7000 3.1 130 00:21 19.12.2019
2380 Clouds 4 1017 93 7000 3.1 130 23:56 18.12.2019
2381 Clouds 4 1017 93 9000 2.1 140 23:38 18.12.2019
2382 Clouds 4 1017 93 9000 2.1 140 23:18 18.12.2019
2383 Clouds 4 1017 93 9000 2.1 140 22:55 18.12.2019
2384 Clouds 5 1017 86 10000 2.1 140 22:36 18.12.2019
2385 Clouds 5 1017 86 10000 2.1 140 22:18 18.12.2019
2386 Clouds 5 1017 86 10000 2.1 140 21:55 18.12.2019
2387 Clouds 5 1017 86 10000 2.1 150 21:37 18.12.2019
2388 Clouds 5 1017 86 10000 2.1 150 21:18 18.12.2019
2389 Clouds 5 1017 81 10000 2.6 160 20:54 18.12.2019
2390 Clouds 6 1017 81 10000 2.1 180 20:36 18.12.2019
2391 Clouds 6 1017 81 10000 2.1 180 20:18 18.12.2019
2392 Clouds 6 1017 81 10000 2.1 180 19:54 18.12.2019
2393 Clouds 6 1017 87 10000 2.1 190 19:36 18.12.2019
2394 Clouds 6 1017 87 10000 2.1 190 19:18 18.12.2019
2395 Clouds 6 1017 87 10000 2.1 190 18:43 18.12.2019
2396 Clouds 6 1017 87 10000 2.1 220 18:25 18.12.2019
2397 Clouds 6 1017 87 10000 2.1 220 18:25 18.12.2019
2398 Clouds 6 1017 87 10000 2.1 220 17:57 18.12.2019
2399 Clouds 7 1017 81 10000 2.6 230 17:38 18.12.2019
2400 Clouds 7 1017 81 10000 2.6 230 17:19 18.12.2019
2401 Clouds 7 1017 81 10000 2.6 230 16:54 18.12.2019
2402 Clouds 7 1016 87 10000 3.6 220 16:36 18.12.2019
2403 Clouds 7 1016 87 10000 3.6 220 16:18 18.12.2019
2404 Clouds 7 1016 87 10000 3.6 220 15:54 18.12.2019
2405 Clouds 7 1016 87 10000 4.1 230 15:36 18.12.2019
2406 Clouds 7 1016 87 10000 4.1 230 15:18 18.12.2019
2407 Clouds 8 1016 87 10000 4.1 230 14:40 18.12.2019
2408 Clouds 7 1015 87 8000 4.1 230 14:20 18.12.2019
2409 Clouds 7 1015 87 8000 4.6 230 13:57 18.12.2019
2410 Clouds 7 1015 87 8000 4.6 230 13:57 18.12.2019
2411 Clouds 7 1015 87 8000 4.6 230 13:57 18.12.2019
2412 Clouds 8 1015 87 8000 4.6 230 13:37 18.12.2019
2413 Clouds 8 1014 87 10000 4.6 230 13:19 18.12.2019
2414 Clouds 8 1014 87 10000 4.6 230 12:57 18.12.2019
2415 Clouds 8 1014 87 10000 4.6 230 12:38 18.12.2019
2416 Clouds 7 1014 87 10000 4.6 230 12:19 18.12.2019
2417 Clouds 7 1014 87 10000 4.6 230 11:55 18.12.2019
2418 Clouds 7 1014 87 10000 4.6 230 11:55 18.12.2019
2419 Clouds 6 1014 87 10000 4.6 230 11:37 18.12.2019
2420 Clouds 6 1013 93 10000 3.6 240 11:18 18.12.2019
2421 Clouds 6 1013 93 10000 3.6 240 10:55 18.12.2019
2422 Clouds 6 1013 93 10000 3.6 240 10:37 18.12.2019
2423 Clouds 6 1013 93 10000 4.1 230 10:19 18.12.2019
2424 Clouds 6 1013 93 10000 4.1 230 09:50 18.12.2019
2425 Clouds 6 1011 93 10000 4.6 220 09:18 18.12.2019
2426 Clouds 5 1011 93 10000 4.6 220 08:41 18.12.2019
2427 Clouds 5 1010 93 10000 4.6 230 08:22 18.12.2019
2428 Clouds 6 1010 93 10000 4.6 230 07:43 18.12.2019
2429 Clouds 6 1009 93 10000 4.1 230 07:23 18.12.2019
2430 Clouds 6 1009 93 10000 4.1 230 06:56 18.12.2019
2431 Clouds 6 1009 87 10000 4.6 230 06:27 18.12.2019
2432 Clouds 6 1009 93 10000 4.6 230 05:54 18.12.2019
2433 Clouds 6 1008 87 10000 4.6 250 04:57 18.12.2019
2434 Drizzle 7 1004 87 10000 7.7 300 02:55 18.12.2019
2435 Drizzle 7 1004 87 10000 7.7 300 02:36 18.12.2019
2436 Drizzle 7 1003 93 9000 9.8 290 02:18 18.12.2019
2437 Drizzle 7 1002 93 5000 9.3 280 01:40 18.12.2019
2438 Drizzle 8 1000 93 10000 5.1 240 01:21 18.12.2019
2439 Drizzle 8 1000 93 10000 5.1 240 00:41 18.12.2019
2440 Drizzle 9 1000 87 8000 4.6 250 00:23 18.12.2019
2441 Drizzle 9 1000 87 8000 4.6 250 00:23 18.12.2019
2442 Drizzle 9 1000 87 7000 6.7 260 23:56 17.12.2019
2443 Drizzle 10 1000 87 7000 6.7 260 23:38 17.12.2019
2444 Drizzle 12 999 76 7000 6.7 220 23:19 17.12.2019
2445 Clouds 13 999 62 10000 5.7 200 22:56 17.12.2019
2446 Clouds 11 999 62 10000 5.7 200 22:38 17.12.2019
2447 Clouds 12 999 66 10000 5.1 200 22:18 17.12.2019
2448 Clouds 12 999 66 10000 5.1 200 21:55 17.12.2019
2449 Clouds 12 999 66 10000 5.1 200 21:37 17.12.2019
2450 Clouds 12 999 66 10000 5.1 200 21:37 17.12.2019
2451 Clouds 12 999 66 10000 5.1 200 21:19 17.12.2019
2452 Clouds 12 999 66 10000 5.1 200 20:56 17.12.2019
2453 Clouds 12 999 66 10000 5.1 200 20:38 17.12.2019
2454 Clouds 12 1000 66 10000 5.7 210 20:18 17.12.2019
2455 Clouds 12 1000 66 10000 5.7 210 19:55 17.12.2019
2456 Clouds 12 1000 66 10000 5.7 210 19:37 17.12.2019
2457 Clouds 12 999 66 10000 5.7 200 19:18 17.12.2019
2458 Clouds 12 999 66 10000 5.7 200 18:42 17.12.2019
2459 Clouds 12 999 66 10000 5.7 200 18:42 17.12.2019
2460 Clouds 12 999 66 10000 5.1 200 18:22 17.12.2019
2461 Clouds 12 999 66 10000 5.1 200 17:59 17.12.2019
2462 Clouds 12 999 66 10000 5.1 200 17:59 17.12.2019
2463 Clouds 12 999 66 10000 5.1 200 17:41 17.12.2019
2464 Clouds 12 999 66 10000 5.1 200 17:19 17.12.2019
2465 Clouds 12 999 66 10000 5.1 200 16:56 17.12.2019
2466 Clouds 12 999 66 10000 5.1 200 16:37 17.12.2019
2467 Clouds 12 999 66 10000 5.1 200 16:37 17.12.2019
2468 Clouds 12 999 71 10000 4.6 200 16:19 17.12.2019
2469 Clouds 12 999 71 10000 4.6 200 15:56 17.12.2019
2470 Clouds 11 999 71 10000 4.6 200 15:37 17.12.2019
2471 Clouds 12 999 71 10000 4.6 200 15:19 17.12.2019
2472 Clouds 12 999 71 10000 4.6 200 14:55 17.12.2019
2473 Clouds 12 999 71 10000 4.6 200 14:37 17.12.2019
2474 Clouds 12 999 71 10000 5.1 200 14:18 17.12.2019
2475 Clouds 12 999 71 10000 5.1 200 13:55 17.12.2019
2476 Clouds 12 999 71 10000 5.1 200 13:37 17.12.2019
2477 Clouds 11 999 76 10000 5.1 200 13:18 17.12.2019
2478 Clouds 11 999 76 10000 5.1 200 12:41 17.12.2019
2479 Clouds 9 1000 76 10000 4.1 200 12:19 17.12.2019
2480 Clouds 9 1000 76 10000 4.1 200 11:59 17.12.2019
2481 Clouds 9 999 81 10000 3.6 190 11:38 17.12.2019
2482 Clouds 9 999 81 10000 3.6 190 11:38 17.12.2019
2483 Clouds 9 999 81 10000 3.6 190 11:19 17.12.2019
2484 Clouds 9 999 81 10000 3.6 190 10:59 17.12.2019
2485 Clouds 9 999 81 10000 3.6 190 10:59 17.12.2019
2486 Clouds 7 999 81 10000 3.6 190 10:41 17.12.2019
2487 Clouds 7 1000 87 8000 3.1 190 10:23 17.12.2019
2488 Clouds 7 1000 93 7000 2.6 170 09:59 17.12.2019
2489 Clouds 6 1000 93 7000 2.6 170 09:41 17.12.2019
2490 Mist 6 999 93 2500 3.1 150 09:21 17.12.2019
2491 Mist 6 999 93 2500 3.1 150 08:56 17.12.2019
2492 Mist 6 999 93 2500 3.1 150 08:38 17.12.2019
2493 Mist 6 999 93 2500 3.1 150 08:38 17.12.2019
2494 Mist 6 999 93 2500 3.1 150 08:38 17.12.2019
2495 Mist 6 999 93 1600 2.6 150 08:20 17.12.2019
2496 Fog 6 999 100 800 2.1 140 07:55 17.12.2019
2497 Fog 6 999 100 800 2.1 140 07:36 17.12.2019
2498 Fog 6 999 100 800 1.5 90 07:18 17.12.2019
2499 Mist 6 1000 93 3500 2.6 110 06:35 17.12.2019
2500 Mist 6 1000 93 3500 2.6 100 05:57 17.12.2019
2501 Mist 6 1001 93 2500 3.1 90 05:38 17.12.2019
2502 Mist 6 1001 93 2500 3.1 90 04:45 17.12.2019
2503 Rain 6 1002 93 3500 1.5 110 02:47 17.12.2019
2504 Rain 6 1002 93 4500 1.5 120 01:56 17.12.2019
2505 Rain 7 1003 93 7000 2.6 160 01:20 17.12.2019
2506 Rain 6 1003 93 7000 2.6 160 00:38 17.12.2019
2507 Clouds 7 1003 87 9000 2.6 170 00:20 17.12.2019
2508 Clouds 6 1003 87 9000 2.6 170 23:42 16.12.2019
2509 Clouds 6 1003 87 9000 2.6 170 23:42 16.12.2019
2510 Clouds 6 1003 87 9000 2.6 170 23:42 16.12.2019
2511 Clouds 7 1004 81 10000 2.6 180 23:19 16.12.2019
2512 Clouds 7 1004 81 10000 2.6 180 22:58 16.12.2019
2513 Clouds 6 1004 81 10000 2.6 180 22:38 16.12.2019
2514 Clouds 6 1004 87 10000 3.1 200 22:20 16.12.2019
2515 Clouds 6 1004 87 10000 3.1 200 22:20 16.12.2019
2516 Clouds 6 1004 87 10000 3.1 200 21:56 16.12.2019
2517 Clouds 6 1004 87 10000 3.1 200 21:38 16.12.2019
2518 Clouds 6 1004 87 10000 3.1 200 21:38 16.12.2019
2519 Clouds 6 1004 87 10000 3.1 200 21:20 16.12.2019
2520 Clouds 7 1004 87 10000 2.6 200 20:58 16.12.2019
2521 Clouds 7 1004 87 10000 2.6 200 20:38 16.12.2019
2522 Clouds 7 1004 87 10000 4.1 200 20:19 16.12.2019
2523 Clouds 7 1004 87 10000 4.1 200 19:56 16.12.2019
2524 Clouds 7 1004 87 10000 4.1 200 19:56 16.12.2019
2525 Clouds 7 1004 87 10000 4.1 200 19:37 16.12.2019
2526 Clouds 7 1004 87 10000 4.1 210 19:19 16.12.2019
2527 Clouds 7 1004 87 10000 4.1 210 18:56 16.12.2019
2528 Clouds 7 1004 87 10000 4.1 210 18:56 16.12.2019
2529 Clouds 7 1004 87 10000 4.1 210 18:38 16.12.2019
2530 Clouds 7 1003 87 10000 4.6 210 18:19 16.12.2019
2531 Clouds 7 1003 87 10000 4.6 210 17:57 16.12.2019
2532 Clouds 7 1003 87 10000 4.6 210 17:57 16.12.2019
2533 Clouds 7 1003 87 10000 4.6 210 17:38 16.12.2019
2534 Clouds 7 1004 87 10000 4.6 210 17:20 16.12.2019
2535 Clouds 7 1004 87 10000 4.6 210 16:57 16.12.2019
2536 Clouds 8 1004 87 10000 4.6 210 16:38 16.12.2019
2537 Clouds 8 1004 81 10000 4.6 210 16:19 16.12.2019
2538 Clouds 8 1004 81 10000 4.6 210 15:58 16.12.2019
2539 Clouds 8 1004 81 10000 4.6 210 15:38 16.12.2019
2540 Clouds 7 1003 87 10000 7.29 199 15:20 16.12.2019
2541 Clouds 7 1003 87 10000 7.29 199 14:55 16.12.2019
2542 Clouds 8 1003 87 10000 7.29 199 14:37 16.12.2019
2543 Clouds 7 1004 81 10000 5.1 220 14:19 16.12.2019
2544 Clouds 7 1004 81 10000 5.1 220 13:56 16.12.2019
2545 Clouds 7 1004 81 10000 5.1 220 13:37 16.12.2019
2546 Clouds 7 1004 81 10000 6.2 220 13:19 16.12.2019
2547 Clouds 7 1004 81 10000 6.2 220 12:57 16.12.2019
2548 Clouds 7 1004 81 10000 6.2 220 12:39 16.12.2019
2549 Clouds 7 1004 81 10000 5.1 210 12:18 16.12.2019
2550 Clouds 7 1004 81 10000 5.1 210 11:57 16.12.2019
2551 Clouds 7 1004 81 10000 5.1 210 11:39 16.12.2019
2552 Clouds 6 1004 81 10000 6.2 210 11:19 16.12.2019
2553 Clouds 6 1004 81 10000 6.2 210 10:55 16.12.2019
2554 Clouds 6 1004 80 10000 5.7 200 10:36 16.12.2019
2555 Clouds 6 1004 80 10000 5.7 200 10:18 16.12.2019
2556 Clouds 5 1004 80 10000 5.7 200 09:44 16.12.2019
2557 Clouds 5 1004 80 10000 5.7 200 09:44 16.12.2019
2558 Clouds 5 1004 80 10000 4.6 200 09:26 16.12.2019
2559 Clouds 5 1004 80 10000 4.6 200 08:41 16.12.2019
2560 Clouds 5 1003 80 10000 5.1 200 08:21 16.12.2019
2561 Clouds 5 1003 80 10000 5.1 200 07:57 16.12.2019
2562 Clouds 5 1003 80 10000 5.1 200 07:38 16.12.2019
2563 Clouds 5 1004 80 10000 5.1 200 07:19 16.12.2019
2564 Clouds 5 1004 80 10000 5.1 200 06:40 16.12.2019
2565 Clouds 5 1004 75 10000 5.7 210 06:22 16.12.2019
2566 Clouds 5 1004 75 10000 5.7 210 06:22 16.12.2019
2567 Clouds 5 1004 75 10000 5.7 210 05:44 16.12.2019
2568 Clouds 5 1004 80 10000 4.6 210 05:26 16.12.2019
2569 Clouds 4 1004 86 10000 5.1 210 03:33 16.12.2019
2570 Clouds 5 1004 80 10000 5.7 220 01:57 16.12.2019
2571 Clouds 5 1004 80 10000 5.7 220 01:39 16.12.2019
2572 Clouds 5 1003 86 10000 5.7 220 00:41 16.12.2019
2573 Clouds 5 1003 86 10000 6.2 220 00:23 16.12.2019
2574 Clouds 5 1003 86 10000 6.2 220 23:58 15.12.2019
2575 Clouds 6 1003 86 10000 6.2 220 23:38 15.12.2019
2576 Clouds 6 1002 81 10000 5.1 230 23:19 15.12.2019
2577 Clouds 6 1002 81 10000 5.1 230 22:55 15.12.2019
2578 Clouds 6 1002 81 10000 5.1 230 22:37 15.12.2019
2579 Clouds 6 1001 87 10000 6.2 230 22:18 15.12.2019
2580 Clouds 6 1001 87 10000 6.2 230 21:55 15.12.2019
2581 Clouds 6 1001 87 10000 6.2 230 21:37 15.12.2019
2582 Clouds 6 1000 87 10000 7.2 240 21:18 15.12.2019
2583 Clouds 6 1000 87 10000 7.2 240 20:55 15.12.2019
2584 Clouds 6 1000 87 10000 7.2 240 20:36 15.12.2019
2585 Rain 6 1000 87 6000 5.1 260 20:18 15.12.2019
2586 Rain 6 1000 87 9000 6.2 250 19:55 15.12.2019
2587 Rain 6 1000 87 9000 6.2 250 19:37 15.12.2019
2588 Rain 6 999 87 7000 7.7 250 19:18 15.12.2019
2589 Clouds 6 998 87 10000 6.2 240 18:55 15.12.2019
2590 Clouds 6 998 87 10000 6.2 240 18:55 15.12.2019
2591 Clouds 6 998 87 9000 5.7 240 18:36 15.12.2019
2592 Clouds 6 998 87 9000 5.7 240 18:18 15.12.2019
2593 Rain 6 998 87 6000 6.7 240 17:55 15.12.2019
2594 Clouds 7 996 70 10000 8.7 260 17:36 15.12.2019
2595 Clouds 7 996 70 10000 8.7 260 17:18 15.12.2019
2596 Clouds 7 996 70 10000 8.7 260 16:42 15.12.2019
2597 Clouds 7 995 65 10000 11.8 260 16:23 15.12.2019
2598 Clouds 7 995 65 10000 11.8 260 15:57 15.12.2019
2599 Clouds 8 995 65 10000 11.8 260 15:39 15.12.2019
2600 Clouds 7 993 65 10000 13.4 260 15:19 15.12.2019
2601 Clouds 7 993 65 10000 13.4 260 14:56 15.12.2019
2602 Clouds 8 993 65 10000 13.4 260 14:38 15.12.2019
2603 Clouds 8 993 65 10000 13.4 260 14:38 15.12.2019
2604 Clouds 8 993 66 10000 15.4 260 14:19 15.12.2019
2605 Clouds 8 992 62 10000 12.3 250 13:59 15.12.2019
2606 Clouds 8 992 66 10000 12.3 250 13:39 15.12.2019
2607 Clouds 7 991 62 10000 12.9 250 13:20 15.12.2019
2608 Clouds 7 991 62 10000 12.9 250 12:57 15.12.2019
2609 Clouds 7 991 62 10000 12.9 250 12:57 15.12.2019
2610 Clouds 8 991 62 10000 12.9 250 12:39 15.12.2019
2611 Clouds 7 990 65 10000 13.4 260 12:21 15.12.2019
2612 Clouds 7 990 65 10000 13.4 260 11:59 15.12.2019
2613 Clouds 8 990 65 10000 13.4 260 11:38 15.12.2019
2614 Clouds 7 989 65 10000 12.3 250 11:19 15.12.2019
2615 Clouds 7 988 75 10000 10.8 250 10:56 15.12.2019
2616 Clouds 8 988 75 10000 10.8 250 10:37 15.12.2019
2617 Clouds 8 988 75 10000 10.3 250 10:19 15.12.2019
2618 Clouds 8 987 81 10000 8.7 240 09:57 15.12.2019
2619 Clouds 8 987 81 10000 8.7 240 09:37 15.12.2019
2620 Clouds 7 986 93 10000 7.2 200 09:19 15.12.2019
2621 Clouds 7 986 93 10000 7.2 200 08:42 15.12.2019
2622 Clouds 6 986 93 10000 7.2 190 08:23 15.12.2019
2623 Drizzle 6 987 93 9000 6.7 180 07:59 15.12.2019
2624 Drizzle 5 987 93 9000 6.7 180 07:38 15.12.2019
2625 Rain 5 987 93 8000 6.2 180 07:19 15.12.2019
2626 Clouds 5 989 80 10000 6.7 170 06:24 15.12.2019
2627 Clouds 4 989 80 10000 6.7 170 05:42 15.12.2019
2628 Clouds 4 991 82 10000 6.2 190 05:21 15.12.2019
2629 Clouds 3 993 82 10000 5.1 210 04:20 15.12.2019
2630 Clouds 3 993 82 10000 5.7 210 02:55 15.12.2019
2631 Clouds 3 994 86 10000 5.7 230 02:32 15.12.2019
2632 Rain 4 994 86 10000 5.7 230 01:41 15.12.2019
2633 Clouds 4 993 80 10000 7.2 230 01:19 15.12.2019
2634 Clouds 5 993 80 10000 7.2 230 00:49 15.12.2019
2635 Clouds 5 992 80 10000 6.7 240 00:31 15.12.2019
2636 Clouds 5 992 80 10000 6.7 240 23:41 14.12.2019
2637 Clouds 5 991 86 10000 7.7 240 23:23 14.12.2019
2638 Clouds 5 991 86 10000 7.7 240 22:59 14.12.2019
2639 Clouds 5 991 86 10000 7.7 240 22:41 14.12.2019
2640 Clouds 5 991 86 10000 8.2 250 22:22 14.12.2019
2641 Clouds 5 991 86 10000 8.2 250 21:58 14.12.2019
2642 Clouds 4 991 86 10000 8.2 250 21:39 14.12.2019
2643 Clouds 5 989 80 10000 9.8 260 21:20 14.12.2019
2644 Clouds 5 989 80 10000 9.8 260 20:59 14.12.2019
2645 Clouds 6 989 80 10000 9.8 260 20:41 14.12.2019
2646 Clouds 6 988 80 10000 6.2 230 20:20 14.12.2019
2647 Clouds 6 988 80 10000 6.2 230 19:57 14.12.2019
2648 Clouds 6 988 80 10000 6.2 230 19:39 14.12.2019
2649 Clouds 6 988 80 10000 6.2 230 19:39 14.12.2019
2650 Clouds 6 987 80 10000 6.2 230 19:20 14.12.2019
2651 Clouds 6 987 80 10000 6.2 230 18:56 14.12.2019
2652 Clouds 6 987 80 10000 6.2 230 18:38 14.12.2019
2653 Clouds 6 986 80 10000 7.2 230 18:20 14.12.2019
2654 Clouds 6 986 80 10000 7.2 230 17:54 14.12.2019
2655 Rain 6 986 80 10000 6.2 250 17:36 14.12.2019
2656 Rain 6 986 80 10000 6.2 250 17:18 14.12.2019
2657 Rain 5 986 80 10000 6.2 250 16:40 14.12.2019
2658 Rain 5 985 80 10000 7.7 240 16:19 14.12.2019
2659 Rain 5 985 80 10000 7.7 240 15:55 14.12.2019
2660 Rain 5 985 80 10000 7.7 240 15:36 14.12.2019
2661 Clouds 5 983 80 10000 9.8 260 15:18 14.12.2019
2662 Clouds 5 983 80 10000 9.8 260 14:40 14.12.2019
2663 Rain 6 983 81 10000 9.3 260 14:21 14.12.2019
2664 Rain 6 983 81 10000 11.3 260 13:59 14.12.2019
2665 Rain 6 983 81 10000 11.3 260 13:41 14.12.2019
2666 Rain 6 983 81 10000 11.3 260 13:41 14.12.2019
2667 Rain 5 983 86 8000 5.7 270 13:19 14.12.2019
2668 Rain 6 982 81 8000 6.2 250 12:57 14.12.2019
2669 Rain 6 982 81 8000 6.2 250 12:38 14.12.2019
2670 Clouds 6 982 86 10000 7.2 230 12:20 14.12.2019
2671 Clouds 6 982 86 10000 7.2 230 12:20 14.12.2019
2672 Rain 6 978 83 0 15.34 257 11:56 14.12.2019
2673 Rain 6 977 81 0 15.34 257 11:38 14.12.2019
2674 Rain 5 981 93 9000 6.7 230 11:19 14.12.2019
2675 Rain 5 981 93 9000 6.7 230 10:56 14.12.2019
2676 Rain 5 981 93 9000 6.7 230 10:38 14.12.2019
2677 Rain 5 981 93 7000 6.2 230 10:19 14.12.2019
2678 Rain 4 980 93 9000 6.7 240 09:43 14.12.2019
2679 Rain 4 979 93 7000 5.7 230 09:23 14.12.2019
2680 Rain 4 979 93 7000 5.7 230 08:57 14.12.2019
2681 Rain 5 979 93 7000 5.7 230 08:38 14.12.2019
2682 Rain 5 979 93 7000 6.7 220 08:19 14.12.2019
2683 Rain 5 979 93 7000 6.7 220 07:40 14.12.2019
2684 Clouds 5 979 93 10000 5.7 220 07:21 14.12.2019
2685 Clouds 5 979 93 10000 5.7 220 06:48 14.12.2019
2686 Clouds 5 979 86 10000 5.7 210 06:30 14.12.2019
2687 Clouds 5 979 86 10000 5.7 210 05:50 14.12.2019
2688 Clouds 5 980 100 6000 5.7 220 04:29 14.12.2019
2689 Mist 4 980 100 3000 3.6 190 02:24 14.12.2019
2690 Mist 4 980 100 3000 3.6 190 01:44 14.12.2019
2691 Mist 3 980 93 4000 3.1 180 01:22 14.12.2019
2692 Mist 3 980 93 5000 3.1 180 00:43 14.12.2019
2693 Mist 2 981 93 5000 3.1 190 00:24 14.12.2019
2694 Mist 2 981 93 5000 3.1 190 23:42 13.12.2019
2695 Mist 2 981 90 4000 2.6 180 23:20 13.12.2019
2696 Mist 2 981 90 4000 2.6 180 22:59 13.12.2019
2697 Mist 2 981 90 4000 2.6 180 22:40 13.12.2019
2698 Mist 2 981 90 4000 2.6 180 22:19 13.12.2019
2699 Drizzle 2 981 90 4500 3.1 180 21:55 13.12.2019
2700 Drizzle 2 981 90 4500 3.1 180 21:36 13.12.2019
2701 Mist 2 981 90 4500 2.1 170 21:18 13.12.2019
2702 Mist 2 981 90 4500 2.1 170 20:40 13.12.2019
2703 Mist 2 981 93 4500 2.1 140 20:21 13.12.2019
2704 Mist 2 981 93 4500 2.1 140 19:58 13.12.2019
2705 Clouds 2 980 93 6000 2.6 140 19:40 13.12.2019
2706 Clouds 2 980 93 6000 2.6 140 19:20 13.12.2019
2707 Clouds 2 980 93 6000 2.6 140 18:57 13.12.2019
2708 Clouds 2 980 93 6000 3.6 130 18:39 13.12.2019
2709 Clouds 2 980 93 6000 3.6 130 18:18 13.12.2019
2710 Mist 2 980 93 5000 3.6 120 17:41 13.12.2019
2711 Mist 2 980 90 5000 3.6 120 17:19 13.12.2019
2712 Mist 2 980 90 5000 3.6 120 17:19 13.12.2019
2713 Mist 2 980 90 5000 3.6 120 17:19 13.12.2019
2714 Mist 2 980 90 5000 3.6 120 16:59 13.12.2019
2715 Mist 3 979 90 5000 3.6 120 16:39 13.12.2019
2716 Mist 2 979 90 5000 3.6 120 16:20 13.12.2019
2717 Clouds 3 979 80 10000 4.1 120 15:43 13.12.2019
2718 Clouds 3 979 80 10000 4.1 120 15:23 13.12.2019
2719 Clouds 3 979 80 10000 3.6 120 14:58 13.12.2019
2720 Clouds 3 978 80 10000 3.6 110 14:40 13.12.2019
2721 Clouds 3 978 80 10000 3.6 110 14:20 13.12.2019
2722 Clouds 3 978 80 10000 3.6 110 13:56 13.12.2019
2723 Clouds 2 978 86 10000 3.6 110 13:37 13.12.2019
2724 Clouds 2 978 86 10000 3.6 110 13:19 13.12.2019
2725 Clouds 2 978 86 10000 4.1 120 12:42 13.12.2019
2726 Clouds 2 978 86 10000 4.1 120 12:20 13.12.2019
2727 Clouds 2 978 86 10000 4.1 120 11:57 13.12.2019
2728 Clouds 2 978 86 10000 4.1 120 11:57 13.12.2019
2729 Clouds 2 978 86 10000 5.1 120 11:39 13.12.2019
2730 Clouds 2 978 86 10000 5.1 120 11:20 13.12.2019
2731 Clouds 2 978 86 10000 5.1 120 10:42 13.12.2019
2732 Clouds 2 978 80 10000 5.7 130 10:23 13.12.2019
2733 Clouds 2 979 80 10000 5.7 130 09:55 13.12.2019
2734 Clouds 2 979 80 10000 5.7 130 09:36 13.12.2019
2735 Clouds 2 979 80 10000 5.7 130 09:18 13.12.2019
2736 Clouds 2 979 80 10000 6.2 130 08:41 13.12.2019
2737 Clouds 2 979 80 10000 6.2 130 08:23 13.12.2019
2738 Clouds 1 979 80 10000 6.2 130 07:45 13.12.2019
2739 Clouds 1 980 80 10000 6.7 130 07:21 13.12.2019
2740 Clouds 1 980 80 10000 6.7 130 06:54 13.12.2019
2741 Clouds 1 980 86 10000 6.7 140 06:28 13.12.2019
2742 Clouds 1 980 86 10000 6.7 140 05:46 13.12.2019
2743 Clouds 1 981 86 10000 6.7 140 05:26 13.12.2019
2744 Clouds 2 983 80 10000 6.7 140 04:35 13.12.2019
2745 Clouds 2 984 86 10000 6.7 140 03:39 13.12.2019
2746 Clouds 2 986 86 10000 6.2 140 02:34 13.12.2019
2747 Clouds 2 986 86 10000 6.2 140 01:44 13.12.2019
2748 Clouds 2 987 86 10000 4.6 140 00:56 13.12.2019
2749 Clouds 2 989 78 10000 4.1 150 00:37 13.12.2019
2750 Clouds 2 989 78 10000 4.1 150 23:57 12.12.2019
2751 Clouds 2 990 78 10000 4.1 150 23:39 12.12.2019
2752 Clear 2 990 78 10000 4.1 150 23:20 12.12.2019
2753 Clear 2 990 78 10000 4.1 150 22:55 12.12.2019
2754 Clear 2 991 78 10000 5.1 170 22:37 12.12.2019
2755 Clear 2 991 78 10000 5.1 170 22:18 12.12.2019
2756 Clear 2 991 78 10000 5.1 170 21:54 12.12.2019
2757 Clear 2 992 78 10000 4.6 160 21:36 12.12.2019
2758 Clear 2 992 78 10000 4.6 160 21:18 12.12.2019
2759 Clear 2 992 78 10000 4.6 160 20:55 12.12.2019
2760 Clouds 3 993 86 10000 4.1 170 20:37 12.12.2019
2761 Clouds 3 993 86 10000 4.1 170 20:19 12.12.2019
2762 Clouds 3 995 86 10000 3.6 170 19:42 12.12.2019
2763 Clouds 3 995 86 10000 3.6 170 19:22 12.12.2019
2764 Clouds 3 995 86 10000 3.6 170 18:58 12.12.2019
2765 Clouds 3 995 86 10000 3.1 200 18:40 12.12.2019
2766 Clouds 3 995 86 10000 3.1 200 18:20 12.12.2019
2767 Clouds 3 995 86 10000 3.1 200 17:58 12.12.2019
2768 Clouds 3 995 86 10000 3.1 200 17:58 12.12.2019
2769 Clouds 4 996 86 10000 3.6 210 17:39 12.12.2019
2770 Clouds 4 996 86 10000 3.6 210 17:20 12.12.2019
2771 Clouds 4 996 86 10000 3.6 210 16:58 12.12.2019
2772 Clouds 5 996 80 10000 4.6 210 16:39 12.12.2019
2773 Clouds 5 996 80 10000 4.6 210 16:20 12.12.2019
2774 Clouds 5 996 80 10000 4.6 210 15:57 12.12.2019
2775 Clouds 5 997 86 10000 5.1 220 15:39 12.12.2019
2776 Clouds 5 997 86 10000 5.1 220 15:18 12.12.2019
2777 Clouds 6 997 86 10000 5.1 230 14:38 12.12.2019
2778 Clouds 6 997 86 10000 5.1 230 14:38 12.12.2019
2779 Clouds 6 997 86 10000 5.1 230 14:20 12.12.2019
2780 Clouds 6 997 86 10000 5.1 230 13:58 12.12.2019
2781 Clouds 7 998 87 8000 6.7 230 13:40 12.12.2019
2782 Clouds 7 998 87 8000 6.7 230 13:21 12.12.2019
2783 Clouds 7 998 87 8000 6.7 230 12:59 12.12.2019
2784 Clouds 6 998 93 8000 5.1 220 12:40 12.12.2019
2785 Clouds 6 998 93 8000 5.1 220 12:22 12.12.2019
2786 Clouds 6 998 93 8000 5.1 220 11:57 12.12.2019
2787 Clouds 5 998 86 7000 5.1 230 11:38 12.12.2019
2788 Clouds 5 998 86 7000 5.1 230 11:38 12.12.2019
2789 Clouds 5 998 86 7000 5.1 230 11:20 12.12.2019
2790 Clouds 5 999 86 7000 5.1 220 10:57 12.12.2019
2791 Clouds 5 999 86 6000 5.1 220 10:39 12.12.2019
2792 Clouds 5 999 86 6000 5.1 220 10:21 12.12.2019
2793 Clouds 5 999 86 6000 5.1 220 09:55 12.12.2019
2794 Clouds 5 999 86 6000 5.1 220 09:55 12.12.2019
2795 Clouds 5 999 86 6000 4.1 210 09:37 12.12.2019
2796 Clouds 5 999 86 6000 4.1 210 09:19 12.12.2019
2797 Clouds 5 999 86 6000 4.1 210 08:46 12.12.2019
2798 Clouds 5 999 93 6000 3.6 210 08:27 12.12.2019
2799 Clouds 5 999 93 6000 3.6 210 07:50 12.12.2019
2800 Clouds 5 999 86 6000 3.1 200 07:28 12.12.2019
2801 Clouds 5 999 86 6000 3.1 200 06:57 12.12.2019
2802 Clouds 5 999 86 7000 2.6 200 06:36 12.12.2019
2803 Clouds 5 999 86 7000 2.6 200 05:49 12.12.2019
2804 Clouds 5 1000 93 7000 3.1 220 05:25 12.12.2019
2805 Clouds 5 1000 93 6000 3.6 230 04:31 12.12.2019
2806 Mist 5 1001 93 5000 3.6 230 02:41 12.12.2019
2807 Mist 5 1001 93 5000 3.6 230 02:23 12.12.2019
2808 Mist 5 1001 93 5000 3.6 230 01:58 12.12.2019
2809 Mist 5 1001 93 5000 3.1 220 01:35 12.12.2019
2810 Mist 5 1001 93 5000 3.6 220 00:49 12.12.2019
2811 Mist 5 1002 93 5000 2.1 220 00:22 12.12.2019
2812 Mist 5 1002 93 5000 2.1 220 23:58 11.12.2019
2813 Mist 5 1002 100 5000 2.6 220 23:36 11.12.2019
2814 Mist 5 1002 100 5000 2.6 220 23:18 11.12.2019
2815 Mist 5 1002 100 5000 2.6 220 22:55 11.12.2019
2816 Mist 5 1003 93 5000 2.6 230 22:37 11.12.2019
2817 Mist 5 1003 93 5000 2.6 230 22:18 11.12.2019
2818 Mist 5 1003 93 5000 2.6 230 21:54 11.12.2019
2819 Mist 5 1003 100 4800 2.6 230 21:36 11.12.2019
2820 Mist 5 1003 100 4800 2.6 230 21:18 11.12.2019
2821 Mist 5 1003 93 5000 3.1 220 20:54 11.12.2019
2822 Mist 5 1003 100 4000 3.1 220 20:36 11.12.2019
2823 Mist 5 1003 100 4000 3.1 220 20:18 11.12.2019
2824 Mist 5 1003 100 3000 1.5 210 19:41 11.12.2019
2825 Mist 5 1003 100 3000 1.5 210 19:23 11.12.2019
2826 Mist 5 1003 100 3000 1.5 210 18:59 11.12.2019
2827 Mist 6 1004 93 4000 2.1 220 18:39 11.12.2019
2828 Mist 6 1004 93 4000 2.1 220 18:19 11.12.2019
2829 Mist 6 1004 93 4000 2.1 220 17:56 11.12.2019
2830 Clouds 6 1004 93 6000 2.6 220 17:38 11.12.2019
2831 Clouds 6 1004 93 6000 2.6 220 17:18 11.12.2019
2832 Clouds 6 1004 93 6000 3.1 220 16:55 11.12.2019
2833 Clouds 6 1004 93 8000 3.6 220 16:37 11.12.2019
2834 Clouds 6 1004 93 8000 3.6 220 16:18 11.12.2019
2835 Clouds 6 1004 93 8000 3.6 220 15:56 11.12.2019
2836 Clouds 6 1004 93 8000 3.6 220 15:37 11.12.2019
2837 Clouds 6 1004 93 8000 3.6 220 15:18 11.12.2019
2838 Clouds 6 1004 93 8000 3.6 220 14:54 11.12.2019
2839 Clouds 6 1005 93 8000 4.1 230 14:36 11.12.2019
2840 Clouds 6 1005 93 8000 4.1 230 14:36 11.12.2019
2841 Clouds 6 1005 93 8000 4.1 230 14:18 11.12.2019
2842 Clouds 6 1005 93 8000 4.1 230 13:42 11.12.2019
2843 Clouds 6 1006 93 8000 4.6 220 13:22 11.12.2019
2844 Clouds 6 1006 93 8000 4.6 220 12:58 11.12.2019
2845 Clouds 6 1006 93 9000 4.1 220 12:39 11.12.2019
2846 Clouds 6 1006 93 9000 4.1 220 12:21 11.12.2019
2847 Clouds 6 1006 87 9000 4.1 220 11:58 11.12.2019
2848 Clouds 5 1007 93 9000 4.6 220 11:39 11.12.2019
2849 Clouds 6 1007 93 9000 4.6 220 11:19 11.12.2019
2850 Clouds 6 1007 93 9000 4.6 220 10:59 11.12.2019
2851 Clouds 6 1007 93 10000 5.7 220 10:39 11.12.2019
2852 Clouds 6 1007 93 10000 5.7 220 10:21 11.12.2019
2853 Clouds 6 1006 93 10000 5.7 220 09:56 11.12.2019
2854 Clouds 6 1006 93 10000 6.7 220 09:38 11.12.2019
2855 Clouds 6 1006 93 10000 6.7 220 09:19 11.12.2019
2856 Clouds 6 1006 93 10000 6.7 220 08:55 11.12.2019
2857 Rain 6 1006 93 8000 6.7 220 08:36 11.12.2019
2858 Rain 6 1006 93 8000 6.7 220 08:18 11.12.2019
2859 Rain 6 1006 93 8000 6.7 220 07:42 11.12.2019
2860 Drizzle 6 1006 93 7000 7.2 220 07:22 11.12.2019
2861 Drizzle 5 1006 93 7000 7.2 220 06:46 11.12.2019
2862 Drizzle 6 1006 81 10000 7.2 220 06:24 11.12.2019
2863 Drizzle 6 1006 81 10000 7.2 220 05:53 11.12.2019
2864 Clouds 6 1006 75 10000 8.7 220 05:33 11.12.2019
2865 Clouds 6 1006 75 10000 8.7 220 04:49 11.12.2019
2866 Clouds 6 1007 60 10000 8.7 210 03:19 11.12.2019
2867 Clouds 6 1007 60 10000 8.7 210 02:31 11.12.2019
2868 Clouds 6 1008 60 10000 10.3 210 01:21 11.12.2019
2869 Clouds 6 1009 65 10000 8.7 210 00:37 11.12.2019
2870 Clouds 6 1009 65 10000 8.7 210 00:18 11.12.2019
2871 Clouds 6 1009 65 10000 8.7 210 23:43 10.12.2019
2872 Clouds 6 1010 65 10000 7.7 200 23:22 10.12.2019
2873 Clouds 6 1010 65 10000 7.7 200 22:56 10.12.2019
2874 Clouds 5 1011 70 10000 8.7 190 22:38 10.12.2019
2875 Clouds 5 1011 70 10000 8.7 190 22:20 10.12.2019
2876 Clouds 5 1011 70 10000 8.7 190 21:54 10.12.2019
2877 Clouds 5 1012 70 10000 8.2 200 21:36 10.12.2019
2878 Clouds 5 1012 70 10000 8.2 200 21:18 10.12.2019
2879 Clouds 5 1012 70 10000 8.2 190 20:55 10.12.2019
2880 Clouds 5 1012 70 10000 8.2 190 20:55 10.12.2019
2881 Clouds 5 1014 80 10000 7.7 190 20:36 10.12.2019
2882 Clouds 5 1014 80 10000 7.7 190 20:18 10.12.2019
2883 Clouds 5 1014 80 10000 7.7 190 20:18 10.12.2019
2884 Clouds 5 1014 80 10000 7.7 190 19:44 10.12.2019
2885 Clouds 5 1015 80 10000 7.2 190 19:25 10.12.2019
2886 Clouds 5 1015 80 10000 7.2 190 18:57 10.12.2019
2887 Clouds 4 1016 80 10000 6.2 200 18:39 10.12.2019
2888 Clouds 4 1016 80 10000 6.2 200 18:19 10.12.2019
2889 Clouds 4 1016 80 10000 6.2 200 17:54 10.12.2019
2890 Clouds 5 1017 75 10000 5.7 200 17:36 10.12.2019
2891 Clouds 5 1017 75 10000 5.7 200 17:18 10.12.2019
2892 Clouds 5 1017 75 10000 5.7 200 16:42 10.12.2019
2893 Clouds 5 1018 75 10000 5.1 210 16:20 10.12.2019
2894 Clouds 6 1018 75 10000 5.1 210 15:54 10.12.2019
2895 Clouds 6 1019 70 10000 5.1 220 15:36 10.12.2019
2896 Clouds 6 1019 70 10000 5.1 220 15:18 10.12.2019
2897 Clouds 6 1019 70 10000 5.1 220 15:18 10.12.2019
2898 Clouds 6 1019 70 10000 5.1 220 14:54 10.12.2019
2899 Clouds 6 1020 70 10000 5.7 220 14:36 10.12.2019
2900 Clouds 6 1020 70 10000 5.7 220 14:18 10.12.2019
2901 Clouds 6 1020 70 10000 5.7 220 14:18 10.12.2019
2902 Clouds 6 1020 70 10000 5.7 220 13:54 10.12.2019
2903 Clouds 6 1021 80 10000 4.6 220 13:36 10.12.2019
2904 Clouds 6 1021 80 10000 4.6 220 13:18 10.12.2019
2905 Clouds 6 1021 80 10000 4.1 230 12:38 10.12.2019
2906 Clouds 6 1021 80 10000 4.1 230 12:20 10.12.2019
2907 Clouds 6 1021 80 10000 3.6 230 11:41 10.12.2019
2908 Clouds 6 1021 80 10000 3.6 230 11:23 10.12.2019
2909 Clouds 6 1021 80 10000 3.6 230 10:56 10.12.2019
2910 Clouds 6 1021 80 10000 3.6 230 10:56 10.12.2019
2911 Clouds 5 1021 80 10000 3.6 250 10:37 10.12.2019
2912 Clouds 5 1021 80 10000 3.6 250 10:19 10.12.2019
2913 Clouds 5 1021 80 10000 3.6 250 09:55 10.12.2019
2914 Clouds 5 1020 75 10000 3.1 260 09:37 10.12.2019
2915 Clouds 5 1020 75 10000 3.1 260 09:18 10.12.2019
2916 Clouds 5 1020 75 10000 3.1 260 08:54 10.12.2019
2917 Clouds 6 1020 80 10000 2.1 320 08:36 10.12.2019
2918 Clouds 6 1020 80 10000 2.1 320 08:18 10.12.2019
2919 Clouds 6 1020 80 10000 2.1 320 07:42 10.12.2019
2920 Clouds 6 1019 75 10000 4.1 330 07:24 10.12.2019
2921 Clouds 6 1019 75 10000 4.1 330 06:46 10.12.2019
2922 Clouds 6 1019 70 10000 5.1 330 06:19 10.12.2019
2923 Clouds 6 1019 70 10000 5.1 330 05:54 10.12.2019
2924 Clouds 6 1018 63 10000 4.1 330 04:52 10.12.2019
2925 Clouds 6 1015 63 10000 6.7 340 03:38 10.12.2019
2926 Clouds 6 1014 75 10000 7.7 320 02:46 10.12.2019
2927 Clouds 6 1013 75 10000 6.7 320 01:45 10.12.2019
2928 Clouds 6 1013 75 10000 6.7 320 01:21 10.12.2019
2929 Clouds 7 1013 75 10000 6.7 320 00:42 10.12.2019
2930 Clouds 6 1011 80 10000 6.7 350 00:21 10.12.2019
2931 Clouds 6 1011 80 10000 6.7 350 23:42 09.12.2019
2932 Rain 6 1011 75 10000 11.8 330 23:23 09.12.2019
2933 Rain 6 1011 75 10000 11.8 330 23:23 09.12.2019
2934 Clouds 6 1010 75 10000 9.8 320 22:58 09.12.2019
2935 Clouds 7 1008 70 10000 8.7 320 22:40 09.12.2019
2936 Clouds 7 1008 70 10000 8.7 320 22:20 09.12.2019
2937 Clouds 7 1008 70 10000 8.7 320 21:57 09.12.2019
2938 Clouds 6 1007 70 10000 9.3 320 21:38 09.12.2019
2939 Clouds 6 1007 70 10000 9.3 320 21:19 09.12.2019
2940 Clouds 6 1007 70 10000 9.3 320 20:57 09.12.2019
2941 Clouds 6 1007 70 10000 9.3 320 20:57 09.12.2019
2942 Clouds 7 1005 65 10000 8.7 340 20:39 09.12.2019
2943 Clouds 7 1005 65 10000 8.7 340 20:20 09.12.2019
2944 Clouds 7 1005 65 10000 8.7 340 19:56 09.12.2019
2945 Clouds 7 1003 75 10000 8.2 330 19:37 09.12.2019
2946 Clouds 7 1003 75 10000 8.2 330 19:19 09.12.2019
2947 Clouds 7 1003 75 10000 8.2 330 18:56 09.12.2019
2948 Clouds 7 1001 70 10000 8.2 340 18:38 09.12.2019
2949 Clouds 7 1001 70 10000 8.2 340 18:19 09.12.2019
2950 Clouds 7 1001 70 10000 8.2 340 17:58 09.12.2019
2951 Clouds 7 999 81 10000 3.1 350 17:39 09.12.2019
2952 Clouds 7 999 81 10000 3.1 350 17:20 09.12.2019
2953 Clouds 7 999 81 10000 3.1 350 16:56 09.12.2019
2954 Clouds 8 999 81 10000 6.7 360 16:37 09.12.2019
2955 Clouds 7 999 81 10000 6.7 360 16:19 09.12.2019
2956 Rain 7 997 93 8000 7.2 300 15:55 09.12.2019
2957 Rain 7 997 87 4000 6.2 280 15:37 09.12.2019
2958 Rain 7 997 87 4000 6.2 280 15:19 09.12.2019
2959 Rain 7 996 81 10000 5.7 260 14:55 09.12.2019
2960 Clouds 7 995 81 10000 6.2 260 14:37 09.12.2019
2961 Clouds 7 995 81 10000 6.2 260 14:18 09.12.2019
2962 Clouds 7 994 81 10000 5.7 250 13:40 09.12.2019
2963 Clouds 7 994 81 10000 5.7 250 13:20 09.12.2019
2964 Clouds 7 994 81 10000 5.7 250 12:58 09.12.2019
2965 Clouds 7 994 81 10000 5.1 250 12:39 09.12.2019
2966 Clouds 7 994 81 10000 5.1 250 12:21 09.12.2019
2967 Clouds 7 994 81 10000 5.1 250 11:59 09.12.2019
2968 Clouds 7 993 87 10000 5.1 230 11:39 09.12.2019
2969 Clouds 7 993 87 10000 5.1 230 11:39 09.12.2019
2970 Clouds 7 993 87 10000 5.1 230 11:21 09.12.2019
2971 Clouds 7 993 87 10000 5.1 230 10:57 09.12.2019
2972 Clouds 6 992 87 10000 6.2 220 10:38 09.12.2019
2973 Clouds 6 992 87 10000 6.2 220 10:19 09.12.2019
2974 Clouds 6 992 87 10000 5.7 220 09:41 09.12.2019
2975 Clouds 6 992 87 10000 5.7 220 09:23 09.12.2019
2976 Clouds 6 992 87 10000 5.7 220 08:55 09.12.2019
2977 Clouds 6 992 81 10000 6.7 220 08:37 09.12.2019
2978 Clouds 6 992 81 10000 6.7 220 08:19 09.12.2019
2979 Clouds 6 992 81 10000 6.7 220 07:44 09.12.2019
2980 Clouds 6 991 81 10000 7.7 220 07:25 09.12.2019
2981 Clouds 6 991 81 10000 7.7 220 06:55 09.12.2019
2982 Clouds 6 991 81 10000 6.7 230 06:28 09.12.2019
2983 Clouds 6 991 86 10000 6.7 220 05:30 09.12.2019
2984 Clouds 6 991 86 10000 6.7 220 04:54 09.12.2019
2985 Clouds 6 991 87 10000 6.7 230 04:23 09.12.2019
2986 Clouds 6 991 81 10000 7.2 230 02:28 09.12.2019
2987 Clouds 6 991 81 10000 7.2 230 01:45 09.12.2019
2988 Clouds 6 991 87 10000 7.2 230 00:57 09.12.2019
2989 Clouds 7 991 81 10000 6.7 220 00:32 09.12.2019
2990 Clouds 7 991 81 10000 6.7 220 23:54 08.12.2019
2991 Clouds 6 991 87 10000 6.2 230 23:36 08.12.2019
2992 Clouds 6 991 87 10000 6.2 230 23:18 08.12.2019
2993 Clouds 6 991 87 10000 6.2 230 22:56 08.12.2019
2994 Rain 7 992 87 9000 10.3 260 22:37 08.12.2019
2995 Rain 7 992 87 9000 10.3 260 22:18 08.12.2019
2996 Rain 7 992 87 9000 10.3 260 21:55 08.12.2019
2997 Rain 8 992 75 10000 8.7 250 21:36 08.12.2019
2998 Rain 7 992 75 10000 8.7 250 21:18 08.12.2019
2999 Clouds 7 992 87 10000 7.7 240 20:54 08.12.2019
3000 Clouds 7 992 81 10000 8.2 240 20:36 08.12.2019
3001 Clouds 7 992 81 10000 8.2 240 20:18 08.12.2019
3002 Clouds 7 992 81 10000 8.2 240 19:54 08.12.2019
3003 Clouds 8 993 81 10000 7.2 250 19:36 08.12.2019
3004 Clouds 8 993 81 10000 7.2 250 19:18 08.12.2019
3005 Clouds 9 993 81 10000 7.2 250 18:54 08.12.2019
3006 Clouds 8 993 81 10000 9.3 260 18:36 08.12.2019
3007 Clouds 8 993 81 10000 9.3 260 18:18 08.12.2019
3008 Clouds 8 993 81 10000 9.3 260 17:54 08.12.2019
3009 Clouds 9 993 81 10000 8.2 260 17:36 08.12.2019
3010 Clouds 9 993 81 10000 8.2 260 17:18 08.12.2019
3011 Clouds 9 993 81 10000 8.2 260 16:42 08.12.2019
3012 Clouds 9 993 81 10000 10.3 260 16:23 08.12.2019
3013 Clouds 9 993 81 10000 10.3 260 15:58 08.12.2019
3014 Clouds 9 992 87 10000 8.7 260 15:37 08.12.2019
3015 Clouds 9 992 87 10000 8.7 260 15:18 08.12.2019
3016 Clouds 9 992 87 10000 8.7 260 15:18 08.12.2019
3017 Clouds 10 992 87 10000 8.7 260 14:46 08.12.2019
3018 Rain 10 992 93 10000 9.3 250 14:25 08.12.2019
3019 Rain 10 992 93 10000 9.3 250 13:59 08.12.2019
3020 Drizzle 10 992 93 3500 8.2 240 13:41 08.12.2019
3021 Drizzle 10 992 93 3500 8.2 240 13:22 08.12.2019
3022 Drizzle 10 992 93 7000 8.7 230 12:59 08.12.2019
3023 Drizzle 9 993 93 4500 10.3 230 12:40 08.12.2019
3024 Drizzle 9 993 93 4500 10.3 230 12:19 08.12.2019
3025 Drizzle 9 993 93 4500 10.3 230 11:58 08.12.2019
3026 Drizzle 8 994 93 4000 9.8 220 11:38 08.12.2019
3027 Drizzle 8 994 93 4000 9.8 220 11:19 08.12.2019
3028 Drizzle 8 994 93 4000 9.8 220 10:57 08.12.2019
3029 Drizzle 9 994 93 7000 10.8 230 10:38 08.12.2019
3030 Drizzle 9 994 93 7000 10.8 230 10:19 08.12.2019
3031 Drizzle 9 994 93 7000 10.8 230 09:55 08.12.2019
3032 Rain 8 994 87 6000 9.8 220 09:37 08.12.2019
3033 Rain 8 995 87 8000 9.8 230 09:18 08.12.2019
3034 Rain 8 995 81 10000 9.8 220 08:43 08.12.2019
3035 Rain 8 995 81 10000 9.8 220 08:43 08.12.2019
3036 Rain 8 995 81 10000 9.8 220 08:23 08.12.2019
3037 Clouds 9 996 76 10000 9.3 230 07:58 08.12.2019
3038 Clouds 9 997 76 10000 10.3 230 07:40 08.12.2019
3039 Clouds 9 997 76 10000 10.3 230 07:19 08.12.2019
3040 Clouds 9 998 76 10000 8.7 230 06:41 08.12.2019
3041 Clouds 9 998 76 10000 8.7 230 06:21 08.12.2019
3042 Clouds 9 1001 81 10000 9.3 230 05:27 08.12.2019
3043 Clouds 9 1001 81 10000 9.3 230 04:57 08.12.2019
3044 Clouds 8 1002 81 10000 8.2 220 03:41 08.12.2019
3045 Clouds 8 1003 81 10000 7.2 220 02:52 08.12.2019
3046 Clouds 8 1003 81 10000 7.2 220 02:52 08.12.2019
3047 Clouds 8 1005 81 10000 6.7 220 02:27 08.12.2019
3048 Clouds 8 1005 81 10000 6.7 220 01:48 08.12.2019
3049 Clouds 8 1006 87 10000 7.2 230 00:56 08.12.2019
3050 Clouds 8 1007 87 10000 5.7 240 00:38 08.12.2019
3051 Clouds 8 1007 87 10000 5.7 240 00:19 08.12.2019
3052 Clouds 8 1007 87 10000 6.7 250 23:40 07.12.2019
3053 Clouds 8 1007 87 10000 6.7 250 23:40 07.12.2019
3054 Clouds 8 1007 87 10000 6.7 250 23:20 07.12.2019
3055 Clouds 8 1007 87 10000 6.7 250 22:56 07.12.2019
3056 Clouds 8 1008 93 10000 5.7 260 22:38 07.12.2019
3057 Clouds 8 1008 93 10000 5.7 260 22:19 07.12.2019
3058 Clouds 8 1008 93 10000 5.7 260 22:19 07.12.2019
3059 Clouds 8 1008 93 10000 5.7 260 21:56 07.12.2019
3060 Clouds 8 1008 87 10000 6.2 250 21:38 07.12.2019
3061 Clouds 8 1008 87 10000 6.2 250 21:19 07.12.2019
3062 Clouds 8 1008 87 10000 6.2 250 20:55 07.12.2019
3063 Clouds 8 1008 87 10000 6.2 250 20:36 07.12.2019
3064 Clouds 8 1008 87 10000 6.2 250 20:18 07.12.2019
3065 Clouds 8 1008 87 10000 6.2 250 19:55 07.12.2019
3066 Clouds 8 1008 93 10000 7.7 260 19:36 07.12.2019
3067 Clouds 8 1008 93 10000 7.7 260 19:18 07.12.2019
3068 Clouds 8 1008 93 10000 7.7 260 18:44 07.12.2019
3069 Clouds 8 1008 93 10000 8.2 260 18:19 07.12.2019
3070 Clouds 8 1008 93 10000 8.2 260 17:58 07.12.2019
3071 Rain 8 1008 93 8000 6.7 260 17:39 07.12.2019
3072 Rain 8 1008 93 8000 6.7 260 17:21 07.12.2019
3073 Rain 8 1008 93 8000 6.7 260 16:56 07.12.2019
3074 Clouds 8 1007 87 10000 7.2 270 16:38 07.12.2019
3075 Clouds 8 1007 87 10000 7.2 270 16:19 07.12.2019
3076 Clouds 9 1007 87 10000 7.2 270 15:42 07.12.2019
3077 Clouds 8 1006 93 10000 6.7 270 15:24 07.12.2019
3078 Clouds 8 1006 93 10000 6.7 270 14:58 07.12.2019
3079 Rain 8 1006 93 10000 8.2 280 14:40 07.12.2019
3080 Rain 8 1006 93 10000 8.2 280 14:18 07.12.2019
3081 Rain 9 1006 93 10000 8.2 280 13:41 07.12.2019
3082 Clouds 8 1006 93 10000 8.7 280 13:21 07.12.2019
3083 Clouds 8 1006 93 10000 8.7 280 12:59 07.12.2019
3084 Drizzle 9 1005 93 8000 9.3 290 12:40 07.12.2019
3085 Drizzle 9 1005 93 8000 9.3 290 12:22 07.12.2019
3086 Drizzle 9 1005 93 8000 9.3 290 11:58 07.12.2019
3087 Drizzle 9 1005 93 2800 8.2 280 11:40 07.12.2019
3088 Drizzle 9 1005 93 2800 8.2 280 11:21 07.12.2019
3089 Drizzle 8 1004 93 2000 8.7 280 10:38 07.12.2019
3090 Drizzle 8 1004 93 2000 8.7 280 10:20 07.12.2019
3091 Drizzle 8 1004 87 2500 8.2 280 09:58 07.12.2019
3092 Clouds 9 1004 93 8000 9.3 280 09:37 07.12.2019
3093 Clouds 9 1004 93 8000 9.3 280 09:18 07.12.2019
3094 Rain 9 1003 93 2500 8.2 270 08:41 07.12.2019
3095 Rain 9 1003 93 2500 8.2 270 08:21 07.12.2019
3096 Drizzle 9 1002 87 6000 9.3 270 07:46 07.12.2019
3097 Clouds 9 1001 87 10000 9.3 270 07:26 07.12.2019
3098 Clouds 9 1001 87 10000 9.3 270 06:50 07.12.2019
3099 Clouds 9 1000 87 10000 9.3 270 06:25 07.12.2019
3100 Clouds 9 999 87 10000 9.3 270 05:34 07.12.2019
3101 Drizzle 8 998 93 10000 7.7 260 04:19 07.12.2019
3102 Drizzle 8 998 93 10000 7.7 260 03:44 07.12.2019
3103 Drizzle 8 997 93 6000 6.2 240 02:21 07.12.2019
3104 Drizzle 8 997 93 5000 7.7 230 01:35 07.12.2019
3105 Drizzle 8 997 93 5000 7.7 230 00:57 07.12.2019
3106 Drizzle 8 997 93 6000 7.7 220 00:21 07.12.2019
3107 Drizzle 8 997 93 6000 7.7 220 23:56 06.12.2019
3108 Drizzle 8 997 93 7000 8.2 230 23:38 06.12.2019
3109 Drizzle 8 997 93 7000 8.2 230 23:18 06.12.2019
3110 Drizzle 8 998 93 6000 7.2 230 22:39 06.12.2019
3111 Drizzle 8 998 93 6000 7.2 230 22:20 06.12.2019
3112 Drizzle 8 998 93 6000 7.2 230 21:58 06.12.2019
3113 Drizzle 8 998 93 4500 9.3 230 21:39 06.12.2019
3114 Drizzle 8 998 93 4500 9.3 230 21:20 06.12.2019
3115 Drizzle 8 998 93 4500 9.3 230 20:45 06.12.2019
3116 Drizzle 7 998 93 4500 8.2 230 20:25 06.12.2019
3117 Drizzle 7 998 93 4500 8.2 230 19:59 06.12.2019
3118 Drizzle 7 999 100 6000 7.7 230 19:40 06.12.2019
3119 Drizzle 7 999 100 6000 7.7 230 19:22 06.12.2019
3120 Drizzle 7 999 100 6000 7.7 230 19:22 06.12.2019
3121 Drizzle 7 999 100 6000 7.7 230 18:58 06.12.2019
3122 Drizzle 7 999 93 4500 7.7 220 18:40 06.12.2019
3123 Drizzle 7 999 93 4500 7.7 220 18:20 06.12.2019
3124 Drizzle 7 999 93 4500 7.7 220 17:57 06.12.2019
3125 Drizzle 7 1000 93 4000 8.7 220 17:39 06.12.2019
3126 Drizzle 7 1000 93 4000 8.7 220 17:21 06.12.2019
3127 Drizzle 7 1000 93 4000 8.7 220 16:56 06.12.2019
3128 Drizzle 6 1000 93 2200 7.7 220 16:37 06.12.2019
3129 Drizzle 6 1000 93 2200 7.7 220 16:18 06.12.2019
3130 Drizzle 6 1001 93 2800 9.3 220 15:41 06.12.2019
3131 Drizzle 6 1001 93 2800 9.3 220 15:41 06.12.2019
3132 Drizzle 6 1001 93 2800 9.3 220 15:21 06.12.2019
3133 Drizzle 6 1001 93 2800 9.3 220 14:57 06.12.2019
3134 Drizzle 6 1002 93 3000 7.2 220 14:39 06.12.2019
3135 Drizzle 6 1002 93 3000 7.2 220 14:19 06.12.2019
3136 Drizzle 6 1002 93 3000 7.2 220 13:45 06.12.2019
3137 Drizzle 6 1002 93 3000 7.2 220 13:45 06.12.2019
3138 Drizzle 6 1003 93 3500 7.7 220 13:26 06.12.2019
3139 Drizzle 6 1003 93 3500 7.7 220 12:56 06.12.2019
3140 Clouds 6 1004 93 6000 8.2 230 12:38 06.12.2019
3141 Clouds 6 1004 93 6000 8.2 230 12:20 06.12.2019
3142 Clouds 6 1004 93 6000 8.2 230 11:42 06.12.2019
3143 Drizzle 6 1004 100 4000 8.7 230 11:23 06.12.2019
3144 Drizzle 6 1004 100 4000 8.7 230 10:55 06.12.2019
3145 Drizzle 6 1005 100 2500 8.2 230 10:37 06.12.2019
3146 Drizzle 6 1005 100 2500 8.2 230 10:19 06.12.2019
3147 Drizzle 6 1005 100 2500 8.2 230 09:55 06.12.2019
3148 Drizzle 6 1005 100 2500 7.7 230 09:36 06.12.2019
3149 Drizzle 6 1005 100 2500 7.7 230 09:36 06.12.2019
3150 Drizzle 6 1005 100 2500 7.7 230 09:18 06.12.2019
3151 Drizzle 6 1005 100 3000 7.7 230 08:40 06.12.2019
3152 Drizzle 6 1005 100 3000 7.7 230 08:22 06.12.2019
3153 Drizzle 6 1005 100 5000 8.2 230 07:38 06.12.2019
3154 Drizzle 6 1005 100 5000 8.2 230 07:20 06.12.2019
3155 Drizzle 6 1005 100 5000 8.2 230 07:20 06.12.2019
3156 Drizzle 6 1005 100 4500 8.2 240 06:48 06.12.2019
3157 Clouds 6 1005 93 6000 9.3 230 06:24 06.12.2019
3158 Clouds 6 1005 93 6000 9.3 230 05:47 06.12.2019
3159 Clouds 6 1006 86 7000 9.3 230 02:46 06.12.2019
3160 Rain 6 1007 93 7000 9.3 230 01:45 06.12.2019
3161 Drizzle 5 1007 93 5000 8.7 220 00:51 06.12.2019
3162 Drizzle 4 1009 93 5000 9.8 220 00:23 06.12.2019
3163 Drizzle 4 1009 93 5000 9.8 220 23:51 05.12.2019
3164 Mist 3 1010 93 4500 8.7 220 23:21 05.12.2019
3165 Mist 3 1010 93 3800 8.2 220 22:58 05.12.2019
3166 Mist 3 1010 93 4000 8.7 220 22:39 05.12.2019
3167 Mist 3 1010 93 4000 8.7 220 22:20 05.12.2019
3168 Mist 3 1011 93 5000 7.7 220 21:58 05.12.2019
3169 Clouds 3 1011 93 6000 7.7 220 21:40 05.12.2019
3170 Clouds 3 1011 93 6000 7.7 220 21:21 05.12.2019
3171 Clouds 3 1012 93 6000 8.2 220 20:58 05.12.2019
3172 Clouds 3 1012 93 6000 8.2 220 20:38 05.12.2019
3173 Mist 3 1012 93 5000 7.2 220 20:19 05.12.2019
3174 Mist 3 1012 93 5000 7.2 220 19:43 05.12.2019
3175 Mist 3 1013 93 4500 7.2 220 19:25 05.12.2019
3176 Mist 3 1013 93 4500 7.2 220 18:59 05.12.2019
3177 Mist 3 1013 93 4500 7.2 220 18:39 05.12.2019
3178 Mist 3 1014 93 4500 6.2 220 18:21 05.12.2019
3179 Mist 3 1014 93 4500 6.2 220 17:57 05.12.2019
3180 Mist 3 1014 93 4500 6.2 220 17:38 05.12.2019
3181 Mist 2 1014 100 4000 7.2 220 17:19 05.12.2019
3182 Mist 2 1014 100 1500 7.2 220 16:55 05.12.2019
3183 Mist 2 1014 100 1500 7.2 220 16:37 05.12.2019
3184 Mist 3 1015 93 2000 6.2 230 16:18 05.12.2019
3185 Mist 4 1015 93 3500 6.7 230 15:55 05.12.2019
3186 Mist 4 1015 93 3500 6.7 230 15:36 05.12.2019
3187 Clouds 4 1015 93 6000 5.7 220 15:18 05.12.2019
3188 Clouds 4 1016 93 7000 5.7 220 14:54 05.12.2019
3189 Clouds 4 1016 93 7000 5.7 220 14:36 05.12.2019
3190 Clouds 5 1016 86 10000 5.1 230 14:18 05.12.2019
3191 Clouds 5 1016 86 10000 5.1 230 13:54 05.12.2019
3192 Clouds 6 1016 86 10000 5.1 230 13:36 05.12.2019
3193 Clouds 5 1017 86 10000 5.1 230 13:18 05.12.2019
3194 Clouds 5 1017 86 10000 5.1 230 12:41 05.12.2019
3195 Clouds 4 1017 86 10000 4.6 230 12:23 05.12.2019
3196 Clouds 4 1017 86 10000 4.6 230 11:56 05.12.2019
3197 Clouds 3 1017 86 10000 4.6 230 11:37 05.12.2019
3198 Clouds 2 1017 88 10000 4.6 220 11:19 05.12.2019
3199 Clouds 2 1017 88 10000 4.6 220 10:55 05.12.2019
3200 Clouds 2 1017 88 10000 4.6 220 10:37 05.12.2019
3201 Clouds 2 1017 93 9000 4.6 220 10:18 05.12.2019
3202 Clouds 2 1017 93 9000 4.6 220 10:18 05.12.2019
3203 Clouds 2 1017 93 9000 4.6 220 09:43 05.12.2019
3204 Mist 1 1018 88 4000 4.6 220 09:21 05.12.2019
3205 Mist 1 1018 88 4000 4.6 220 08:58 05.12.2019
3206 Mist 1 1018 88 4000 4.6 220 08:37 05.12.2019
3207 Clouds 1 1018 100 7000 4.1 220 08:19 05.12.2019
3208 Clouds 1 1018 100 7000 4.1 220 07:49 05.12.2019
3209 Clouds 1 1018 100 9000 4.1 220 07:31 05.12.2019
3210 Mist 1 1018 83 5000 4.1 230 06:57 05.12.2019
3211 Mist 1 1018 83 5000 4.1 230 06:38 05.12.2019
3212 Clouds 1 1018 83 7000 4.1 230 06:18 05.12.2019
3213 Clouds 1 1018 83 7000 4.1 230 05:47 05.12.2019
3214 Clouds 1 1018 84 8000 3.6 230 05:21 05.12.2019
3215 Clouds 2 1018 93 9000 2.6 240 03:59 05.12.2019
3216 Clouds 2 1018 93 7000 4.1 220 02:43 05.12.2019
3217 Clouds 2 1019 93 7000 4.1 220 02:24 05.12.2019
3218 Clouds 2 1019 93 7000 4.1 220 01:52 05.12.2019
3219 Clouds 2 1019 93 6000 4.1 230 01:24 05.12.2019
3220 Clouds 2 1019 93 6000 4.1 230 00:50 05.12.2019
3221 Clouds 2 1019 93 7000 4.1 220 00:29 05.12.2019
3222 Clouds 2 1019 93 7000 4.1 220 23:57 04.12.2019
3223 Clouds 2 1019 93 7000 4.1 220 23:39 04.12.2019
3224 Clouds 3 1020 93 8000 4.1 220 23:20 04.12.2019
3225 Clouds 3 1020 93 8000 4.1 220 22:55 04.12.2019
3226 Clouds 3 1020 93 8000 4.1 220 22:36 04.12.2019
3227 Clouds 3 1020 93 9000 4.1 230 22:18 04.12.2019
3228 Clouds 3 1020 93 9000 4.1 230 21:54 04.12.2019
3229 Clouds 3 1020 93 9000 4.1 230 21:36 04.12.2019
3230 Clouds 4 1020 86 10000 4.6 220 21:18 04.12.2019
3231 Clouds 4 1020 86 10000 4.1 220 20:54 04.12.2019
3232 Clouds 4 1020 93 9000 4.1 220 20:36 04.12.2019
3233 Clouds 4 1020 93 9000 4.1 220 20:18 04.12.2019
3234 Clouds 4 1020 93 9000 4.1 220 20:18 04.12.2019
3235 Clouds 4 1020 93 9000 4.1 220 20:18 04.12.2019
3236 Clouds 4 1020 93 9000 4.1 220 19:39 04.12.2019
3237 Clouds 4 1020 93 9000 4.1 220 19:39 04.12.2019
3238 Clouds 4 1020 93 8000 4.1 230 19:21 04.12.2019
3239 Clouds 4 1020 93 8000 4.1 230 18:58 04.12.2019
3240 Clouds 5 1020 93 8000 4.1 230 18:40 04.12.2019
3241 Clouds 5 1020 86 7000 3.6 220 18:21 04.12.2019
3242 Clouds 5 1020 86 7000 3.6 220 17:55 04.12.2019
3243 Clouds 5 1020 86 7000 3.6 220 17:36 04.12.2019
3244 Clouds 5 1020 93 7000 4.1 220 17:18 04.12.2019
3245 Clouds 6 1020 93 7000 4.1 220 16:40 04.12.2019
3246 Mist 6 1020 93 5000 3.6 230 16:20 04.12.2019
3247 Mist 6 1020 93 5000 3.6 230 16:20 04.12.2019
3248 Mist 6 1020 93 5000 3.6 230 15:57 04.12.2019
3249 Mist 6 1020 93 4000 3.1 230 15:38 04.12.2019
3250 Mist 6 1020 93 4000 3.1 230 15:20 04.12.2019
3251 Mist 6 1020 100 3500 3.1 240 14:57 04.12.2019
3252 Mist 6 1020 100 3500 3.1 240 14:39 04.12.2019
3253 Mist 6 1020 100 2500 3.6 240 14:20 04.12.2019
3254 Fog 5 1021 100 900 4.1 250 13:39 04.12.2019
3255 Mist 5 1021 93 1100 5.1 230 13:21 04.12.2019
3256 Mist 5 1021 93 1100 5.1 230 12:59 04.12.2019
3257 Mist 5 1021 93 1100 5.1 230 12:41 04.12.2019
3258 Fog 5 1021 100 800 4.1 230 12:23 04.12.2019
3259 Fog 5 1021 100 800 4.1 230 11:43 04.12.2019
3260 Drizzle 5 1021 100 1500 3.6 240 11:24 04.12.2019
3261 Drizzle 5 1021 100 1500 3.6 240 11:24 04.12.2019
3262 Mist 5 1021 93 2500 3.6 240 10:58 04.12.2019
3263 Mist 5 1021 93 2500 3.6 240 10:39 04.12.2019
3264 Mist 5 1021 93 1500 4.6 230 10:21 04.12.2019
3265 Mist 5 1021 93 2000 4.1 230 09:43 04.12.2019
3266 Mist 5 1021 100 1600 3.6 230 09:23 04.12.2019
3267 Mist 5 1021 100 1600 3.6 230 08:44 04.12.2019
3268 Mist 5 1021 100 2500 4.1 240 08:26 04.12.2019
3269 Mist 5 1021 100 2500 4.1 240 07:59 04.12.2019
3270 Mist 5 1021 100 2500 4.1 240 07:40 04.12.2019
3271 Mist 5 1021 93 3000 4.6 230 07:22 04.12.2019
3272 Mist 5 1021 93 3000 4.1 240 06:32 04.12.2019
3273 Mist 5 1021 93 3000 4.1 240 05:47 04.12.2019
3274 Mist 6 1021 93 1800 4.6 240 04:39 04.12.2019
3275 Mist 5 1021 100 2000 5.1 250 03:52 04.12.2019
3276 Mist 5 1022 93 5000 4.6 240 01:53 04.12.2019
3277 Clouds 6 1022 93 8000 4.6 240 00:49 04.12.2019
3278 Clouds 6 1022 87 8000 5.1 250 00:22 04.12.2019
3279 Clouds 6 1022 87 8000 5.1 250 23:55 03.12.2019
3280 Clouds 6 1022 87 8000 5.1 250 23:37 03.12.2019
3281 Clouds 7 1022 87 8000 6.2 260 23:18 03.12.2019
3282 Clouds 6 1022 87 8000 6.2 260 22:39 03.12.2019
3283 Clouds 6 1022 87 8000 6.2 260 22:39 03.12.2019
3284 Clouds 6 1022 87 8000 6.2 260 22:39 03.12.2019
3285 Clouds 6 1022 93 8000 5.1 250 22:18 03.12.2019
3286 Clouds 6 1022 93 8000 5.1 250 21:57 03.12.2019
3287 Clouds 6 1022 93 8000 5.1 250 21:37 03.12.2019
3288 Clouds 6 1022 93 8000 5.7 250 21:18 03.12.2019
3289 Clouds 6 1022 93 8000 6.2 250 20:54 03.12.2019
3290 Clouds 7 1022 93 8000 6.2 250 20:36 03.12.2019
3291 Clouds 7 1023 93 9000 5.1 240 20:18 03.12.2019
3292 Clouds 7 1023 93 9000 5.1 240 19:54 03.12.2019
3293 Clouds 7 1023 93 9000 5.1 240 19:36 03.12.2019
3294 Clouds 7 1023 87 10000 4.6 240 19:18 03.12.2019
3295 Clouds 7 1023 87 10000 4.6 240 18:55 03.12.2019
3296 Clouds 8 1023 87 10000 4.6 240 18:36 03.12.2019
3297 Clouds 7 1023 87 10000 4.1 240 18:18 03.12.2019
3298 Clouds 8 1023 87 10000 4.1 240 17:40 03.12.2019
3299 Clouds 7 1023 87 10000 4.6 240 17:19 03.12.2019
3300 Clouds 7 1023 87 10000 4.6 240 16:59 03.12.2019
3301 Clouds 8 1023 87 10000 4.6 240 16:39 03.12.2019
3302 Clouds 7 1023 87 10000 4.6 250 16:21 03.12.2019
3303 Clouds 7 1023 87 10000 4.6 250 16:21 03.12.2019
3304 Clouds 7 1023 87 10000 4.6 250 15:58 03.12.2019
3305 Clouds 8 1023 87 10000 4.6 250 15:38 03.12.2019
3306 Clouds 8 1024 87 10000 5.7 260 15:19 03.12.2019
3307 Clouds 8 1024 87 10000 5.7 260 14:44 03.12.2019
3308 Clouds 7 1024 87 10000 6.7 260 14:21 03.12.2019
3309 Clouds 7 1024 87 10000 6.7 260 13:59 03.12.2019
3310 Clouds 7 1024 87 10000 6.7 260 13:38 03.12.2019
3311 Clouds 7 1025 87 10000 6.7 260 13:20 03.12.2019
3312 Clouds 7 1025 87 10000 6.7 260 12:57 03.12.2019
3313 Clouds 8 1025 87 10000 6.7 260 12:37 03.12.2019
3314 Clouds 7 1025 87 10000 4.1 250 12:18 03.12.2019
3315 Clouds 7 1025 87 10000 4.1 250 11:56 03.12.2019
3316 Clouds 7 1025 87 10000 4.1 250 11:56 03.12.2019
3317 Clouds 7 1025 87 10000 4.1 250 11:37 03.12.2019
3318 Clouds 7 1025 100 10000 4.1 240 11:18 03.12.2019
3319 Clouds 7 1025 100 10000 4.1 240 10:54 03.12.2019
3320 Clouds 6 1025 100 10000 4.1 240 10:36 03.12.2019
3321 Clouds 6 1025 93 8000 3.1 240 10:18 03.12.2019
3322 Mist 5 1025 100 4000 3.6 240 09:42 03.12.2019
3323 Mist 6 1025 93 3700 3.1 240 09:23 03.12.2019
3324 Mist 6 1025 93 4500 3.1 240 08:56 03.12.2019
3325 Mist 6 1025 93 4500 3.1 240 08:38 03.12.2019
3326 Mist 6 1025 100 4500 2.6 240 08:19 03.12.2019
3327 Mist 6 1025 100 4500 2.6 240 07:51 03.12.2019
3328 Mist 7 1025 93 5000 4.1 230 07:25 03.12.2019
3329 Drizzle 6 1025 100 4000 2.6 260 06:24 03.12.2019
3330 Drizzle 6 1025 100 5000 2.6 260 05:59 03.12.2019
3331 Rain 6 1025 100 10000 2.1 240 04:56 03.12.2019
3332 Clouds 6 1025 100 10000 3.1 220 03:42 03.12.2019
3333 Clouds 5 1025 100 10000 2.1 210 03:20 03.12.2019
3334 Clouds 6 1025 100 10000 2.1 210 02:51 03.12.2019
3335 Clouds 5 1025 100 10000 2.1 210 02:32 03.12.2019
3336 Clouds 5 1025 93 10000 2.1 230 01:56 03.12.2019
3337 Clouds 4 1025 93 10000 2.1 230 01:37 03.12.2019
3338 Clouds 4 1025 93 10000 3.1 220 01:18 03.12.2019
3339 Clouds 5 1025 93 10000 3.1 220 00:40 03.12.2019
3340 Clouds 5 1025 93 10000 3.1 220 00:21 03.12.2019
3341 Clouds 5 1025 93 10000 3.1 220 23:44 02.12.2019
3342 Clouds 5 1025 93 10000 2.1 220 23:21 02.12.2019
3343 Clouds 5 1025 93 10000 2.1 220 22:56 02.12.2019
3344 Clouds 5 1025 93 10000 2.1 220 22:56 02.12.2019
3345 Clouds 6 1025 93 10000 2.1 220 22:37 02.12.2019
3346 Clouds 5 1024 100 10000 2.6 220 22:19 02.12.2019
3347 Clouds 6 1024 100 10000 2.6 220 21:39 02.12.2019
3348 Clouds 6 1024 93 10000 1.5 240 21:20 02.12.2019
3349 Clouds 5 1024 100 10000 1 270 20:57 02.12.2019
3350 Clouds 6 1024 100 10000 1 270 20:39 02.12.2019
3351 Clouds 5 1023 93 10000 1.5 310 20:20 02.12.2019
3352 Clouds 5 1023 93 10000 1.5 310 19:57 02.12.2019
3353 Clouds 6 1023 93 10000 1.5 310 19:39 02.12.2019
3354 Clouds 6 1023 86 10000 1 270 19:20 02.12.2019
3355 Clouds 7 1023 86 10000 1 270 18:48 02.12.2019
3356 Clouds 6 1023 86 10000 4.1 350 18:24 02.12.2019
3357 Clouds 6 1023 86 10000 4.1 350 17:59 02.12.2019
3358 Clouds 6 1023 86 10000 4.1 350 17:59 02.12.2019
3359 Clouds 7 1023 86 10000 4.1 350 17:41 02.12.2019
3360 Clouds 6 1022 86 10000 2.6 310 17:20 02.12.2019
3361 Clouds 6 1022 86 10000 2.6 310 17:20 02.12.2019
3362 Clouds 6 1022 86 10000 2.6 310 17:20 02.12.2019
3363 Clouds 6 1022 86 10000 2.6 310 16:57 02.12.2019
3364 Clouds 7 1022 86 10000 2.6 310 16:39 02.12.2019
3365 Clouds 7 1022 81 10000 4.1 340 16:18 02.12.2019
3366 Clouds 7 1022 81 10000 4.1 340 15:56 02.12.2019
3367 Clouds 7 1022 81 10000 4.1 340 15:38 02.12.2019
3368 Clouds 7 1021 75 10000 5.7 330 15:20 02.12.2019
3369 Clouds 7 1021 75 10000 5.7 330 14:55 02.12.2019
3370 Clouds 7 1021 75 10000 5.7 330 14:55 02.12.2019
3371 Clouds 7 1021 75 10000 5.7 330 14:37 02.12.2019
3372 Clouds 7 1021 75 10000 5.7 350 14:18 02.12.2019
3373 -273 0 0 0 0 0 13:54 02.12.2019
3374 Clouds 8 1021 75 10000 5.7 350 13:36 02.12.2019
3375 Clouds 7 1021 81 10000 5.7 350 13:18 02.12.2019
3376 Clouds 8 1021 81 10000 5.7 350 12:41 02.12.2019
3377 Clouds 8 1021 87 10000 3.1 330 12:20 02.12.2019
3378 Clouds 8 1021 87 10000 3.1 330 11:57 02.12.2019
3379 Clouds 7 1021 87 10000 3.1 330 11:37 02.12.2019
3380 Rain 7 1020 87 10000 5.1 330 11:19 02.12.2019
3381 Rain 7 1020 87 10000 5.1 330 10:56 02.12.2019
3382 Rain 7 1020 87 10000 5.1 330 10:38 02.12.2019
3383 Clouds 7 1020 86 10000 3.1 250 10:20 02.12.2019
3384 Clouds 6 1020 93 10000 2.1 240 09:42 02.12.2019
3385 Rain 6 1019 93 10000 5.7 300 09:19 02.12.2019
3386 Rain 6 1019 93 10000 5.7 300 08:59 02.12.2019
3387 Rain 7 1019 93 10000 5.7 300 08:40 02.12.2019
3388 Clouds 5 1019 100 10000 3.1 220 08:22 02.12.2019
3389 Clouds 6 1019 100 10000 3.1 220 07:45 02.12.2019
3390 Clouds 6 1019 100 10000 3.1 220 07:45 02.12.2019
3391 Clouds 5 1019 93 10000 2.6 240 07:25 02.12.2019
3392 Clouds 5 1019 93 10000 2.6 240 06:59 02.12.2019
3393 Clouds 6 1019 93 10000 2.6 240 06:39 02.12.2019
3394 Clouds 7 1019 86 10000 3.1 280 05:42 02.12.2019
3395 Clouds 6 1019 86 10000 3.6 290 04:59 02.12.2019
3396 Clouds 5 1020 93 3000 5.1 280 03:19 02.12.2019
3397 Clouds 5 1019 93 10000 1.5 220 02:45 02.12.2019
3398 Clouds 5 1019 100 10000 1.5 210 01:45 02.12.2019
3399 Clouds 4 1019 100 10000 3.6 220 01:18 02.12.2019
3400 Clouds 4 1019 100 10000 3.6 220 00:33 02.12.2019
3401 Clouds 4 1020 100 9000 2.1 220 23:59 01.12.2019
3402 Clouds 4 1020 100 9000 2.1 220 23:41 01.12.2019
3403 Clouds 4 1020 93 6000 3.1 230 23:21 01.12.2019
3404 Clouds 4 1020 100 9000 2.1 230 22:56 01.12.2019
3405 Clouds 6 1020 100 9000 2.1 230 22:38 01.12.2019
3406 Clouds 4 1020 100 10000 2.6 230 22:18 01.12.2019
3407 Clouds 4 1020 100 10000 2.6 230 21:56 01.12.2019
3408 Clouds 4 1020 100 10000 2.6 230 21:38 01.12.2019
3409 Clouds 4 1020 93 10000 2.6 220 21:19 01.12.2019
3410 Clouds 4 1020 93 10000 2.6 220 20:57 01.12.2019
3411 Clouds 4 1020 93 10000 2.6 220 20:39 01.12.2019
3412 Drizzle 4 1020 93 8000 2.1 230 20:21 01.12.2019
3413 Drizzle 4 1020 93 8000 2.1 230 19:57 01.12.2019
3414 Drizzle 5 1020 93 8000 2.1 230 19:38 01.12.2019
3415 Clouds 4 1020 93 7000 1.5 240 19:20 01.12.2019
3416 Clouds 4 1020 93 7000 1.5 240 18:55 01.12.2019
3417 Clouds 5 1020 93 7000 1.5 240 18:37 01.12.2019
3418 Clouds 5 1020 93 7000 1.5 240 18:37 01.12.2019
3419 Mist 4 1020 93 4000 2.1 230 18:18 01.12.2019
3420 Mist 4 1021 100 1000 1.5 250 17:56 01.12.2019
3421 Mist 4 1021 100 1000 1.5 250 17:38 01.12.2019
3422 Mist 4 1021 100 3500 2.1 220 17:19 01.12.2019
3423 Mist 4 1021 100 3500 2.1 220 16:44 01.12.2019
3424 Mist 5 1021 93 3500 1.5 240 16:25 01.12.2019
3425 Mist 5 1021 93 3500 1.5 240 15:58 01.12.2019
3426 Mist 5 1021 93 3500 1.5 240 15:58 01.12.2019
3427 Mist 5 1021 93 3500 1.5 240 15:40 01.12.2019
3428 Mist 5 1021 93 3500 1.5 240 15:40 01.12.2019
3429 Mist 5 1021 93 3500 3.1 260 15:22 01.12.2019
3430 Mist 5 1021 93 3500 3.1 260 15:22 01.12.2019
3431 Mist 5 1021 93 3500 3.1 260 15:22 01.12.2019
3432 Mist 5 1021 93 1200 3.1 250 14:38 01.12.2019
3433 Mist 5 1021 93 1500 2.6 220 14:19 01.12.2019
3434 Mist 5 1021 93 1500 2.6 220 14:19 01.12.2019
3435 Mist 6 1021 93 5000 2.1 260 13:40 01.12.2019
3436 Mist 5 1021 100 5000 1.5 230 13:22 01.12.2019
3437 Mist 5 1021 100 5000 1.5 230 12:59 01.12.2019
3438 Mist 5 1021 100 5000 1.5 230 12:40 01.12.2019
3439 Mist 5 1021 100 5000 1.5 230 12:40 01.12.2019
3440 Mist 5 1021 100 5000 1.5 230 12:40 01.12.2019
3441 Mist 5 1021 100 5000 1.5 230 12:40 01.12.2019
3442 Mist 5 1021 100 5000 1.5 230 12:40 01.12.2019
3443 Fog 4 1022 93 400 1.5 270 11:54 01.12.2019
3444 Fog 4 1022 93 400 1.5 270 11:36 01.12.2019
3445 Fog 4 1022 93 300 1 270 11:18 01.12.2019
3446 Fog 4 1022 93 300 1 270 11:18 01.12.2019
3447 Fog 3 1022 93 200 1.5 220 10:42 01.12.2019
3448 Fog 2 1022 93 300 2.6 230 10:20 01.12.2019
3449 Fog 3 1022 100 200 2.6 210 09:42 01.12.2019
3450 Mist 3 1021 100 1500 1.5 10 09:23 01.12.2019
3451 Fog 2 1021 100 500 1 0 08:57 01.12.2019
3452 Fog 3 1021 100 500 1 0 08:37 01.12.2019
3453 Mist 3 1021 93 2000 3.1 220 08:19 01.12.2019
3454 Mist 3 1021 93 2000 3.1 220 08:19 01.12.2019
3455 Mist 3 1021 93 2000 3.1 220 07:48 01.12.2019
3456 Mist 2 1021 100 3000 2.6 230 07:28 01.12.2019
3457 Fog 3 1021 93 10000 2.6 220 06:52 01.12.2019
3458 Clouds 2 1021 100 10000 1.5 240 06:19 01.12.2019
3459 Clouds 3 1021 100 10000 1.5 240 05:42 01.12.2019
3460 Clouds 3 1022 100 10000 2.1 240 04:29 01.12.2019
3461 Clouds 4 1022 100 10000 1 0 02:46 01.12.2019
3462 Clouds 3 1023 93 10000 1.5 300 02:28 01.12.2019
3463 Clouds 3 1023 93 10000 1.5 300 01:54 01.12.2019
3464 Clouds 3 1023 93 10000 1.5 300 01:32 01.12.2019
3465 Clouds 4 1022 100 10000 2.1 220 00:50 01.12.2019
3466 Clouds 4 1022 93 10000 2.6 220 00:27 01.12.2019
3467 Clouds 4 1022 93 10000 2.6 220 23:59 30.11.2019
3468 Clouds 4 1022 93 10000 2.6 220 23:40 30.11.2019
3469 Clouds 4 1022 100 10000 2.6 220 23:21 30.11.2019
3470 Clouds 4 1022 100 10000 2.6 220 22:47 30.11.2019
3471 Clouds 5 1022 100 10000 1.5 210 22:29 30.11.2019
3472 Clouds 5 1022 100 10000 1.5 210 21:55 30.11.2019
3473 Clouds 5 1022 100 10000 1.5 210 21:37 30.11.2019
3474 Clouds 5 1022 93 10000 1.5 210 21:19 30.11.2019
3475 Clouds 5 1022 93 10000 1.5 210 20:55 30.11.2019
3476 Clouds 5 1022 93 10000 1.5 210 20:36 30.11.2019
3477 Rain 5 1022 86 10000 3.1 280 20:18 30.11.2019
3478 Rain 5 1022 86 10000 3.1 280 19:54 30.11.2019
3479 Rain 5 1022 86 10000 3.1 280 19:36 30.11.2019
3480 Clouds 4 1022 93 10000 1.5 220 19:18 30.11.2019
3481 Clouds 6 1022 93 10000 1.5 220 18:54 30.11.2019
3482 Clouds 6 1022 93 10000 1.5 220 18:36 30.11.2019
3483 Clouds 6 1022 86 10000 2.1 340 18:18 30.11.2019
3484 Clouds 6 1022 86 10000 2.1 340 17:55 30.11.2019
3485 Clouds 6 1022 86 10000 2.1 340 17:36 30.11.2019
3486 Clouds 5 1022 93 10000 2.1 220 17:18 30.11.2019
3487 Clouds 6 1022 93 10000 2.1 220 16:41 30.11.2019
3488 Clouds 6 1022 86 10000 2.1 240 16:22 30.11.2019
3489 Clouds 6 1022 86 10000 2.1 240 15:55 30.11.2019
3490 Clouds 7 1022 86 10000 2.1 240 15:36 30.11.2019
3491 Clouds 7 1021 87 10000 3.1 260 15:18 30.11.2019
3492 Clouds 7 1021 87 10000 3.1 260 14:55 30.11.2019
3493 Clouds 7 1021 87 10000 3.1 260 14:37 30.11.2019
3494 Clouds 7 1021 87 10000 3.1 260 14:37 30.11.2019
3495 Clouds 7 1021 81 10000 2.6 290 14:18 30.11.2019
3496 Clouds 8 1021 81 10000 2.6 290 13:45 30.11.2019
3497 Clouds 7 1021 87 10000 2.1 270 13:25 30.11.2019
3498 Clouds 7 1021 87 10000 2.1 270 12:58 30.11.2019
3499 Clouds 8 1021 87 10000 2.1 270 12:40 30.11.2019
3500 Clouds 7 1021 86 10000 3.1 260 12:21 30.11.2019
3501 Clouds 7 1021 86 10000 3.1 260 11:42 30.11.2019
3502 Rain 6 1021 86 9000 2.1 240 11:19 30.11.2019
3503 Rain 6 1020 93 10000 2.6 220 10:56 30.11.2019
3504 Rain 5 1020 93 10000 2.6 220 10:37 30.11.2019
3505 Clouds 4 1020 100 10000 3.6 230 10:19 30.11.2019
3506 Clouds 5 1020 100 10000 3.6 230 09:46 30.11.2019
3507 Clouds 4 1020 100 10000 1 320 09:24 30.11.2019
3508 Clouds 5 1020 100 10000 1 320 08:44 30.11.2019
3509 Clouds 4 1019 100 10000 1.5 190 08:22 30.11.2019
3510 Clouds 4 1019 100 10000 1.5 190 07:58 30.11.2019
3511 Clouds 5 1019 100 10000 1.5 190 07:39 30.11.2019
3512 Clouds 4 1019 93 10000 2.6 230 06:56 30.11.2019
3513 Clouds 4 1018 100 10000 2.1 210 06:29 30.11.2019
3514 Clouds 5 1018 100 10000 2.1 210 05:50 30.11.2019
3515 Clouds 5 1017 93 10000 2.6 330 03:53 30.11.2019
3516 Clouds 5 1017 93 10000 1.5 0 02:40 30.11.2019
3517 Clouds 4 1016 93 10000 1 300 02:22 30.11.2019
3518 Clouds 4 1016 68 10000 1.5 290 01:25 30.11.2019
3519 Clouds 4 1016 68 10000 1.5 290 01:25 30.11.2019
3520 Clouds 4 1016 68 10000 1.5 290 01:25 30.11.2019
3521 Clouds 5 1016 68 10000 1.5 290 00:50 30.11.2019
3522 Clouds 4 1015 93 10000 2.1 250 00:31 30.11.2019
3523 Clouds 4 1015 93 10000 2.1 250 23:59 29.11.2019
3524 Clouds 4 1015 93 10000 2.1 250 23:59 29.11.2019
3525 Clouds 5 1015 93 10000 2.1 250 23:40 29.11.2019
3526 Clouds 5 1015 86 10000 1.5 300 23:22 29.11.2019
3527 Clouds 6 1015 86 10000 1.5 300 22:45 29.11.2019
3528 Rain 6 1014 80 10000 2.6 280 22:26 29.11.2019
3529 Clouds 6 1014 86 10000 3.1 300 21:45 29.11.2019
3530 Clouds 5 1013 67 10000 1 260 21:25 29.11.2019
3531 Clouds 5 1013 67 10000 1 260 20:58 29.11.2019
3532 Clouds 6 1013 67 10000 1 260 20:39 29.11.2019
3533 Clouds 5 1012 86 10000 0.5 180 20:20 29.11.2019
3534 Clouds 5 1012 86 10000 0.5 180 19:58 29.11.2019
3535 Clouds 6 1012 86 10000 0.5 180 19:39 29.11.2019
3536 Clouds 6 1012 86 10000 0.5 180 19:39 29.11.2019
3537 Clouds 5 1011 86 10000 1.5 220 19:20 29.11.2019
3538 Clouds 5 1011 86 10000 1.5 220 18:58 29.11.2019
3539 Clouds 6 1011 86 10000 1.5 220 18:39 29.11.2019
3540 Clouds 5 1011 93 10000 0.5 150 18:20 29.11.2019
3541 Clouds 6 1011 93 10000 0.5 150 17:44 29.11.2019
3542 Clouds 5 1010 68 10000 0.5 270 17:25 29.11.2019
3543 Clouds 5 1010 69 10000 0.5 270 16:58 29.11.2019
3544 Clouds 6 1010 69 10000 0.5 270 16:39 29.11.2019
3545 Clouds 6 1009 69 10000 2.1 350 16:19 29.11.2019
3546 Clouds 7 1009 69 10000 2.1 350 15:41 29.11.2019
3547 Clouds 7 1008 69 10000 4.1 360 15:23 29.11.2019
3548 Clouds 7 1008 69 10000 4.1 360 15:23 29.11.2019
3549 Clouds 7 1008 69 10000 4.1 360 14:57 29.11.2019
3550 Clouds 7 1008 69 10000 4.1 360 14:38 29.11.2019
3551 Clouds 7 1007 56 10000 4.6 360 14:20 29.11.2019
3552 Clouds 7 1007 56 10000 4.6 360 13:55 29.11.2019
3553 Clouds 8 1007 56 10000 4.6 360 13:36 29.11.2019
3554 Clouds 7 1005 70 10000 5.1 360 13:18 29.11.2019
3555 Clouds 7 1005 70 10000 5.1 360 12:40 29.11.2019
3556 Clouds 7 1005 70 10000 5.1 360 12:40 29.11.2019
3557 Clouds 6 1004 80 10000 4.6 360 12:22 29.11.2019
3558 Clouds 6 1004 80 10000 4.6 360 11:55 29.11.2019
3559 Clouds 7 1004 80 10000 4.6 360 11:36 29.11.2019
3560 Rain 7 1003 86 10000 5.1 340 11:18 29.11.2019
3561 Rain 7 1003 86 10000 5.1 340 10:56 29.11.2019
3562 Rain 7 1003 86 10000 5.1 340 10:37 29.11.2019
3563 Rain 7 1002 86 10000 4.6 360 10:19 29.11.2019
3564 Rain 7 1001 80 10000 5.7 340 09:56 29.11.2019
3565 Rain 7 1001 80 10000 5.7 340 09:37 29.11.2019
3566 Rain 7 1001 80 6000 4.6 340 09:19 29.11.2019
3567 Rain 7 1000 80 4000 7.7 350 08:40 29.11.2019
3568 Clouds 7 998 81 10000 8.7 310 08:22 29.11.2019
3569 Clouds 7 998 81 10000 8.7 310 07:58 29.11.2019
3570 Clouds 7 998 81 10000 8.7 310 07:40 29.11.2019
3571 Rain 7 997 75 10000 9.8 330 07:22 29.11.2019
3572 Rain 8 997 75 10000 9.8 330 06:43 29.11.2019
3573 Clouds 7 996 75 10000 10.3 330 05:48 29.11.2019
3574 Rain 7 995 70 10000 11.3 310 05:25 29.11.2019
3575 Rain 8 995 70 10000 11.3 310 04:35 29.11.2019
3576 Clouds 7 994 70 10000 10.8 300 03:22 29.11.2019
3577 Clouds 8 994 65 10000 10.3 300 02:32 29.11.2019
3578 Clouds 7 994 65 10000 10.8 300 01:57 29.11.2019
3579 Clouds 8 993 56 10000 9.8 310 01:27 29.11.2019
3580 Clouds 8 993 56 10000 9.8 310 00:50 29.11.2019
3581 Clouds 8 992 70 10000 9.8 310 00:22 29.11.2019
3582 Clouds 8 992 70 10000 9.8 310 23:57 28.11.2019
3583 Clouds 8 992 70 10000 9.8 310 23:57 28.11.2019
3584 Clouds 8 992 70 10000 9.8 310 23:39 28.11.2019
3585 Clouds 8 991 75 10000 8.2 310 23:20 28.11.2019
3586 Clouds 8 991 75 10000 8.2 310 22:54 28.11.2019
3587 Clouds 9 991 75 10000 8.2 310 22:36 28.11.2019
3588 Clouds 9 991 75 10000 8.2 310 22:36 28.11.2019
3589 Rain 8 991 100 7000 7.2 320 22:18 28.11.2019
3590 Rain 8 991 100 4000 6.7 310 21:42 28.11.2019
3591 Rain 9 990 87 5000 6.7 310 21:21 28.11.2019
3592 Clouds 8 989 87 10000 6.7 310 20:58 28.11.2019
3593 Clouds 9 989 87 10000 6.7 310 20:40 28.11.2019
3594 Clouds 9 989 93 10000 6.7 310 20:21 28.11.2019
3595 Clouds 8 988 93 10000 7.7 330 19:57 28.11.2019
3596 Clouds 9 988 93 10000 7.7 330 19:37 28.11.2019
3597 Rain 9 988 93 4500 6.7 300 19:19 28.11.2019
3598 Rain 9 987 93 10000 7.2 300 18:57 28.11.2019
3599 Rain 9 987 93 10000 7.2 300 18:38 28.11.2019
3600 Clouds 9 987 93 10000 3.6 270 18:18 28.11.2019
3601 Rain 9 986 93 3200 5.7 290 17:43 28.11.2019
3602 Clouds 9 985 93 10000 7.7 310 17:25 28.11.2019
3603 Clouds 9 985 93 10000 7.7 310 16:59 28.11.2019
3604 Clouds 9 985 93 10000 7.7 310 16:40 28.11.2019
3605 Clouds 9 985 93 10000 7.7 310 16:19 28.11.2019
3606 Drizzle 9 984 93 6000 5.1 270 15:57 28.11.2019
3607 Drizzle 10 984 93 6000 5.1 270 15:38 28.11.2019
3608 Drizzle 10 983 93 4500 5.1 260 15:19 28.11.2019
3609 Drizzle 10 983 93 6000 4.1 240 14:57 28.11.2019
3610 Drizzle 10 983 93 6000 4.1 240 14:57 28.11.2019
3611 Drizzle 9 983 93 6000 4.1 240 14:38 28.11.2019
3612 Drizzle 9 983 93 6000 4.1 240 14:38 28.11.2019
3613 Drizzle 9 983 93 1800 5.7 230 14:19 28.11.2019
3614 Drizzle 9 983 93 1800 5.7 230 13:42 28.11.2019
3615 Drizzle 9 983 93 6000 6.7 230 13:23 28.11.2019
3616 Drizzle 9 983 93 8000 7.7 220 12:56 28.11.2019
3617 Drizzle 9 983 93 8000 7.7 220 12:37 28.11.2019
3618 Drizzle 9 983 93 4500 7.7 220 12:19 28.11.2019
3619 Drizzle 9 983 93 4500 7.7 220 11:54 28.11.2019
3620 Drizzle 9 983 93 4500 7.7 220 11:36 28.11.2019
3621 Drizzle 9 983 93 4500 6.2 210 11:18 28.11.2019
3622 Drizzle 9 983 93 4500 6.2 210 10:41 28.11.2019
3623 Drizzle 9 983 93 5000 6.2 210 10:21 28.11.2019
3624 Drizzle 9 983 93 4500 6.7 220 09:56 28.11.2019
3625 Drizzle 9 983 93 4500 6.7 220 09:56 28.11.2019
3626 Drizzle 9 983 93 4500 6.7 220 09:38 28.11.2019
3627 Drizzle 9 983 93 8000 6.7 220 09:18 28.11.2019
3628 Drizzle 9 983 93 8000 6.7 220 08:40 28.11.2019
3629 Rain 9 983 93 6000 6.2 220 08:21 28.11.2019
3630 Rain 9 983 93 6000 6.2 220 07:55 28.11.2019
3631 Rain 9 983 93 6000 6.2 220 07:36 28.11.2019
3632 Rain 9 983 93 6000 6.2 220 07:18 28.11.2019
3633 Rain 9 983 93 6000 6.2 220 06:37 28.11.2019
3634 Clouds 9 983 93 10000 6.2 230 05:53 28.11.2019
3635 Clouds 9 983 93 10000 6.2 230 05:33 28.11.2019
3636 Drizzle 9 982 93 5000 5.7 200 03:49 28.11.2019
3637 Drizzle 9 983 93 8000 4.6 170 02:30 28.11.2019
3638 Drizzle 9 985 87 9000 5.1 170 01:23 28.11.2019
3639 Drizzle 9 985 87 9000 5.1 170 00:39 28.11.2019
3640 Rain 9 985 87 10000 4.6 170 00:18 28.11.2019
3641 Rain 9 985 87 10000 4.6 170 23:38 27.11.2019
3642 Clouds 9 986 87 10000 4.1 160 23:20 27.11.2019
3643 Clouds 9 986 87 10000 4.1 160 22:56 27.11.2019
3644 Clouds 9 986 87 10000 4.1 160 22:37 27.11.2019
3645 Clouds 9 987 87 10000 5.7 180 22:18 27.11.2019
3646 Clouds 9 987 87 10000 5.7 180 21:55 27.11.2019
3647 Clouds 8 987 87 10000 5.7 180 21:36 27.11.2019
3648 Clouds 8 987 81 10000 5.1 170 21:18 27.11.2019
3649 Clouds 8 988 87 10000 5.7 170 20:56 27.11.2019
3650 Clouds 8 988 87 10000 5.7 170 20:56 27.11.2019
3651 Clouds 9 988 87 10000 5.7 170 20:37 27.11.2019
3652 Clouds 9 988 87 10000 4.1 150 20:18 27.11.2019
3653 Clouds 9 988 87 10000 4.1 150 19:55 27.11.2019
3654 Clouds 9 988 87 10000 4.1 150 19:37 27.11.2019
3655 Clouds 9 988 87 10000 4.1 150 19:18 27.11.2019
3656 Clouds 9 988 87 10000 4.1 150 18:54 27.11.2019
3657 Clouds 9 988 87 10000 4.1 150 18:36 27.11.2019
3658 Clouds 9 988 93 10000 4.6 170 18:18 27.11.2019
3659 Clouds 9 988 93 10000 4.6 170 17:41 27.11.2019
3660 Clouds 9 989 93 9000 5.1 170 17:23 27.11.2019
3661 Clouds 9 989 93 9000 5.1 170 17:23 27.11.2019
3662 Clouds 9 989 93 9000 5.1 170 17:23 27.11.2019
3663 Clouds 9 989 93 9000 5.1 170 16:58 27.11.2019
3664 Clouds 9 989 93 9000 5.1 170 16:40 27.11.2019
3665 Clouds 9 989 93 8000 4.6 160 16:21 27.11.2019
3666 Clouds 9 989 93 8000 4.6 160 15:59 27.11.2019
3667 Clouds 10 989 93 8000 4.6 160 15:41 27.11.2019
3668 Clouds 10 989 93 8000 4.6 160 15:40 27.11.2019
3669 Clouds 10 989 93 7000 4.1 170 15:21 27.11.2019
3670 Clouds 10 989 93 7000 4.1 170 14:59 27.11.2019
3671 Clouds 9 989 93 7000 4.1 170 14:41 27.11.2019
3672 Rain 9 989 93 5000 4.6 170 14:23 27.11.2019
3673 Rain 9 990 87 4000 5.7 190 13:58 27.11.2019
3674 Rain 9 990 87 4000 5.7 190 13:40 27.11.2019
3675 Clouds 9 990 87 9000 4.6 170 13:19 27.11.2019
3676 Clouds 9 990 87 9000 4.6 170 12:59 27.11.2019
3677 Clouds 9 990 87 9000 4.6 170 12:40 27.11.2019
3678 Clouds 9 990 87 9000 4.6 170 12:40 27.11.2019
3679 Clouds 9 990 87 8000 4.1 150 12:20 27.11.2019
3680 Clouds 9 990 87 8000 4.1 150 11:54 27.11.2019
3681 Rain 8 991 93 5000 4.6 130 11:36 27.11.2019
3682 Rain 8 991 93 5000 4.6 130 11:18 27.11.2019
3683 Rain 8 991 93 5000 4.6 130 10:41 27.11.2019
3684 Rain 8 992 93 4500 4.1 130 10:23 27.11.2019
3685 Rain 8 992 93 4500 4.1 130 09:45 27.11.2019
3686 Mist 8 992 93 5000 3.6 110 09:26 27.11.2019
3687 Mist 8 992 93 5000 3.6 110 08:59 27.11.2019
3688 Mist 8 992 93 5000 3.6 110 08:41 27.11.2019
3689 Mist 8 992 93 5000 3.1 110 08:22 27.11.2019
3690 Mist 8 993 93 4500 3.1 140 07:47 27.11.2019
3691 Mist 8 994 100 4500 3.1 130 07:28 27.11.2019
3692 Mist 8 994 100 4500 3.1 130 06:48 27.11.2019
3693 Mist 8 994 100 5000 3.1 130 06:29 27.11.2019
3694 Mist 8 994 100 5000 3.1 130 05:43 27.11.2019
3695 Mist 8 995 100 5000 3.6 150 05:19 27.11.2019
3696 Mist 8 995 100 5000 3.6 150 04:43 27.11.2019
3697 Drizzle 9 996 87 3000 3.1 160 03:55 27.11.2019
3698 Clouds 9 996 87 10000 3.6 160 03:24 27.11.2019
3699 Clouds 9 996 87 10000 3.6 160 02:55 27.11.2019
3700 Drizzle 9 997 87 10000 3.6 160 01:48 27.11.2019
3701 Clouds 9 998 87 10000 3.6 160 00:46 27.11.2019
3702 Rain 9 998 87 10000 3.1 170 00:27 27.11.2019
3703 Rain 9 998 87 10000 3.1 170 23:50 26.11.2019
3704 Clouds 9 999 87 10000 3.1 150 23:29 26.11.2019
3705 Clouds 9 999 87 10000 3.1 150 22:59 26.11.2019
3706 Clouds 9 999 87 10000 3.1 150 22:39 26.11.2019
3707 Clouds 9 1000 93 10000 3.6 170 22:19 26.11.2019
3708 Clouds 9 1000 93 10000 3.6 170 21:58 26.11.2019
3709 Clouds 9 1000 93 10000 3.6 170 21:38 26.11.2019
3710 Clouds 9 1000 87 8000 4.1 170 21:19 26.11.2019
3711 Clouds 9 1000 87 8000 4.1 170 20:55 26.11.2019
3712 Clouds 9 1000 87 8000 4.1 170 20:37 26.11.2019
3713 Clouds 8 1001 93 7000 3.6 180 20:19 26.11.2019
3714 Clouds 8 1001 93 7000 3.6 180 19:55 26.11.2019
3715 Clouds 8 1001 93 7000 3.6 180 19:55 26.11.2019
3716 Clouds 8 1001 93 7000 3.6 180 19:37 26.11.2019
3717 Clouds 8 1001 93 7000 4.1 170 19:18 26.11.2019
3718 Clouds 8 1001 93 7000 4.1 170 18:56 26.11.2019
3719 Clouds 8 1001 93 6000 4.1 170 18:38 26.11.2019
3720 Clouds 8 1001 93 6000 4.1 170 18:20 26.11.2019
3721 Clouds 8 1001 93 6000 4.1 170 17:55 26.11.2019
3722 Mist 8 1001 93 5000 3.6 160 17:37 26.11.2019
3723 Mist 8 1001 93 5000 3.6 160 17:18 26.11.2019
3724 Mist 8 1001 93 4000 3.6 170 16:55 26.11.2019
3725 Mist 8 1001 93 4000 3.6 170 16:37 26.11.2019
3726 Mist 8 1001 93 4000 3.6 170 16:37 26.11.2019
3727 Mist 8 1002 93 3700 3.1 170 16:18 26.11.2019
3728 Mist 7 1002 100 3100 3.6 170 15:57 26.11.2019
3729 Mist 7 1002 100 3100 3.6 170 15:37 26.11.2019
3730 Mist 7 1002 93 3700 4.1 170 15:18 26.11.2019
3731 Mist 7 1002 93 4000 4.1 170 14:45 26.11.2019
3732 Mist 7 1003 93 3500 3.1 170 14:24 26.11.2019
3733 Mist 7 1003 93 4500 4.1 180 13:45 26.11.2019
3734 Mist 7 1003 93 5000 3.1 180 13:25 26.11.2019
3735 Mist 7 1003 93 5000 3.1 180 12:58 26.11.2019
3736 Mist 7 1003 93 4500 3.6 170 12:38 26.11.2019
3737 Mist 7 1003 93 4500 3.6 170 12:19 26.11.2019
3738 Mist 7 1003 93 4500 3.6 170 11:56 26.11.2019
3739 Mist 6 1004 93 3000 3.6 170 11:38 26.11.2019
3740 Mist 6 1004 93 3000 3.6 170 11:19 26.11.2019
3741 Mist 6 1004 93 3000 3.6 170 10:56 26.11.2019
3742 Mist 6 1004 93 3000 3.6 170 10:38 26.11.2019
3743 Mist 5 1005 100 3000 3.6 170 10:20 26.11.2019
3744 Mist 5 1005 100 3000 3.6 170 09:43 26.11.2019
3745 Mist 5 1005 100 2500 3.1 150 09:24 26.11.2019
3746 Mist 5 1005 100 2500 3.1 150 08:58 26.11.2019
3747 Mist 5 1005 100 2500 3.1 150 08:38 26.11.2019
3748 Mist 5 1005 93 3000 3.1 150 08:18 26.11.2019
3749 Mist 5 1005 93 4500 3.6 150 07:43 26.11.2019
3750 Mist 4 1005 100 4500 3.6 140 07:24 26.11.2019
3751 Mist 4 1005 100 4500 3.6 140 06:53 26.11.2019
3752 Drizzle 4 1006 100 3000 2.6 140 05:59 26.11.2019
3753 Drizzle 4 1006 100 2800 3.1 130 05:36 26.11.2019
3754 Mist 5 1007 93 4000 3.1 130 03:22 26.11.2019
3755 Mist 5 1007 93 4000 3.1 130 03:22 26.11.2019
3756 Mist 5 1008 93 4000 2.6 160 01:53 26.11.2019
3757 Mist 5 1008 93 4800 2.6 150 01:28 26.11.2019
3758 Mist 5 1008 93 5000 2.6 150 00:48 26.11.2019
3759 Rain 5 1009 93 4500 2.6 140 00:21 26.11.2019
3760 Mist 5 1009 93 4000 2.6 150 23:39 25.11.2019
3761 Mist 5 1009 93 4000 2.6 150 23:39 25.11.2019
3762 Mist 5 1009 93 4000 2.6 150 23:19 25.11.2019
3763 Mist 5 1009 93 4000 2.6 150 23:19 25.11.2019
3764 Mist 5 1009 93 3200 2.6 150 22:55 25.11.2019
3765 Mist 5 1009 93 3200 2.6 150 22:37 25.11.2019
3766 Drizzle 5 1009 93 3800 2.1 150 22:18 25.11.2019
3767 Drizzle 5 1009 93 4000 2.1 140 21:55 25.11.2019
3768 Drizzle 5 1009 93 4000 2.1 140 21:36 25.11.2019
3769 Drizzle 5 1009 93 4000 2.1 160 21:18 25.11.2019
3770 Drizzle 5 1009 93 4000 2.1 160 21:18 25.11.2019
3771 Mist 5 1009 93 3700 2.1 150 20:54 25.11.2019
3772 Mist 5 1009 93 3700 2.1 150 20:36 25.11.2019
3773 Mist 5 1009 93 3700 2.1 150 20:36 25.11.2019
3774 Mist 5 1009 93 4000 2.1 160 20:18 25.11.2019
3775 Mist 5 1009 93 4000 2.1 160 20:18 25.11.2019
3776 Mist 5 1009 93 4000 2.1 160 20:18 25.11.2019
3777 Mist 5 1010 93 4800 2.6 170 19:54 25.11.2019
3778 Mist 5 1010 93 4800 2.6 170 19:36 25.11.2019
3779 Mist 5 1010 93 4000 3.1 160 19:18 25.11.2019
3780 Mist 5 1010 93 3000 2.6 150 18:54 25.11.2019
3781 Mist 5 1010 93 2800 2.1 130 18:36 25.11.2019
3782 Mist 5 1010 93 2800 2.1 130 18:18 25.11.2019
3783 Mist 5 1010 93 2800 2.1 130 17:55 25.11.2019
3784 Mist 5 1010 93 2800 2.1 130 17:55 25.11.2019
3785 Mist 5 1010 93 3500 2.6 150 17:36 25.11.2019
3786 Mist 5 1010 93 3500 2.6 150 17:36 25.11.2019
3787 Mist 5 1010 93 3500 2.6 150 17:18 25.11.2019
3788 Mist 5 1010 93 2800 2.6 130 16:41 25.11.2019
3789 Mist 5 1010 93 2800 2.1 160 16:23 25.11.2019
3790 Mist 5 1010 93 2800 2.1 160 15:57 25.11.2019
3791 Mist 5 1010 93 2800 2.1 160 15:38 25.11.2019
3792 Mist 6 1010 93 2800 3.1 150 15:19 25.11.2019
3793 Mist 6 1010 93 2800 3.1 150 14:56 25.11.2019
3794 Mist 6 1010 93 2800 3.1 150 14:56 25.11.2019
3795 Mist 6 1010 93 2800 3.1 150 14:37 25.11.2019
3796 Mist 6 1010 93 2800 3.1 140 14:19 25.11.2019
3797 Mist 5 1010 93 3000 2.1 140 13:39 25.11.2019
3798 Mist 6 1010 93 3000 2.6 170 13:20 25.11.2019
3799 Mist 6 1010 93 3000 2.6 170 12:59 25.11.2019
3800 Mist 6 1010 93 3000 2.6 170 12:40 25.11.2019
3801 Mist 6 1010 93 3000 2.6 170 12:40 25.11.2019
3802 Mist 6 1011 87 3300 3.1 160 12:20 25.11.2019
3803 Mist 6 1011 87 3300 3.1 160 11:56 25.11.2019
3804 Mist 6 1011 93 3000 2.6 170 11:38 25.11.2019
3805 Mist 6 1011 93 3000 2.6 170 11:38 25.11.2019
3806 Mist 6 1011 93 3000 2.6 170 11:19 25.11.2019
3807 Mist 6 1011 93 3000 2.6 170 10:42 25.11.2019
3808 Mist 5 1011 100 2500 1.5 160 10:22 25.11.2019
3809 Mist 5 1011 100 2500 1.5 160 09:55 25.11.2019
3810 Mist 5 1011 100 2500 1.5 160 09:37 25.11.2019
3811 Mist 5 1010 93 2800 2.1 140 09:18 25.11.2019
3812 Mist 5 1010 93 2800 2.1 140 09:18 25.11.2019
3813 Mist 5 1010 93 2800 2.1 140 08:39 25.11.2019
3814 Mist 5 1010 93 4200 2.1 130 08:20 25.11.2019
3815 Mist 5 1010 93 4200 2.1 130 07:42 25.11.2019
3816 Mist 5 1010 93 4200 2.1 130 07:24 25.11.2019
3817 Mist 5 1010 93 4500 3.1 130 06:48 25.11.2019
3818 Mist 5 1010 93 4500 2.1 130 06:21 25.11.2019
3819 Mist 5 1010 93 4500 1.5 130 05:38 25.11.2019
3820 Mist 5 1010 93 4500 1.5 130 04:52 25.11.2019
3821 Mist 5 1010 93 4500 2.6 150 02:52 25.11.2019
3822 Mist 5 1010 93 4500 2.1 130 02:20 25.11.2019
3823 Mist 5 1010 93 5000 2.1 130 01:40 25.11.2019
3824 Clouds 5 1011 93 6000 2.1 140 01:21 25.11.2019
3825 Clouds 5 1010 93 6000 2.6 150 00:23 25.11.2019
3826 Clouds 5 1010 93 6000 2.6 150 23:58 24.11.2019
3827 Clouds 5 1010 93 6000 2.6 160 23:39 24.11.2019
3828 Clouds 5 1010 93 6000 2.6 160 23:19 24.11.2019
3829 Clouds 5 1010 93 6000 2.6 160 22:55 24.11.2019
3830 Clouds 5 1010 93 6000 2.6 160 22:36 24.11.2019
3831 Clouds 5 1010 93 6000 3.1 140 22:18 24.11.2019
3832 Clouds 5 1010 93 6000 3.1 140 21:42 24.11.2019
3833 Clouds 5 1010 93 6000 3.1 150 21:21 24.11.2019
3834 Clouds 5 1010 93 6000 3.1 150 20:59 24.11.2019
3835 Clouds 5 1010 93 6000 3.1 150 20:40 24.11.2019
3836 Mist 6 1010 87 5000 3.1 130 20:20 24.11.2019
3837 Mist 6 1010 87 5000 3.1 130 19:57 24.11.2019
3838 Mist 6 1010 87 5000 3.1 130 19:39 24.11.2019
3839 Clouds 6 1010 87 6000 3.1 120 19:21 24.11.2019
3840 Clouds 6 1010 87 6000 3.1 120 18:59 24.11.2019
3841 Clouds 6 1009 87 7000 4.1 110 18:38 24.11.2019
3842 Clouds 6 1009 87 7000 4.1 110 18:20 24.11.2019
3843 Clouds 6 1009 87 7000 4.1 110 17:58 24.11.2019
3844 Clouds 6 1009 87 6000 4.1 120 17:40 24.11.2019
3845 Clouds 6 1009 87 6000 4.1 120 17:22 24.11.2019
3846 Clouds 6 1009 87 6000 4.1 120 16:58 24.11.2019
3847 Clouds 6 1009 87 6000 4.1 120 16:39 24.11.2019
3848 Clouds 6 1009 87 6000 4.1 120 16:21 24.11.2019
3849 Clouds 6 1009 87 6000 4.1 120 15:55 24.11.2019
3850 Clouds 6 1009 87 6000 4.1 120 15:37 24.11.2019
3851 Clouds 6 1009 87 6000 4.1 120 15:18 24.11.2019
3852 Clouds 6 1009 87 6000 4.1 120 14:39 24.11.2019
3853 Mist 6 1009 87 5000 4.6 130 14:19 24.11.2019
3854 Mist 5 1009 93 5000 4.6 120 13:58 24.11.2019
3855 Mist 5 1009 93 5000 4.6 120 13:37 24.11.2019
3856 Mist 5 1009 93 4500 4.6 120 13:19 24.11.2019
3857 Mist 5 1009 93 4500 4.6 120 12:56 24.11.2019
3858 Mist 5 1009 93 4000 4.6 110 12:37 24.11.2019
3859 Mist 5 1009 93 4000 4.6 110 12:18 24.11.2019
3860 Mist 5 1009 86 4000 5.1 110 11:38 24.11.2019
3861 Mist 5 1009 86 4000 5.1 110 11:19 24.11.2019
3862 Mist 5 1009 86 4000 5.1 110 10:57 24.11.2019
3863 Mist 5 1009 86 4000 5.1 110 10:38 24.11.2019
3864 Mist 5 1009 86 4000 5.1 110 10:38 24.11.2019
3865 Mist 5 1009 86 4000 5.7 120 10:20 24.11.2019
3866 Mist 5 1009 86 4000 5.7 120 10:20 24.11.2019
3867 Mist 5 1009 86 4000 5.7 120 09:39 24.11.2019
3868 Mist 5 1008 86 4000 6.7 110 09:20 24.11.2019
3869 Mist 5 1008 86 4000 6.7 110 08:57 24.11.2019
3870 Mist 6 1008 86 4000 6.7 110 08:39 24.11.2019
3871 Mist 6 1008 86 5000 5.1 120 08:20 24.11.2019
3872 Mist 6 1008 86 5000 5.1 120 07:52 24.11.2019
3873 Mist 6 1008 86 5000 5.1 120 07:52 24.11.2019
3874 Mist 6 1007 86 5000 4.6 110 07:25 24.11.2019
3875 Mist 6 1007 86 5000 4.6 110 06:52 24.11.2019
3876 Clouds 6 1007 93 6000 4.6 100 05:40 24.11.2019
3877 Clouds 6 1007 93 6000 4.6 100 04:42 24.11.2019
3878 Clouds 6 1007 87 7000 5.1 100 02:43 24.11.2019
3879 Clouds 6 1007 87 7000 6.7 90 01:56 24.11.2019
3880 Clouds 6 1007 87 7000 6.7 90 01:34 24.11.2019
3881 Clouds 6 1007 87 6000 6.7 100 00:57 24.11.2019
3882 Clouds 7 1007 87 6000 7.2 90 00:38 24.11.2019
3883 Clouds 7 1007 87 6000 7.2 90 00:19 24.11.2019
3884 Clouds 7 1007 87 6000 6.2 90 23:43 23.11.2019
3885 Clouds 7 1007 87 6000 6.2 90 23:21 23.11.2019
3886 Clouds 7 1007 87 6000 6.2 90 22:57 23.11.2019
3887 Clouds 7 1007 87 6000 6.2 90 22:57 23.11.2019
3888 Clouds 7 1007 87 6000 6.2 90 22:37 23.11.2019
3889 Clouds 7 1007 87 9000 5.1 100 22:19 23.11.2019
3890 Clouds 7 1007 87 9000 5.1 100 21:57 23.11.2019
3891 Clouds 7 1007 87 9000 5.1 100 21:39 23.11.2019
3892 Clouds 7 1006 81 8000 5.1 100 21:20 23.11.2019
3893 Clouds 8 1006 81 8000 5.1 100 20:39 23.11.2019
3894 Clouds 7 1006 81 7000 5.7 100 20:20 23.11.2019
3895 Clouds 7 1006 81 7000 5.7 100 19:58 23.11.2019
3896 Clouds 8 1006 81 7000 5.7 100 19:39 23.11.2019
3897 Clouds 7 1005 87 7000 6.7 100 19:19 23.11.2019
3898 Clouds 7 1005 87 7000 6.7 100 19:19 23.11.2019
3899 Clouds 7 1005 87 7000 6.7 100 18:59 23.11.2019
3900 Clouds 7 1005 87 6000 5.7 100 18:39 23.11.2019
3901 Clouds 7 1005 87 6000 5.7 100 18:19 23.11.2019
3902 Clouds 8 1005 87 6000 5.7 100 17:45 23.11.2019
3903 Clouds 7 1005 87 6000 6.7 100 17:23 23.11.2019
3904 Clouds 7 1005 87 6000 6.7 100 17:23 23.11.2019
3905 Clouds 7 1005 87 6000 6.7 100 16:57 23.11.2019
3906 Clouds 8 1005 87 6000 6.7 100 16:39 23.11.2019
3907 Clouds 8 1005 81 9000 5.1 100 16:21 23.11.2019
3908 Clouds 8 1005 81 9000 5.1 100 15:59 23.11.2019
3909 Clouds 8 1005 81 9000 5.1 100 15:39 23.11.2019
3910 Clouds 8 1004 81 10000 6.7 100 15:19 23.11.2019
3911 Clouds 8 1004 81 10000 6.7 100 14:57 23.11.2019
3912 Clouds 9 1004 81 10000 6.7 100 14:39 23.11.2019
3913 Clouds 9 1005 76 10000 5.7 110 14:21 23.11.2019
3914 Clouds 9 1005 76 10000 5.7 110 13:54 23.11.2019
3915 Clouds 9 1005 76 10000 5.7 110 13:36 23.11.2019
3916 Clouds 8 1005 87 8000 6.2 100 13:18 23.11.2019
3917 Clouds 8 1005 87 8000 6.2 100 13:18 23.11.2019
3918 Clouds 8 1005 87 8000 6.2 100 12:42 23.11.2019
3919 Clouds 8 1005 81 8000 8.7 110 12:24 23.11.2019
3920 Clouds 8 1005 81 8000 8.7 110 11:45 23.11.2019
3921 Clouds 8 1005 81 8000 7.7 110 11:23 23.11.2019
3922 Clouds 8 1006 81 7000 7.2 100 10:46 23.11.2019
3923 Clouds 8 1006 87 6000 5.7 120 10:23 23.11.2019
3924 Clouds 8 1006 87 6000 5.7 120 09:59 23.11.2019
3925 Clouds 8 1006 87 6000 5.7 120 09:40 23.11.2019
3926 Clouds 8 1005 87 6000 5.7 120 09:18 23.11.2019
3927 Clouds 7 1005 87 6000 5.7 120 08:41 23.11.2019
3928 Clouds 8 1005 87 7000 6.2 110 08:19 23.11.2019
3929 Clouds 7 1005 87 7000 6.2 110 07:42 23.11.2019
3930 Clouds 7 1005 87 6000 6.2 110 06:59 23.11.2019
3931 Clouds 7 1005 93 6000 5.7 110 06:40 23.11.2019
3932 Clouds 7 1005 93 6000 5.7 110 06:19 23.11.2019
3933 Clouds 7 1005 93 7000 6.7 120 05:41 23.11.2019
3934 Clouds 7 1005 93 7000 6.7 120 05:22 23.11.2019
3935 Clouds 6 1005 93 7000 6.7 120 04:34 23.11.2019
3936 Clouds 6 1006 87 8000 4.6 120 03:32 23.11.2019
3937 Clouds 6 1006 87 8000 4.6 120 02:39 23.11.2019
3938 Clouds 6 1006 87 8000 4.6 120 02:39 23.11.2019
3939 Clouds 6 1006 87 8000 4.1 120 01:41 23.11.2019
3940 Clouds 5 1007 93 7000 4.6 120 00:49 23.11.2019
3941 Clouds 5 1007 93 7000 5.1 130 00:22 23.11.2019
3942 Clouds 5 1007 93 7000 5.1 130 23:59 22.11.2019
3943 Clouds 6 1007 93 6000 4.1 120 23:37 22.11.2019
3944 Clouds 6 1007 93 6000 4.1 120 23:19 22.11.2019
3945 Clouds 6 1007 93 6000 4.1 120 22:57 22.11.2019
3946 Clouds 6 1007 93 6000 4.1 120 22:37 22.11.2019
3947 Clouds 5 1007 93 6000 4.1 120 22:19 22.11.2019
3948 Clouds 5 1007 93 6000 4.1 120 21:57 22.11.2019
3949 Clouds 5 1007 93 6000 4.1 120 21:38 22.11.2019
3950 Clouds 5 1008 93 6000 5.7 130 21:18 22.11.2019
3951 Clouds 5 1008 93 6000 5.7 130 20:42 22.11.2019
3952 Mist 5 1008 100 3800 6.2 130 20:22 22.11.2019
3953 Mist 5 1008 100 3800 6.2 130 19:54 22.11.2019
3954 Mist 5 1008 100 3800 6.2 130 19:36 22.11.2019
3955 Mist 5 1007 93 3800 4.6 120 19:18 22.11.2019
3956 Mist 5 1007 93 4500 4.6 110 18:39 22.11.2019
3957 Clouds 6 1007 93 7000 4.1 110 18:21 22.11.2019
3958 Clouds 6 1007 87 8000 3.6 110 17:43 22.11.2019
3959 Clouds 6 1007 93 9000 4.6 120 17:24 22.11.2019
3960 Clouds 7 1007 87 7000 4.6 120 16:59 22.11.2019
3961 Clouds 7 1007 87 7000 4.6 120 16:40 22.11.2019
3962 Rain 7 1007 93 10000 3.6 130 16:22 22.11.2019
3963 Rain 8 1007 93 10000 3.6 130 15:41 22.11.2019
3964 Rain 8 1007 87 10000 2.6 120 15:23 22.11.2019
3965 Rain 8 1007 87 10000 2.6 120 14:56 22.11.2019
3966 Clouds 8 1007 87 10000 2.1 150 14:37 22.11.2019
3967 Rain 7 1007 87 10000 2.6 120 14:37 22.11.2019
3968 Clouds 8 1007 87 10000 2.1 150 14:19 22.11.2019
3969 Clouds 8 1007 87 10000 2.1 150 13:55 22.11.2019
3970 Clouds 7 1007 87 10000 2.1 150 13:36 22.11.2019
3971 Clouds 7 1008 87 10000 2.6 150 13:18 22.11.2019
3972 Clouds 6 1008 87 10000 2.6 150 12:40 22.11.2019
3973 Clouds 6 1008 87 10000 2.6 150 12:40 22.11.2019
3974 Clouds 7 1008 87 9000 3.1 170 12:20 22.11.2019
3975 Clouds 7 1008 87 9000 3.1 170 11:59 22.11.2019
3976 Clouds 6 1008 87 9000 3.1 170 11:38 22.11.2019
3977 Clouds 5 1008 93 8000 2.6 150 11:20 22.11.2019
3978 Clouds 5 1007 93 6000 3.1 150 10:58 22.11.2019
3979 Clouds 5 1007 93 6000 3.1 150 10:39 22.11.2019
3980 Mist 4 1007 100 5000 2.6 160 10:21 22.11.2019
3981 Mist 4 1007 93 4800 2.6 160 09:55 22.11.2019
3982 Mist 4 1007 93 4800 2.6 160 09:37 22.11.2019
3983 Mist 4 1007 93 3700 2.1 140 09:18 22.11.2019
3984 Mist 4 1007 93 3700 2.1 140 08:44 22.11.2019
3985 Mist 4 1007 100 4500 2.6 150 08:24 22.11.2019
3986 Mist 4 1007 100 4500 2.6 150 07:45 22.11.2019
3987 Mist 4 1007 100 4500 2.6 150 07:22 22.11.2019
3988 Mist 4 1007 100 4500 2.6 150 06:49 22.11.2019
3989 Mist 5 1006 93 3800 2.1 140 06:30 22.11.2019
3990 Mist 5 1006 93 3800 2.1 140 05:45 22.11.2019
3991 Mist 5 1006 100 4000 1.5 140 04:22 22.11.2019
3992 Mist 6 1007 93 5000 2.1 150 02:53 22.11.2019
3993 Mist 6 1007 93 5000 2.1 180 02:30 22.11.2019
3994 Mist 6 1007 100 4500 2.1 190 01:45 22.11.2019
3995 Mist 6 1007 100 2500 1 140 01:20 22.11.2019
3996 Mist 5 1007 100 2500 1 140 00:50 22.11.2019
3997 Mist 5 1007 100 2500 2.1 160 00:23 22.11.2019
3998 Mist 6 1007 100 3000 1.5 140 23:49 21.11.2019
3999 Drizzle 6 1007 100 3500 2.1 150 23:30 21.11.2019
4000 Drizzle 6 1007 100 3500 2.1 150 22:59 21.11.2019
4001 Drizzle 6 1007 100 3500 2.1 150 22:39 21.11.2019
4002 Drizzle 6 1008 100 3700 3.1 110 22:21 21.11.2019
4003 Drizzle 6 1008 100 3700 3.1 110 21:57 21.11.2019
4004 Drizzle 6 1008 100 3700 3.1 110 21:37 21.11.2019
4005 Drizzle 6 1008 100 2500 3.6 100 21:19 21.11.2019
4006 Drizzle 6 1008 100 2500 3.6 100 20:58 21.11.2019
4007 Drizzle 6 1008 100 2500 3.6 100 20:38 21.11.2019
4008 Drizzle 6 1008 100 1500 2.6 110 20:19 21.11.2019
4009 Fog 6 1009 100 800 2.6 110 19:59 21.11.2019
4010 Fog 6 1009 100 800 2.6 110 19:59 21.11.2019
4011 Fog 6 1009 100 800 2.6 110 19:40 21.11.2019
4012 Fog 5 1009 100 400 2.1 110 19:22 21.11.2019
4013 Fog 5 1009 100 400 2.1 110 18:57 21.11.2019
4014 Fog 5 1009 100 400 2.1 110 18:38 21.11.2019
4015 Fog 5 1009 100 400 2.6 110 18:19 21.11.2019
4016 Fog 5 1009 100 400 2.6 110 17:57 21.11.2019
4017 Fog 5 1009 100 400 2.6 110 17:38 21.11.2019
4018 Fog 5 1009 100 700 3.1 100 17:19 21.11.2019
4019 Mist 5 1009 100 1000 3.1 110 16:41 21.11.2019
4020 Mist 5 1009 100 3500 5.1 90 16:21 21.11.2019
4021 Mist 5 1009 100 3500 5.1 90 15:57 21.11.2019
4022 Mist 5 1009 100 3500 5.1 90 15:38 21.11.2019
4023 Drizzle 5 1010 93 2500 4.6 90 15:19 21.11.2019
4024 Drizzle 5 1010 93 2500 4.6 90 14:56 21.11.2019
4025 Drizzle 5 1010 93 2500 4.6 90 14:36 21.11.2019
4026 Drizzle 5 1010 93 2000 4.6 90 14:18 21.11.2019
4027 Drizzle 4 1011 100 1500 5.1 90 13:39 21.11.2019
4028 Drizzle 4 1011 100 1500 5.1 90 13:39 21.11.2019
4029 Drizzle 4 1012 100 1200 4.6 80 13:20 21.11.2019
4030 Drizzle 4 1012 100 1200 4.6 80 12:57 21.11.2019
4031 Drizzle 4 1012 100 1200 4.6 80 12:38 21.11.2019
4032 Drizzle 4 1012 100 1400 4.1 80 12:19 21.11.2019
4033 Drizzle 4 1012 93 2200 3.6 80 11:41 21.11.2019
4034 Mist 4 1013 93 2800 5.1 90 11:22 21.11.2019
4035 Mist 4 1013 93 2800 4.6 80 10:59 21.11.2019
4036 Mist 4 1013 93 2800 4.6 80 10:41 21.11.2019
4037 Mist 4 1013 93 2800 3.6 80 10:22 21.11.2019
4038 Mist 3 1013 100 2800 2.6 90 09:57 21.11.2019
4039 Mist 3 1013 100 2800 2.6 90 09:38 21.11.2019
4040 Mist 3 1014 93 3000 2.6 60 09:19 21.11.2019
4041 Mist 3 1014 93 3000 2.6 60 09:19 21.11.2019
4042 Mist 3 1014 93 3000 2.6 60 08:41 21.11.2019
4043 Mist 2 1014 100 3200 2.6 80 08:20 21.11.2019
4044 Mist 2 1014 100 3700 2.1 100 07:42 21.11.2019
4045 Mist 1 1014 100 3700 2.1 130 07:18 21.11.2019
4046 Mist 1 1014 100 2700 3.1 140 06:57 21.11.2019
4047 Mist 1 1014 100 2700 3.1 140 06:34 21.11.2019
4048 Fog 1 1014 100 100 2.1 90 05:37 21.11.2019
4049 Mist 2 1015 93 2000 2.98 168 03:34 21.11.2019
4050 Mist 1 1015 93 1200 0.5 0 02:42 21.11.2019
4051 Mist 1 1015 93 1200 1 200 02:20 21.11.2019
4052 Fog 1 1015 93 2000 1.5 200 01:42 21.11.2019
4053 Fog 1 1016 93 300 2.1 200 00:55 21.11.2019
4054 Fog 1 1016 93 300 2.1 200 00:55 21.11.2019
4055 Fog 2 1016 93 500 1 220 00:22 21.11.2019
4056 Fog 2 1016 93 500 1 220 23:59 20.11.2019
4057 Fog 2 1016 93 500 1 220 23:40 20.11.2019
4058 Fog 2 1016 93 800 2.1 180 23:21 20.11.2019
4059 Fog 2 1016 93 800 2.1 180 22:55 20.11.2019
4060 Fog 3 1016 93 800 2.1 180 22:37 20.11.2019
4061 Fog 2 1016 100 200 1.5 240 22:18 20.11.2019
4062 Fog 2 1016 100 200 1.5 240 21:57 20.11.2019
4063 Fog 3 1016 100 200 1.5 240 21:37 20.11.2019
4064 Fog 3 1017 100 200 1.5 270 21:19 20.11.2019
4065 Fog 3 1017 100 300 1 0 20:55 20.11.2019
4066 Fog 3 1017 100 300 1 0 20:37 20.11.2019
4067 Fog 3 1017 93 400 1.5 0 20:18 20.11.2019
4068 Fog 3 1017 93 400 1.5 0 19:54 20.11.2019
4069 Fog 3 1017 93 400 1.5 0 19:36 20.11.2019
4070 Fog 3 1017 93 400 1.5 0 19:36 20.11.2019
4071 Fog 3 1017 100 400 1.5 230 19:18 20.11.2019
4072 Fog 3 1017 93 500 1.5 220 18:57 20.11.2019
4073 Fog 3 1017 93 500 1.5 220 18:37 20.11.2019
4074 Fog 3 1017 100 200 1 130 18:19 20.11.2019
4075 Fog 4 1017 100 200 1 130 17:55 20.11.2019
4076 Fog 4 1017 100 200 1 130 17:36 20.11.2019
4077 Fog 3 1018 100 100 0.5 0 17:18 20.11.2019
4078 Fog 5 1018 100 100 0.5 0 16:41 20.11.2019
4079 Fog 4 1018 93 100 1.5 100 16:20 20.11.2019
4080 Fog 4 1018 93 100 1.5 100 15:58 20.11.2019
4081 Fog 5 1018 93 100 1.5 100 15:39 20.11.2019
4082 Fog 4 1018 100 300 1.5 130 15:20 20.11.2019
4083 Fog 4 1018 100 300 1.5 130 14:56 20.11.2019
4084 Fog 5 1018 100 300 1.5 130 14:38 20.11.2019
4085 Fog 4 1019 100 100 2.1 60 14:19 20.11.2019
4086 Fog 4 1019 100 100 2.1 60 13:56 20.11.2019
4087 Fog 6 1019 100 100 2.1 60 13:37 20.11.2019
4088 Fog 4 1019 76 100 1 170 13:18 20.11.2019
4089 Fog 6 1019 76 100 1 170 12:42 20.11.2019
4090 Fog 4 1019 100 100 0.5 0 12:23 20.11.2019
4091 Fog 4 1019 100 100 0.5 0 11:57 20.11.2019
4092 Fog 3 1019 100 100 0.5 0 11:37 20.11.2019
4093 Fog 2 1020 100 100 2.1 130 11:18 20.11.2019
4094 Fog 2 1020 100 100 2.1 130 10:55 20.11.2019
4095 Fog 3 1020 100 100 2.1 130 10:36 20.11.2019
4096 Fog 2 1019 92 100 1 190 10:18 20.11.2019
4097 Fog 3 1019 92 100 1 190 09:42 20.11.2019
4098 Fog 2 1019 100 100 1.5 150 09:21 20.11.2019
4099 Fog 3 1019 100 100 1.5 150 08:48 20.11.2019
4100 Fog 2 1019 92 200 2.1 140 08:28 20.11.2019
4101 Fog 2 1019 92 200 2.1 140 07:59 20.11.2019
4102 Fog 3 1019 92 200 2.1 140 07:38 20.11.2019
4103 Fog 2 1019 100 300 0.5 130 07:20 20.11.2019
4104 Fog 4 1019 100 300 0.5 130 06:45 20.11.2019
4105 Fog 4 1019 100 300 0.5 130 06:45 20.11.2019
4106 Fog 3 1019 80 400 1 0 06:19 20.11.2019
4107 Fog 4 1018 79 10000 2.1 250 04:51 20.11.2019
4108 Fog 4 1019 79 10000 2.6 210 02:48 20.11.2019
4109 Clouds 4 1018 93 10000 3.1 200 01:52 20.11.2019
4110 Clouds 4 1018 93 10000 3.1 210 01:20 20.11.2019
4111 Clouds 4 1018 93 10000 3.1 210 00:35 20.11.2019
4112 Clouds 4 1018 93 10000 3.1 220 23:46 19.11.2019
4113 Clouds 4 1018 93 10000 3.1 210 23:25 19.11.2019
4114 Clouds 4 1018 93 10000 3.1 210 22:57 19.11.2019
4115 Clouds 4 1018 93 10000 3.1 210 22:38 19.11.2019
4116 Clouds 5 1017 93 10000 3.1 210 22:19 19.11.2019
4117 Clouds 5 1017 93 10000 3.1 210 22:19 19.11.2019
4118 Clouds 5 1017 93 10000 3.1 210 21:55 19.11.2019
4119 Clouds 5 1017 93 10000 3.1 210 21:37 19.11.2019
4120 Clouds 5 1017 93 10000 3.1 210 21:37 19.11.2019
4121 Clouds 5 1017 86 10000 2.6 210 21:19 19.11.2019
4122 Clouds 5 1017 86 10000 2.6 210 21:19 19.11.2019
4123 Clouds 5 1017 86 10000 3.1 220 20:55 19.11.2019
4124 Clouds 5 1017 86 10000 3.1 220 20:55 19.11.2019
4125 Clouds 5 1017 86 10000 3.1 220 20:37 19.11.2019
4126 Clouds 5 1016 93 10000 3.1 230 20:18 19.11.2019
4127 Clouds 5 1016 93 10000 3.1 230 19:55 19.11.2019
4128 Clouds 5 1016 93 10000 3.1 230 19:37 19.11.2019
4129 Clouds 6 1016 93 10000 3.6 230 19:18 19.11.2019
4130 Clouds 6 1016 93 10000 3.6 230 18:54 19.11.2019
4131 Clouds 6 1016 93 10000 3.6 230 18:36 19.11.2019
4132 Clouds 7 1015 75 10000 4.6 260 18:18 19.11.2019
4133 Clouds 7 1015 75 10000 4.6 260 17:55 19.11.2019
4134 Clouds 7 1015 75 10000 4.6 260 17:55 19.11.2019
4135 Clouds 7 1015 75 10000 4.6 260 17:36 19.11.2019
4136 Clouds 8 1014 81 10000 5.1 260 17:18 19.11.2019
4137 Clouds 7 1014 81 10000 5.1 260 16:42 19.11.2019
4138 Clouds 8 1013 81 10000 4.1 240 16:22 19.11.2019
4139 Clouds 8 1013 81 10000 4.1 240 15:56 19.11.2019
4140 Clouds 8 1013 81 10000 4.1 240 15:38 19.11.2019
4141 Clouds 9 1013 76 10000 5.7 250 15:20 19.11.2019
4142 Clouds 9 1013 76 10000 5.7 250 14:55 19.11.2019
4143 Clouds 9 1013 76 10000 5.7 250 14:37 19.11.2019
4144 Clouds 9 1012 76 10000 6.7 260 14:19 19.11.2019
4145 Clouds 9 1012 76 10000 6.7 260 13:40 19.11.2019
4146 Clouds 9 1012 76 10000 6.7 260 13:40 19.11.2019
4147 Clouds 9 1011 81 10000 8.2 260 13:19 19.11.2019
4148 Clouds 9 1011 81 10000 8.2 260 12:40 19.11.2019
4149 Clouds 8 1011 93 10000 7.2 260 12:22 19.11.2019
4150 Clouds 8 1011 93 10000 7.2 260 11:58 19.11.2019
4151 Clouds 8 1011 93 10000 7.2 260 11:38 19.11.2019
4152 Rain 8 1010 93 8000 5.1 250 11:19 19.11.2019
4153 Rain 8 1010 93 8000 5.1 250 11:19 19.11.2019
4154 Rain 7 1010 93 8000 5.1 250 10:48 19.11.2019
4155 Clouds 7 1009 93 10000 4.6 250 10:23 19.11.2019
4156 Clouds 7 1009 93 10000 4.6 250 09:58 19.11.2019
4157 Clouds 8 1009 93 10000 4.6 250 09:40 19.11.2019
4158 Clouds 8 1007 87 10000 5.7 270 09:18 19.11.2019
4159 Clouds 8 1007 87 10000 5.7 270 08:41 19.11.2019
4160 Rain 8 1006 87 10000 8.2 290 08:23 19.11.2019
4161 Rain 8 1006 87 10000 8.2 290 07:57 19.11.2019
4162 Rain 8 1006 87 10000 8.2 290 07:39 19.11.2019
4163 Rain 8 1004 87 10000 9.3 300 07:20 19.11.2019
4164 Rain 9 1004 87 10000 9.3 300 06:50 19.11.2019
4165 Rain 8 1003 87 9000 10.8 290 06:30 19.11.2019
4166 Rain 9 1003 87 9000 10.8 290 05:39 19.11.2019
4167 Rain 7 1001 100 5000 3.1 250 04:22 19.11.2019
4168 Rain 7 1001 93 4500 14.57 312 03:32 19.11.2019
4169 Rain 7 1001 93 4500 14.57 312 02:56 19.11.2019
4170 Rain 7 1001 93 5000 3.1 190 02:22 19.11.2019
4171 Rain 7 1001 100 5000 3.1 160 01:40 19.11.2019
4172 Drizzle 7 1001 100 4000 4.6 160 00:22 19.11.2019
4173 Drizzle 7 1001 93 4000 4.1 160 23:57 18.11.2019
4174 Drizzle 7 1001 93 4000 4.1 160 23:37 18.11.2019
4175 Drizzle 7 1001 93 4500 5.7 160 23:18 18.11.2019
4176 Rain 7 1001 100 5000 4.6 170 22:44 18.11.2019
4177 Rain 7 1001 93 6000 4.1 170 22:23 18.11.2019
4178 Rain 7 1002 93 6000 4.1 180 21:56 18.11.2019
4179 Rain 8 1002 93 6000 4.1 180 21:37 18.11.2019
4180 Rain 7 1002 100 6000 3.6 190 21:19 18.11.2019
4181 Rain 7 1002 100 6000 4.1 200 20:57 18.11.2019
4182 Rain 8 1002 100 6000 4.1 200 20:38 18.11.2019
4183 Rain 8 1002 100 4500 4.1 180 20:18 18.11.2019
4184 Rain 7 1002 100 4000 4.1 170 19:56 18.11.2019
4185 Rain 8 1002 100 4000 4.1 170 19:37 18.11.2019
4186 Rain 8 1002 93 2000 2.6 170 19:18 18.11.2019
4187 Rain 8 1002 93 2000 2.6 170 18:55 18.11.2019
4188 Rain 8 1002 93 2000 2.6 170 18:37 18.11.2019
4189 Drizzle 8 1002 93 800 1.5 220 18:18 18.11.2019
4190 Drizzle 8 1002 93 800 1.5 220 17:39 18.11.2019
4191 Rain 8 1003 93 800 2.1 230 17:20 18.11.2019
4192 Rain 8 1003 93 800 2.1 230 16:57 18.11.2019
4193 Rain 8 1003 93 800 2.1 230 16:39 18.11.2019
4194 Fog 8 1003 100 500 2.1 220 16:21 18.11.2019
4195 Fog 8 1003 100 500 2.1 220 15:56 18.11.2019
4196 Fog 8 1003 100 500 2.1 220 15:37 18.11.2019
4197 Fog 8 1003 100 600 2.1 200 15:18 18.11.2019
4198 Mist 8 1003 100 1000 1.5 190 14:42 18.11.2019
4199 Fog 8 1003 100 400 1 140 14:24 18.11.2019
4200 Fog 8 1003 100 400 1 140 13:56 18.11.2019
4201 Fog 8 1003 100 400 1 140 13:37 18.11.2019
4202 Fog 8 1003 100 400 0.5 360 13:19 18.11.2019
4203 Fog 8 1003 100 400 0.5 360 12:39 18.11.2019
4204 Fog 8 1003 100 400 0.5 320 12:19 18.11.2019
4205 Fog 8 1003 100 400 0.5 320 11:45 18.11.2019
4206 Rain 7 1004 93 350 1 20 11:27 18.11.2019
4207 Rain 7 1004 93 350 1 20 10:59 18.11.2019
4208 Rain 8 1004 93 350 1 20 10:40 18.11.2019
4209 Fog 7 1004 100 350 1 350 10:22 18.11.2019
4210 Fog 7 1004 100 350 1 350 09:56 18.11.2019
4211 Fog 7 1004 100 350 1 350 09:38 18.11.2019
4212 Fog 7 1004 100 400 1.5 360 09:18 18.11.2019
4213 Fog 7 1004 100 450 1 20 08:45 18.11.2019
4214 Rain 7 1003 100 600 2.6 20 08:22 18.11.2019
4215 Rain 7 1004 100 900 2.1 360 07:49 18.11.2019
4216 Mist 7 1004 100 1300 2.6 40 07:30 18.11.2019
4217 Mist 7 1004 100 1300 2.6 40 06:56 18.11.2019
4218 Mist 7 1004 100 1300 2.6 40 06:37 18.11.2019
4219 Mist 7 1004 100 1800 3.6 50 06:19 18.11.2019
4220 Mist 7 1004 93 5000 6.7 50 05:25 18.11.2019
4221 Clouds 6 1005 87 10000 8.2 30 03:28 18.11.2019
4222 Drizzle 7 1006 81 10000 7.2 20 01:33 18.11.2019
4223 Drizzle 7 1007 93 10000 8.7 30 00:40 18.11.2019
4224 Drizzle 6 1009 93 9000 6.7 40 23:57 17.11.2019
4225 Drizzle 7 1009 93 9000 6.7 40 23:39 17.11.2019
4226 Drizzle 6 1010 93 7000 6.2 40 23:19 17.11.2019
4227 Drizzle 6 1010 93 7000 6.2 40 22:56 17.11.2019
4228 Drizzle 7 1010 93 7000 6.2 40 22:38 17.11.2019
4229 Drizzle 6 1010 93 5000 5.7 50 22:19 17.11.2019
4230 Rain 7 1010 87 10000 5.7 50 21:42 17.11.2019
4231 Clouds 6 1011 86 10000 5.1 60 21:20 17.11.2019
4232 Clouds 6 1011 86 10000 5.1 60 20:58 17.11.2019
4233 Clouds 6 1011 86 10000 5.1 60 20:39 17.11.2019
4234 Clouds 6 1012 80 10000 4.6 60 20:20 17.11.2019
4235 Clouds 6 1012 80 10000 4.6 60 19:57 17.11.2019
4236 Clouds 6 1012 80 10000 4.6 60 19:39 17.11.2019
4237 Clouds 6 1012 86 10000 4.1 40 19:20 17.11.2019
4238 Clouds 6 1012 86 10000 4.1 40 18:57 17.11.2019
4239 Clouds 5 1012 86 10000 4.1 40 18:38 17.11.2019
4240 Clouds 5 1012 93 10000 3.1 50 18:19 17.11.2019
4241 Clouds 5 1012 93 10000 3.1 50 18:19 17.11.2019
4242 Clouds 5 1012 93 10000 3.1 50 17:58 17.11.2019
4243 Clouds 4 1012 93 10000 3.1 50 17:40 17.11.2019
4244 Clouds 4 1012 93 9000 2.6 60 17:20 17.11.2019
4245 Clouds 4 1012 93 9000 2.6 60 16:59 17.11.2019
4246 Clouds 5 1012 93 9000 2.6 60 16:41 17.11.2019
4247 Clouds 5 1013 93 10000 2.1 50 16:21 17.11.2019
4248 Clouds 5 1013 93 10000 2.1 50 15:57 17.11.2019
4249 Clouds 5 1013 93 10000 2.1 50 15:39 17.11.2019
4250 Clouds 5 1013 93 10000 3.1 80 15:19 17.11.2019
4251 Clouds 5 1013 93 10000 3.1 80 14:57 17.11.2019
4252 Clouds 5 1013 93 10000 3.1 80 14:39 17.11.2019
4253 Clouds 5 1014 86 10000 2.1 90 14:20 17.11.2019
4254 Clouds 5 1014 86 10000 2.1 90 13:58 17.11.2019
4255 Clouds 5 1014 86 10000 2.1 90 13:40 17.11.2019
4256 Clouds 4 1014 86 8000 2.1 100 13:19 17.11.2019
4257 Clouds 5 1014 86 8000 2.1 100 12:45 17.11.2019
4258 Clouds 4 1014 86 8000 1 0 12:23 17.11.2019
4259 Clouds 4 1014 86 8000 1 0 12:23 17.11.2019
4260 Clouds 4 1014 86 8000 1 0 11:58 17.11.2019
4261 Clouds 4 1014 86 8000 1 0 11:40 17.11.2019
4262 Clouds 4 1014 93 8000 3.1 150 11:20 17.11.2019
4263 Clouds 3 1014 93 8000 3.1 150 10:45 17.11.2019
4264 Clouds 2 1014 79 6000 1 120 10:24 17.11.2019
4265 Clouds 2 1014 79 6000 1 120 09:58 17.11.2019
4266 Clouds 2 1014 79 6000 1 120 09:40 17.11.2019
4267 Clouds 2 1014 79 7000 3.1 160 09:22 17.11.2019
4268 Clouds 2 1014 79 8000 3.1 170 08:42 17.11.2019
4269 Clouds 2 1013 79 10000 2.6 200 08:23 17.11.2019
4270 Clouds 2 1013 83 10000 2.6 200 07:56 17.11.2019
4271 Clouds 2 1013 83 10000 2.6 200 07:38 17.11.2019
4272 Clouds 2 1012 83 10000 2.1 180 07:19 17.11.2019
4273 Clouds 3 1012 83 10000 2.1 180 06:47 17.11.2019
4274 Clouds 3 1012 83 10000 4.1 170 06:27 17.11.2019
4275 Clouds 3 1011 93 10000 3.1 210 04:50 17.11.2019
4276 Clouds 3 1011 86 10000 4.1 220 03:58 17.11.2019
4277 Clouds 4 1011 86 10000 4.1 220 03:33 17.11.2019
4278 Clouds 4 1011 86 10000 4.1 200 02:41 17.11.2019
4279 Clouds 4 1010 80 10000 4.6 220 01:49 17.11.2019
4280 Clouds 3 1010 86 10000 4.1 230 00:57 17.11.2019
4281 Clouds 4 1010 86 10000 5.7 230 00:23 17.11.2019
4282 Clouds 4 1010 86 10000 5.7 230 23:59 16.11.2019
4283 Clouds 5 1010 86 10000 5.7 230 23:40 16.11.2019
4284 Clouds 5 1010 86 10000 5.7 230 23:40 16.11.2019
4285 Clouds 5 1009 86 10000 5.7 230 23:18 16.11.2019
4286 Clouds 5 1009 86 10000 5.7 230 22:42 16.11.2019
4287 Clouds 5 1009 80 10000 6.2 220 22:20 16.11.2019
4288 Clouds 5 1009 80 10000 6.2 220 21:58 16.11.2019
4289 Clouds 5 1009 80 10000 6.2 220 21:40 16.11.2019
4290 Clouds 5 1008 86 10000 6.7 220 21:21 16.11.2019
4291 Clouds 5 1008 86 10000 6.7 220 20:57 16.11.2019
4292 Clouds 5 1008 86 10000 6.7 220 20:39 16.11.2019
4293 Clouds 5 1007 86 10000 6.2 230 20:19 16.11.2019
4294 Clouds 6 1007 86 10000 6.2 230 19:41 16.11.2019
4295 Drizzle 6 1006 86 10000 5.1 230 19:22 16.11.2019
4296 Drizzle 6 1006 86 10000 5.1 230 18:59 16.11.2019
4297 Drizzle 6 1006 86 10000 5.1 230 18:39 16.11.2019
4298 Rain 6 1006 93 9000 5.7 230 18:20 16.11.2019
4299 Rain 6 1006 93 9000 5.7 230 17:55 16.11.2019
4300 Rain 5 1006 93 9000 5.7 230 17:37 16.11.2019
4301 Rain 5 1005 93 5000 6.2 240 17:18 16.11.2019
4302 Rain 6 1005 100 3700 5.7 240 16:45 16.11.2019
4303 Rain 6 1005 93 3700 5.1 240 16:26 16.11.2019
4304 Rain 6 1004 93 3500 6.2 240 15:56 16.11.2019
4305 Rain 6 1004 93 3500 6.2 240 15:37 16.11.2019
4306 Rain 6 1004 93 3500 5.7 240 15:18 16.11.2019
4307 Rain 5 1004 93 3500 6.2 240 14:41 16.11.2019
4308 Rain 5 1004 93 3200 6.2 240 14:21 16.11.2019
4309 Rain 5 1004 93 3200 6.2 240 13:57 16.11.2019
4310 Rain 5 1004 93 3200 6.2 240 13:38 16.11.2019
4311 Rain 5 1003 93 3000 5.7 240 13:19 16.11.2019
4312 Rain 5 1003 93 3000 6.2 250 12:59 16.11.2019
4313 Rain 5 1003 93 3000 6.2 250 12:40 16.11.2019
4314 Rain 5 1003 100 3500 6.2 260 12:20 16.11.2019
4315 Rain 6 1003 93 2800 6.7 260 11:45 16.11.2019
4316 Rain 6 1003 93 2200 6.2 260 11:27 16.11.2019
4317 Rain 6 1003 93 2200 6.2 260 10:57 16.11.2019
4318 Rain 6 1003 93 2200 6.2 260 10:39 16.11.2019
4319 Rain 6 1003 93 1800 4.1 270 10:21 16.11.2019
4320 Rain 6 1003 93 1800 4.1 270 09:44 16.11.2019
4321 Rain 6 1003 93 2000 2.1 280 09:21 16.11.2019
4322 Rain 6 1003 93 2000 2.1 280 08:59 16.11.2019
4323 Rain 6 1003 93 2000 2.1 280 08:39 16.11.2019
4324 Rain 6 1003 93 2800 2.1 270 08:19 16.11.2019
4325 Rain 6 1003 93 2800 2.1 270 07:43 16.11.2019
4326 Mist 6 1003 93 3500 2.1 260 07:21 16.11.2019
4327 Mist 6 1003 93 3500 2.1 260 06:55 16.11.2019
4328 Mist 6 1003 93 3500 2.1 260 06:34 16.11.2019
4329 Mist 6 1003 93 3500 1 280 05:40 16.11.2019
4330 Mist 6 1004 93 4500 1 80 04:20 16.11.2019
4331 Mist 6 1004 93 4800 1.5 110 03:25 16.11.2019
4332 Mist 6 1004 93 5000 2.1 70 01:55 16.11.2019
4333 Mist 6 1005 93 5000 2.1 70 01:27 16.11.2019
4334 Mist 6 1005 93 5000 2.1 70 00:46 16.11.2019
4335 Clouds 6 1005 93 6000 2.1 90 00:27 16.11.2019
4336 Clouds 6 1005 93 6000 2.1 90 23:43 15.11.2019
4337 Mist 6 1005 93 5000 1.5 80 23:21 15.11.2019
4338 Mist 6 1005 93 5000 1.5 80 22:59 15.11.2019
4339 Mist 6 1005 93 5000 1.5 80 22:39 15.11.2019
4340 Mist 6 1005 93 5000 2.1 90 22:19 15.11.2019
4341 Mist 6 1005 93 5000 2.1 90 21:55 15.11.2019
4342 Mist 6 1005 93 5000 2.1 90 21:36 15.11.2019
4343 Mist 6 1005 93 5000 2.1 100 21:18 15.11.2019
4344 Mist 6 1005 93 5000 2.1 100 20:55 15.11.2019
4345 Mist 6 1005 93 5000 2.1 100 20:37 15.11.2019
4346 Mist 6 1005 93 5000 3.6 110 20:19 15.11.2019
4347 Mist 6 1005 93 5000 3.6 110 19:56 15.11.2019
4348 Mist 6 1005 93 5000 3.6 110 19:37 15.11.2019
4349 Mist 6 1004 93 5000 5.1 90 19:18 15.11.2019
4350 Mist 6 1004 93 5000 5.1 90 18:42 15.11.2019
4351 Mist 5 1005 93 5000 5.7 100 18:24 15.11.2019
4352 Mist 5 1005 93 5000 5.7 100 17:57 15.11.2019
4353 Mist 5 1005 93 5000 5.7 100 17:39 15.11.2019
4354 Mist 5 1005 93 5000 5.7 90 17:20 15.11.2019
4355 Mist 5 1005 93 5000 5.7 90 16:54 15.11.2019
4356 Mist 5 1005 93 5000 5.7 90 16:36 15.11.2019
4357 Mist 5 1005 86 5000 5.7 90 16:18 15.11.2019
4358 Mist 5 1005 86 5000 5.7 90 15:37 15.11.2019
4359 Mist 5 1005 86 5000 5.7 90 15:37 15.11.2019
4360 Mist 5 1005 86 5000 7.2 90 15:19 15.11.2019
4361 Mist 5 1005 86 5000 7.2 90 14:56 15.11.2019
4362 Mist 5 1005 86 5000 7.2 90 14:37 15.11.2019
4363 Mist 5 1005 93 5000 6.7 80 14:19 15.11.2019
4364 Mist 5 1005 93 5000 6.7 80 13:56 15.11.2019
4365 Mist 5 1005 93 5000 6.7 80 13:38 15.11.2019
4366 Clouds 5 1006 93 6000 7.2 90 13:20 15.11.2019
4367 Clouds 5 1006 93 6000 7.2 90 12:57 15.11.2019
4368 Clouds 5 1006 93 6000 7.2 90 12:38 15.11.2019
4369 Clouds 5 1005 86 7000 7.7 90 12:18 15.11.2019
4370 Clouds 5 1005 86 7000 7.7 90 11:55 15.11.2019
4371 Clouds 4 1005 86 7000 7.7 90 11:37 15.11.2019
4372 Drizzle 4 1005 93 3700 7.7 80 11:19 15.11.2019
4373 Drizzle 4 1005 93 3700 7.7 80 11:19 15.11.2019
4374 Drizzle 4 1006 93 3000 7.2 90 10:40 15.11.2019
4375 Drizzle 4 1006 93 3000 7.7 90 10:21 15.11.2019
4376 Clouds 4 1006 93 7000 8.7 90 09:58 15.11.2019
4377 Clouds 4 1006 93 7000 8.7 90 09:40 15.11.2019
4378 Clouds 3 1006 86 8000 7.2 80 09:19 15.11.2019
4379 Clouds 3 1006 86 8000 7.2 80 08:42 15.11.2019
4380 Clouds 3 1006 86 7000 6.7 100 08:22 15.11.2019
4381 Clouds 3 1006 86 7000 6.7 100 08:22 15.11.2019
4382 Clouds 4 1006 86 7000 6.7 100 07:47 15.11.2019
4383 Clouds 3 1007 86 9000 5.7 100 07:27 15.11.2019
4384 Clouds 4 1007 86 9000 5.7 100 06:38 15.11.2019
4385 Clouds 4 1007 86 9000 5.7 100 06:38 15.11.2019
4386 Clouds 3 1007 86 10000 7.7 90 05:59 15.11.2019
4387 Clouds 4 1007 86 10000 7.7 90 05:39 15.11.2019
4388 Clouds 4 1007 86 10000 7.7 90 05:39 15.11.2019
4389 Clouds 4 1007 86 10000 8.2 100 05:19 15.11.2019
4390 Clouds 5 1008 93 10000 5.7 80 03:48 15.11.2019
4391 Clouds 4 1008 93 10000 4.6 70 02:52 15.11.2019
4392 Clouds 4 1008 93 10000 4.1 90 02:18 15.11.2019
4393 Clouds 4 1008 93 10000 5.1 90 01:32 15.11.2019
4394 Clouds 4 1008 93 10000 5.1 90 00:49 15.11.2019
4395 Clouds 4 1009 93 10000 4.1 100 00:31 15.11.2019
4396 Clouds 4 1009 93 10000 4.1 100 23:50 14.11.2019
4397 Clouds 3 1009 77 10000 3.1 90 23:28 14.11.2019
4398 Clouds 3 1009 76 10000 3.1 90 22:58 14.11.2019
4399 Clouds 4 1009 76 10000 3.1 90 22:39 14.11.2019
4400 Clouds 5 1008 86 10000 3.1 110 22:21 14.11.2019
4401 Clouds 5 1008 86 10000 3.1 110 21:55 14.11.2019
4402 Clouds 5 1008 86 10000 3.1 110 21:37 14.11.2019
4403 Clouds 5 1008 86 10000 3.6 100 21:18 14.11.2019
4404 Clouds 5 1008 86 10000 4.1 100 20:42 14.11.2019
4405 Clouds 4 1008 93 10000 3.6 90 20:23 14.11.2019
4406 Clouds 4 1008 93 10000 3.6 90 19:59 14.11.2019
4407 Clouds 4 1008 93 10000 3.6 90 19:40 14.11.2019
4408 Clouds 5 1008 86 10000 3.1 100 19:18 14.11.2019
4409 Clouds 5 1008 86 10000 3.1 100 19:18 14.11.2019
4410 Clouds 5 1008 86 10000 3.1 100 19:18 14.11.2019
4411 Clouds 5 1008 86 10000 3.1 100 19:18 14.11.2019
4412 Clouds 5 1008 86 10000 3.1 100 18:56 14.11.2019
4413 Clouds 5 1007 80 10000 3.1 100 18:38 14.11.2019
4414 Clouds 5 1007 80 10000 3.1 100 18:19 14.11.2019
4415 Clouds 5 1007 80 10000 3.1 100 17:55 14.11.2019
4416 Clouds 6 1007 81 10000 3.6 110 17:36 14.11.2019
4417 Clouds 6 1007 81 10000 3.6 110 17:18 14.11.2019
4418 Clouds 6 1007 81 10000 3.6 110 16:55 14.11.2019
4419 Clouds 6 1007 81 10000 3.6 110 16:36 14.11.2019
4420 Clouds 6 1007 81 10000 3.1 110 16:18 14.11.2019
4421 Clouds 6 1007 81 10000 3.1 110 15:54 14.11.2019
4422 Clouds 6 1007 81 10000 3.1 110 15:36 14.11.2019
4423 Clouds 6 1006 81 10000 3.1 110 15:18 14.11.2019
4424 Clouds 6 1006 81 10000 3.1 110 14:41 14.11.2019
4425 Clouds 6 1006 81 10000 3.1 130 14:22 14.11.2019
4426 Clouds 6 1006 81 10000 3.1 130 13:55 14.11.2019
4427 Clouds 6 1006 81 10000 3.1 130 13:37 14.11.2019
4428 Clouds 5 1006 80 10000 3.6 130 13:18 14.11.2019
4429 Clouds 5 1006 80 10000 3.6 130 12:46 14.11.2019
4430 Clouds 5 1006 86 10000 3.6 160 12:26 14.11.2019
4431 Clouds 5 1006 86 10000 3.6 160 11:58 14.11.2019
4432 Clouds 5 1006 86 10000 3.6 160 11:38 14.11.2019
4433 Clouds 5 1006 86 10000 2.6 140 11:19 14.11.2019
4434 Clouds 4 1006 86 10000 3.1 150 10:57 14.11.2019
4435 Clouds 4 1006 86 10000 3.1 150 10:38 14.11.2019
4436 Clouds 4 1005 93 7000 3.1 150 10:19 14.11.2019
4437 Clouds 4 1005 93 7000 3.1 150 09:56 14.11.2019
4438 Mist 2 1004 93 1600 3.6 150 09:37 14.11.2019
4439 Mist 2 1004 93 1600 3.6 150 09:18 14.11.2019
4440 Mist 2 1004 93 1600 3.6 150 08:46 14.11.2019
4441 Mist 2 1004 93 1500 3.1 150 08:24 14.11.2019
4442 Fog 2 1003 93 50 2.6 140 07:43 14.11.2019
4443 Fog 2 1003 100 50 3.1 150 07:24 14.11.2019
4444 Mist 2 1003 100 2500 2.6 180 06:55 14.11.2019
4445 Mist 2 1003 100 2500 2.6 180 06:36 14.11.2019
4446 Mist 2 1002 100 2500 3.1 160 06:18 14.11.2019
4447 Fog 2 1002 100 1000 3.1 170 04:39 14.11.2019
4448 Clouds 4 1001 93 10000 3.1 200 03:52 14.11.2019
4449 Clouds 4 1001 93 10000 3.1 200 02:41 14.11.2019
4450 Clouds 4 1001 93 8000 3.1 200 01:41 14.11.2019
4451 Clouds 3 1001 93 10000 3.1 210 01:20 14.11.2019
4452 Clouds 3 1001 93 10000 3.1 210 00:43 14.11.2019
4453 Clouds 4 1000 93 10000 4.1 220 00:25 14.11.2019
4454 Clouds 4 1000 93 10000 4.1 220 23:40 13.11.2019
4455 Clouds 4 1000 93 10000 4.1 220 23:20 13.11.2019
4456 Clouds 4 1000 93 10000 4.1 220 22:56 13.11.2019
4457 Clouds 4 1000 93 10000 4.1 220 22:38 13.11.2019
4458 Clouds 4 1000 93 10000 4.1 220 22:37 13.11.2019
4459 Clouds 4 1000 93 10000 4.1 220 22:37 13.11.2019
4460 Clouds 6 1000 86 10000 4.6 220 22:19 13.11.2019
4461 Clouds 5 1000 86 10000 4.6 220 21:55 13.11.2019
4462 Clouds 5 1000 86 10000 4.6 220 21:37 13.11.2019
4463 Clouds 6 1000 86 10000 4.1 220 21:18 13.11.2019
4464 Clouds 6 999 93 10000 4.1 220 20:55 13.11.2019
4465 Clouds 6 999 93 10000 4.1 220 20:37 13.11.2019
4466 Clouds 6 999 87 10000 4.1 210 20:18 13.11.2019
4467 Clouds 6 999 87 10000 4.1 210 19:43 13.11.2019
4468 Clouds 6 998 87 8000 4.1 200 19:20 13.11.2019
4469 Clouds 6 998 87 8000 4.1 200 18:57 13.11.2019
4470 Clouds 6 998 87 8000 4.1 200 18:39 13.11.2019
4471 Clouds 6 998 87 8000 4.6 200 18:21 13.11.2019
4472 Clouds 6 998 87 8000 4.6 200 17:58 13.11.2019
4473 Clouds 7 998 87 8000 4.6 200 17:40 13.11.2019
4474 Clouds 7 997 81 10000 4.6 200 17:21 13.11.2019
4475 Clouds 7 997 81 10000 4.6 200 16:58 13.11.2019
4476 Clouds 8 997 81 10000 4.6 200 16:39 13.11.2019
4477 Clouds 8 997 81 10000 4.6 200 16:39 13.11.2019
4478 Clouds 8 997 81 10000 5.1 200 16:21 13.11.2019
4479 Clouds 8 997 81 10000 5.1 200 15:58 13.11.2019
4480 Clouds 8 997 81 10000 5.1 200 15:39 13.11.2019
4481 Clouds 7 997 87 10000 5.1 190 15:20 13.11.2019
4482 Clouds 8 997 87 10000 5.1 190 14:43 13.11.2019
4483 Clouds 8 997 87 10000 5.7 200 14:22 13.11.2019
4484 Clouds 8 997 87 10000 5.7 200 13:58 13.11.2019
4485 Clouds 7 996 81 10000 5.7 200 13:36 13.11.2019
4486 Clouds 7 996 81 10000 5.7 200 13:18 13.11.2019
4487 Clouds 7 996 81 10000 5.7 200 12:55 13.11.2019
4488 Clouds 7 996 81 10000 5.7 200 12:37 13.11.2019
4489 Clouds 6 996 80 10000 6.7 210 12:19 13.11.2019
4490 Clouds 6 996 80 10000 6.7 210 11:40 13.11.2019
4491 Clouds 6 997 80 10000 6.7 190 11:20 13.11.2019
4492 Clouds 6 997 80 10000 6.7 190 10:58 13.11.2019
4493 Clouds 5 997 80 10000 6.7 190 10:40 13.11.2019
4494 Clouds 5 997 80 10000 6.2 190 10:20 13.11.2019
4495 Clouds 5 997 80 10000 6.2 190 09:56 13.11.2019
4496 Clouds 5 997 80 10000 6.2 190 09:38 13.11.2019
4497 Clouds 4 997 86 10000 5.7 170 09:20 13.11.2019
4498 Clouds 4 997 86 10000 5.7 170 08:39 13.11.2019
4499 Clouds 4 997 86 10000 5.7 170 08:20 13.11.2019
4500 Clouds 4 997 86 10000 5.7 170 07:42 13.11.2019
4501 Clouds 3 997 86 10000 5.7 180 07:21 13.11.2019
4502 Clouds 3 997 86 10000 5.7 180 06:46 13.11.2019
4503 Clouds 3 997 86 10000 4.6 160 06:19 13.11.2019
4504 Clouds 3 997 86 10000 4.6 160 06:19 13.11.2019
4505 Clouds 3 997 86 10000 4.6 160 05:54 13.11.2019
4506 Clouds 3 997 86 10000 4.6 160 05:34 13.11.2019
4507 Clouds 3 997 83 10000 3.6 140 04:44 13.11.2019
4508 Clouds 3 999 86 10000 5.7 170 02:19 13.11.2019
4509 Clouds 4 999 86 10000 5.7 170 01:45 13.11.2019
4510 Clouds 3 999 93 9000 4.1 170 00:52 13.11.2019
4511 Clouds 4 999 93 9000 4.1 170 00:34 13.11.2019
4512 Clouds 3 999 93 10000 4.1 160 23:42 12.11.2019
4513 Clouds 3 1000 86 10000 3.1 150 23:22 12.11.2019
4514 Clouds 3 1000 86 10000 3.1 150 22:58 12.11.2019
4515 Clouds 4 1000 86 10000 3.1 150 22:40 12.11.2019
4516 Clouds 4 999 86 10000 3.1 160 22:18 12.11.2019
4517 Clouds 4 999 86 10000 3.1 160 21:44 12.11.2019
4518 Clouds 3 999 93 10000 3.1 180 21:25 12.11.2019
4519 Clouds 3 999 93 10000 3.1 180 20:58 12.11.2019
4520 Clouds 4 999 93 10000 3.1 180 20:38 12.11.2019
4521 Clouds 4 999 93 10000 3.1 180 20:19 12.11.2019
4522 Clouds 4 999 93 10000 3.1 180 19:58 12.11.2019
4523 Clouds 4 999 93 10000 3.1 180 19:40 12.11.2019
4524 Clouds 4 999 93 10000 4.1 170 19:20 12.11.2019
4525 Clouds 4 999 93 10000 4.1 170 18:59 12.11.2019
4526 Clouds 4 999 93 10000 4.1 170 18:41 12.11.2019
4527 Clouds 5 999 81 10000 4.6 170 18:23 12.11.2019
4528 Clouds 5 999 81 10000 4.6 170 17:58 12.11.2019
4529 Clouds 5 999 81 10000 4.6 170 17:40 12.11.2019
4530 Clouds 5 999 75 10000 2.1 170 17:21 12.11.2019
4531 Clouds 5 999 75 10000 2.1 170 16:59 12.11.2019
4532 Clouds 6 999 75 10000 2.1 170 16:40 12.11.2019
4533 Clouds 6 999 75 10000 4.6 210 16:22 12.11.2019
4534 Clouds 6 999 75 10000 4.6 210 15:42 12.11.2019
4535 Clouds 6 999 75 10000 4.1 190 15:23 12.11.2019
4536 Clouds 6 999 75 10000 4.1 190 14:57 12.11.2019
4537 Clouds 6 999 75 10000 4.1 190 14:39 12.11.2019
4538 Clouds 6 999 75 10000 5.1 200 14:19 12.11.2019
4539 Clouds 6 999 75 10000 5.1 200 13:57 12.11.2019
4540 Clouds 6 999 75 10000 5.1 200 13:39 12.11.2019
4541 Clouds 6 999 81 10000 5.7 210 13:19 12.11.2019
4542 Clouds 6 999 75 10000 6.2 210 12:55 12.11.2019
4543 Clouds 6 999 75 10000 6.2 210 12:37 12.11.2019
4544 Clouds 6 999 81 10000 6.2 200 12:18 12.11.2019
4545 Clouds 6 999 81 10000 6.2 200 11:42 12.11.2019
4546 Clouds 6 999 87 10000 6.7 210 11:22 12.11.2019
4547 Clouds 6 999 87 10000 6.7 210 10:57 12.11.2019
4548 Clouds 6 999 87 10000 6.7 210 10:39 12.11.2019
4549 Rain 5 999 93 8000 6.7 210 10:21 12.11.2019
4550 Rain 5 999 93 6000 7.2 220 09:57 12.11.2019
4551 Rain 5 999 93 6000 7.2 220 09:38 12.11.2019
4552 Rain 5 999 93 6000 5.7 210 09:18 12.11.2019
4553 Rain 4 999 93 6000 5.7 210 08:47 12.11.2019
4554 Clouds 5 998 81 10000 7.2 210 08:28 12.11.2019
4555 Clouds 6 998 81 10000 7.2 210 07:42 12.11.2019
4556 -273 0 0 0 0 0 07:24 12.11.2019
4557 Clouds 5 998 86 10000 5.7 200 06:51 12.11.2019
4558 Clouds 6 998 81 10000 6.2 210 06:24 12.11.2019
4559 Clouds 6 998 81 10000 6.2 210 05:52 12.11.2019
4560 Clouds 6 998 81 10000 6.2 200 04:51 12.11.2019
4561 Clouds 5 998 86 10000 6.2 210 04:20 12.11.2019
4562 Clouds 6 999 86 10000 6.7 200 01:53 12.11.2019
4563 Clouds 6 999 80 10000 6.7 190 01:26 12.11.2019
4564 Clouds 6 999 80 10000 6.7 190 00:53 12.11.2019
4565 Clouds 6 999 80 10000 6.7 180 00:32 12.11.2019
4566 Clouds 5 999 80 10000 6.7 180 23:55 11.11.2019
4567 Clouds 5 999 80 10000 6.7 180 23:36 11.11.2019
4568 Rain 5 999 80 9000 7.2 180 23:18 11.11.2019
4569 Rain 5 999 80 9000 7.2 180 22:38 11.11.2019
4570 Rain 5 999 75 9000 5.7 180 22:20 11.11.2019
4571 Clouds 5 999 75 10000 6.7 170 21:58 11.11.2019
4572 Clouds 5 999 75 10000 6.7 170 21:39 11.11.2019
4573 Clouds 5 1000 80 10000 7.2 170 21:20 11.11.2019
4574 Clouds 5 1000 80 10000 7.2 170 21:20 11.11.2019
4575 Clouds 5 1000 80 10000 7.2 170 21:20 11.11.2019
4576 Clouds 5 1000 80 10000 7.2 170 20:56 11.11.2019
4577 Clouds 5 1000 80 10000 7.2 170 20:37 11.11.2019
4578 Clouds 5 1000 80 10000 6.2 160 20:19 11.11.2019
4579 Clouds 5 1000 80 10000 6.2 160 19:42 11.11.2019
4580 Clouds 5 1001 80 10000 4.6 150 19:20 11.11.2019
4581 -273 0 0 0 0 0 18:59 11.11.2019
4582 Clouds 5 1001 80 10000 4.6 150 18:40 11.11.2019
4583 Clouds 5 1001 80 10000 6.2 160 18:21 11.11.2019
4584 Clouds 6 1001 80 10000 6.2 160 17:45 11.11.2019
4585 Clouds 6 1002 80 10000 6.7 160 17:27 11.11.2019
4586 Clouds 6 1002 80 10000 6.7 160 17:27 11.11.2019
4587 Clouds 6 1002 80 10000 6.7 160 16:58 11.11.2019
4588 Clouds 6 1002 80 10000 6.7 160 16:38 11.11.2019
4589 Clouds 6 1002 80 10000 6.7 160 16:20 11.11.2019
4590 Clouds 5 1002 80 10000 6.7 160 15:42 11.11.2019
4591 Clouds 5 1004 80 10000 5.7 170 15:20 11.11.2019
4592 Clouds 5 1004 80 10000 5.7 170 14:57 11.11.2019
4593 Clouds 5 1004 80 10000 5.7 170 14:39 11.11.2019
4594 Clouds 5 1004 80 10000 5.1 170 14:21 11.11.2019
4595 Clouds 5 1004 80 10000 5.1 170 13:57 11.11.2019
4596 Clouds 5 1004 80 10000 5.1 170 13:37 11.11.2019
4597 Clouds 5 1005 80 10000 5.7 180 13:19 11.11.2019
4598 Clouds 5 1005 80 10000 5.7 180 12:56 11.11.2019
4599 Clouds 4 1005 80 10000 5.7 180 12:38 11.11.2019
4600 Clouds 4 1006 80 10000 5.7 170 12:19 11.11.2019
4601 Clouds 3 1006 80 10000 5.7 170 11:41 11.11.2019
4602 Clouds 3 1007 84 10000 5.1 190 11:21 11.11.2019
4603 Clouds 3 1007 84 10000 5.1 190 10:55 11.11.2019
4604 Clouds 2 1007 84 10000 5.1 190 10:37 11.11.2019
4605 Clouds 2 1007 84 7000 5.7 180 10:18 11.11.2019
4606 Clouds 2 1007 84 7000 5.7 180 09:42 11.11.2019
4607 Mist 2 1008 84 4000 5.7 180 09:21 11.11.2019
4608 Mist 2 1008 84 4000 5.7 180 08:43 11.11.2019
4609 Mist 2 1008 84 5000 4.1 180 08:23 11.11.2019
4610 Mist 2 1008 77 5000 4.1 180 07:58 11.11.2019
4611 Mist 2 1008 77 5000 4.1 180 07:39 11.11.2019
4612 Clouds 2 1009 77 10000 4.6 170 07:20 11.11.2019
4613 Clouds 2 1009 77 10000 4.6 170 06:56 11.11.2019
4614 Clouds 3 1009 77 10000 4.6 170 06:38 11.11.2019
4615 Clouds 3 1010 86 10000 3.1 190 06:20 11.11.2019
4616 Clouds 3 1010 86 10000 3.1 190 05:48 11.11.2019
4617 Clouds 4 1011 86 10000 4.1 220 03:34 11.11.2019
4618 Clouds 5 1011 86 10000 4.1 220 02:49 11.11.2019
4619 Clouds 5 1012 80 10000 4.1 230 02:18 11.11.2019
4620 Clouds 5 1012 80 10000 4.1 230 01:37 11.11.2019
4621 Clouds 5 1012 81 10000 4.1 220 00:58 11.11.2019
4622 Clouds 5 1012 81 10000 4.1 220 00:40 11.11.2019
4623 Clouds 5 1012 81 10000 4.6 230 23:58 10.11.2019
4624 Clouds 5 1012 81 10000 4.6 230 23:38 10.11.2019
4625 Clouds 5 1012 81 10000 4.6 230 23:38 10.11.2019
4626 Clouds 5 1013 81 10000 4.6 220 23:19 10.11.2019
4627 Clouds 5 1013 81 10000 4.6 220 23:19 10.11.2019
4628 Clouds 5 1013 81 10000 4.6 220 22:56 10.11.2019
4629 Clouds 5 1013 81 10000 4.6 220 22:38 10.11.2019
4630 Clouds 5 1013 81 10000 4.6 230 22:20 10.11.2019
4631 Clouds 5 1013 81 10000 4.6 230 21:56 10.11.2019
4632 Clouds 6 1013 81 10000 4.6 230 21:38 10.11.2019
4633 Clouds 6 1013 81 10000 5.1 220 21:20 10.11.2019
4634 Clouds 6 1013 81 10000 5.1 220 21:20 10.11.2019
4635 Clouds 6 1013 81 10000 5.1 220 20:42 10.11.2019
4636 Clouds 7 1013 81 10000 4.1 220 20:22 10.11.2019
4637 Clouds 7 1013 81 10000 4.1 220 19:56 10.11.2019
4638 Clouds 7 1013 81 10000 4.1 220 19:38 10.11.2019
4639 Clouds 7 1013 81 10000 4.1 220 19:38 10.11.2019
4640 Clouds 7 1013 81 10000 3.6 210 19:19 10.11.2019
4641 Clouds 7 1013 81 10000 3.6 210 18:58 10.11.2019
4642 Clouds 7 1013 81 10000 3.6 210 18:58 10.11.2019
4643 Clouds 7 1013 81 10000 3.6 210 18:58 10.11.2019
4644 Clouds 7 1013 81 10000 3.6 210 18:40 10.11.2019
4645 Clouds 7 1013 81 10000 3.6 210 18:40 10.11.2019
4646 Clouds 7 1012 81 10000 3.6 210 18:20 10.11.2019
4647 Clouds 7 1012 81 10000 3.6 210 17:57 10.11.2019
4648 Clouds 8 1012 81 10000 3.6 210 17:39 10.11.2019
4649 Clouds 7 1012 87 10000 3.1 200 17:20 10.11.2019
4650 Clouds 7 1012 87 10000 3.1 200 16:58 10.11.2019
4651 Clouds 7 1012 87 10000 3.1 200 16:40 10.11.2019
4652 Clouds 8 1012 75 10000 3.6 210 16:21 10.11.2019
4653 Clouds 8 1012 75 10000 3.6 210 15:56 10.11.2019
4654 Clouds 8 1012 75 10000 3.6 210 15:37 10.11.2019
4655 Clouds 8 1012 81 10000 3.6 210 15:18 10.11.2019
4656 Clouds 8 1012 81 10000 3.6 210 14:55 10.11.2019
4657 Clouds 8 1012 81 10000 3.6 210 14:36 10.11.2019
4658 Clouds 8 1012 70 10000 4.1 210 14:18 10.11.2019
4659 Clouds 8 1012 70 10000 4.1 210 13:42 10.11.2019
4660 Clouds 7 1012 75 10000 4.1 210 13:21 10.11.2019
4661 Clouds 7 1012 75 10000 4.1 210 12:55 10.11.2019
4662 Clouds 6 1012 75 10000 4.1 210 12:37 10.11.2019
4663 Clouds 6 1012 81 10000 3.1 200 12:18 10.11.2019
4664 Clouds 6 1012 81 10000 3.1 200 11:54 10.11.2019
4665 Clouds 6 1012 81 10000 3.1 200 11:36 10.11.2019
4666 Clouds 5 1012 86 10000 3.1 210 11:18 10.11.2019
4667 Clouds 5 1012 86 10000 3.1 210 10:42 10.11.2019
4668 Clouds 5 1011 86 10000 2.6 180 10:20 10.11.2019
4669 Clouds 5 1011 86 10000 2.6 180 09:55 10.11.2019
4670 Clouds 5 1011 86 10000 2.6 180 09:37 10.11.2019
4671 Clouds 4 1010 93 10000 3.1 170 09:18 10.11.2019
4672 Clouds 4 1010 93 10000 3.1 170 08:39 10.11.2019
4673 Clouds 4 1009 93 10000 3.6 170 08:19 10.11.2019
4674 Clouds 4 1009 93 10000 3.6 170 08:19 10.11.2019
4675 Clouds 4 1009 93 10000 3.6 170 07:44 10.11.2019
4676 Clouds 4 1009 93 10000 3.6 190 07:25 10.11.2019
4677 Clouds 5 1009 93 10000 3.6 190 06:38 10.11.2019
4678 Clouds 5 1009 93 10000 3.6 190 06:38 10.11.2019
4679 Clouds 5 1008 86 10000 3.6 180 05:44 10.11.2019
4680 Clouds 6 1007 86 10000 3.1 190 03:26 10.11.2019
4681 Clouds 6 1007 93 10000 2.6 170 02:18 10.11.2019
4682 Clouds 6 1007 93 10000 3.1 180 01:19 10.11.2019
4683 Clouds 6 1007 93 10000 3.1 180 00:45 10.11.2019
4684 Clouds 6 1006 86 10000 3.6 200 23:59 09.11.2019
4685 Clouds 6 1006 86 10000 3.6 200 23:38 09.11.2019
4686 Clouds 6 1006 93 8000 3.1 170 23:19 09.11.2019
4687 Clouds 6 1006 93 8000 3.1 170 22:42 09.11.2019
4688 Clouds 6 1006 93 8000 3.1 170 22:42 09.11.2019
4689 Clouds 6 1006 87 7000 3.6 170 22:21 09.11.2019
4690 Clouds 6 1006 87 7000 3.6 170 21:58 09.11.2019
4691 Clouds 6 1006 87 7000 3.6 170 21:39 09.11.2019
4692 Clouds 6 1006 87 7000 3.6 170 21:39 09.11.2019
4693 Rain 6 1006 87 4000 3.6 160 21:20 09.11.2019
4694 Rain 6 1006 87 4000 3.6 160 20:44 09.11.2019
4695 Mist 6 1006 93 4000 3.6 170 20:24 09.11.2019
4696 Mist 6 1006 93 4000 3.6 170 19:59 09.11.2019
4697 Mist 6 1006 93 4000 3.6 170 19:40 09.11.2019
4698 Mist 6 1006 93 4500 2.6 160 19:22 09.11.2019
4699 Mist 6 1006 93 4500 2.6 160 18:57 09.11.2019
4700 Mist 6 1006 93 4500 2.6 160 18:38 09.11.2019
4701 Mist 6 1006 93 4500 3.6 170 18:18 09.11.2019
4702 Mist 6 1006 93 4500 3.6 170 17:43 09.11.2019
4703 Mist 6 1006 87 4500 3.1 190 17:23 09.11.2019
4704 Mist 6 1006 87 4500 3.1 190 16:57 09.11.2019
4705 Mist 6 1006 87 4500 3.1 190 16:39 09.11.2019
4706 Clouds 6 1006 87 7000 3.6 200 16:19 09.11.2019
4707 Clouds 6 1006 87 6000 3.6 210 15:42 09.11.2019
4708 Mist 6 1006 93 5000 2.1 150 15:24 09.11.2019
4709 Mist 6 1006 87 5000 2.1 150 14:57 09.11.2019
4710 Mist 7 1006 87 5000 2.1 150 14:39 09.11.2019
4711 Mist 6 1006 100 3800 2.1 170 14:18 09.11.2019
4712 Mist 6 1006 100 3800 2.1 170 13:55 09.11.2019
4713 Mist 6 1006 100 3800 2.1 170 13:36 09.11.2019
4714 Mist 5 1006 100 1000 1.5 170 13:18 09.11.2019
4715 Mist 5 1006 100 1000 1.5 0 12:42 09.11.2019
4716 Fog 4 1006 100 800 2.1 190 12:23 09.11.2019
4717 Fog 4 1006 100 50 2.1 180 11:56 09.11.2019
4718 Fog 4 1006 100 50 2.1 180 11:38 09.11.2019
4719 Fog 3 1007 93 200 1 130 11:18 09.11.2019
4720 Fog 3 1007 93 200 1 130 10:41 09.11.2019
4721 Fog 1 1007 100 300 1 0 10:19 09.11.2019
4722 Fog 1 1007 100 300 1 0 09:56 09.11.2019
4723 Fog 1 1007 100 300 1 0 09:38 09.11.2019
4724 Fog 1 1007 76 200 0.5 190 09:18 09.11.2019
4725 Fog 1 1007 76 200 0.5 190 08:43 09.11.2019
4726 Fog 2 1007 93 50 1.5 260 08:24 09.11.2019
4727 Fog 2 1007 93 50 1.5 260 07:47 09.11.2019
4728 Fog 1 1007 100 200 1 0 07:24 09.11.2019
4729 Fog 1 1007 100 200 1 0 06:51 09.11.2019
4730 Fog 2 1007 100 300 1 250 06:32 09.11.2019
4731 Fog 2 1007 93 800 0.5 170 05:53 09.11.2019
4732 Fog 2 1007 93 800 0.5 170 05:34 09.11.2019
4733 Fog 2 1007 100 800 0.5 180 03:57 09.11.2019
4734 Fog 2 1007 100 800 0.5 180 03:57 09.11.2019
4735 Fog 3 1007 93 800 0.5 200 02:45 09.11.2019
4736 Fog 3 1007 100 800 1 150 01:57 09.11.2019
4737 Fog 3 1008 100 500 1 140 00:57 09.11.2019
4738 Fog 3 1008 100 500 1 140 00:39 09.11.2019
4739 Fog 3 1008 93 500 1 140 00:20 09.11.2019
4740 Fog 2 1008 93 500 1 140 23:40 08.11.2019
4741 Fog 3 1008 93 500 4.41 199 23:20 08.11.2019
4742 Fog 3 1008 93 10000 0.5 150 22:49 08.11.2019
4743 Fog 3 1008 93 10000 1 120 22:22 08.11.2019
4744 Fog 3 1008 93 10000 1 120 21:58 08.11.2019
4745 Fog 4 1008 93 10000 1 120 21:40 08.11.2019
4746 Fog 5 1008 93 10000 1.5 150 21:22 08.11.2019
4747 Fog 5 1008 93 10000 1.5 150 20:54 08.11.2019
4748 Fog 5 1008 93 10000 1.5 150 20:36 08.11.2019
4749 Fog 5 1008 93 10000 1.5 150 20:36 08.11.2019
4750 Clouds 5 1008 93 10000 0.5 150 20:18 08.11.2019
4751 Clouds 4 1008 93 10000 0.5 150 19:39 08.11.2019
4752 Clouds 5 1008 87 10000 1.5 140 19:19 08.11.2019
4753 Clouds 5 1008 87 10000 1.5 140 19:19 08.11.2019
4754 Clouds 5 1008 87 10000 1.5 140 18:56 08.11.2019
4755 Clouds 5 1008 87 10000 1.5 140 18:56 08.11.2019
4756 Clouds 5 1008 87 10000 1.5 140 18:38 08.11.2019
4757 Clouds 5 1008 87 10000 1.5 140 18:38 08.11.2019
4758 Clouds 5 1007 93 10000 2.1 140 18:20 08.11.2019
4759 Clouds 5 1007 93 10000 2.1 140 17:56 08.11.2019
4760 Clouds 7 1007 93 10000 2.1 140 17:38 08.11.2019
4761 Clouds 8 1007 81 10000 1.5 130 17:20 08.11.2019
4762 Clouds 8 1007 81 10000 1.5 130 16:58 08.11.2019
4763 Clouds 8 1007 81 10000 1.5 130 16:58 08.11.2019
4764 Clouds 10 1007 81 10000 1.5 130 16:39 08.11.2019
4765 Clouds 10 1007 81 10000 1.5 130 16:39 08.11.2019
4766 Clouds 10 1007 81 10000 1.5 130 16:39 08.11.2019
4767 Clouds 10 1006 70 10000 2.1 150 16:20 08.11.2019
4768 Clouds 10 1006 70 10000 2.1 150 15:59 08.11.2019
4769 Clouds 10 1006 70 10000 2.1 150 15:40 08.11.2019
4770 Clouds 10 1006 76 10000 2.6 150 15:22 08.11.2019
4771 Clouds 10 1006 76 10000 2.6 150 14:56 08.11.2019
4772 Clouds 11 1006 76 10000 2.6 150 14:37 08.11.2019
4773 Clouds 11 1006 66 10000 2.1 190 14:19 08.11.2019
4774 Clouds 11 1006 66 10000 2.1 190 13:58 08.11.2019
4775 Clouds 10 1006 66 10000 2.1 190 13:39 08.11.2019
4776 Clouds 9 1006 70 10000 2.6 220 13:19 08.11.2019
4777 Clouds 9 1006 70 10000 2.6 220 12:44 08.11.2019
4778 Clouds 8 1007 75 10000 4.1 220 12:26 08.11.2019
4779 Clouds 8 1007 75 10000 4.1 220 12:26 08.11.2019
4780 Clouds 8 1007 75 10000 4.1 220 11:57 08.11.2019
4781 Clouds 8 1007 75 10000 4.1 220 11:39 08.11.2019
4782 Clouds 6 1006 81 10000 3.1 210 11:20 08.11.2019
4783 Clouds 6 1006 81 10000 3.1 210 10:57 08.11.2019
4784 Clouds 6 1006 81 10000 3.1 210 10:39 08.11.2019
4785 Clouds 5 1006 86 10000 3.1 220 10:21 08.11.2019
4786 Clouds 5 1006 86 10000 3.1 220 09:55 08.11.2019
4787 Clouds 5 1006 86 10000 3.1 220 09:36 08.11.2019
4788 Clouds 4 1005 86 10000 3.1 200 09:18 08.11.2019
4789 Clouds 4 1005 86 10000 3.1 200 08:41 08.11.2019
4790 Clear 4 1005 93 10000 3.1 210 08:19 08.11.2019
4791 Clear 4 1005 93 10000 3.1 210 07:43 08.11.2019
4792 Clear 4 1004 93 10000 4.1 200 07:23 08.11.2019
4793 Clear 4 1004 93 10000 4.1 200 06:56 08.11.2019
4794 Clear 4 1004 93 10000 4.1 200 06:36 08.11.2019
4795 Clouds 4 1004 93 10000 3.1 190 06:18 08.11.2019
4796 Clouds 5 1003 86 10000 3.6 190 05:25 08.11.2019
4797 Clouds 5 1003 93 10000 3.6 200 04:19 08.11.2019
4798 Clouds 5 1003 93 10000 3.6 200 03:42 08.11.2019
4799 Clouds 6 1002 87 10000 4.1 220 02:55 08.11.2019
4800 Clouds 6 1001 93 10000 5.1 220 01:53 08.11.2019
4801 Clouds 6 1001 93 10000 5.1 220 01:33 08.11.2019
4802 Clouds 7 1001 93 10000 5.7 220 00:45 08.11.2019
4803 Clouds 8 1000 87 10000 5.1 220 00:21 08.11.2019
4804 Clouds 8 1000 87 10000 5.1 220 23:48 07.11.2019
4805 Clouds 8 1000 93 10000 3.6 200 23:27 07.11.2019
4806 Clouds 8 1000 93 10000 3.6 200 22:58 07.11.2019
4807 Clouds 8 1000 93 10000 3.6 200 22:40 07.11.2019
4808 Rain 7 999 100 8000 3.6 170 22:20 07.11.2019
4809 Drizzle 7 999 93 4000 3.1 140 21:39 07.11.2019
4810 Drizzle 7 999 93 3500 4.1 130 21:21 07.11.2019
4811 Rain 7 999 100 3500 3.6 110 20:59 07.11.2019
4812 Rain 7 999 100 3500 3.6 110 20:41 07.11.2019
4813 Rain 7 999 100 3500 3.6 110 20:40 07.11.2019
4814 Rain 7 999 93 3500 4.1 120 20:22 07.11.2019
4815 Rain 7 999 93 3500 4.1 120 19:58 07.11.2019
4816 Rain 6 999 93 3500 4.1 120 19:39 07.11.2019
4817 Rain 6 999 93 3500 4.1 110 19:21 07.11.2019
4818 Rain 6 999 93 4000 5.1 110 18:58 07.11.2019
4819 Rain 6 999 93 4000 5.1 110 18:39 07.11.2019
4820 Mist 6 999 87 5000 4.6 110 18:19 07.11.2019
4821 Rain 7 994 88 0 10.64 118 17:57 07.11.2019
4822 Clouds 7 999 87 6000 5.1 100 17:38 07.11.2019
4823 Clouds 7 999 87 6000 5.1 100 17:20 07.11.2019
4824 Clouds 7 999 87 6000 5.1 100 16:55 07.11.2019
4825 Clouds 7 999 87 6000 5.1 110 16:37 07.11.2019
4826 Clouds 7 999 87 6000 5.1 110 16:19 07.11.2019
4827 Clouds 7 999 87 6000 5.1 110 15:54 07.11.2019
4828 Mist 7 999 87 4000 5.7 120 15:36 07.11.2019
4829 Mist 7 999 87 4000 5.7 120 15:18 07.11.2019
4830 Mist 7 1000 93 3000 4.6 130 14:41 07.11.2019
4831 Mist 7 1000 93 3000 4.6 130 14:23 07.11.2019
4832 Mist 7 1000 93 3000 4.6 130 13:56 07.11.2019
4833 Mist 6 1000 100 3000 4.1 110 13:37 07.11.2019
4834 Mist 6 1000 100 3000 4.1 110 13:19 07.11.2019
4835 Mist 6 1000 100 3000 4.1 110 12:57 07.11.2019
4836 Mist 5 1000 100 3700 3.6 100 12:39 07.11.2019
4837 Mist 5 1000 100 3700 3.6 100 12:19 07.11.2019
4838 Fog 1 1001 100 900 2.6 120 11:43 07.11.2019
4839 Fog 1 1001 100 900 2.6 120 11:23 07.11.2019
4840 -273 0 0 0 0 0 10:56 07.11.2019
4841 Fog 1 1001 100 900 2.6 120 10:55 07.11.2019
4842 Fog 0 1001 77 200 2.6 100 10:37 07.11.2019
4843 Fog 4 1001 77 200 2.6 100 10:18 07.11.2019
4844 Fog 2 1001 77 300 2.1 110 09:42 07.11.2019
4845 Fog 2 1001 77 300 2.1 110 09:21 07.11.2019
4846 -273 0 0 0 0 0 08:48 07.11.2019
4847 -273 0 0 0 0 0 08:45 07.11.2019
4848 Fog 2 1001 100 200 1 110 08:44 07.11.2019
4849 Fog 2 1001 100 200 1 110 08:44 07.11.2019
4850 Fog 2 1001 100 200 1 110 08:23 07.11.2019
4851 Fog 2 1001 100 200 1 110 08:23 07.11.2019
4852 Fog 1 1001 100 200 1 110 07:57 07.11.2019
4853 Fog 2 1001 100 300 1.5 100 07:39 07.11.2019
4854 Fog 2 1001 100 300 1.5 100 07:20 07.11.2019
4855 Fog 2 1001 100 700 1.5 140 06:46 07.11.2019
4856 Fog 2 1001 100 700 1.5 140 06:46 07.11.2019
4857 Fog 2 1001 76 1200 1 140 06:25 07.11.2019
4858 Fog 2 1001 76 500 1 90 05:50 07.11.2019
4859 Fog 3 1001 100 10000 2.1 200 05:32 07.11.2019
4860 Fog 3 1001 100 10000 2.1 200 04:52 07.11.2019
4861 Fog 3 1001 100 10000 2.1 200 04:52 07.11.2019
4862 Fog 3 1001 100 10000 2.1 200 04:52 07.11.2019
4863 Fog 2 1001 100 10000 1 220 04:29 07.11.2019
4864 -273 0 0 0 0 0 01:29 07.11.2019
4865 -273 0 0 0 0 0 01:29 07.11.2019
4866 Clouds 5 1002 93 10000 1.5 200 00:32 07.11.2019
4867 Clouds 5 1002 93 10000 1.5 200 23:59 06.11.2019
4868 Clouds 5 1002 93 10000 0.5 250 23:40 06.11.2019
4869 Clouds 5 1002 93 10000 0.5 250 23:20 06.11.2019
4870 Clouds 6 1002 100 10000 0.5 150 22:41 06.11.2019
4871 Clouds 6 1002 100 10000 0.5 150 22:21 06.11.2019
4872 Clouds 6 1002 100 10000 0.5 150 21:58 06.11.2019
4873 Clouds 6 1001 100 10000 1 0 21:39 06.11.2019
4874 Clouds 6 1001 100 10000 1 0 21:20 06.11.2019
4875 Clouds 6 1001 100 10000 1 0 21:20 06.11.2019
4876 Clouds 6 1001 93 10000 0.5 290 20:58 06.11.2019
4877 Clouds 6 1001 93 10000 0.5 360 20:39 06.11.2019
4878 Clouds 6 1001 93 10000 0.5 360 20:39 06.11.2019
4879 Clouds 6 1001 93 10000 0.5 360 20:20 06.11.2019
4880 Clouds 6 1001 93 10000 0.5 360 19:58 06.11.2019
4881 Clouds 6 1001 100 10000 0.5 230 19:38 06.11.2019
4882 Clouds 6 1001 100 10000 0.5 230 19:19 06.11.2019
4883 Clouds 6 1001 100 10000 0.5 230 18:57 06.11.2019
4884 Clouds 7 1001 93 10000 1 260 18:38 06.11.2019
4885 Clouds 7 1001 93 10000 1 260 18:18 06.11.2019
4886 Clouds 7 1001 93 10000 1 260 17:54 06.11.2019
4887 Clouds 8 1001 93 10000 1 260 17:36 06.11.2019
4888 Rain 8 1001 87 10000 1.5 280 17:18 06.11.2019
4889 Rain 8 1001 87 10000 1.5 280 16:54 06.11.2019
4890 Rain 8 1001 87 10000 1.5 280 16:36 06.11.2019
4891 Rain 8 1001 87 10000 1.5 280 16:36 06.11.2019
4892 Rain 8 1001 75 10000 2.1 260 16:18 06.11.2019
4893 Rain 8 1001 75 10000 2.1 260 15:54 06.11.2019
4894 Rain 9 1001 75 10000 2.1 260 15:36 06.11.2019
4895 Clouds 9 1000 75 10000 1.5 290 15:18 06.11.2019
4896 Clouds 9 1000 75 10000 1.5 290 14:54 06.11.2019
4897 Clouds 9 1000 75 10000 1.5 290 14:36 06.11.2019
4898 Clouds 8 1000 75 10000 2.1 300 14:18 06.11.2019
4899 Clouds 9 1000 75 10000 2.1 300 13:38 06.11.2019
4900 Clouds 8 1000 75 10000 2.1 300 13:20 06.11.2019
4901 Clouds 8 1000 75 10000 2.1 300 12:56 06.11.2019
4902 Clouds 9 1000 75 10000 2.1 300 12:38 06.11.2019
4903 Clouds 9 1000 81 10000 1 0 12:19 06.11.2019
4904 Clouds 9 1000 81 10000 1 0 11:58 06.11.2019
4905 Clouds 7 1000 81 10000 1 0 11:37 06.11.2019
4906 Clouds 7 1000 87 10000 0.5 0 11:18 06.11.2019
4907 Clouds 7 1000 87 10000 0.5 0 10:56 06.11.2019
4908 Clouds 8 1000 87 10000 0.5 0 10:37 06.11.2019
4909 Clouds 8 1000 93 8000 5.52 359 10:19 06.11.2019
4910 Clouds 7 1000 100 7000 1 320 09:43 06.11.2019
4911 Clouds 7 1000 100 7000 1 320 09:43 06.11.2019
4912 Clouds 7 1000 93 8000 0.5 280 09:21 06.11.2019
4913 Clouds 7 1000 93 8000 0.5 280 08:57 06.11.2019
4914 Clouds 7 1000 93 8000 0.5 280 08:38 06.11.2019
4915 Clouds 7 999 93 8000 0.5 20 08:19 06.11.2019
4916 Clouds 7 999 93 6000 1.5 360 07:55 06.11.2019
4917 Clouds 7 999 93 6000 1.5 360 07:36 06.11.2019
4918 Clouds 7 999 93 6000 1.5 360 07:36 06.11.2019
4919 Clouds 7 999 93 7000 1.5 30 07:18 06.11.2019
4920 Clouds 8 999 93 7000 1.5 30 06:40 06.11.2019
4921 Clouds 7 999 93 6000 2.1 20 06:22 06.11.2019
4922 Drizzle 7 998 100 7000 2.1 30 03:58 06.11.2019
4923 Drizzle 7 998 93 7000 3.6 30 02:19 06.11.2019
4924 Drizzle 7 998 93 6000 3.1 40 01:31 06.11.2019
4925 Drizzle 7 998 93 6000 3.1 40 00:35 06.11.2019
4926 Rain 7 998 93 7000 3.6 40 23:57 05.11.2019
4927 Rain 7 998 93 7000 3.6 40 23:37 05.11.2019
4928 Rain 7 998 100 7000 4.1 50 23:19 05.11.2019
4929 Rain 7 998 100 7000 4.1 50 22:43 05.11.2019
4930 Rain 7 998 100 7000 4.1 50 22:43 05.11.2019
4931 Rain 7 998 100 7000 4.1 50 22:43 05.11.2019
4932 Rain 8 997 93 7000 3.6 50 22:19 05.11.2019
4933 Rain 8 997 93 7000 3.6 50 21:58 05.11.2019
4934 Rain 8 997 93 7000 3.6 50 21:40 05.11.2019
4935 Rain 8 997 93 8000 3.6 60 21:20 05.11.2019
4936 Drizzle 8 997 93 8000 3.6 50 20:57 05.11.2019
4937 Drizzle 8 997 93 8000 3.6 50 20:38 05.11.2019
4938 Drizzle 8 997 93 7000 3.1 30 20:20 05.11.2019
4939 Drizzle 8 997 93 7000 3.1 30 19:55 05.11.2019
4940 Drizzle 8 997 93 7000 3.1 30 19:37 05.11.2019
4941 Rain 8 997 93 10000 4.1 60 19:19 05.11.2019
4942 Rain 8 997 93 10000 4.1 60 18:56 05.11.2019
4943 Rain 8 997 93 10000 4.1 60 18:38 05.11.2019
4944 Rain 8 996 100 10000 3.1 70 18:19 05.11.2019
4945 Rain 8 996 100 10000 3.1 70 17:56 05.11.2019
4946 Rain 8 996 100 10000 3.1 70 17:37 05.11.2019
4947 Rain 9 996 93 10000 3.6 70 17:18 05.11.2019
4948 Rain 9 996 93 10000 3.6 70 16:41 05.11.2019
4949 Rain 9 995 93 9000 3.6 70 16:21 05.11.2019
4950 Rain 9 995 93 9000 3.6 70 15:59 05.11.2019
4951 Rain 9 995 93 9000 3.6 70 15:37 05.11.2019
4952 Rain 9 995 100 6000 3.6 60 15:18 05.11.2019
4953 Rain 9 995 100 3200 2.6 80 14:55 05.11.2019
4954 Rain 9 995 100 3200 2.6 80 14:36 05.11.2019
4955 Mist 10 995 93 3700 2.1 80 14:18 05.11.2019
4956 Mist 9 995 100 3200 2.1 90 13:43 05.11.2019
4957 Mist 9 995 100 3000 2.6 80 13:24 05.11.2019
4958 Mist 9 995 100 1200 2.6 70 12:42 05.11.2019
4959 Mist 9 995 100 2800 2.1 60 12:23 05.11.2019
4960 Mist 9 994 100 3500 1 110 11:59 05.11.2019
4961 Mist 9 994 100 3500 1 110 11:40 05.11.2019
4962 Mist 9 994 93 3000 1 90 11:21 05.11.2019
4963 Mist 9 994 93 2500 2.1 60 10:59 05.11.2019
4964 Mist 9 994 93 2500 2.1 60 10:40 05.11.2019
4965 Mist 8 994 100 3500 0.5 100 10:22 05.11.2019
4966 Mist 8 994 100 4000 0.5 170 09:55 05.11.2019
4967 Mist 8 994 100 4000 0.5 170 09:37 05.11.2019
4968 Mist 7 993 100 4000 0.5 340 09:18 05.11.2019
4969 Mist 7 993 100 3000 1 0 08:39 05.11.2019
4970 Mist 8 993 93 1000 1 180 08:20 05.11.2019
4971 Fog 8 993 100 500 1.5 80 07:57 05.11.2019
4972 Fog 8 993 100 500 1.5 80 07:39 05.11.2019
4973 Fog 8 993 100 500 1.5 80 07:39 05.11.2019
4974 Fog 8 992 100 900 0.5 0 07:20 05.11.2019
4975 Fog 8 992 100 300 1 160 06:50 05.11.2019
4976 Fog 9 992 93 700 0.5 120 05:51 05.11.2019
4977 Fog 9 992 93 200 1 70 05:23 05.11.2019
4978 Fog 9 992 100 500 0.5 0 04:31 05.11.2019
4979 Fog 9 992 100 500 0.5 0 03:56 05.11.2019
4980 Mist 9 992 100 1000 1.5 110 02:48 05.11.2019
4981 Mist 9 992 100 1500 1.5 110 02:22 05.11.2019
4982 Mist 9 991 100 2500 2.1 70 01:25 05.11.2019
4983 Mist 9 991 100 2500 2.1 70 00:38 05.11.2019
4984 Mist 9 991 100 3000 1.5 90 23:57 04.11.2019
4985 Mist 9 991 100 3000 1.5 90 23:37 04.11.2019
4986 Mist 9 991 100 4500 1 150 23:18 04.11.2019
4987 Mist 9 991 100 4500 1 150 22:42 04.11.2019
4988 Clouds 10 991 93 6000 1.5 160 22:23 04.11.2019
4989 Clouds 10 991 93 6000 1.5 160 21:56 04.11.2019
4990 Clouds 10 991 93 6000 1.5 160 21:56 04.11.2019
4991 Clouds 10 991 93 6000 1.5 160 21:38 04.11.2019
4992 Clouds 10 990 93 6000 1 140 21:19 04.11.2019
4993 Rain 10 990 93 9000 0.5 150 20:59 04.11.2019
4994 Rain 10 990 93 9000 0.5 150 20:40 04.11.2019
4995 Clouds 10 990 93 10000 1 120 20:21 04.11.2019
4996 Clouds 10 990 93 10000 1 120 19:59 04.11.2019
4997 Clouds 10 990 93 10000 1 120 19:41 04.11.2019
4998 Rain 10 990 87 9000 1.5 160 19:22 04.11.2019
4999 Rain 10 990 87 9000 1.5 160 18:57 04.11.2019
5000 Rain 10 990 87 9000 1.5 160 18:39 04.11.2019
5001 Clouds 10 989 81 10000 1 140 18:19 04.11.2019
5002 Clouds 10 989 81 10000 1 140 17:55 04.11.2019
5003 Clouds 10 989 81 10000 1 140 17:55 04.11.2019
5004 Clouds 11 989 81 10000 1 140 17:36 04.11.2019
5005 Clouds 11 989 81 10000 0.5 130 17:18 04.11.2019
5006 Clouds 10 989 81 10000 0.5 130 16:41 04.11.2019
5007 Clouds 12 988 66 10000 2.1 270 16:23 04.11.2019
5008 Clouds 12 988 66 10000 2.1 270 15:57 04.11.2019
5009 Clouds 12 988 66 10000 2.1 270 15:39 04.11.2019
5010 Clouds 11 988 81 10000 2.1 210 15:21 04.11.2019
5011 Clouds 11 988 81 10000 2.1 210 14:57 04.11.2019
5012 Clouds 11 988 81 10000 2.1 210 14:39 04.11.2019
5013 Clouds 11 988 81 10000 2.6 220 14:20 04.11.2019
5014 Clouds 11 988 81 10000 2.6 220 13:57 04.11.2019
5015 Clouds 11 988 81 10000 2.6 220 13:39 04.11.2019
5016 Clouds 11 988 81 10000 4.1 220 13:20 04.11.2019
5017 Clouds 12 987 76 10000 3.6 240 12:45 04.11.2019
5018 Clouds 11 987 81 10000 4.6 230 12:25 04.11.2019
5019 Clouds 11 987 81 10000 4.6 230 11:59 04.11.2019
5020 Clouds 11 987 81 10000 4.6 230 11:41 04.11.2019
5021 Clouds 10 988 87 10000 4.1 230 11:22 04.11.2019
5022 Clouds 10 987 87 10000 4.1 230 10:54 04.11.2019
5023 Clouds 10 987 87 10000 4.1 230 10:36 04.11.2019
5024 Clouds 9 987 93 9000 4.1 240 10:18 04.11.2019
5025 Clouds 9 987 93 9000 4.1 240 09:40 04.11.2019
5026 Clouds 9 987 93 9000 4.1 230 09:19 04.11.2019
5027 Clouds 10 986 93 6000 3.6 240 08:42 04.11.2019
5028 Mist 10 986 93 5000 3.6 250 08:23 04.11.2019
5029 Mist 10 986 93 5000 3.6 250 08:23 04.11.2019
5030 Drizzle 10 986 100 4500 4.1 250 07:59 04.11.2019
5031 Drizzle 10 986 100 4500 4.1 250 07:41 04.11.2019
5032 Mist 11 986 93 5000 4.6 230 07:19 04.11.2019
5033 Mist 11 985 93 5000 2.6 190 06:47 04.11.2019
5034 Mist 11 985 93 4500 2.6 170 06:18 04.11.2019
5035 Rain 11 985 93 4500 2.6 160 05:32 04.11.2019
5036 Rain 11 985 93 4500 2.6 160 04:34 04.11.2019
5037 Rain 10 985 100 6000 2.6 130 03:39 04.11.2019
5038 Rain 10 985 93 7000 3.1 130 01:38 04.11.2019
5039 Rain 10 985 93 10000 3.1 120 01:18 04.11.2019
5040 Clouds 10 985 93 10000 2.6 100 00:22 04.11.2019
5041 Clouds 10 985 93 10000 2.6 100 23:59 03.11.2019
5042 Clouds 10 985 93 10000 2.6 100 23:39 03.11.2019
5043 Clouds 10 986 93 10000 2.1 100 23:20 03.11.2019
5044 Clouds 10 986 93 10000 2.1 100 22:56 03.11.2019
5045 Clouds 10 986 93 10000 2.1 100 22:38 03.11.2019
5046 Rain 10 986 93 10000 2.1 100 22:19 03.11.2019
5047 Rain 10 986 93 10000 2.1 100 21:43 03.11.2019
5048 Rain 11 986 93 9000 2.6 80 21:22 03.11.2019
5049 Drizzle 10 986 93 10000 2.1 90 20:59 03.11.2019
5050 Drizzle 10 986 93 10000 2.1 90 20:38 03.11.2019
5051 Clouds 10 986 87 10000 2.1 80 20:20 03.11.2019
5052 Clouds 10 986 87 10000 2.1 80 19:58 03.11.2019
5053 Clouds 10 986 87 10000 2.1 80 19:58 03.11.2019
5054 Clouds 10 986 87 10000 2.1 80 19:39 03.11.2019
5055 Clouds 10 986 93 10000 2.1 110 19:21 03.11.2019
5056 Clouds 10 986 93 10000 2.1 110 18:58 03.11.2019
5057 Clouds 10 986 93 10000 2.1 110 18:38 03.11.2019
5058 Clouds 10 986 93 10000 2.1 90 18:18 03.11.2019
5059 Clouds 10 986 93 10000 2.1 90 17:55 03.11.2019
5060 Clouds 11 986 93 10000 2.1 90 17:37 03.11.2019
5061 Clouds 12 986 81 10000 1.5 110 17:18 03.11.2019
5062 Clouds 12 986 81 10000 1.5 110 16:42 03.11.2019
5063 Clouds 12 986 81 10000 1.5 130 16:22 03.11.2019
5064 Clouds 12 986 81 10000 1.5 130 15:59 03.11.2019
5065 Clouds 13 986 81 10000 1.5 130 15:41 03.11.2019
5066 Clouds 12 986 76 10000 2.6 150 15:23 03.11.2019
5067 Clouds 12 986 76 10000 2.6 150 14:56 03.11.2019
5068 Clouds 13 986 76 10000 2.6 150 14:38 03.11.2019
5069 Clouds 13 986 76 10000 3.1 170 14:18 03.11.2019
5070 Clouds 13 986 76 10000 3.1 170 14:18 03.11.2019
5071 Clouds 13 986 76 10000 3.1 170 13:43 03.11.2019
5072 Clouds 12 986 87 10000 3.1 180 13:20 03.11.2019
5073 Clouds 12 986 87 10000 3.1 180 12:58 03.11.2019
5074 Clouds 11 986 87 10000 3.1 180 12:37 03.11.2019
5075 Clouds 11 987 87 10000 3.1 150 12:18 03.11.2019
5076 Clouds 12 987 87 10000 3.1 150 11:43 03.11.2019
5077 Clouds 11 986 93 10000 2.6 140 11:22 03.11.2019
5078 Clouds 11 986 93 10000 2.6 140 10:58 03.11.2019
5079 Clouds 10 986 93 10000 2.6 140 10:39 03.11.2019
5080 Rain 10 986 87 10000 2.6 170 10:21 03.11.2019
5081 Rain 10 986 87 10000 2.6 170 10:21 03.11.2019
5082 Rain 10 986 87 10000 2.6 170 09:55 03.11.2019
5083 Rain 9 986 87 10000 2.6 170 09:37 03.11.2019
5084 Rain 9 986 87 10000 2.6 170 09:37 03.11.2019
5085 Clouds 9 986 87 10000 2.6 160 09:19 03.11.2019
5086 Clouds 9 986 87 10000 2.6 160 08:38 03.11.2019
5087 Clouds 9 986 87 10000 3.1 160 08:20 03.11.2019
5088 Clouds 10 986 87 10000 3.1 160 07:45 03.11.2019
5089 Clouds 10 985 81 10000 3.1 160 07:23 03.11.2019
5090 Clouds 10 985 81 10000 3.1 160 06:49 03.11.2019
5091 Clouds 10 986 71 10000 3.1 180 06:30 03.11.2019
5092 Clouds 11 986 71 10000 3.1 180 05:38 03.11.2019
5093 Clouds 11 986 71 10000 4.1 200 04:56 03.11.2019
5094 Clouds 11 986 71 10000 4.1 200 04:33 03.11.2019
5095 Clouds 11 986 71 10000 4.1 200 03:30 03.11.2019
5096 Clouds 11 986 71 10000 4.1 200 02:41 03.11.2019
5097 Clouds 11 986 76 10000 4.6 200 02:19 03.11.2019
5098 Clouds 11 986 76 10000 4.6 200 01:38 03.11.2019
5099 Clouds 12 986 71 10000 4.1 200 01:20 03.11.2019
5100 Clouds 12 986 71 10000 4.1 200 00:43 03.11.2019
5101 Clouds 12 986 71 10000 5.7 190 00:25 03.11.2019
5102 Clouds 12 986 71 10000 5.7 190 23:57 02.11.2019
5103 Clouds 12 986 71 10000 5.7 190 23:38 02.11.2019
5104 Rain 12 986 76 10000 5.7 190 23:18 02.11.2019
5105 Rain 12 986 76 10000 5.7 190 22:55 02.11.2019
5106 Rain 12 986 76 10000 5.7 190 22:37 02.11.2019
5107 Rain 12 986 76 10000 5.7 190 22:37 02.11.2019
5108 Clouds 12 987 76 10000 4.6 190 22:18 02.11.2019
5109 Clouds 12 987 76 10000 4.6 190 21:56 02.11.2019
5110 Clouds 12 987 76 10000 4.6 190 21:37 02.11.2019
5111 Clouds 12 987 76 10000 4.6 190 21:37 02.11.2019
5112 Clouds 11 986 87 10000 3.6 180 21:18 02.11.2019
5113 Clouds 11 986 87 10000 3.6 180 20:58 02.11.2019
5114 Clouds 11 986 87 10000 3.6 180 20:39 02.11.2019
5115 Clouds 11 986 87 10000 3.6 180 20:39 02.11.2019
5116 Clouds 11 987 76 10000 3.6 190 20:19 02.11.2019
5117 Clouds 11 987 76 10000 3.6 190 19:41 02.11.2019
5118 Clouds 11 987 81 10000 3.6 190 19:23 02.11.2019
5119 Clouds 11 987 81 10000 3.6 190 18:57 02.11.2019
5120 Clouds 10 987 81 10000 3.6 190 18:38 02.11.2019
5121 Clouds 10 987 81 10000 3.1 190 18:20 02.11.2019
5122 Clouds 10 987 81 10000 3.1 190 17:57 02.11.2019
5123 Clouds 11 987 81 10000 3.1 190 17:38 02.11.2019
5124 Clouds 11 987 76 10000 3.1 220 17:20 02.11.2019
5125 Clouds 11 987 76 10000 3.1 220 16:57 02.11.2019
5126 Clouds 11 987 76 10000 3.1 220 16:36 02.11.2019
5127 Clouds 12 987 76 10000 4.1 230 16:18 02.11.2019
5128 Clouds 12 987 76 10000 4.1 230 15:41 02.11.2019
5129 Clouds 14 987 76 10000 4.6 230 15:20 02.11.2019
5130 Clouds 14 987 76 10000 4.6 230 14:43 02.11.2019
5131 Clouds 14 987 87 10000 5.1 230 14:24 02.11.2019
5132 Clouds 14 987 87 10000 5.1 230 13:58 02.11.2019
5133 Clouds 14 987 87 10000 5.1 230 13:58 02.11.2019
5134 Clouds 14 987 87 10000 5.1 230 13:39 02.11.2019
5135 Clouds 15 987 82 10000 5.7 230 13:19 02.11.2019
5136 Clouds 15 987 82 10000 5.7 230 12:41 02.11.2019
5137 Clouds 15 987 82 10000 5.7 230 12:41 02.11.2019
5138 Clouds 13 987 100 8000 5.1 220 12:23 02.11.2019
5139 Clouds 13 987 100 8000 5.1 220 11:58 02.11.2019
5140 Clouds 13 987 100 8000 5.1 220 11:39 02.11.2019
5141 Clouds 13 987 100 8000 5.1 220 11:39 02.11.2019
5142 Mist 12 986 100 5000 4.6 200 11:21 02.11.2019
5143 Mist 12 986 100 5000 4.6 200 10:50 02.11.2019
5144 Mist 12 987 93 4000 3.6 200 10:29 02.11.2019
5145 Rain 11 987 100 2500 3.6 190 09:59 02.11.2019
5146 Rain 11 987 100 2500 3.6 190 09:40 02.11.2019
5147 Drizzle 11 987 93 1700 4.1 180 09:20 02.11.2019
5148 Drizzle 11 987 93 1700 4.1 180 08:47 02.11.2019
5149 Drizzle 10 987 100 1500 4.1 170 08:22 02.11.2019
5150 Drizzle 10 987 100 1500 4.1 170 07:51 02.11.2019
5151 Drizzle 10 987 100 1500 4.1 170 07:33 02.11.2019
5152 Drizzle 10 988 93 1500 3.6 170 06:58 02.11.2019
5153 Drizzle 10 988 93 1500 3.6 170 06:39 02.11.2019
5154 Drizzle 9 988 100 2000 3.6 170 06:18 02.11.2019
5155 Drizzle 9 989 93 2500 3.6 170 05:29 02.11.2019
5156 Rain 8 991 100 4000 3.6 170 04:23 02.11.2019
5157 Rain 8 991 100 4000 3.6 170 03:50 02.11.2019
5158 Drizzle 7 992 100 2000 4.6 170 02:49 02.11.2019
5159 Drizzle 7 992 100 2000 4.6 170 02:49 02.11.2019
5160 Drizzle 7 993 100 2500 3.6 160 01:57 02.11.2019
5161 Drizzle 6 994 100 2000 3.1 160 01:27 02.11.2019
5162 Drizzle 6 994 100 2000 3.1 160 00:55 02.11.2019
5163 Drizzle 6 994 100 2000 3.6 150 00:28 02.11.2019
5164 Drizzle 6 995 93 1400 3.6 150 23:49 01.11.2019
5165 Drizzle 5 996 100 2200 3.1 150 23:25 01.11.2019
5166 Drizzle 5 996 100 2200 3.1 150 22:59 01.11.2019
5167 Drizzle 5 996 100 2200 3.1 150 22:41 01.11.2019
5168 Mist 5 997 93 2500 3.6 150 22:20 01.11.2019
5169 Mist 5 997 93 2500 3.6 150 21:42 01.11.2019
5170 Mist 5 998 93 4500 4.1 150 21:24 01.11.2019
5171 Mist 5 998 93 4500 4.1 150 20:59 01.11.2019
5172 Mist 5 998 93 4500 4.1 150 20:41 01.11.2019
5173 Mist 5 999 100 4000 4.1 150 20:21 01.11.2019
5174 Mist 5 999 100 4000 4.1 150 19:58 01.11.2019
5175 Mist 5 999 100 4000 4.1 150 19:40 01.11.2019
5176 Mist 5 1001 93 2800 4.1 150 19:21 01.11.2019
5177 Mist 5 1001 93 2800 4.1 150 18:41 01.11.2019
5178 Drizzle 5 1002 93 2500 3.6 160 18:21 01.11.2019
5179 Drizzle 5 1002 93 2500 3.6 160 17:57 01.11.2019
5180 Drizzle 5 1002 93 2500 3.6 160 17:39 01.11.2019
5181 Drizzle 5 1002 93 2500 3.6 160 17:39 01.11.2019
5182 Drizzle 4 1003 93 2000 3.1 140 17:20 01.11.2019
5183 Drizzle 4 1003 93 2000 3.1 140 16:40 01.11.2019
5184 Drizzle 4 1003 93 4000 3.6 150 16:20 01.11.2019
5185 Drizzle 5 1004 86 4500 3.1 150 15:56 01.11.2019
5186 Drizzle 5 1004 86 4500 3.1 150 15:38 01.11.2019
5187 Drizzle 4 1005 93 4500 3.1 160 15:20 01.11.2019
5188 Drizzle 4 1005 93 4500 3.1 150 14:43 01.11.2019
5189 Drizzle 4 1005 80 6000 3.1 150 14:24 01.11.2019
5190 Clouds 4 1006 76 8000 3.6 160 13:59 01.11.2019
5191 Clouds 4 1006 76 8000 3.6 160 13:39 01.11.2019
5192 Clouds 4 1008 76 8000 4.1 140 13:21 01.11.2019
5193 Clouds 4 1008 76 8000 4.1 140 12:55 01.11.2019
5194 Clouds 4 1008 76 8000 4.1 140 12:37 01.11.2019
5195 Clouds 3 1009 76 8000 4.1 150 12:18 01.11.2019
5196 Clouds 3 1009 76 8000 4.1 150 11:41 01.11.2019
5197 Clouds 2 1010 86 9000 3.1 140 11:23 01.11.2019
5198 Clouds 2 1010 86 9000 3.1 140 10:43 01.11.2019
5199 Clouds 1 1011 73 8000 4.1 130 10:25 01.11.2019
5200 Clouds 1 1011 73 8000 4.1 130 09:59 01.11.2019
5201 Clouds 0 1011 73 8000 4.1 130 09:41 01.11.2019
5202 Clouds -1 1012 92 8000 2.6 140 09:21 01.11.2019
5203 Clouds 0 1012 92 8000 2.6 140 08:46 01.11.2019
5204 Fog 0 1013 92 7000 3.6 130 08:23 01.11.2019
5205 Fog 0 1013 92 7000 3.6 130 07:58 01.11.2019
5206 Fog 0 1013 92 7000 3.6 130 07:40 01.11.2019
5207 Clouds 0 1014 92 9000 3.6 130 07:21 01.11.2019
5208 Clouds 1 1014 92 9000 3.6 130 06:49 01.11.2019
5209 Clouds 0 1015 92 9000 4.1 140 06:22 01.11.2019
5210 Clouds 1 1015 92 9000 4.1 140 05:44 01.11.2019
5211 Clouds 1 1016 68 10000 4.1 130 04:39 01.11.2019
5212 Clouds 1 1019 68 10000 3.1 130 03:32 01.11.2019
5213 Clouds 3 1020 68 10000 2.6 120 01:43 01.11.2019
5214 Clouds 2 1021 86 10000 2.6 130 00:58 01.11.2019
5215 Clear 2 1022 86 10000 2.6 130 00:20 01.11.2019
5216 Clear 3 1022 86 10000 2.6 130 23:44 31.10.2019
5217 Clear 2 1022 86 10000 1.5 130 23:23 31.10.2019
5218 Clear 2 1022 86 10000 1.5 130 22:58 31.10.2019
5219 Clear 3 1022 86 10000 1.5 130 22:40 31.10.2019
5220 Clear 3 1023 80 10000 2.1 120 22:21 31.10.2019
5221 Clear 4 1023 80 10000 2.1 120 21:45 31.10.2019
5222 Clear 4 1023 74 10000 3.1 120 21:22 31.10.2019
5223 Clear 4 1023 74 10000 3.1 120 20:58 31.10.2019
5224 Clear 5 1023 74 10000 3.1 120 20:40 31.10.2019
5225 Clouds 4 1024 80 10000 2.6 110 20:22 31.10.2019
5226 Clouds 5 1024 80 10000 2.6 110 19:45 31.10.2019
5227 Clouds 4 1024 59 10000 2.1 90 19:26 31.10.2019
5228 Clouds 4 1024 59 10000 2.1 90 18:58 31.10.2019
5229 Clouds 6 1024 59 10000 2.1 90 18:39 31.10.2019
5230 Clouds 5 1024 69 10000 2.1 100 18:21 31.10.2019
5231 Clouds 5 1024 69 10000 2.1 100 18:21 31.10.2019
5232 Clouds 5 1024 69 10000 2.1 100 18:21 31.10.2019
5233 Clouds 8 1024 69 10000 2.1 100 17:54 31.10.2019
5234 Clouds 7 1024 69 10000 2.1 100 17:36 31.10.2019
5235 Clouds 7 1024 60 10000 2.1 120 17:18 31.10.2019
5236 Clouds 8 1024 60 10000 2.1 120 16:41 31.10.2019
5237 Clouds 8 1024 56 10000 2.6 110 16:20 31.10.2019
5238 Clouds 8 1024 56 10000 2.6 110 15:58 31.10.2019
5239 Clouds 7 1024 56 10000 2.6 110 15:39 31.10.2019
5240 Clouds 7 1025 56 10000 3.1 100 15:20 31.10.2019
5241 Clouds 7 1025 56 10000 3.1 100 14:57 31.10.2019
5242 Clouds 8 1025 56 10000 3.1 100 14:39 31.10.2019
5243 Clouds 8 1025 56 10000 2.6 140 14:20 31.10.2019
5244 Clouds 8 1025 56 10000 2.6 140 13:57 31.10.2019
5245 Clouds 8 1025 56 10000 2.6 140 13:38 31.10.2019
5246 Clouds 7 1026 62 10000 4.1 130 13:19 31.10.2019
5247 Clouds 7 1026 62 10000 4.1 130 12:55 31.10.2019
5248 Clouds 7 1026 62 10000 4.1 130 12:37 31.10.2019
5249 Clouds 6 1027 75 10000 2.6 130 12:18 31.10.2019
5250 Clouds 6 1027 75 10000 2.6 130 11:44 31.10.2019
5251 Clouds 5 1027 68 10000 2.1 120 11:20 31.10.2019
5252 Clouds 5 1027 68 10000 2.1 120 10:57 31.10.2019
5253 Clouds 5 1027 68 10000 2.1 120 10:38 31.10.2019
5254 Clouds 4 1027 68 9000 2.1 130 10:20 31.10.2019
5255 Clouds 5 1027 68 9000 2.1 130 09:44 31.10.2019
5256 Clouds 3 1027 68 8000 1.5 130 09:19 31.10.2019
5257 Clouds 3 1027 68 8000 1.5 130 08:57 31.10.2019
5258 Clouds 2 1027 68 8000 1.5 130 08:39 31.10.2019
5259 Mist 1 1027 67 5000 2.6 140 08:20 31.10.2019
5260 Mist 2 1027 67 5000 2.6 140 07:44 31.10.2019
5261 Fog 1 1027 92 6000 1 120 07:24 31.10.2019
5262 Fog 2 1027 92 6000 1 120 06:50 31.10.2019
5263 Fog 2 1027 67 10000 1 130 06:30 31.10.2019
5264 Fog 1 1027 100 700 1 130 05:19 31.10.2019
5265 Fog 2 1028 69 10000 1 130 02:47 31.10.2019
5266 Clouds 2 1028 67 10000 1 120 02:22 31.10.2019
5267 Clouds 4 1028 67 10000 2.1 140 00:51 31.10.2019
5268 Clear 4 1028 67 10000 2.1 120 00:25 31.10.2019
5269 Clear 2 1028 67 10000 2.1 120 23:41 30.10.2019
5270 Clouds 2 1029 60 10000 2.1 130 23:22 30.10.2019
5271 Clouds 3 1029 60 10000 2.1 130 22:41 30.10.2019
5272 Clouds 3 1029 60 10000 2.1 120 22:19 30.10.2019
5273 Clouds 3 1029 60 10000 2.1 120 21:55 30.10.2019
5274 Clouds 3 1029 60 10000 2.1 120 21:55 30.10.2019
5275 Clouds 3 1029 60 10000 2.1 120 21:37 30.10.2019
5276 Clouds 3 1029 60 10000 2.1 120 21:37 30.10.2019
5277 Clouds 2 1029 60 10000 1.5 110 21:18 30.10.2019
5278 Clouds 3 1029 86 10000 1.5 110 20:58 30.10.2019
5279 Clouds 3 1029 86 10000 1.5 110 20:39 30.10.2019
5280 Clouds 3 1029 86 10000 1 90 20:20 30.10.2019
5281 Clouds 3 1029 86 10000 1 90 19:54 30.10.2019
5282 Clouds 3 1029 86 10000 1 90 19:36 30.10.2019
5283 Clouds 3 1029 86 10000 1.5 100 19:18 30.10.2019
5284 Clouds 4 1029 86 10000 1.5 100 18:39 30.10.2019
5285 Clouds 4 1029 80 10000 1 80 18:19 30.10.2019
5286 Clouds 4 1029 80 10000 1 80 17:56 30.10.2019
5287 Clouds 8 1029 80 10000 1 80 17:38 30.10.2019
5288 Clouds 8 1029 80 10000 1 80 17:38 30.10.2019
5289 Clouds 9 1029 62 10000 2.1 90 17:18 30.10.2019
5290 Clouds 9 1029 62 10000 2.1 90 16:55 30.10.2019
5291 Clouds 9 1029 62 10000 2.1 90 16:36 30.10.2019
5292 Clouds 9 1029 62 10000 1.5 100 16:18 30.10.2019
5293 Clouds 10 1029 62 10000 1.5 100 15:41 30.10.2019
5294 Clouds 9 1030 62 10000 3.1 90 15:21 30.10.2019
5295 Clouds 9 1030 62 10000 3.1 90 15:21 30.10.2019
5296 Clouds 9 1030 62 10000 3.1 90 14:59 30.10.2019
5297 Clouds 9 1030 62 10000 3.1 90 14:41 30.10.2019
5298 Clouds 9 1030 65 10000 2.1 120 14:22 30.10.2019
5299 Clouds 9 1030 65 10000 2.1 120 13:58 30.10.2019
5300 Clouds 9 1030 65 10000 2.1 120 13:39 30.10.2019
5301 Clouds 9 1031 65 10000 3.1 150 13:19 30.10.2019
5302 Clouds 9 1031 65 10000 3.1 150 12:56 30.10.2019
5303 Clouds 8 1031 75 10000 2.6 130 12:37 30.10.2019
5304 Clouds 8 1031 75 10000 2.6 130 12:18 30.10.2019
5305 Clouds 8 1031 75 10000 2.6 130 11:41 30.10.2019
5306 Clouds 7 1031 75 10000 2.6 130 11:21 30.10.2019
5307 -273 0 0 0 0 0 10:45 30.10.2019
5308 Fog 7 1031 80 4000 2.1 130 10:24 30.10.2019
5309 Fog 6 1031 86 2500 1.5 130 09:57 30.10.2019
5310 Fog 6 1031 93 2500 2.1 140 09:39 30.10.2019
5311 Fog 6 1031 93 2500 2.1 140 09:19 30.10.2019
5312 Fog 3 1031 93 50 2.1 130 08:41 30.10.2019
5313 Fog 2 1030 93 50 1.5 130 08:22 30.10.2019
5314 Fog 3 1030 93 50 1.5 130 07:51 30.10.2019
5315 Fog 3 1030 93 50 1.5 130 07:33 30.10.2019
5316 Fog 2 1030 93 50 2.1 110 06:43 30.10.2019
5317 Fog 2 1030 93 50 2.1 100 06:23 30.10.2019
5318 Fog 2 1030 100 10000 1.5 100 05:50 30.10.2019
5319 Fog 2 1030 100 10000 1.5 110 05:32 30.10.2019
5320 Fog 2 1030 93 10000 1 100 03:47 30.10.2019
5321 Fog 2 1030 100 10000 1.5 90 03:20 30.10.2019
5322 Fog 4 1030 100 10000 1.5 90 02:39 30.10.2019
5323 Clear 6 1030 93 10000 1.5 70 01:42 30.10.2019
5324 Clear 2 1030 93 10000 0.5 100 00:32 30.10.2019
5325 Clear 2 1030 93 10000 0.5 100 23:49 29.10.2019
5326 Clear 3 1030 86 10000 1 90 23:30 29.10.2019
5327 Clear 3 1030 86 10000 1 90 22:57 29.10.2019
5328 Clear 3 1030 86 10000 1 90 22:39 29.10.2019
5329 Clear 3 1030 86 10000 1.5 90 22:19 29.10.2019
5330 Clear 3 1030 86 10000 1.5 90 21:55 29.10.2019
5331 Clear 3 1030 86 10000 1.5 90 21:36 29.10.2019
5332 Clear 3 1030 86 10000 1.5 80 21:18 29.10.2019
5333 Clear 3 1030 64 10000 1.5 70 20:41 29.10.2019
5334 Clear 4 1029 60 10000 1.5 70 20:22 29.10.2019
5335 Clear 4 1029 60 10000 1.5 70 19:58 29.10.2019
5336 Clear 4 1029 60 10000 1.5 70 19:58 29.10.2019
5337 Clear 4 1029 60 10000 1.5 70 19:39 29.10.2019
5338 Clouds 4 1029 60 10000 1.5 80 19:20 29.10.2019
5339 Clouds 4 1029 60 10000 1.5 80 18:58 29.10.2019
5340 Clouds 5 1029 60 10000 1.5 80 18:39 29.10.2019
5341 Clouds 6 1028 75 10000 2.6 60 18:20 29.10.2019
5342 Clouds 6 1028 75 10000 2.6 60 17:57 29.10.2019
5343 Clouds 7 1028 75 10000 2.6 60 17:38 29.10.2019
5344 Clouds 8 1028 65 10000 2.6 60 17:20 29.10.2019
5345 Clouds 10 1028 65 10000 2.6 60 16:41 29.10.2019
5346 Clouds 10 1027 61 10000 3.6 60 16:22 29.10.2019
5347 Clouds 10 1027 61 10000 3.6 60 15:59 29.10.2019
5348 Clouds 9 1027 61 10000 3.6 60 15:41 29.10.2019
5349 Clouds 9 1027 57 10000 4.1 70 15:21 29.10.2019
5350 Clouds 9 1027 57 10000 4.1 70 14:57 29.10.2019
5351 Clouds 10 1027 57 10000 4.1 70 14:39 29.10.2019
5352 Clouds 10 1027 70 10000 3.6 50 14:21 29.10.2019
5353 Clouds 10 1027 70 10000 3.6 50 13:57 29.10.2019
5354 Clouds 10 1027 70 10000 3.6 50 13:36 29.10.2019
5355 Clouds 10 1027 70 10000 4.1 70 13:18 29.10.2019
5356 Clouds 10 1027 70 10000 4.1 70 12:42 29.10.2019
5357 Clouds 9 1027 75 10000 4.1 70 12:24 29.10.2019
5358 Clouds 10 1027 75 10000 4.1 70 11:54 29.10.2019
5359 Clouds 10 1027 75 10000 4.1 70 11:36 29.10.2019
5360 Clouds 9 1026 87 10000 3.6 70 11:18 29.10.2019
5361 Clouds 9 1026 87 10000 3.6 70 10:55 29.10.2019
5362 Clouds 9 1026 87 10000 3.6 70 10:36 29.10.2019
5363 Clouds 8 1026 93 10000 2.6 50 10:18 29.10.2019
5364 Clouds 9 1026 93 10000 2.6 50 09:41 29.10.2019
5365 Clouds 9 1026 93 10000 2.6 50 09:41 29.10.2019
5366 Clouds 9 1026 93 10000 2.6 50 09:41 29.10.2019
5367 Clouds 7 1025 93 10000 1.5 70 09:23 29.10.2019
5368 Clouds 7 1025 93 10000 1.5 70 09:23 29.10.2019
5369 Clouds 7 1025 93 10000 1.5 70 08:55 29.10.2019
5370 Clouds 7 1025 93 10000 1.5 70 08:36 29.10.2019
5371 Fog 6 1024 93 10000 1.5 30 08:18 29.10.2019
5372 Fog 7 1024 93 10000 1.5 30 07:47 29.10.2019
5373 Rain 6 1023 93 10000 2.6 30 07:19 29.10.2019
5374 Rain 7 1023 93 10000 2.6 30 06:47 29.10.2019
5375 Clouds 6 1023 100 10000 2.1 30 06:28 29.10.2019
5376 Clouds 6 1023 100 10000 2.1 30 05:52 29.10.2019
5377 Clouds 7 1023 100 10000 2.1 30 05:34 29.10.2019
5378 Fog 7 1022 100 10000 0.5 320 04:34 29.10.2019
5379 Fog 8 1022 93 10000 0.5 310 02:34 29.10.2019
5380 Fog 6 1022 100 10000 1.5 300 01:55 29.10.2019
5381 Fog 8 1022 100 10000 1.5 300 01:33 29.10.2019
5382 Clouds 7 1022 93 10000 0.5 280 00:52 29.10.2019
5383 Clouds 8 1022 93 10000 1 260 23:58 28.10.2019
5384 Clouds 8 1022 93 10000 1 260 23:37 28.10.2019
5385 Clouds 7 1022 93 10000 1.5 60 23:19 28.10.2019
5386 Clouds 9 1022 93 10000 1.5 60 22:39 28.10.2019
5387 Fog 8 1021 93 10000 0.5 0 22:20 28.10.2019
5388 Fog 8 1021 93 10000 0.5 0 21:58 28.10.2019
5389 Fog 8 1021 93 10000 0.5 0 21:39 28.10.2019
5390 Clouds 8 1021 93 10000 2.6 290 21:21 28.10.2019
5391 Clouds 8 1021 93 10000 2.6 290 20:58 28.10.2019
5392 Clouds 9 1021 93 10000 2.6 290 20:39 28.10.2019
5393 Clouds 8 1021 93 10000 2.1 260 20:20 28.10.2019
5394 Clouds 8 1021 93 10000 2.1 260 19:54 28.10.2019
5395 Clouds 9 1021 93 10000 2.1 260 19:36 28.10.2019
5396 Rain 9 1021 81 10000 1.5 280 19:18 28.10.2019
5397 Rain 9 1021 81 10000 1.5 280 19:18 28.10.2019
5398 Rain 9 1021 81 10000 1.5 280 18:56 28.10.2019
5399 Rain 9 1021 81 10000 1.5 280 18:38 28.10.2019
5400 Clouds 9 1021 93 10000 1.5 0 18:20 28.10.2019
5401 Clouds 9 1021 93 10000 1.5 0 17:55 28.10.2019
5402 Clouds 9 1021 93 10000 1.5 0 17:55 28.10.2019
5403 Clouds 9 1021 93 10000 1.5 0 17:36 28.10.2019
5404 Rain 9 1020 87 10000 2.1 340 17:18 28.10.2019
5405 Rain 9 1020 87 10000 2.1 340 17:18 28.10.2019
5406 Rain 10 1020 81 5000 3.1 10 16:54 28.10.2019
5407 Rain 11 1020 81 5000 3.1 10 16:36 28.10.2019
5408 Rain 10 1020 81 10000 4.1 310 16:18 28.10.2019
5409 Rain 10 1020 81 10000 4.1 310 15:55 28.10.2019
5410 Rain 11 1020 81 10000 4.1 310 15:37 28.10.2019
5411 Clouds 10 1020 81 10000 4.1 290 15:18 28.10.2019
5412 Clouds 10 1020 81 10000 4.1 290 14:54 28.10.2019
5413 Clouds 12 1020 81 10000 4.1 290 14:36 28.10.2019
5414 Rain 11 1020 71 10000 6.7 300 14:18 28.10.2019
5415 Rain 12 1020 71 10000 6.7 300 13:41 28.10.2019
5416 Clouds 12 1020 66 10000 6.7 290 13:18 28.10.2019
5417 Clouds 12 1020 66 10000 6.7 290 12:58 28.10.2019
5418 Clouds 12 1020 66 10000 6.7 290 12:40 28.10.2019
5419 Rain 11 1020 76 10000 6.2 320 12:19 28.10.2019
5420 Rain 12 1020 76 10000 6.2 320 11:38 28.10.2019
5421 Rain 12 1020 76 10000 4.1 290 11:19 28.10.2019
5422 Rain 11 1020 76 10000 4.1 290 10:42 28.10.2019
5423 Rain 11 1020 81 8000 6.7 310 10:24 28.10.2019
5424 Rain 11 1020 71 5000 4.6 320 09:58 28.10.2019
5425 Rain 11 1020 71 5000 4.6 320 09:39 28.10.2019
5426 Rain 10 1019 87 10000 2.1 280 09:20 28.10.2019
5427 Rain 10 1019 87 10000 2.1 280 08:57 28.10.2019
5428 Rain 10 1019 87 10000 2.1 280 08:39 28.10.2019
5429 Rain 10 1019 81 10000 5.7 320 08:19 28.10.2019
5430 Rain 10 1019 81 10000 5.7 320 07:57 28.10.2019
5431 Rain 10 1019 81 10000 5.7 320 07:38 28.10.2019
5432 Clouds 10 1018 76 10000 6.2 300 07:20 28.10.2019
5433 Clouds 10 1018 76 10000 6.2 300 06:40 28.10.2019
5434 Clouds 10 1018 81 10000 5.7 300 05:57 28.10.2019
5435 Clouds 11 1018 76 10000 6.7 320 04:25 28.10.2019
5436 Clouds 11 1018 76 10000 6.7 320 03:40 28.10.2019
5437 Clouds 11 1017 76 10000 6.2 310 02:45 28.10.2019
5438 Clouds 11 1017 76 10000 8.2 280 01:27 28.10.2019
5439 Clouds 11 1017 76 10000 8.2 280 00:46 28.10.2019
5440 Rain 11 1017 81 10000 5.7 270 00:22 28.10.2019
5441 Rain 11 1017 81 10000 5.7 270 23:43 27.10.2019
5442 Clouds 10 1017 81 10000 7.7 260 23:20 27.10.2019
5443 Clouds 11 1017 81 10000 7.7 260 22:44 27.10.2019
5444 Clouds 10 1017 81 10000 7.2 260 22:23 27.10.2019
5445 Clouds 10 1017 81 10000 7.2 260 21:59 27.10.2019
5446 Clouds 10 1017 81 10000 7.2 260 21:40 27.10.2019
5447 Clouds 10 1017 81 10000 7.7 260 21:21 27.10.2019
5448 Clouds 10 1017 81 10000 7.7 260 20:58 27.10.2019
5449 Clouds 11 1017 81 10000 7.7 260 20:40 27.10.2019
5450 Clouds 11 1017 76 10000 9.3 260 20:22 27.10.2019
5451 Clouds 10 1017 76 10000 9.3 260 19:56 27.10.2019
5452 Clouds 11 1017 76 10000 9.3 260 19:56 27.10.2019
5453 Clouds 10 1017 76 10000 9.3 260 19:37 27.10.2019
5454 Rain 10 1017 71 10000 8.7 270 19:19 27.10.2019
5455 Rain 10 1017 71 10000 8.7 270 18:56 27.10.2019
5456 Rain 11 1017 71 10000 8.7 270 18:37 27.10.2019
5457 Clouds 11 1016 66 10000 9.3 260 18:19 27.10.2019
5458 Clouds 11 1016 66 10000 9.3 260 17:41 27.10.2019
5459 Rain 11 1016 66 10000 8.7 270 17:22 27.10.2019
5460 Rain 11 1016 66 10000 8.7 270 16:59 27.10.2019
5461 Rain 12 1016 66 10000 8.7 270 16:41 27.10.2019
5462 Clouds 12 1016 62 10000 8.7 270 16:23 27.10.2019
5463 Clouds 12 1016 62 10000 8.7 270 15:58 27.10.2019
5464 Clouds 13 1016 62 10000 8.7 270 15:39 27.10.2019
5465 Rain 12 1016 62 10000 9.8 270 15:20 27.10.2019
5466 Rain 12 1016 62 10000 9.8 270 14:59 27.10.2019
5467 Rain 13 1016 62 10000 9.8 270 14:40 27.10.2019
5468 Rain 12 1016 71 10000 9.8 280 14:18 27.10.2019
5469 Rain 12 1016 71 10000 9.8 280 13:54 27.10.2019
5470 Rain 12 1016 71 10000 9.8 280 13:36 27.10.2019
5471 Clouds 12 1016 66 10000 9.3 260 13:18 27.10.2019
5472 Clouds 11 1016 66 10000 9.3 260 12:42 27.10.2019
5473 Clouds 12 1015 66 10000 8.7 260 12:23 27.10.2019
5474 Clouds 12 1015 66 10000 8.7 260 11:43 27.10.2019
5475 Clouds 12 1015 66 10000 7.7 260 11:25 27.10.2019
5476 Clouds 12 1015 66 10000 7.7 260 11:25 27.10.2019
5477 Clouds 12 1015 66 10000 7.7 260 10:59 27.10.2019
5478 Clouds 12 1015 66 10000 7.7 260 10:59 27.10.2019
5479 Clouds 12 1015 66 10000 7.7 260 10:41 27.10.2019
5480 Clouds 11 1014 66 10000 6.7 260 10:22 27.10.2019
5481 Clouds 11 1014 66 10000 6.7 260 09:43 27.10.2019
5482 Clouds 11 1013 57 10000 9.3 280 09:19 27.10.2019
5483 Clouds 11 1013 57 10000 9.3 280 08:57 27.10.2019
5484 Clouds 11 1013 57 10000 9.3 280 08:38 27.10.2019
5485 Clouds 11 1012 57 10000 9.3 290 08:19 27.10.2019
5486 Clouds 10 1012 57 10000 9.3 290 07:48 27.10.2019
5487 Clouds 10 1011 71 10000 8.7 290 07:28 27.10.2019
5488 Clouds 10 1011 71 10000 8.7 290 06:56 27.10.2019
5489 Clouds 11 1010 62 10000 9.3 280 06:31 27.10.2019
5490 Clouds 11 1010 62 10000 9.3 280 05:58 27.10.2019
5491 Clouds 11 1010 62 10000 9.3 280 05:58 27.10.2019
5492 Clouds 11 1010 62 10000 9.3 280 05:36 27.10.2019
5493 Drizzle 11 1008 87 10000 10.3 300 04:25 27.10.2019
5494 Rain 14 1006 93 4000 7.2 250 02:42 27.10.2019
5495 Rain 14 1006 87 5000 6.7 240 01:28 27.10.2019
5496 Rain 14 1006 87 5000 6.7 240 01:28 27.10.2019
5497 Rain 15 1006 82 10000 5.7 240 00:56 27.10.2019
5498 Rain 15 1006 82 10000 5.7 240 00:38 27.10.2019
5499 Rain 16 1005 67 10000 7.7 240 23:59 26.10.2019
5500 Rain 16 1005 67 10000 7.7 240 23:59 26.10.2019
5501 Rain 16 1005 67 10000 7.7 240 23:40 26.10.2019
5502 Rain 16 1006 63 10000 7.2 230 23:22 26.10.2019
5503 Rain 16 1006 63 10000 7.2 230 22:58 26.10.2019
5504 Rain 16 1006 63 10000 7.2 230 22:39 26.10.2019
5505 Rain 16 1006 67 10000 6.2 220 22:20 26.10.2019
5506 Rain 17 1006 67 10000 6.2 220 21:58 26.10.2019
5507 Rain 17 1006 67 10000 6.2 220 21:40 26.10.2019
5508 Rain 17 1006 67 10000 6.2 230 21:19 26.10.2019
5509 Rain 17 1006 67 10000 6.2 230 20:45 26.10.2019
5510 Clouds 17 1007 67 10000 4.1 220 20:20 26.10.2019
5511 Clouds 17 1007 67 10000 4.1 220 19:56 26.10.2019
5512 Clouds 17 1007 67 10000 4.1 220 19:38 26.10.2019
5513 Clouds 17 1007 63 10000 4.1 220 19:19 26.10.2019
5514 Clouds 17 1007 63 10000 4.1 220 18:55 26.10.2019
5515 Clouds 17 1007 63 10000 4.1 220 18:37 26.10.2019
5516 Clouds 17 1007 67 10000 7.2 230 18:18 26.10.2019
5517 Clouds 17 1007 67 10000 7.2 230 17:39 26.10.2019
5518 Clouds 17 1008 67 10000 6.2 240 17:21 26.10.2019
5519 Clouds 17 1008 67 10000 6.2 240 16:58 26.10.2019
5520 Clouds 17 1008 67 10000 6.2 240 16:40 26.10.2019
5521 Clouds 17 1008 67 10000 7.2 240 16:21 26.10.2019
5522 Clouds 17 1008 67 10000 7.2 240 15:41 26.10.2019
5523 Clouds 17 1008 72 10000 8.7 230 15:19 26.10.2019
5524 Clouds 17 1008 72 10000 8.7 230 14:41 26.10.2019
5525 Clouds 17 1009 72 10000 8.7 230 14:22 26.10.2019
5526 Clouds 15 1008 82 0 12.28 227 13:59 26.10.2019
5527 Clouds 15 1008 82 0 12.28 227 13:40 26.10.2019
5528 Clouds 17 1009 77 10000 8.7 230 13:21 26.10.2019
5529 Clouds 15 1008 82 0 12.28 227 12:46 26.10.2019
5530 Clouds 15 1005 73 0 12.28 227 12:24 26.10.2019
5531 Clouds 15 1005 73 0 12.28 227 12:24 26.10.2019
5532 Clouds 15 1009 77 10000 8.2 230 11:50 26.10.2019
5533 Clouds 15 1009 77 10000 8.2 230 11:29 26.10.2019
5534 Clouds 15 1009 77 10000 8.2 230 10:55 26.10.2019
5535 Clouds 15 1009 77 10000 8.2 230 10:36 26.10.2019
5536 Clouds 15 1009 77 10000 8.7 230 10:18 26.10.2019
5537 Clouds 15 1009 77 10000 8.7 230 09:43 26.10.2019
5538 Clouds 15 1009 77 10000 8.7 230 09:25 26.10.2019
5539 Clouds 15 1009 77 10000 8.7 230 08:43 26.10.2019
5540 Clouds 15 1009 77 10000 8.2 230 08:25 26.10.2019
5541 Clouds 15 1009 77 10000 8.2 230 07:55 26.10.2019
5542 Clouds 14 1009 82 10000 8.7 230 07:31 26.10.2019
5543 Clouds 14 1009 82 10000 8.7 230 06:46 26.10.2019
5544 Clouds 14 1009 82 10000 8.7 230 06:27 26.10.2019
5545 Clouds 14 1009 76 10000 8.2 220 05:21 26.10.2019
5546 Clouds 14 1010 76 10000 7.7 210 04:30 26.10.2019
5547 Clouds 14 1010 76 10000 7.7 210 02:49 26.10.2019
5548 Clouds 14 1011 76 10000 7.7 210 01:56 26.10.2019
5549 Clouds 14 1011 76 10000 7.7 210 01:34 26.10.2019
5550 Clouds 14 1012 71 10000 7.2 210 00:26 26.10.2019
5551 Clouds 14 1012 71 10000 7.2 210 23:46 25.10.2019
5552 Clouds 13 1013 71 10000 6.7 210 23:21 25.10.2019
5553 Clouds 14 1013 71 10000 6.7 210 22:43 25.10.2019
5554 Clouds 13 1014 71 10000 5.1 200 22:25 25.10.2019
5555 Clouds 13 1014 71 10000 5.1 200 21:58 25.10.2019
5556 Clouds 13 1014 71 10000 5.1 200 21:40 25.10.2019
5557 Clouds 13 1015 76 10000 5.1 200 21:22 25.10.2019
5558 Clouds 13 1015 76 10000 5.1 200 20:59 25.10.2019
5559 Clouds 13 1015 76 10000 5.1 200 20:41 25.10.2019
5560 Clouds 13 1016 76 10000 4.1 210 20:19 25.10.2019
5561 Clouds 13 1016 76 10000 4.1 210 19:45 25.10.2019
5562 Clouds 13 1016 76 10000 3.6 220 19:26 25.10.2019
5563 Clouds 13 1016 76 10000 3.6 220 18:47 25.10.2019
5564 Clouds 14 1016 76 10000 4.6 230 18:28 25.10.2019
5565 Clouds 14 1016 76 10000 4.6 230 17:54 25.10.2019
5566 Clouds 14 1016 76 10000 4.6 230 17:36 25.10.2019
5567 Clouds 14 1016 76 10000 3.1 240 17:18 25.10.2019
5568 Rain 14 1016 76 10000 4.1 230 16:42 25.10.2019
5569 Clouds 14 1016 76 10000 4.6 230 16:21 25.10.2019
5570 Clouds 13 1016 76 10000 4.6 230 15:41 25.10.2019
5571 Clouds 13 1016 76 10000 5.1 230 15:23 25.10.2019
5572 Clouds 13 1016 76 10000 5.1 230 14:59 25.10.2019
5573 Clouds 13 1016 76 10000 5.1 230 14:41 25.10.2019
5574 Clouds 13 1016 76 10000 6.2 240 14:22 25.10.2019
5575 Clouds 14 1016 76 10000 6.2 240 13:44 25.10.2019
5576 Clouds 13 1016 82 10000 6.2 240 13:25 25.10.2019
5577 Clouds 13 1016 82 10000 6.2 240 12:59 25.10.2019
5578 Clouds 13 1016 82 10000 6.2 240 12:41 25.10.2019
5579 Clouds 13 1015 87 10000 6.2 240 12:21 25.10.2019
5580 Clouds 13 1015 82 10000 6.2 240 11:57 25.10.2019
5581 Clouds 13 1015 82 10000 6.2 240 11:38 25.10.2019
5582 Clouds 12 1015 87 10000 5.7 240 11:18 25.10.2019
5583 Clouds 12 1014 87 10000 5.7 240 10:40 25.10.2019
5584 Clouds 12 1014 87 10000 6.2 230 10:22 25.10.2019
5585 Clouds 12 1014 87 10000 6.2 230 09:57 25.10.2019
5586 Clouds 12 1014 87 10000 6.2 230 09:38 25.10.2019
5587 Clouds 12 1013 87 10000 5.1 240 09:19 25.10.2019
5588 Clouds 12 1013 87 10000 5.1 240 08:48 25.10.2019
5589 Clouds 12 1012 93 8000 4.6 240 08:29 25.10.2019
5590 Clouds 12 1012 93 9000 5.1 240 07:55 25.10.2019
5591 Clouds 12 1012 93 9000 5.1 240 07:34 25.10.2019
5592 Rain 12 1011 93 9000 4.6 240 06:42 25.10.2019
5593 Rain 12 1011 82 10000 5.1 240 05:51 25.10.2019
5594 Rain 12 1011 82 10000 5.1 240 05:33 25.10.2019
5595 Clouds 13 1010 82 10000 5.1 230 04:52 25.10.2019
5596 Clouds 13 1010 82 10000 5.7 250 03:36 25.10.2019
5597 Clouds 14 1008 77 10000 5.1 240 01:54 25.10.2019
5598 Clouds 14 1008 77 10000 5.7 220 00:59 25.10.2019
5599 Clouds 15 1008 77 10000 6.7 220 00:20 25.10.2019
5600 Clouds 15 1008 77 10000 6.7 220 23:40 24.10.2019
5601 Clouds 15 1007 77 10000 4.6 210 23:22 24.10.2019
5602 Clouds 15 1007 77 10000 4.6 210 22:56 24.10.2019
5603 Clouds 15 1007 77 10000 4.6 210 22:37 24.10.2019
5604 Clouds 15 1007 82 10000 3.6 200 22:18 24.10.2019
5605 Clouds 15 1007 82 10000 3.6 200 21:56 24.10.2019
5606 Clouds 15 1007 82 10000 3.6 200 21:37 24.10.2019
5607 Clouds 15 1007 82 9000 4.1 200 21:19 24.10.2019
5608 Clouds 15 1007 82 9000 4.1 200 20:56 24.10.2019
5609 Clouds 15 1007 82 9000 4.1 200 20:38 24.10.2019
5610 Clouds 15 1007 82 6000 3.1 200 20:19 24.10.2019
5611 Clouds 15 1007 82 6000 3.1 200 19:44 24.10.2019
5612 Mist 15 1006 82 5000 2.6 200 19:24 24.10.2019
5613 Mist 15 1006 82 5000 2.6 200 18:59 24.10.2019
5614 Mist 15 1006 82 5000 2.6 200 18:40 24.10.2019
5615 Clouds 16 1006 82 6000 2.6 200 18:22 24.10.2019
5616 Clouds 16 1006 82 6000 2.6 200 17:59 24.10.2019
5617 Clouds 16 1006 82 6000 2.6 200 17:39 24.10.2019
5618 Mist 16 1006 82 5000 3.6 190 17:20 24.10.2019
5619 Mist 16 1006 82 5000 3.6 190 16:55 24.10.2019
5620 Mist 17 1006 82 5000 3.6 190 16:37 24.10.2019
5621 Mist 16 1006 87 4800 3.1 180 16:18 24.10.2019
5622 Mist 16 1006 87 4800 3.1 180 15:55 24.10.2019
5623 Mist 15 1006 87 4800 3.1 180 15:37 24.10.2019
5624 Mist 15 1006 82 4000 3.6 190 15:18 24.10.2019
5625 Mist 15 1006 82 4000 3.6 190 14:44 24.10.2019
5626 Mist 14 1006 87 3700 4.1 190 14:26 24.10.2019
5627 Mist 14 1006 87 3700 4.1 190 13:59 24.10.2019
5628 Mist 14 1006 87 3700 4.1 190 13:38 24.10.2019
5629 Mist 14 1007 87 3700 3.6 180 13:19 24.10.2019
5630 Mist 14 1006 87 3700 3.6 180 12:56 24.10.2019
5631 Mist 14 1006 87 3700 3.6 180 12:38 24.10.2019
5632 Mist 13 1007 93 3500 4.1 170 12:18 24.10.2019
5633 Mist 13 1007 93 3500 4.1 170 11:55 24.10.2019
5634 Mist 13 1007 93 3500 4.1 170 11:36 24.10.2019
5635 Mist 13 1007 93 3500 4.1 170 11:36 24.10.2019
5636 Mist 13 1007 93 3000 3.6 170 11:18 24.10.2019
5637 Mist 13 1007 93 3000 3.6 170 11:18 24.10.2019
5638 Mist 13 1007 93 2000 4.1 180 10:42 24.10.2019
5639 Mist 12 1007 100 1700 4.1 180 10:23 24.10.2019
5640 Mist 12 1007 100 1700 4.1 180 09:55 24.10.2019
5641 Mist 12 1007 100 1700 4.1 180 09:36 24.10.2019
5642 Mist 12 1006 100 1200 3.6 150 09:18 24.10.2019
5643 Mist 12 1006 100 1200 3.6 150 08:42 24.10.2019
5644 Mist 12 1007 100 1500 3.6 150 08:20 24.10.2019
5645 Mist 12 1007 100 1500 3.6 150 07:48 24.10.2019
5646 Mist 12 1007 100 1000 2.6 140 07:24 24.10.2019
5647 Mist 12 1007 100 1000 2.6 140 06:57 24.10.2019
5648 Mist 12 1007 100 1000 2.6 140 06:36 24.10.2019
5649 Fog 12 1008 93 800 1.5 150 05:56 24.10.2019
5650 Fog 12 1008 93 800 1.5 150 05:35 24.10.2019
5651 Fog 11 1008 100 700 2.1 130 04:34 24.10.2019
5652 Fog 10 1009 100 300 2.6 100 03:36 24.10.2019
5653 Fog 10 1009 93 400 1.5 80 02:50 24.10.2019
5654 Mist 11 1010 93 3500 2.1 120 02:21 24.10.2019
5655 Mist 11 1010 93 5000 3.1 110 01:32 24.10.2019
5656 Mist 11 1010 93 5000 3.1 110 00:57 24.10.2019
5657 Clouds 11 1011 93 6000 3.1 110 00:30 24.10.2019
5658 Clouds 11 1011 93 6000 3.1 110 23:59 23.10.2019
5659 Clouds 11 1011 93 6000 3.1 110 23:41 23.10.2019
5660 Clouds 12 1011 93 9000 3.6 120 23:21 23.10.2019
5661 Clouds 12 1011 93 9000 3.6 120 22:57 23.10.2019
5662 Clouds 12 1011 93 9000 3.6 120 22:57 23.10.2019
5663 Clouds 12 1011 93 9000 3.6 120 22:57 23.10.2019
5664 Clouds 11 1011 93 9000 3.6 120 22:37 23.10.2019
5665 Clouds 11 1012 93 8000 2.6 120 22:18 23.10.2019
5666 Clouds 11 1012 93 8000 2.6 120 22:18 23.10.2019
5667 Clouds 11 1012 93 8000 2.6 120 21:57 23.10.2019
5668 Clouds 11 1012 93 8000 2.6 120 21:37 23.10.2019
5669 Clouds 11 1013 93 8000 2.6 110 21:19 23.10.2019
5670 Clouds 11 1013 93 8000 2.6 110 20:55 23.10.2019
5671 Clouds 12 1013 93 8000 2.6 110 20:36 23.10.2019
5672 Clouds 12 1014 87 8000 3.1 110 20:18 23.10.2019
5673 Clouds 12 1014 87 8000 3.1 110 19:44 23.10.2019
5674 Clouds 12 1014 82 8000 3.1 110 19:20 23.10.2019
5675 Clouds 12 1014 82 8000 3.1 110 18:59 23.10.2019
5676 Clouds 13 1014 82 8000 3.1 110 18:39 23.10.2019
5677 Clouds 13 1015 82 8000 2.6 90 18:19 23.10.2019
5678 Clouds 13 1015 82 8000 2.6 90 17:58 23.10.2019
5679 Clouds 13 1015 82 8000 2.6 90 17:58 23.10.2019
5680 Clouds 13 1015 82 8000 2.6 90 17:40 23.10.2019
5681 Clouds 13 1016 76 9000 2.6 100 17:19 23.10.2019
5682 Clouds 13 1016 76 9000 2.6 100 16:54 23.10.2019
5683 Clouds 13 1016 76 8000 2.6 110 16:36 23.10.2019
5684 Clouds 13 1016 76 9000 2.6 100 16:36 23.10.2019
5685 Clouds 13 1016 76 8000 2.6 110 16:18 23.10.2019
5686 Clouds 13 1016 76 8000 2.6 110 15:40 23.10.2019
5687 Clouds 13 1017 76 8000 3.1 100 15:21 23.10.2019
5688 Clouds 13 1017 87 6000 2.1 120 14:57 23.10.2019
5689 Clouds 13 1017 87 6000 2.1 120 14:38 23.10.2019
5690 Mist 13 1018 87 5000 2.1 130 14:19 23.10.2019
5691 Mist 13 1018 87 5000 2.1 130 14:19 23.10.2019
5692 Mist 13 1018 87 5000 2.1 130 13:57 23.10.2019
5693 Mist 13 1018 87 5000 2.1 130 13:38 23.10.2019
5694 Mist 11 1019 93 3000 1 0 13:20 23.10.2019
5695 Mist 11 1019 93 3000 1 0 12:41 23.10.2019
5696 Mist 10 1020 100 2000 2.1 160 12:20 23.10.2019
5697 Mist 10 1020 100 2000 2.1 160 11:58 23.10.2019
5698 Mist 10 1020 100 2000 2.1 160 11:58 23.10.2019
5699 Mist 10 1020 100 2000 2.1 160 11:40 23.10.2019
5700 Mist 10 1020 100 2000 3.6 170 11:21 23.10.2019
5701 Mist 10 1020 93 3000 2.6 160 10:59 23.10.2019
5702 Mist 10 1020 93 3000 2.6 160 10:41 23.10.2019
5703 Mist 9 1020 100 2500 3.1 170 10:22 23.10.2019
5704 Fog 9 1020 93 800 3.1 160 09:41 23.10.2019
5705 Fog 8 1020 100 50 1 150 09:23 23.10.2019
5706 Fog 8 1020 100 50 1 150 09:23 23.10.2019
5707 Fog 8 1020 100 50 1 150 08:59 23.10.2019
5708 Fog 8 1020 100 50 1 150 08:41 23.10.2019
5709 Fog 7 1020 100 50 1 180 08:22 23.10.2019
5710 Fog 8 1020 100 50 1 180 07:45 23.10.2019
5711 Fog 7 1021 100 200 0.5 290 07:21 23.10.2019
5712 Fog 8 1021 100 200 0.5 290 06:46 23.10.2019
5713 Fog 9 1021 93 50 1 210 06:20 23.10.2019
5714 Fog 9 1021 93 10000 1 150 05:24 23.10.2019
5715 Clouds 10 1021 100 10000 0.5 260 04:34 23.10.2019
5716 Drizzle 11 1022 93 10000 1 270 03:33 23.10.2019
5717 Drizzle 10 1022 100 3000 0.5 0 02:37 23.10.2019
5718 Mist 10 1022 93 4500 1.5 200 01:26 23.10.2019
5719 Mist 10 1022 93 4500 1.5 200 00:48 23.10.2019
5720 Mist 11 1022 100 4000 1 170 00:28 23.10.2019
5721 Mist 11 1022 100 5000 1.5 220 23:39 22.10.2019
5722 Mist 11 1023 93 5000 1.5 0 23:18 22.10.2019
5723 Clouds 11 1023 93 6000 2.1 220 22:56 22.10.2019
5724 Clouds 11 1023 93 6000 2.1 220 22:37 22.10.2019
5725 Clouds 12 1022 93 6000 2.1 230 22:19 22.10.2019
5726 Clouds 12 1022 93 6000 2.1 230 21:56 22.10.2019
5727 Clouds 11 1022 93 6000 2.1 230 21:36 22.10.2019
5728 Clouds 11 1022 93 10000 2.1 220 21:18 22.10.2019
5729 Clouds 11 1022 93 10000 2.1 220 21:18 22.10.2019
5730 Clouds 11 1023 93 7000 2.6 290 20:55 22.10.2019
5731 Clouds 12 1023 93 7000 2.6 290 20:37 22.10.2019
5732 Clouds 12 1023 93 8000 3.6 220 20:19 22.10.2019
5733 Clouds 13 1023 93 8000 3.6 220 19:45 22.10.2019
5734 Clouds 13 1022 87 8000 2.6 230 19:26 22.10.2019
5735 Clouds 13 1022 87 8000 2.6 230 18:58 22.10.2019
5736 Clouds 13 1022 87 8000 2.6 230 18:40 22.10.2019
5737 Clouds 13 1022 87 7000 2.6 240 18:21 22.10.2019
5738 Clouds 13 1022 87 7000 2.6 240 17:57 22.10.2019
5739 Clouds 14 1022 87 7000 2.6 240 17:38 22.10.2019
5740 Clouds 14 1022 87 7000 3.1 230 17:19 22.10.2019
5741 Clouds 14 1022 82 9000 3.6 250 16:57 22.10.2019
5742 Clouds 14 1022 82 9000 3.6 250 16:37 22.10.2019
5743 Clouds 14 1022 82 10000 4.6 240 16:18 22.10.2019
5744 Clouds 14 1022 82 10000 4.6 240 15:44 22.10.2019
5745 Clouds 13 1022 82 8000 6.2 260 15:21 22.10.2019
5746 Clouds 13 1022 82 8000 6.2 260 14:58 22.10.2019
5747 Clouds 13 1022 82 8000 6.2 260 14:39 22.10.2019
5748 Clouds 13 1022 87 7000 3.6 240 14:19 22.10.2019
5749 Clouds 13 1022 87 7000 3.6 240 13:42 22.10.2019
5750 Clouds 13 1022 87 7000 3.6 240 13:42 22.10.2019
5751 Clouds 13 1022 82 7000 3.6 240 13:21 22.10.2019
5752 Clouds 13 1022 82 7000 3.6 240 12:58 22.10.2019
5753 Clouds 13 1022 82 7000 3.6 240 12:39 22.10.2019
5754 Clouds 12 1022 87 8000 5.7 230 12:20 22.10.2019
5755 Clouds 12 1022 87 8000 5.7 230 12:20 22.10.2019
5756 Clouds 12 1022 87 8000 5.7 230 11:42 22.10.2019
5757 Clouds 12 1021 87 8000 4.6 230 11:23 22.10.2019
5758 Clouds 12 1021 81 10000 4.1 220 10:59 22.10.2019
5759 Clouds 12 1021 81 10000 4.1 220 10:38 22.10.2019
5760 Clouds 11 1021 87 8000 4.6 230 10:20 22.10.2019
5761 Clouds 11 1021 87 8000 4.6 230 10:00 22.10.2019
5762 Clouds 11 1021 87 8000 4.6 230 10:00 22.10.2019
5763 Clouds 11 1021 87 8000 4.6 230 10:00 22.10.2019
5764 Clouds 11 1021 87 8000 4.6 230 09:41 22.10.2019
5765 Clouds 11 1020 87 10000 3.6 230 09:22 22.10.2019
5766 Clouds 11 1020 87 10000 3.6 230 08:59 22.10.2019
5767 Clouds 11 1020 87 10000 3.6 230 08:41 22.10.2019
5768 Clouds 11 1020 87 10000 3.6 230 08:19 22.10.2019
5769 Clouds 12 1020 81 10000 3.6 230 07:44 22.10.2019
5770 Clouds 11 1020 81 10000 3.6 230 07:26 22.10.2019
5771 Clouds 11 1019 81 10000 3.6 230 06:45 22.10.2019
5772 Clouds 11 1019 81 10000 3.6 220 06:27 22.10.2019
5773 Clouds 11 1019 81 10000 3.6 220 05:48 22.10.2019
5774 Clouds 11 1019 81 10000 3.6 220 05:48 22.10.2019
5775 Clouds 11 1019 81 10000 3.1 220 04:54 22.10.2019
5776 Clouds 11 1020 81 10000 3.6 230 02:32 22.10.2019
5777 Clouds 11 1020 81 10000 3.6 230 01:50 22.10.2019
5778 Clouds 11 1019 81 10000 2.1 200 01:24 22.10.2019
5779 Clouds 11 1019 81 10000 2.1 200 00:56 22.10.2019
5780 Clouds 11 1019 81 10000 2.1 200 00:38 22.10.2019
5781 Clouds 11 1019 81 10000 3.6 220 00:19 22.10.2019
5782 Clouds 11 1019 81 10000 3.6 220 23:39 21.10.2019
5783 Clouds 11 1019 87 10000 3.6 230 23:20 21.10.2019
5784 Clouds 11 1019 87 10000 3.6 230 22:59 21.10.2019
5785 Clouds 11 1019 87 10000 3.6 230 22:40 21.10.2019
5786 Clouds 13 1019 87 10000 2.1 220 22:20 21.10.2019
5787 Clouds 13 1019 87 10000 2.1 220 21:58 21.10.2019
5788 Clouds 13 1019 87 10000 2.1 220 21:39 21.10.2019
5789 Clouds 14 1019 87 10000 1.5 220 21:21 21.10.2019
5790 Clouds 13 1018 93 10000 2.1 210 20:58 21.10.2019
5791 Clouds 13 1018 93 10000 2.1 210 20:40 21.10.2019
5792 Clouds 13 1018 93 10000 2.1 210 20:40 21.10.2019
5793 Clouds 13 1018 100 10000 2.1 170 20:21 21.10.2019
5794 Clouds 13 1018 100 10000 2.1 170 19:58 21.10.2019
5795 Clouds 13 1018 100 10000 2.1 170 19:40 21.10.2019
5796 Fog 12 1018 100 8000 1.5 180 19:21 21.10.2019
5797 Mist 13 1017 93 4500 0.5 180 18:55 21.10.2019
5798 Mist 13 1017 93 4500 0.5 180 18:37 21.10.2019
5799 Clouds 14 1017 87 10000 2.1 230 18:18 21.10.2019
5800 Clouds 14 1017 87 10000 2.1 230 17:55 21.10.2019
5801 Clouds 14 1017 87 10000 2.1 230 17:37 21.10.2019
5802 Clouds 15 1016 82 9000 3.6 260 17:18 21.10.2019
5803 Mist 14 1016 93 5000 2.6 260 16:55 21.10.2019
5804 Mist 14 1016 93 5000 2.6 260 16:37 21.10.2019
5805 Mist 13 1016 100 2800 1.5 180 16:19 21.10.2019
5806 Mist 13 1016 100 2800 1.5 180 15:42 21.10.2019
5807 Mist 13 1016 100 3200 1.5 200 15:24 21.10.2019
5808 Mist 13 1016 93 2000 2.1 170 14:58 21.10.2019
5809 Mist 13 1016 93 2000 2.1 170 14:38 21.10.2019
5810 Drizzle 12 1016 100 700 2.6 140 14:19 21.10.2019
5811 Drizzle 12 1016 100 700 2.6 140 13:56 21.10.2019
5812 Drizzle 12 1016 100 700 2.6 140 13:37 21.10.2019
5813 Mist 12 1016 93 1200 3.1 130 13:18 21.10.2019
5814 Mist 12 1016 93 1600 3.6 130 12:41 21.10.2019
5815 Drizzle 12 1015 93 1800 2.6 120 12:22 21.10.2019
5816 Drizzle 12 1015 93 1800 2.6 120 11:55 21.10.2019
5817 Drizzle 12 1015 93 1800 2.6 120 11:37 21.10.2019
5818 Drizzle 12 1015 93 2000 2.6 100 11:19 21.10.2019
5819 Drizzle 12 1015 93 2800 3.1 120 10:56 21.10.2019
5820 Drizzle 12 1015 93 2800 3.1 120 10:37 21.10.2019
5821 Drizzle 11 1014 100 4000 4.6 80 10:18 21.10.2019
5822 Drizzle 11 1014 100 4000 4.6 80 09:44 21.10.2019
5823 Drizzle 11 1014 93 4500 3.6 70 09:25 21.10.2019
5824 Drizzle 11 1014 93 4500 3.6 70 08:44 21.10.2019
5825 -273 0 0 0 0 0 08:24 21.10.2019
5826 Drizzle 11 1014 93 3700 5.1 80 08:24 21.10.2019
5827 Drizzle 11 1014 93 3700 5.1 80 07:59 21.10.2019
5828 Drizzle 11 1014 93 3700 5.1 80 07:38 21.10.2019
5829 Drizzle 11 1014 93 7000 6.7 70 07:19 21.10.2019
5830 Drizzle 11 1014 93 7000 6.7 70 06:53 21.10.2019
5831 Drizzle 11 1014 93 7000 6.7 70 06:35 21.10.2019
5832 Rain 11 1013 93 10000 7.2 70 05:55 21.10.2019
5833 Rain 11 1013 93 10000 7.2 70 05:55 21.10.2019
5834 Rain 11 1013 87 10000 6.2 90 04:45 21.10.2019
5835 Rain 11 1013 87 10000 4.6 80 03:26 21.10.2019
5836 Rain 11 1013 93 10000 3.6 80 02:23 21.10.2019
5837 Rain 11 1013 93 10000 3.6 80 02:23 21.10.2019
5838 Rain 11 1013 93 10000 3.6 80 01:57 21.10.2019
5839 Clouds 11 1013 87 10000 3.1 50 01:23 21.10.2019
5840 Clouds 11 1013 87 10000 3.1 50 00:47 21.10.2019
5841 Rain 11 1013 93 8000 2.1 60 00:25 21.10.2019
5842 Rain 11 1013 93 8000 2.1 60 23:42 20.10.2019
5843 Clouds 11 1013 93 7000 1.5 60 23:22 20.10.2019
5844 Clouds 11 1013 93 7000 1.5 60 22:57 20.10.2019
5845 Clouds 11 1013 93 7000 1.5 60 22:38 20.10.2019
5846 Clouds 11 1012 93 10000 1.5 80 22:18 20.10.2019
5847 Clouds 11 1012 93 10000 1.5 80 21:57 20.10.2019
5848 Clouds 11 1012 93 10000 1.5 80 21:39 20.10.2019
5849 Rain 11 1012 93 9000 1 40 21:21 20.10.2019
5850 Rain 11 1012 93 7000 1.5 80 20:42 20.10.2019
5851 Rain 11 1012 93 7000 1 120 20:19 20.10.2019
5852 Rain 11 1012 93 7000 1 120 19:57 20.10.2019
5853 Rain 11 1012 93 7000 1 120 19:39 20.10.2019
5854 Rain 12 1011 87 7000 1.12 163.887 19:20 20.10.2019
5855 Rain 12 1011 87 7000 1.12 163.887 19:20 20.10.2019
5856 Rain 12 1011 87 7000 1.12 163.887 18:56 20.10.2019
5857 Rain 12 1011 87 7000 1.12 163.887 18:56 20.10.2019
5858 Rain 13 1011 87 7000 1.12 163.887 18:38 20.10.2019
5859 Rain 13 1011 87 7000 1.12 163.887 18:38 20.10.2019
5860 Clouds 12 1011 93 8000 2.6 160 18:19 20.10.2019
5861 Clouds 12 1011 93 8000 2.6 160 17:54 20.10.2019
5862 Clouds 13 1011 93 8000 2.6 160 17:36 20.10.2019
5863 Clouds 13 1010 87 9000 0.5 0 17:18 20.10.2019
5864 Clouds 13 1010 87 9000 0.5 0 16:41 20.10.2019
5865 Clouds 13 1010 82 10000 0.5 0 16:23 20.10.2019
5866 Clouds 13 1010 82 10000 0.5 0 15:58 20.10.2019
5867 Clouds 13 1010 82 10000 0.5 0 15:38 20.10.2019
5868 Clouds 13 1010 82 10000 2.1 210 15:20 20.10.2019
5869 Clouds 13 1010 82 10000 2.1 210 15:20 20.10.2019
5870 Clouds 13 1010 82 10000 2.1 210 14:57 20.10.2019
5871 Clouds 13 1010 82 10000 2.1 210 14:37 20.10.2019
5872 Clouds 12 1010 87 10000 2.1 210 14:19 20.10.2019
5873 Clouds 12 1010 87 10000 2.1 210 13:55 20.10.2019
5874 Clouds 12 1010 87 10000 2.1 210 13:36 20.10.2019
5875 Clouds 12 1009 87 10000 2.1 200 13:18 20.10.2019
5876 Clouds 12 1009 87 10000 2.1 200 12:56 20.10.2019
5877 Clouds 12 1009 87 10000 2.1 200 12:37 20.10.2019
5878 Clouds 12 1009 87 8000 2.6 220 12:19 20.10.2019
5879 Clouds 12 1009 87 8000 2.6 220 11:54 20.10.2019
5880 Clouds 12 1009 87 8000 2.6 220 11:36 20.10.2019
5881 Mist 11 1009 93 5000 1.5 170 11:18 20.10.2019
5882 Mist 11 1009 93 5000 1.5 170 10:40 20.10.2019
5883 Mist 10 1008 93 3700 2.6 190 10:22 20.10.2019
5884 Mist 10 1008 93 3700 2.6 190 09:57 20.10.2019
5885 Mist 10 1008 93 3700 2.6 190 09:39 20.10.2019
5886 Mist 9 1008 100 3000 2.6 180 09:21 20.10.2019
5887 Mist 9 1008 100 3000 2.6 180 08:48 20.10.2019
5888 Mist 9 1007 100 2800 2.6 180 08:23 20.10.2019
5889 Mist 10 1007 93 3500 2.6 200 07:50 20.10.2019
5890 Mist 9 1007 100 4500 2.6 190 07:30 20.10.2019
5891 Mist 9 1007 100 4500 2.6 190 06:35 20.10.2019
5892 Fog 9 1007 100 4500 2.1 210 05:59 20.10.2019
5893 Mist 10 1006 93 5000 2.6 210 04:27 20.10.2019
5894 Clouds 10 1006 93 8000 2.6 210 03:43 20.10.2019
5895 Clouds 10 1006 93 10000 3.1 200 03:20 20.10.2019
5896 Clouds 10 1006 93 10000 3.1 200 03:20 20.10.2019
5897 Clouds 10 1006 93 10000 3.1 200 02:40 20.10.2019
5898 Clouds 10 1006 93 10000 2.6 210 01:58 20.10.2019
5899 Clouds 10 1006 93 10000 3.1 200 01:23 20.10.2019
5900 Clouds 10 1006 93 10000 3.1 200 00:56 20.10.2019
5901 Clouds 10 1006 93 10000 3.1 200 00:38 20.10.2019
5902 Clouds 10 1006 87 10000 2.6 210 00:19 20.10.2019
5903 Clouds 11 1006 87 10000 2.6 210 23:42 19.10.2019
5904 Clouds 11 1005 93 10000 3.6 210 23:22 19.10.2019
5905 Clouds 11 1005 93 10000 3.6 210 22:56 19.10.2019
5906 Clouds 11 1005 93 10000 3.6 210 22:37 19.10.2019
5907 Clouds 11 1004 93 10000 3.1 210 22:19 19.10.2019
5908 Clouds 11 1004 93 10000 3.1 210 21:46 19.10.2019
5909 Clouds 12 1004 93 10000 2.1 220 21:23 19.10.2019
5910 Clouds 11 1004 93 10000 2.1 220 20:45 19.10.2019
5911 Clouds 12 1004 87 10000 3.6 220 20:23 19.10.2019
5912 Clouds 12 1004 87 10000 3.6 220 20:23 19.10.2019
5913 Clouds 12 1004 87 10000 3.6 220 19:59 19.10.2019
5914 Clouds 12 1004 87 10000 3.6 220 19:40 19.10.2019
5915 Rain 12 1003 87 10000 3.1 180 19:22 19.10.2019
5916 Rain 13 1003 87 10000 3.1 180 18:43 19.10.2019
5917 Rain 13 1003 87 10000 4.6 200 18:24 19.10.2019
5918 Rain 13 1003 87 10000 4.6 200 18:24 19.10.2019
5919 Rain 13 1003 87 10000 4.6 200 17:57 19.10.2019
5920 Rain 13 1003 87 10000 4.6 200 17:37 19.10.2019
5921 Rain 13 1003 87 10000 4.6 200 17:37 19.10.2019
5922 Clouds 13 1003 76 10000 4.1 180 17:19 19.10.2019
5923 Clouds 12 1003 76 10000 4.1 180 16:39 19.10.2019
5924 Clouds 13 1003 76 10000 5.1 190 16:20 19.10.2019
5925 Clouds 13 1003 76 10000 5.1 190 15:56 19.10.2019
5926 Clouds 13 1003 76 10000 5.1 190 15:38 19.10.2019
5927 Clouds 13 1003 71 10000 5.1 200 15:19 19.10.2019
5928 Clouds 13 1003 71 10000 5.1 200 15:19 19.10.2019
5929 Clouds 14 1003 71 10000 5.1 200 14:38 19.10.2019
5930 Rain 13 1004 82 10000 4.6 200 14:20 19.10.2019
5931 Rain 13 1004 82 10000 4.6 200 13:56 19.10.2019
5932 Rain 14 1004 82 10000 4.6 200 13:37 19.10.2019
5933 Rain 14 1004 82 10000 4.6 200 13:37 19.10.2019
5934 Clouds 14 1004 76 10000 4.1 200 13:18 19.10.2019
5935 Clouds 13 1004 76 10000 4.1 200 12:40 19.10.2019
5936 Clouds 13 1004 76 10000 5.1 190 12:22 19.10.2019
5937 Clouds 13 1004 76 10000 5.1 190 11:59 19.10.2019
5938 Clouds 12 1004 76 10000 5.1 190 11:40 19.10.2019
5939 Clouds 12 1004 76 10000 5.1 190 11:40 19.10.2019
5940 Clouds 12 1004 81 10000 4.1 200 11:22 19.10.2019
5941 Clouds 11 1004 81 10000 4.1 200 10:42 19.10.2019
5942 Clouds 11 1004 76 10000 4.6 190 10:23 19.10.2019
5943 Clouds 11 1004 76 10000 4.6 190 09:59 19.10.2019
5944 Clouds 11 1004 76 10000 4.6 190 09:41 19.10.2019
5945 Clouds 10 1004 81 10000 4.6 190 09:22 19.10.2019
5946 Clouds 10 1004 81 10000 4.6 190 08:57 19.10.2019
5947 Clouds 10 1004 81 10000 4.6 190 08:39 19.10.2019
5948 Clouds 10 1004 81 10000 4.6 190 08:39 19.10.2019
5949 Clouds 10 1004 76 10000 4.6 180 08:19 19.10.2019
5950 Clouds 10 1004 76 10000 4.6 180 07:42 19.10.2019
5951 Clouds 10 1004 81 10000 5.1 190 07:23 19.10.2019
5952 Clouds 10 1004 81 10000 5.1 190 06:40 19.10.2019
5953 Clouds 10 1004 76 10000 4.6 190 05:54 19.10.2019
5954 Clouds 10 1004 76 10000 5.1 190 05:26 19.10.2019
5955 Clouds 10 1005 81 10000 5.1 210 03:22 19.10.2019
5956 Clouds 10 1005 81 10000 5.1 210 02:35 19.10.2019
5957 Clouds 11 1005 76 10000 6.7 220 01:50 19.10.2019
5958 Clouds 11 1004 76 10000 6.7 220 00:59 19.10.2019
5959 Clouds 11 1004 76 10000 6.7 220 00:41 19.10.2019
5960 Clouds 11 1004 76 10000 6.7 220 00:21 19.10.2019
5961 Clouds 11 1004 76 10000 6.7 220 23:40 18.10.2019
5962 Clouds 11 1004 76 10000 6.7 220 23:21 18.10.2019
5963 Clouds 11 1004 76 10000 6.7 220 22:55 18.10.2019
5964 Clouds 11 1004 76 10000 6.7 220 22:37 18.10.2019
5965 Clouds 11 1004 76 10000 7.2 220 22:19 18.10.2019
5966 Clouds 11 1004 76 10000 7.2 220 21:56 18.10.2019
5967 Clouds 11 1004 76 10000 7.2 220 21:56 18.10.2019
5968 Clouds 11 1004 76 10000 7.2 220 21:38 18.10.2019
5969 Clouds 12 1003 71 10000 6.7 210 21:19 18.10.2019
5970 Clouds 12 1003 71 10000 6.7 210 20:54 18.10.2019
5971 Clouds 12 1003 71 10000 6.7 210 20:36 18.10.2019
5972 Clouds 11 1003 81 10000 7.2 230 20:18 18.10.2019
5973 Clouds 11 1003 81 10000 7.2 230 19:54 18.10.2019
5974 Clouds 12 1003 81 10000 7.2 230 19:36 18.10.2019
5975 Clouds 12 1002 76 10000 7.7 230 19:18 18.10.2019
5976 Clouds 13 1002 76 10000 7.7 230 18:42 18.10.2019
5977 Clouds 12 1001 81 10000 8.7 230 18:23 18.10.2019
5978 Clouds 12 1001 81 10000 8.7 230 17:57 18.10.2019
5979 Clouds 13 1001 81 10000 8.7 230 17:38 18.10.2019
5980 Clouds 12 1001 81 10000 7.2 230 17:20 18.10.2019
5981 Clouds 13 1001 81 10000 7.2 220 16:44 18.10.2019
5982 Clouds 13 1001 81 10000 7.2 220 16:44 18.10.2019
5983 Clouds 12 1000 93 10000 4.6 200 16:22 18.10.2019
5984 Clouds 12 1000 93 10000 4.6 200 16:22 18.10.2019
5985 Thunderstorm 11 1001 87 4000 7.2 210 15:59 18.10.2019
5986 Thunderstorm 11 1001 87 4000 7.2 210 15:40 18.10.2019
5987 Thunderstorm 13 1000 72 6000 4.1 170 15:21 18.10.2019
5988 Clouds 14 1001 77 10000 4.6 170 14:58 18.10.2019
5989 Clouds 16 1001 77 10000 4.6 170 14:40 18.10.2019
5990 Clouds 15 1002 82 10000 5.1 180 14:22 18.10.2019
5991 Clouds 15 1002 82 10000 5.1 180 13:59 18.10.2019
5992 Clouds 16 1002 82 10000 5.1 180 13:40 18.10.2019
5993 Clouds 15 1003 87 10000 6.2 190 13:22 18.10.2019
5994 -273 0 0 0 0 0 12:56 18.10.2019
5995 Clouds 14 1003 87 10000 6.2 190 12:38 18.10.2019
5996 Clouds 13 1004 93 10000 4.6 170 12:20 18.10.2019
5997 Clouds 13 1004 93 10000 4.6 170 11:54 18.10.2019
5998 Clouds 13 1004 93 10000 4.6 170 11:36 18.10.2019
5999 Clouds 13 1004 93 9000 4.6 170 11:18 18.10.2019
6000 Clouds 13 1004 93 9000 4.6 170 10:42 18.10.2019
6001 Clouds 12 1005 100 8000 5.1 170 10:22 18.10.2019
6002 Clouds 12 1005 100 8000 5.1 170 09:58 18.10.2019
6003 Clouds 12 1005 100 8000 5.1 170 09:40 18.10.2019
6004 Mist 11 1005 100 3000 3.1 160 09:20 18.10.2019
6005 Mist 11 1005 100 3000 3.1 160 08:57 18.10.2019
6006 Mist 11 1005 100 3000 3.1 160 08:39 18.10.2019
6007 Mist 12 1005 93 2800 3.6 170 08:20 18.10.2019
6008 Mist 12 1006 93 4000 3.1 190 07:42 18.10.2019
6009 Mist 11 1006 93 5000 2.6 200 07:20 18.10.2019
6010 Clouds 11 1006 93 6000 3.6 210 06:39 18.10.2019
6011 Clouds 12 1007 93 6000 4.1 210 06:20 18.10.2019
6012 Clouds 12 1007 93 10000 2.6 200 05:55 18.10.2019
6013 Clouds 11 1007 100 10000 2.6 200 05:22 18.10.2019
6014 Mist 11 1007 93 1500 2.1 160 03:56 18.10.2019
6015 Clouds 12 1008 93 10000 1.5 160 03:29 18.10.2019
6016 Clouds 11 1008 93 10000 1.5 160 02:33 18.10.2019
6017 Drizzle 12 1008 93 6000 2.6 140 01:44 18.10.2019
6018 Rain 12 1008 100 5000 2.1 170 01:26 18.10.2019
6019 Rain 13 1008 100 5000 2.1 170 00:45 18.10.2019
6020 Rain 12 1009 100 4000 2.1 180 00:21 18.10.2019
6021 Rain 12 1009 93 6000 2.6 170 23:55 17.10.2019
6022 Rain 13 1009 93 6000 2.6 170 23:36 17.10.2019
6023 Clouds 12 1009 87 10000 2.6 120 23:18 17.10.2019
6024 Clouds 12 1009 87 10000 2.6 120 22:54 17.10.2019
6025 Clouds 13 1009 87 10000 2.6 120 22:36 17.10.2019
6026 Clouds 12 1009 87 10000 2.6 140 22:18 17.10.2019
6027 Clouds 12 1009 87 10000 2.6 140 21:55 17.10.2019
6028 Clouds 12 1009 87 10000 2.6 140 21:55 17.10.2019
6029 Clouds 13 1009 87 10000 2.6 140 21:37 17.10.2019
6030 Clouds 12 1009 87 10000 2.6 150 21:19 17.10.2019
6031 -273 0 0 0 0 0 20:56 17.10.2019
6032 Clouds 13 1009 87 10000 2.6 150 20:37 17.10.2019
6033 Clouds 12 1010 87 10000 1.5 150 20:18 17.10.2019
6034 Clouds 13 1010 87 10000 1.5 150 19:42 17.10.2019
6035 Clouds 13 1010 87 10000 1.5 150 19:42 17.10.2019
6036 Clouds 13 1010 87 10000 1 170 19:20 17.10.2019
6037 Clouds 13 1010 87 10000 1 170 18:59 17.10.2019
6038 Clouds 14 1010 87 10000 1 170 18:39 17.10.2019
6039 Clouds 15 1010 76 10000 1.5 0 18:20 17.10.2019
6040 Clouds 16 1010 76 10000 1.5 0 17:44 17.10.2019
6041 Clouds 16 1010 76 10000 2.6 250 17:25 17.10.2019
6042 Clouds 16 1010 76 10000 2.6 250 16:59 17.10.2019
6043 Clouds 14 1010 76 10000 2.6 250 16:41 17.10.2019
6044 Clouds 15 1010 77 10000 3.1 250 16:19 17.10.2019
6045 Clouds 15 1010 77 10000 3.1 250 16:19 17.10.2019
6046 Clouds 15 1010 77 10000 3.1 250 15:57 17.10.2019
6047 Clouds 15 1010 77 10000 3.1 250 15:39 17.10.2019
6048 Clouds 15 1009 77 10000 2.6 240 15:20 17.10.2019
6049 Clouds 15 1009 77 10000 2.6 240 15:20 17.10.2019
6050 Clouds 15 1009 77 10000 2.6 240 14:57 17.10.2019
6051 Clouds 15 1009 77 10000 2.6 240 14:38 17.10.2019
6052 Clouds 13 1009 93 10000 1.5 220 14:20 17.10.2019
6053 Clouds 13 1009 93 10000 1.5 220 13:41 17.10.2019
6054 Clouds 13 1009 93 9000 3.6 270 13:21 17.10.2019
6055 Drizzle 12 1009 100 4000 6.7 290 12:58 17.10.2019
6056 Drizzle 12 1009 100 4000 6.7 290 12:39 17.10.2019
6057 Drizzle 12 1008 100 2200 5.1 290 12:20 17.10.2019
6058 Drizzle 13 1008 93 3000 5.1 290 11:56 17.10.2019
6059 Drizzle 13 1008 93 3000 5.1 290 11:38 17.10.2019
6060 Drizzle 14 1007 93 3000 4.6 230 11:18 17.10.2019
6061 Drizzle 14 1007 93 3000 4.6 230 10:42 17.10.2019
6062 Drizzle 13 1007 100 2500 4.6 220 10:20 17.10.2019
6063 Drizzle 13 1007 100 2500 4.6 220 09:57 17.10.2019
6064 Drizzle 13 1007 100 2500 4.6 220 09:57 17.10.2019
6065 Drizzle 13 1007 100 2500 4.6 220 09:38 17.10.2019
6066 Drizzle 13 1007 100 2500 4.6 220 09:20 17.10.2019
6067 Drizzle 13 1006 100 3000 4.6 220 08:57 17.10.2019
6068 -273 0 0 0 0 0 08:57 17.10.2019
6069 Drizzle 13 1006 100 3000 4.6 220 08:38 17.10.2019
6070 Drizzle 13 1006 100 4000 4.1 210 08:18 17.10.2019
6071 Drizzle 13 1006 100 4000 4.1 210 07:48 17.10.2019
6072 Drizzle 13 1005 100 5000 4.6 210 07:21 17.10.2019
6073 Drizzle 13 1005 100 5000 4.6 210 07:21 17.10.2019
6074 Drizzle 13 1005 100 4500 5.1 220 06:58 17.10.2019
6075 Drizzle 13 1005 100 4500 5.1 220 06:39 17.10.2019
6076 Drizzle 13 1006 100 5000 4.1 210 06:19 17.10.2019
6077 Drizzle 13 1006 100 4500 5.1 210 05:41 17.10.2019
6078 Drizzle 13 1006 100 4000 4.1 210 05:21 17.10.2019
6079 Drizzle 13 1006 100 4000 4.1 210 04:50 17.10.2019
6080 Rain 13 1006 100 6000 4.6 210 03:50 17.10.2019
6081 Rain 13 1006 100 6000 4.1 200 02:35 17.10.2019
6082 Drizzle 13 1006 93 4000 3.6 190 00:54 17.10.2019
6083 Drizzle 13 1006 93 4000 3.6 190 00:36 17.10.2019
6084 Drizzle 13 1006 93 7000 3.6 180 00:18 17.10.2019
6085 Drizzle 13 1007 93 7000 3.6 190 23:42 16.10.2019
6086 Clouds 13 1007 87 10000 3.1 180 23:20 16.10.2019
6087 Clouds 13 1007 87 10000 3.1 180 22:55 16.10.2019
6088 Clouds 13 1007 87 10000 3.1 180 22:36 16.10.2019
6089 Clouds 13 1007 87 10000 3.1 170 22:18 16.10.2019
6090 Clouds 13 1007 87 10000 3.1 170 21:55 16.10.2019
6091 Clouds 13 1007 87 10000 3.1 170 21:37 16.10.2019
6092 Clouds 13 1007 87 10000 2.6 160 21:18 16.10.2019
6093 Clouds 13 1007 87 10000 2.6 160 20:56 16.10.2019
6094 Clouds 13 1007 87 10000 2.6 160 20:56 16.10.2019
6095 Clouds 13 1007 87 10000 2.6 160 20:56 16.10.2019
6096 Clouds 13 1007 87 10000 2.6 160 20:38 16.10.2019
6097 Clouds 13 1007 87 10000 2.1 150 20:20 16.10.2019
6098 Clouds 13 1007 87 10000 2.1 150 19:56 16.10.2019
6099 Clouds 13 1007 87 10000 2.1 150 19:38 16.10.2019
6100 Clouds 13 1007 87 10000 1.5 160 19:19 16.10.2019
6101 Clouds 14 1007 87 10000 1.5 160 18:39 16.10.2019
6102 Clouds 14 1007 76 10000 3.6 220 18:19 16.10.2019
6103 Clouds 14 1007 76 10000 3.6 220 17:56 16.10.2019
6104 Clouds 15 1007 76 10000 3.6 220 17:38 16.10.2019
6105 Clouds 15 1007 76 10000 4.6 220 17:20 16.10.2019
6106 Clouds 15 1007 76 10000 4.6 220 16:58 16.10.2019
6107 Clouds 16 1007 76 10000 4.6 220 16:40 16.10.2019
6108 Clouds 16 1007 76 10000 5.7 230 16:20 16.10.2019
6109 Clouds 16 1007 76 10000 5.7 230 15:56 16.10.2019
6110 Clouds 16 1007 76 10000 5.7 230 15:55 16.10.2019
6111 Clouds 14 1007 76 10000 5.7 230 15:36 16.10.2019
6112 Clouds 14 1007 82 10000 4.1 240 15:18 16.10.2019
6113 -273 0 0 0 0 0 14:55 16.10.2019
6114 Clouds 14 1007 82 10000 4.1 240 14:37 16.10.2019
6115 Clouds 14 1007 82 10000 4.1 250 14:18 16.10.2019
6116 Clouds 14 1007 82 9000 4.1 260 13:55 16.10.2019
6117 Clouds 14 1007 82 9000 4.1 260 13:36 16.10.2019
6118 Clouds 13 1008 93 7000 6.2 260 13:18 16.10.2019
6119 Clouds 13 1008 93 7000 6.2 260 12:40 16.10.2019
6120 Clouds 13 1007 93 7000 5.1 260 12:18 16.10.2019
6121 Clouds 13 1007 93 7000 6.2 260 11:42 16.10.2019
6122 Mist 13 1007 93 5000 5.1 260 11:18 16.10.2019
6123 -273 0 0 0 0 0 10:39 16.10.2019
6124 Mist 13 1007 93 3700 3.6 250 10:20 16.10.2019
6125 Mist 13 1007 93 3700 3.6 250 09:55 16.10.2019
6126 Mist 13 1007 93 3700 3.6 250 09:37 16.10.2019
6127 Mist 13 1007 93 3700 3.1 240 09:19 16.10.2019
6128 Drizzle 13 1006 93 3500 4.1 260 08:42 16.10.2019
6129 Drizzle 13 1006 93 2500 3.6 260 08:24 16.10.2019
6130 Drizzle 13 1006 93 2500 3.1 260 07:45 16.10.2019
6131 Rain 13 1006 93 3700 3.1 260 07:25 16.10.2019
6132 Drizzle 13 1006 93 3000 3.1 270 06:58 16.10.2019
6133 Drizzle 13 1006 93 3000 3.1 270 06:39 16.10.2019
6134 Rain 13 1006 93 4500 2.1 270 05:48 16.10.2019
6135 Rain 14 1006 93 2500 2.6 280 03:24 16.10.2019
6136 Rain 14 1006 93 2500 2.6 280 02:47 16.10.2019
6137 Rain 14 1006 93 1500 3.1 270 01:19 16.10.2019
6138 Rain 14 1006 93 1500 3.1 270 00:49 16.10.2019
6139 Rain 14 1006 93 1700 2.1 270 00:27 16.10.2019
6140 Rain 14 1006 93 2500 0.5 0 23:41 15.10.2019
6141 Rain 14 1006 93 4000 1.5 0 23:22 15.10.2019
6142 Rain 14 1006 93 4000 1.5 0 22:56 15.10.2019
6143 Rain 14 1006 93 4000 1.5 0 22:38 15.10.2019
6144 Clouds 14 1006 87 10000 1 80 22:20 15.10.2019
6145 Clouds 14 1006 87 10000 1 80 21:56 15.10.2019
6146 Clouds 14 1006 87 10000 1 80 21:56 15.10.2019
6147 Clouds 14 1006 87 10000 1 80 21:38 15.10.2019
6148 Clouds 14 1006 87 10000 1 0 21:20 15.10.2019
6149 Clouds 14 1006 87 10000 0.5 0 20:57 15.10.2019
6150 Clouds 14 1006 87 10000 0.5 0 20:57 15.10.2019
6151 Clouds 15 1006 87 10000 0.5 0 20:39 15.10.2019
6152 Clouds 15 1006 87 10000 3.103 285 20:20 15.10.2019
6153 Clouds 15 1006 87 10000 3.103 285 20:20 15.10.2019
6154 Clouds 15 1006 87 10000 1.5 350 19:58 15.10.2019
6155 Clouds 15 1006 87 10000 1.5 350 19:40 15.10.2019
6156 Clouds 15 1005 82 10000 3.103 285 19:19 15.10.2019
6157 Clouds 16 1005 82 10000 3.103 285 18:47 15.10.2019
6158 Clouds 17 1005 77 10000 2.1 230 18:29 15.10.2019
6159 Clouds 17 1005 77 10000 2.1 230 17:59 15.10.2019
6160 Clouds 17 1005 77 10000 2.1 230 17:40 15.10.2019
6161 Clouds 17 1005 77 10000 2.1 230 17:40 15.10.2019
6162 Clouds 17 1005 72 10000 2.1 250 17:20 15.10.2019
6163 Clouds 17 1005 72 10000 2.1 250 16:56 15.10.2019
6164 Clouds 18 1005 72 10000 2.6 260 16:37 15.10.2019
6165 Clouds 18 1005 72 10000 2.6 260 16:19 15.10.2019
6166 Clouds 18 1005 72 10000 2.6 260 15:43 15.10.2019
6167 Clouds 18 1005 72 10000 4.1 270 15:21 15.10.2019
6168 Clouds 18 1005 72 10000 4.1 270 14:59 15.10.2019
6169 Clouds 18 1005 72 10000 4.1 270 14:38 15.10.2019
6170 Clouds 18 1005 72 10000 2.6 260 14:20 15.10.2019
6171 Clouds 18 1005 72 10000 2.6 260 14:20 15.10.2019
6172 Clouds 18 1005 72 10000 2.6 260 13:56 15.10.2019
6173 Clouds 18 1005 72 10000 2.6 260 13:37 15.10.2019
6174 Clouds 18 1006 72 10000 4.1 240 13:19 15.10.2019
6175 Clouds 18 1006 72 10000 4.1 240 12:43 15.10.2019
6176 Clouds 17 1005 77 10000 4.1 230 12:21 15.10.2019
6177 Clouds 17 1005 77 10000 4.1 230 11:57 15.10.2019
6178 Clouds 17 1005 77 10000 4.1 230 11:38 15.10.2019
6179 Clouds 16 1005 82 10000 3.1 210 11:19 15.10.2019
6180 Clouds 16 1005 82 10000 3.1 210 10:45 15.10.2019
6181 Clouds 12 1005 93 10000 2.1 140 10:22 15.10.2019
6182 Clouds 12 1005 93 10000 2.1 140 09:58 15.10.2019
6183 Clouds 12 1005 93 10000 2.1 140 09:38 15.10.2019
6184 Fog 11 1005 100 9000 3.1 140 09:20 15.10.2019
6185 Fog 11 1005 100 9000 3.1 140 08:56 15.10.2019
6186 Clouds 11 1005 93 10000 3.1 130 08:37 15.10.2019
6187 Clouds 11 1005 93 10000 3.1 130 08:18 15.10.2019
6188 Clouds 11 1005 93 10000 3.1 130 07:41 15.10.2019
6189 Clouds 11 1005 93 10000 3.6 130 07:21 15.10.2019
6190 Clouds 11 1005 93 10000 3.6 130 06:47 15.10.2019
6191 Clouds 11 1005 93 10000 3.6 120 06:29 15.10.2019
6192 Clouds 11 1005 93 10000 3.6 120 05:48 15.10.2019
6193 Clouds 12 1006 87 10000 4.1 110 05:29 15.10.2019
6194 Clouds 12 1006 87 10000 4.1 110 04:39 15.10.2019
6195 Clouds 12 1007 87 10000 3.6 100 03:57 15.10.2019
6196 Clouds 12 1007 87 10000 3.1 110 03:27 15.10.2019
6197 Clouds 13 1008 87 10000 4.1 100 01:51 15.10.2019
6198 Clouds 13 1008 87 10000 4.6 100 01:23 15.10.2019
6199 Clouds 13 1008 87 10000 4.6 100 00:52 15.10.2019
6200 Clouds 13 1009 87 10000 5.1 100 00:23 15.10.2019
6201 Clouds 13 1009 87 10000 5.1 100 23:46 14.10.2019
6202 Clouds 13 1010 82 10000 4.6 100 23:21 14.10.2019
6203 Clouds 13 1010 82 10000 4.6 100 22:59 14.10.2019
6204 -273 0 0 0 0 0 22:39 14.10.2019
6205 Clouds 14 1010 82 10000 5.1 100 22:19 14.10.2019
6206 Clouds 14 1010 82 10000 5.1 100 21:56 14.10.2019
6207 Clouds 14 1010 82 10000 5.1 100 21:38 14.10.2019
6208 Clouds 14 1011 87 10000 4.1 100 21:20 14.10.2019
6209 Clouds 14 1011 87 10000 4.1 100 21:20 14.10.2019
6210 -273 0 0 0 0 0 20:56 14.10.2019
6211 Clouds 14 1011 87 10000 4.1 100 20:37 14.10.2019
6212 Clouds 14 1011 87 10000 4.6 90 20:18 14.10.2019
6213 Clouds 14 1011 87 10000 4.6 90 19:43 14.10.2019
6214 Clouds 14 1012 87 10000 2.1 50 19:24 14.10.2019
6215 Clouds 14 1012 87 10000 2.1 50 19:24 14.10.2019
6216 Clouds 14 1012 87 10000 2.1 50 18:59 14.10.2019
6217 Clouds 14 1012 87 10000 2.1 50 18:39 14.10.2019
6218 Rain 14 1011 87 8000 6.2 100 18:20 14.10.2019
6219 Rain 14 1011 87 8000 6.2 100 18:20 14.10.2019
6220 Rain 14 1011 87 8000 6.2 100 18:20 14.10.2019
6221 Rain 14 1012 87 3500 4.6 60 17:58 14.10.2019
6222 Rain 14 1012 87 3500 4.6 60 17:40 14.10.2019
6223 Rain 14 1012 77 10000 3.6 100 17:21 14.10.2019
6224 Rain 14 1012 77 10000 3.6 100 17:21 14.10.2019
6225 Clouds 15 1012 72 10000 4.1 100 16:44 14.10.2019
6226 Clouds 15 1013 77 10000 3.1 110 16:22 14.10.2019
6227 Clouds 15 1013 77 10000 3.1 110 15:57 14.10.2019
6228 Clouds 15 1013 77 10000 3.1 110 15:38 14.10.2019
6229 Clouds 15 1014 77 10000 2.1 110 15:20 14.10.2019
6230 Clouds 15 1014 77 10000 2.1 110 14:43 14.10.2019
6231 Clouds 15 1014 82 10000 1 200 14:24 14.10.2019
6232 Clouds 15 1014 82 10000 1 200 13:56 14.10.2019
6233 Clouds 15 1014 82 10000 1 200 13:37 14.10.2019
6234 Clouds 15 1015 76 10000 2.6 260 13:18 14.10.2019
6235 Clouds 15 1015 76 10000 2.6 260 12:40 14.10.2019
6236 Clouds 15 1015 76 10000 2.6 260 12:40 14.10.2019
6237 Clouds 15 1014 82 10000 2.6 240 12:19 14.10.2019
6238 Clouds 14 1014 82 10000 2.6 240 11:46 14.10.2019
6239 Clouds 13 1014 82 10000 3.1 240 11:27 14.10.2019
6240 Clouds 13 1014 82 10000 3.1 240 10:58 14.10.2019
6241 Clouds 13 1014 82 10000 3.1 240 10:39 14.10.2019
6242 Clouds 13 1013 82 10000 3.1 240 10:20 14.10.2019
6243 Clouds 13 1013 82 10000 3.1 240 09:56 14.10.2019
6244 Clouds 12 1013 82 10000 3.1 240 09:37 14.10.2019
6245 Clouds 12 1012 87 10000 3.1 240 09:18 14.10.2019
6246 Clouds 12 1012 87 10000 3.1 240 08:44 14.10.2019
6247 Clouds 12 1012 87 10000 4.1 230 08:22 14.10.2019
6248 Clouds 13 1012 87 10000 4.1 230 07:42 14.10.2019
6249 Clouds 13 1011 82 10000 5.1 260 07:19 14.10.2019
6250 Clouds 13 1011 82 10000 5.1 260 06:53 14.10.2019
6251 Clouds 13 1011 82 10000 6.7 260 06:26 14.10.2019
6252 Clouds 13 1011 82 10000 6.7 260 05:49 14.10.2019
6253 Clouds 14 1010 82 10000 7.7 260 04:48 14.10.2019
6254 Clouds 14 1008 82 10000 8.2 260 03:28 14.10.2019
6255 Clouds 14 1008 82 10000 8.2 260 02:56 14.10.2019
6256 Clouds 15 1006 82 10000 8.2 260 01:25 14.10.2019
6257 Clouds 15 1003 81 0 1.34 180 00:59 14.10.2019
6258 Clouds 16 1006 82 10000 8.2 250 00:21 14.10.2019
6259 Clouds 16 1006 82 10000 8.2 250 00:21 14.10.2019
6260 Clouds 17 1006 82 10000 8.2 250 23:46 13.10.2019
6261 Rain 17 1005 88 10000 7.2 230 23:21 13.10.2019
6262 Rain 17 1005 88 10000 7.2 230 22:59 13.10.2019
6263 -273 0 0 0 0 0 22:41 13.10.2019
6264 Clouds 18 1004 77 10000 6.7 220 22:22 13.10.2019
6265 Clouds 18 1004 77 10000 6.7 220 21:58 13.10.2019
6266 Clouds 18 1004 77 10000 6.7 220 21:58 13.10.2019
6267 Clouds 19 1004 77 10000 6.7 220 21:38 13.10.2019
6268 Clouds 19 1004 77 10000 6.2 210 21:19 13.10.2019
6269 -273 0 0 0 0 0 20:58 13.10.2019
6270 Clouds 19 1004 77 10000 6.2 210 20:58 13.10.2019
6271 Clouds 19 1004 77 10000 6.2 210 20:58 13.10.2019
6272 Clouds 19 1004 77 10000 6.2 210 20:39 13.10.2019
6273 Clouds 19 1004 77 10000 6.2 210 20:39 13.10.2019
6274 Clouds 19 1004 82 10000 5.1 200 20:21 13.10.2019
6275 Clouds 19 1004 82 10000 5.1 200 20:21 13.10.2019
6276 Clouds 19 1004 82 10000 5.1 200 19:59 13.10.2019
6277 Clouds 19 1004 82 10000 5.1 200 19:39 13.10.2019
6278 Clouds 19 1004 82 10000 5.1 200 19:39 13.10.2019
6279 Clouds 19 1004 82 10000 5.1 200 19:39 13.10.2019
6280 Clouds 19 1004 88 10000 5.7 190 19:21 13.10.2019
6281 Clouds 19 1004 88 10000 5.7 190 18:59 13.10.2019
6282 -273 0 0 0 0 0 18:58 13.10.2019
6283 Clouds 19 1004 88 10000 5.7 190 18:58 13.10.2019
6284 Clouds 19 1004 88 10000 5.7 190 18:58 13.10.2019
6285 -273 0 0 0 0 0 18:58 13.10.2019
6286 Clouds 19 1004 88 10000 5.7 190 18:37 13.10.2019
6287 Clouds 18 1004 93 10000 3.6 170 18:19 13.10.2019
6288 Clouds 18 1004 93 10000 3.6 170 18:19 13.10.2019
6289 Clouds 18 1004 93 10000 3.6 170 17:58 13.10.2019
6290 Clouds 18 1004 93 10000 3.6 170 17:39 13.10.2019
6291 Clouds 17 1005 93 8000 3.6 170 17:21 13.10.2019
6292 Clouds 17 1005 93 8000 3.6 170 16:43 13.10.2019
6293 Clouds 17 1006 93 8000 4.1 170 16:19 13.10.2019
6294 Clouds 17 1006 93 6000 3.1 170 15:57 13.10.2019
6295 Clouds 17 1006 93 6000 3.1 170 15:38 13.10.2019
6296 Drizzle 16 1006 100 5000 2.6 160 15:19 13.10.2019
6297 Clouds 16 1007 93 8000 3.6 160 14:57 13.10.2019
6298 Clouds 16 1007 93 8000 3.6 160 14:39 13.10.2019
6299 Drizzle 16 1007 93 3500 2.6 160 14:20 13.10.2019
6300 Clouds 16 1008 87 6000 3.1 170 13:42 13.10.2019
6301 Clouds 15 1008 93 6000 3.1 160 13:23 13.10.2019
6302 Clouds 14 1008 100 6000 3.1 140 12:59 13.10.2019
6303 Clouds 14 1008 100 6000 3.1 140 12:40 13.10.2019
6304 Mist 13 1008 93 5000 3.1 150 12:21 13.10.2019
6305 Mist 12 1008 100 5000 3.1 140 11:59 13.10.2019
6306 Mist 12 1008 100 5000 3.1 140 11:39 13.10.2019
6307 Mist 11 1009 100 4000 3.6 130 11:21 13.10.2019
6308 Mist 11 1009 100 4000 3.6 130 10:59 13.10.2019
6309 -273 0 0 0 0 0 10:40 13.10.2019
6310 Drizzle 11 1009 93 3500 3.1 120 10:22 13.10.2019
6311 Drizzle 11 1009 93 3500 3.1 120 09:40 13.10.2019
6312 Mist 11 1009 93 4500 3.6 120 09:21 13.10.2019
6313 Mist 11 1009 93 4500 3.6 120 08:55 13.10.2019
6314 Mist 11 1009 93 4500 3.1 120 08:27 13.10.2019
6315 Mist 11 1009 93 4500 3.1 120 08:27 13.10.2019
6316 Drizzle 11 1009 93 3500 2.6 110 07:56 13.10.2019
6317 Drizzle 11 1009 93 3500 2.6 110 07:38 13.10.2019
6318 Drizzle 11 1010 93 3000 1.5 90 06:55 13.10.2019
6319 Drizzle 10 1010 100 2500 1 110 06:26 13.10.2019
6320 Drizzle 10 1010 100 2500 1 110 05:34 13.10.2019
6321 Drizzle 10 1010 100 3000 1.5 150 04:38 13.10.2019
6322 Drizzle 11 1010 93 5000 2.6 200 03:39 13.10.2019
6323 Drizzle 11 1010 93 5000 2.6 200 02:35 13.10.2019
6324 Drizzle 11 1010 93 5000 2.6 220 01:51 13.10.2019
6325 Drizzle 11 1011 93 5000 2.6 220 01:22 13.10.2019
6326 Drizzle 11 1011 93 5000 2.6 220 00:44 13.10.2019
6327 Drizzle 11 1011 93 5000 2.6 220 00:21 13.10.2019
6328 Drizzle 11 1010 93 6000 3.1 220 23:55 12.10.2019
6329 Drizzle 11 1010 93 6000 3.1 220 23:36 12.10.2019
6330 Drizzle 11 1010 93 7000 3.1 210 23:18 12.10.2019
6331 Drizzle 11 1010 93 7000 3.1 210 22:55 12.10.2019
6332 Drizzle 11 1010 93 7000 3.1 210 22:37 12.10.2019
6333 Drizzle 11 1010 93 7000 4.6 230 22:18 12.10.2019
6334 Drizzle 11 1010 93 7000 4.6 230 21:42 12.10.2019
6335 Drizzle 11 1009 93 7000 4.1 220 21:24 12.10.2019
6336 Drizzle 11 1010 100 7000 3.6 220 20:57 12.10.2019
6337 Drizzle 12 1010 100 7000 3.6 220 20:39 12.10.2019
6338 Drizzle 12 1010 93 7000 3.6 230 20:20 12.10.2019
6339 Rain 13 1009 93 8000 3.1 220 19:37 12.10.2019
6340 Rain 12 1009 93 9000 3.1 240 19:19 12.10.2019
6341 -273 0 0 0 0 0 18:55 12.10.2019
6342 Rain 12 1009 93 9000 3.1 240 18:54 12.10.2019
6343 Rain 13 1009 93 9000 3.1 240 18:36 12.10.2019
6344 Rain 13 1009 87 10000 3.6 250 18:18 12.10.2019
6345 Rain 14 1009 87 10000 3.6 250 17:42 12.10.2019
6346 Rain 13 1009 87 10000 4.1 250 17:19 12.10.2019
6347 Rain 13 1009 87 10000 4.1 250 16:41 12.10.2019
6348 Rain 13 1009 87 10000 4.1 250 16:41 12.10.2019
6349 Clouds 13 1008 87 10000 3.6 240 16:21 12.10.2019
6350 Clouds 13 1008 87 10000 3.6 240 15:59 12.10.2019
6351 Clouds 14 1008 87 10000 3.6 240 15:39 12.10.2019
6352 Clouds 13 1008 87 10000 4.1 240 15:21 12.10.2019
6353 Clouds 13 1008 87 10000 4.1 240 15:21 12.10.2019
6354 Clouds 13 1008 87 10000 4.1 240 14:41 12.10.2019
6355 Clouds 13 1007 87 10000 6.2 230 14:22 12.10.2019
6356 Clouds 13 1007 87 10000 6.2 230 14:21 12.10.2019
6357 Clouds 13 1007 87 10000 6.2 230 13:53 12.10.2019
6358 Clouds 13 1007 87 10000 5.1 240 13:33 12.10.2019
6359 Clouds 13 1007 87 10000 5.1 240 12:59 12.10.2019
6360 Clouds 13 1007 87 10000 5.1 240 12:59 12.10.2019
6361 Clouds 12 1007 87 10000 5.1 240 12:39 12.10.2019
6362 Clouds 12 1007 87 10000 5.1 230 12:20 12.10.2019
6363 Clouds 12 1007 87 10000 5.1 230 11:58 12.10.2019
6364 Clouds 12 1007 87 10000 5.1 230 11:38 12.10.2019
6365 Drizzle 11 1006 93 10000 3.6 240 11:19 12.10.2019
6366 Drizzle 11 1006 93 10000 3.6 240 10:41 12.10.2019
6367 Drizzle 11 1006 93 8000 3.6 240 10:23 12.10.2019
6368 Drizzle 11 1006 93 5000 4.1 240 09:58 12.10.2019
6369 Drizzle 11 1006 93 5000 4.1 240 09:57 12.10.2019
6370 Drizzle 11 1006 93 5000 4.1 240 09:39 12.10.2019
6371 Clouds 11 1005 93 10000 4.6 230 09:21 12.10.2019
6372 Clouds 11 1005 93 10000 4.6 230 08:57 12.10.2019
6373 Clouds 11 1005 93 10000 4.6 230 08:37 12.10.2019
6374 Clouds 11 1004 93 10000 4.6 260 08:18 12.10.2019
6375 Drizzle 11 1004 93 10000 4.1 250 07:33 12.10.2019
6376 Drizzle 11 1004 93 10000 4.1 250 06:50 12.10.2019
6377 Drizzle 12 1004 87 9000 5.7 280 05:46 12.10.2019
6378 Rain 13 1003 93 10000 7.2 260 04:52 12.10.2019
6379 Clouds 13 1003 93 10000 6.7 260 03:58 12.10.2019
6380 Drizzle 14 1003 93 3500 7.2 260 02:57 12.10.2019
6381 Drizzle 15 1002 93 10000 7.7 240 01:38 12.10.2019
6382 Drizzle 15 1002 93 9000 8.7 230 01:19 12.10.2019
6383 Drizzle 14 1002 93 9000 8.7 230 00:40 12.10.2019
6384 Drizzle 14 1002 93 7000 8.2 230 23:57 11.10.2019
6385 Drizzle 14 1002 93 7000 8.2 230 23:39 11.10.2019
6386 Drizzle 14 1002 93 5000 8.2 230 23:20 11.10.2019
6387 Drizzle 14 1002 93 5000 8.2 230 23:20 11.10.2019
6388 Drizzle 14 1002 93 5000 8.2 230 22:40 11.10.2019
6389 Drizzle 14 1002 93 7000 8.7 230 22:21 11.10.2019
6390 Drizzle 13 1003 93 3800 8.7 230 21:56 11.10.2019
6391 Drizzle 14 1003 93 3800 8.7 230 21:38 11.10.2019
6392 Drizzle 14 1003 87 6000 9.3 230 21:20 11.10.2019
6393 Drizzle 14 1003 87 10000 8.7 230 20:44 11.10.2019
6394 Drizzle 14 1004 87 10000 9.8 230 20:26 11.10.2019
6395 Drizzle 14 1004 87 10000 9.8 230 19:58 11.10.2019
6396 Drizzle 14 1004 87 10000 9.8 230 19:39 11.10.2019
6397 Clouds 14 1003 87 10000 9.3 220 19:18 11.10.2019
6398 Clouds 14 1003 87 10000 9.3 220 18:58 11.10.2019
6399 Clouds 14 1003 87 10000 9.3 220 18:38 11.10.2019
6400 Clouds 14 1003 87 10000 9.3 220 18:38 11.10.2019
6401 Clouds 15 1004 82 10000 10.3 220 18:19 11.10.2019
6402 Clouds 15 1004 82 10000 10.3 220 17:58 11.10.2019
6403 Clouds 15 1004 82 10000 10.3 220 17:38 11.10.2019
6404 Clouds 15 1004 82 10000 9.8 230 17:19 11.10.2019
6405 Clouds 15 1004 82 10000 9.8 230 16:56 11.10.2019
6406 Clouds 15 1004 82 10000 9.8 230 16:37 11.10.2019
6407 Clouds 15 1005 87 10000 8.7 230 16:19 11.10.2019
6408 Clouds 15 1005 87 10000 8.7 230 15:41 11.10.2019
6409 Clouds 15 1005 87 10000 8.7 230 15:41 11.10.2019
6410 Drizzle 15 1005 87 10000 8.2 230 15:20 11.10.2019
6411 Drizzle 15 1005 87 10000 8.2 230 14:58 11.10.2019
6412 Drizzle 14 1005 87 10000 8.2 230 14:38 11.10.2019
6413 Drizzle 14 1006 93 10000 7.7 230 14:19 11.10.2019
6414 Drizzle 14 1006 93 10000 7.7 230 14:19 11.10.2019
6415 Drizzle 14 1006 87 7000 8.2 230 13:44 11.10.2019
6416 Drizzle 13 1006 93 10000 8.2 220 13:25 11.10.2019
6417 Drizzle 13 1006 93 10000 8.2 220 12:57 11.10.2019
6418 Drizzle 13 1006 93 10000 8.2 220 12:38 11.10.2019
6419 Rain 13 1007 93 10000 7.7 230 12:20 11.10.2019
6420 Rain 13 1007 93 10000 7.7 230 11:58 11.10.2019
6421 Rain 14 1007 93 10000 7.7 230 11:38 11.10.2019
6422 Rain 13 1007 87 10000 7.2 230 11:20 11.10.2019
6423 Rain 13 1007 87 10000 7.2 230 10:54 11.10.2019
6424 Rain 14 1007 87 10000 7.2 230 10:36 11.10.2019
6425 Clouds 13 1006 87 10000 8.2 230 10:18 11.10.2019
6426 Clouds 13 1006 93 10000 8.2 230 09:41 11.10.2019
6427 Clouds 13 1006 93 10000 8.2 230 09:21 11.10.2019
6428 Clouds 13 1006 93 10000 8.2 230 08:56 11.10.2019
6429 Clouds 13 1006 93 10000 8.2 230 08:38 11.10.2019
6430 Clouds 13 1006 87 10000 8.7 230 08:20 11.10.2019
6431 Clouds 13 1006 87 10000 8.7 230 07:52 11.10.2019
6432 Clouds 12 1006 87 10000 6.2 220 07:33 11.10.2019
6433 Drizzle 12 1006 87 8000 7.7 220 06:50 11.10.2019
6434 Clouds 12 1006 81 10000 7.7 220 06:25 11.10.2019
6435 Clouds 13 1007 76 10000 7.2 220 05:47 11.10.2019
6436 Clouds 12 1007 81 10000 7.7 220 05:29 11.10.2019
6437 Clouds 12 1007 81 10000 7.7 220 04:58 11.10.2019
6438 Clouds 12 1008 81 10000 7.2 220 03:27 11.10.2019
6439 Clouds 12 1009 81 10000 6.7 230 01:18 11.10.2019
6440 Clouds 11 1010 81 10000 5.1 220 00:31 11.10.2019
6441 Clouds 11 1010 81 10000 5.1 220 23:58 10.10.2019
6442 Clouds 11 1010 81 10000 5.1 220 23:40 10.10.2019
6443 Clouds 11 1010 81 10000 5.1 230 23:19 10.10.2019
6444 Clouds 11 1010 81 10000 5.1 230 22:56 10.10.2019
6445 Clouds 11 1010 81 10000 4.6 230 22:36 10.10.2019
6446 Clouds 11 1010 81 10000 4.6 230 22:18 10.10.2019
6447 Clouds 11 1010 81 10000 4.6 230 21:42 10.10.2019
6448 Clouds 11 1010 81 10000 4.6 240 21:22 10.10.2019
6449 Clouds 11 1010 81 10000 5.1 250 20:58 10.10.2019
6450 Clouds 11 1010 81 10000 5.1 250 20:40 10.10.2019
6451 Rain 12 1009 76 10000 6.7 260 20:20 10.10.2019
6452 Rain 12 1009 76 10000 6.7 260 19:57 10.10.2019
6453 Rain 13 1009 76 10000 6.7 260 19:39 10.10.2019
6454 Clouds 13 1008 71 10000 6.7 260 19:19 10.10.2019
6455 Clouds 13 1008 71 10000 6.7 260 18:42 10.10.2019
6456 Clouds 14 1008 67 10000 7.2 260 18:21 10.10.2019
6457 Clouds 14 1008 67 10000 7.2 260 17:59 10.10.2019
6458 Clouds 14 1008 67 10000 7.2 260 17:40 10.10.2019
6459 Clouds 14 1008 76 10000 6.2 250 17:19 10.10.2019
6460 Clouds 14 1008 76 10000 6.2 250 16:57 10.10.2019
6461 Clouds 13 1008 76 10000 6.2 250 16:38 10.10.2019
6462 Clouds 13 1007 76 10000 6.7 250 16:20 10.10.2019
6463 Clouds 14 1007 76 10000 6.7 250 15:43 10.10.2019
6464 Rain 12 1007 81 10000 4.6 240 15:23 10.10.2019
6465 Rain 12 1007 81 10000 4.6 240 14:59 10.10.2019
6466 Rain 12 1007 81 10000 4.6 240 14:37 10.10.2019
6467 Rain 14 1006 71 6000 6.7 250 14:19 10.10.2019
6468 Clouds 13 1006 76 10000 6.7 250 13:58 10.10.2019
6469 Clouds 11 1006 76 10000 6.7 250 13:39 10.10.2019
6470 Clouds 11 1006 81 10000 6.7 240 13:18 10.10.2019
6471 Clouds 11 1006 81 10000 6.7 240 12:54 10.10.2019
6472 Clouds 13 1006 81 10000 6.7 240 12:36 10.10.2019
6473 Clouds 12 1006 87 10000 6.2 240 12:18 10.10.2019
6474 Clouds 11 1006 87 10000 6.2 240 11:41 10.10.2019
6475 Clouds 11 1006 93 10000 6.7 230 11:20 10.10.2019
6476 Clouds 11 1006 93 10000 6.7 230 11:20 10.10.2019
6477 Clouds 11 1005 87 10000 6.2 230 10:58 10.10.2019
6478 Clouds 10 1005 87 10000 6.2 230 10:40 10.10.2019
6479 Clouds 10 1005 93 10000 5.1 230 10:21 10.10.2019
6480 Clouds 10 1005 93 10000 5.1 230 09:54 10.10.2019
6481 Clouds 10 1005 93 10000 5.1 230 09:36 10.10.2019
6482 Clouds 10 1004 93 10000 3.1 240 09:18 10.10.2019
6483 Clouds 9 1004 93 10000 3.1 240 08:41 10.10.2019
6484 Rain 8 1004 93 10000 3.1 240 08:22 10.10.2019
6485 Rain 8 1004 93 10000 3.6 240 07:58 10.10.2019
6486 Rain 8 1004 93 10000 3.6 240 07:37 10.10.2019
6487 Rain 9 1003 93 10000 5.7 240 07:19 10.10.2019
6488 Rain 9 1003 93 10000 5.7 240 06:45 10.10.2019
6489 Clouds 8 1003 93 10000 4.6 240 05:57 10.10.2019
6490 Clouds 9 1002 87 10000 5.1 230 05:23 10.10.2019
6491 Clouds 9 1002 87 10000 5.1 230 04:37 10.10.2019
6492 Clouds 9 1002 93 10000 4.1 230 02:54 10.10.2019
6493 Clouds 10 1002 87 10000 3.6 230 01:42 10.10.2019
6494 Clouds 10 1002 87 10000 3.6 230 01:42 10.10.2019
6495 Clouds 10 1002 87 10000 4.1 240 01:23 10.10.2019
6496 Clouds 10 1002 87 10000 4.1 240 00:45 10.10.2019
6497 Clouds 10 1002 93 10000 4.1 220 00:20 10.10.2019
6498 Clouds 10 1002 93 10000 4.1 220 23:39 09.10.2019
6499 Clouds 10 1002 87 10000 3.1 230 23:20 09.10.2019
6500 Clouds 10 1002 87 10000 3.1 230 22:43 09.10.2019
6501 Clouds 10 1002 87 10000 3.1 220 22:24 09.10.2019
6502 Clouds 10 1002 87 10000 3.1 220 21:59 09.10.2019
6503 Clouds 10 1002 87 10000 3.1 220 21:59 09.10.2019
6504 Clouds 10 1002 87 10000 3.1 220 21:40 09.10.2019
6505 Clouds 9 1002 93 10000 3.1 230 21:20 09.10.2019
6506 Clouds 10 1002 87 10000 3.1 230 20:56 09.10.2019
6507 Clouds 10 1002 87 10000 3.1 230 20:56 09.10.2019
6508 Clouds 10 1002 87 10000 3.1 230 20:37 09.10.2019
6509 Clouds 10 1002 87 10000 3.1 230 20:37 09.10.2019
6510 Clouds 10 1002 81 10000 3.1 240 20:19 09.10.2019
6511 Clouds 10 1002 81 10000 3.1 240 19:57 09.10.2019
6512 Clouds 10 1002 81 10000 3.1 240 19:39 09.10.2019
6513 Clouds 11 1001 81 10000 3.6 220 19:20 09.10.2019
6514 Clouds 12 1001 81 10000 3.6 220 18:38 09.10.2019
6515 Clouds 12 1001 76 10000 4.1 240 18:19 09.10.2019
6516 Clouds 12 1001 76 10000 4.1 240 17:57 09.10.2019
6517 Rain 13 1002 76 10000 6.2 230 17:37 09.10.2019
6518 Rain 13 1002 76 10000 6.2 230 17:19 09.10.2019
6519 Rain 13 1002 76 10000 6.2 230 16:55 09.10.2019
6520 Rain 13 1002 76 10000 6.2 230 16:36 09.10.2019
6521 Clouds 13 1002 76 10000 5.1 240 16:18 09.10.2019
6522 Clouds 13 1002 76 10000 5.1 240 15:54 09.10.2019
6523 Clouds 13 1002 76 10000 5.1 240 15:36 09.10.2019
6524 Clouds 13 1002 76 10000 5.7 230 15:18 09.10.2019
6525 Clouds 13 1002 76 10000 5.7 230 15:18 09.10.2019
6526 Clouds 14 1002 76 10000 6.7 240 14:41 09.10.2019
6527 Clouds 14 1002 76 10000 7.2 220 14:18 09.10.2019
6528 Clouds 13 1002 76 10000 7.2 230 13:40 09.10.2019
6529 Clouds 13 1003 82 10000 6.2 230 13:22 09.10.2019
6530 Clouds 13 1003 82 10000 6.2 230 13:22 09.10.2019
6531 Clouds 13 1003 82 10000 6.7 220 12:59 09.10.2019
6532 Clouds 13 1003 82 10000 6.7 220 12:41 09.10.2019
6533 Clouds 13 1003 82 10000 5.7 230 12:22 09.10.2019
6534 Clouds 12 1003 87 10000 6.2 230 11:57 09.10.2019
6535 Clouds 12 1003 87 10000 6.2 230 11:37 09.10.2019
6536 Clouds 12 1003 87 10000 6.2 220 11:19 09.10.2019
6537 Clouds 12 1003 87 10000 6.2 220 10:55 09.10.2019
6538 Clouds 12 1003 87 10000 6.2 220 10:37 09.10.2019
6539 Clouds 11 1003 87 10000 6.2 220 10:18 09.10.2019
6540 Clouds 11 1003 87 10000 6.2 220 09:42 09.10.2019
6541 Clouds 10 1003 93 10000 5.7 220 09:19 09.10.2019
6542 Clouds 10 1003 93 10000 5.7 220 08:56 09.10.2019
6543 Clouds 10 1003 93 10000 5.7 220 08:37 09.10.2019
6544 Clouds 10 1003 93 10000 5.1 220 08:18 09.10.2019
6545 Clouds 10 1003 93 10000 5.1 220 07:42 09.10.2019
6546 Clouds 10 1003 93 10000 6.2 230 07:23 09.10.2019
6547 Clouds 11 1003 93 10000 6.2 230 06:52 09.10.2019
6548 Clouds 11 1002 87 10000 6.2 230 06:20 09.10.2019
6549 Clouds 11 1002 87 10000 6.2 230 05:46 09.10.2019
6550 Clouds 11 1002 87 10000 4.1 240 04:27 09.10.2019
6551 Rain 11 1002 93 7000 8.2 260 02:54 09.10.2019
6552 Clouds 12 1001 87 10000 6.2 230 01:48 09.10.2019
6553 Clouds 12 1001 87 10000 6.2 230 01:22 09.10.2019
6554 Clouds 12 1001 87 10000 6.2 230 00:58 09.10.2019
6555 Clouds 12 1001 87 10000 6.2 230 00:40 09.10.2019
6556 Clouds 12 1001 93 10000 5.7 220 00:21 09.10.2019
6557 Clouds 12 1001 93 10000 5.7 220 23:57 08.10.2019
6558 Clouds 11 1001 93 10000 5.7 220 23:36 08.10.2019
6559 Rain 11 1001 93 10000 5.1 230 23:18 08.10.2019
6560 Rain 11 1001 93 10000 5.1 230 22:39 08.10.2019
6561 Rain 12 1002 81 10000 4.6 240 22:20 08.10.2019
6562 Rain 12 1002 81 10000 4.6 240 22:20 08.10.2019
6563 Rain 12 1002 81 10000 4.6 240 21:58 08.10.2019
6564 Rain 12 1002 81 10000 4.6 240 21:39 08.10.2019
6565 Rain 12 1002 81 10000 4.1 250 21:19 08.10.2019
6566 Clouds 12 1002 81 10000 4.6 250 20:57 08.10.2019
6567 Clouds 13 1002 81 10000 4.6 250 20:39 08.10.2019
6568 Clouds 13 1002 82 10000 4.1 260 20:21 08.10.2019
6569 Clouds 13 1002 82 10000 4.1 260 19:59 08.10.2019
6570 Clouds 13 1002 82 10000 4.1 260 19:41 08.10.2019
6571 Clouds 14 1002 76 10000 5.1 260 19:23 08.10.2019
6572 Clouds 14 1002 76 10000 5.1 260 18:55 08.10.2019
6573 Clouds 14 1002 76 10000 5.1 260 18:37 08.10.2019
6574 Clouds 14 1002 82 10000 4.6 270 18:19 08.10.2019
6575 Clouds 14 1002 82 10000 4.6 270 17:55 08.10.2019
6576 Clouds 14 1002 82 10000 4.6 270 17:55 08.10.2019
6577 Clouds 14 1002 82 10000 4.6 270 17:36 08.10.2019
6578 Clouds 14 1002 82 10000 4.6 270 17:36 08.10.2019
6579 Clouds 15 1002 77 10000 4.6 270 17:18 08.10.2019
6580 Clouds 15 1002 77 10000 4.6 270 17:18 08.10.2019
6581 Clouds 15 1002 77 10000 4.6 270 16:40 08.10.2019
6582 Clouds 15 1002 77 10000 6.2 270 16:22 08.10.2019
6583 Clouds 15 1002 77 10000 6.2 270 15:56 08.10.2019
6584 Clouds 15 1002 77 10000 6.2 270 15:37 08.10.2019
6585 Clouds 15 1002 82 10000 4.6 260 15:19 08.10.2019
6586 Clouds 15 1002 82 10000 4.6 260 14:42 08.10.2019
6587 Clouds 15 1002 82 10000 5.7 260 14:21 08.10.2019
6588 Clouds 15 1002 82 10000 5.7 260 13:57 08.10.2019
6589 Clouds 15 1002 82 10000 5.7 260 13:39 08.10.2019
6590 Clouds 14 1002 87 10000 7.2 260 13:20 08.10.2019
6591 Clouds 14 1002 87 10000 7.2 260 12:59 08.10.2019
6592 Clouds 14 1002 87 10000 7.2 260 12:38 08.10.2019
6593 Clouds 14 1002 93 10000 6.2 260 12:19 08.10.2019
6594 Clouds 13 1002 93 10000 6.2 260 11:43 08.10.2019
6595 Clouds 13 1002 93 10000 6.2 250 11:24 08.10.2019
6596 Clouds 13 1002 93 10000 5.7 250 10:59 08.10.2019
6597 Clouds 13 1002 93 10000 5.7 250 10:40 08.10.2019
6598 Clouds 12 1002 93 10000 4.1 260 10:20 08.10.2019
6599 Drizzle 12 1002 93 3500 4.6 240 09:58 08.10.2019
6600 Drizzle 13 1002 93 3500 4.6 240 09:39 08.10.2019
6601 Clouds 12 1002 93 10000 4.1 240 09:20 08.10.2019
6602 Clouds 11 1003 100 6000 5.7 230 08:42 08.10.2019
6603 Clouds 11 1003 100 6000 5.7 230 08:42 08.10.2019
6604 Drizzle 11 1003 100 3700 5.7 230 08:24 08.10.2019
6605 Drizzle 11 1003 93 2000 6.2 230 07:45 08.10.2019
6606 Rain 11 1003 100 3800 5.7 200 07:22 08.10.2019
6607 Rain 11 1003 100 3800 5.7 200 06:56 08.10.2019
6608 Drizzle 11 1004 93 3500 5.1 190 06:32 08.10.2019
6609 Drizzle 11 1005 93 2000 5.1 190 05:57 08.10.2019
6610 Drizzle 11 1005 93 2000 5.1 190 05:57 08.10.2019
6611 Drizzle 11 1005 93 2000 5.1 190 05:36 08.10.2019
6612 Drizzle 11 1005 93 2000 5.1 190 05:36 08.10.2019
6613 Rain 10 1007 93 7000 4.6 190 04:36 08.10.2019
6614 Rain 10 1009 81 10000 3.6 200 03:29 08.10.2019
6615 Rain 10 1009 81 10000 3.6 200 02:39 08.10.2019
6616 Rain 10 1010 81 10000 4.6 180 01:49 08.10.2019
6617 Clouds 10 1011 76 10000 4.1 180 01:31 08.10.2019
6618 Clouds 10 1011 76 10000 4.1 180 01:31 08.10.2019
6619 Clouds 10 1011 76 10000 4.1 180 00:51 08.10.2019
6620 Clouds 10 1012 70 10000 4.1 160 00:22 08.10.2019
6621 Clouds 10 1012 70 10000 4.1 160 23:42 07.10.2019
6622 Clouds 9 1014 70 10000 3.1 150 23:21 07.10.2019
6623 Clouds 9 1014 70 10000 3.1 150 23:21 07.10.2019
6624 Clouds 9 1014 70 10000 3.1 150 22:58 07.10.2019
6625 Clouds 9 1014 70 10000 3.1 150 22:40 07.10.2019
6626 Clouds 9 1014 70 10000 3.1 140 22:21 07.10.2019
6627 Clouds 9 1014 70 10000 3.1 140 21:58 07.10.2019
6628 Clouds 9 1014 70 10000 3.1 140 21:40 07.10.2019
6629 Clouds 9 1016 70 10000 2.6 150 21:20 07.10.2019
6630 Clouds 9 1016 70 10000 2.6 150 20:58 07.10.2019
6631 Clouds 9 1016 70 10000 2.6 150 20:39 07.10.2019
6632 Clouds 9 1016 70 10000 2.1 140 20:20 07.10.2019
6633 Clouds 9 1016 70 10000 2.1 140 19:58 07.10.2019
6634 Clouds 9 1016 70 10000 2.1 140 19:40 07.10.2019
6635 Clouds 10 1017 66 10000 2.1 130 19:20 07.10.2019
6636 Clouds 10 1017 66 10000 2.1 130 19:20 07.10.2019
6637 Clouds 10 1017 66 10000 2.1 130 18:58 07.10.2019
6638 Clouds 10 1017 66 10000 2.1 130 18:38 07.10.2019
6639 Clouds 10 1017 57 10000 2.6 150 18:18 07.10.2019
6640 Clouds 11 1017 57 10000 2.6 150 17:43 07.10.2019
6641 Clouds 11 1017 53 10000 3.1 140 17:23 07.10.2019
6642 Clouds 11 1017 53 10000 3.1 140 17:23 07.10.2019
6643 Clouds 11 1017 53 10000 3.1 140 16:59 07.10.2019
6644 Clouds 11 1017 53 10000 3.1 140 16:41 07.10.2019
6645 Clouds 11 1018 53 10000 3.6 140 16:22 07.10.2019
6646 Clouds 11 1018 53 10000 3.6 140 15:46 07.10.2019
6647 Clouds 11 1019 50 10000 3.6 160 15:26 07.10.2019
6648 Clouds 11 1019 50 10000 3.6 160 14:58 07.10.2019
6649 Clouds 11 1019 50 10000 3.6 160 14:40 07.10.2019
6650 Clouds 11 1020 50 10000 4.1 150 14:21 07.10.2019
6651 Clouds 11 1020 50 10000 4.1 150 13:43 07.10.2019
6652 Clouds 10 1020 57 10000 4.6 140 13:21 07.10.2019
6653 Clouds 10 1020 57 10000 4.6 140 12:57 07.10.2019
6654 Clouds 10 1020 57 10000 4.6 140 12:39 07.10.2019
6655 Clouds 10 1021 66 10000 3.1 120 12:19 07.10.2019
6656 Clouds 10 1021 66 10000 3.1 120 11:58 07.10.2019
6657 Clouds 9 1021 66 10000 3.1 120 11:38 07.10.2019
6658 Clouds 8 1021 81 10000 2.1 100 11:20 07.10.2019
6659 Clouds 8 1021 81 10000 2.1 100 10:42 07.10.2019
6660 Clouds 7 1021 86 10000 2.1 100 10:21 07.10.2019
6661 Clouds 6 1021 86 10000 2.1 100 09:56 07.10.2019
6662 Clouds 7 1021 86 10000 2.1 100 09:38 07.10.2019
6663 Fog 5 1021 100 10000 2.1 90 09:19 07.10.2019
6664 Fog 6 1021 100 10000 2.1 90 08:42 07.10.2019
6665 Fog 5 1020 93 10000 1.5 120 08:20 07.10.2019
6666 Fog 6 1020 93 10000 1.5 120 07:47 07.10.2019
6667 Fog 5 1020 100 10000 2.6 100 07:27 07.10.2019
6668 Fog 5 1020 100 10000 2.6 100 06:57 07.10.2019
6669 Fog 6 1020 100 10000 2.6 100 06:38 07.10.2019
6670 Clear 5 1020 86 10000 2.6 80 06:18 07.10.2019
6671 Clear 3 1020 86 10000 2.1 70 05:26 07.10.2019
6672 Clear 3 1020 86 10000 2.1 70 04:49 07.10.2019
6673 Clear 2 1020 93 10000 1 90 03:46 07.10.2019
6674 Clear 2 1020 93 10000 1 90 03:46 07.10.2019
6675 Clear 3 1020 93 10000 2.1 100 03:27 07.10.2019
6676 Clear 6 1020 93 10000 2.1 100 02:37 07.10.2019
6677 Clear 5 1019 86 10000 2.1 80 02:18 07.10.2019
6678 Clear 5 1019 86 10000 2.6 90 01:23 07.10.2019
6679 Clear 7 1019 86 10000 2.6 90 00:51 07.10.2019
6680 Clouds 7 1019 81 10000 3.1 100 00:26 07.10.2019
6681 Clouds 7 1019 81 10000 3.1 100 23:59 06.10.2019
6682 Clouds 8 1019 81 10000 3.1 100 23:40 06.10.2019
6683 Clouds 7 1018 81 10000 3.6 100 23:20 06.10.2019
6684 Clouds 7 1018 81 10000 3.6 100 22:56 06.10.2019
6685 Clouds 8 1018 81 10000 3.6 100 22:37 06.10.2019
6686 Clouds 7 1018 87 10000 3.6 90 22:19 06.10.2019
6687 Clouds 7 1018 87 10000 3.6 90 21:55 06.10.2019
6688 Clouds 8 1018 87 10000 3.6 90 21:36 06.10.2019
6689 Clouds 9 1018 75 10000 4.1 100 21:18 06.10.2019
6690 Clouds 9 1018 75 10000 4.1 100 20:55 06.10.2019
6691 Clouds 9 1018 75 10000 4.1 100 20:36 06.10.2019
6692 Clouds 10 1017 76 10000 4.1 100 20:18 06.10.2019
6693 Clouds 10 1017 76 10000 4.1 100 19:55 06.10.2019
6694 Clouds 10 1017 76 10000 4.1 100 19:36 06.10.2019
6695 Clouds 10 1016 76 10000 3.6 100 19:18 06.10.2019
6696 Clouds 10 1016 76 10000 3.6 100 18:55 06.10.2019
6697 Clouds 10 1016 66 10000 5.7 100 18:36 06.10.2019
6698 Clouds 10 1016 66 10000 5.7 100 18:18 06.10.2019
6699 Clouds 10 1016 66 10000 5.7 100 18:18 06.10.2019
6700 Clouds 11 1016 66 10000 5.7 100 17:42 06.10.2019
6701 Clouds 11 1016 57 10000 6.2 110 17:20 06.10.2019
6702 Clouds 11 1016 57 10000 6.2 110 17:20 06.10.2019
6703 Clouds 11 1016 57 10000 6.2 110 16:55 06.10.2019
6704 Clouds 11 1016 57 10000 6.2 110 16:37 06.10.2019
6705 Clouds 11 1017 57 10000 5.7 130 16:18 06.10.2019
6706 Clouds 11 1017 57 10000 5.7 130 15:42 06.10.2019
6707 Clouds 11 1017 62 10000 6.7 120 15:21 06.10.2019
6708 Clouds 11 1017 62 10000 6.7 120 14:44 06.10.2019
6709 Clouds 10 1018 66 10000 6.2 120 14:26 06.10.2019
6710 Clouds 10 1018 66 10000 6.2 120 13:59 06.10.2019
6711 Clouds 10 1018 66 10000 6.2 120 13:40 06.10.2019
6712 Clouds 10 1018 71 10000 5.1 120 13:22 06.10.2019
6713 Clouds 10 1018 71 10000 5.1 120 12:59 06.10.2019
6714 Clouds 10 1018 71 10000 5.1 120 12:40 06.10.2019
6715 Clouds 10 1019 76 10000 4.6 130 12:21 06.10.2019
6716 Clouds 10 1019 76 10000 4.6 130